GFSMW_sfc_wetblb_000.txt.gz
Wetbulb
56.27 57.45 58.46 59.27 60.33 62.01 62.45 62.78 62.97 64.22 65.12 65.51 65.18 65.08 64.71 65.42 65.71 66.06 66.13 65.72 65.16 64.73 64.07 63.76 63.93 63.79 62.02 61.63 61.58 61.00 60.01 59.89 59.99 57.89 57.94 58.82 59.79 59.39 59.22 58.77 57.59 56.92 56.58
53.09 54.02 54.57 56.19 57.63 59.09 61.17 62.35 62.88 63.60 64.39 64.93 65.63 65.64 65.50 65.62 65.70 65.87 65.63 65.48 65.17 65.27 64.90 64.39 64.08 64.03 63.02 62.36 61.89 61.41 59.96 59.75 60.35 56.65 55.60 52.40 56.07 57.80 57.75 57.76 56.52 56.31 56.40
51.34 52.28 53.28 54.20 55.68 57.33 58.65 60.14 61.72 62.93 63.97 64.67 65.09 65.23 65.27 64.84 63.98 64.60 64.79 64.93 65.18 65.40 65.35 64.98 64.71 64.45 63.98 62.84 62.86 62.46 60.86 59.04 59.87 59.39 56.46 52.58 50.75 53.73 56.04 55.51 55.80 55.74 56.45
52.75 52.93 53.11 53.72 54.96 56.44 58.11 58.52 59.58 60.68 62.04 63.98 63.68 63.48 62.69 61.61 63.24 63.86 64.85 64.98 65.25 65.23 65.49 65.35 65.09 64.86 64.43 63.59 63.82 63.24 62.13 60.67 58.49 58.53 57.58 57.91 56.49 52.20 51.07 56.24 56.68 57.62 56.45
54.00 54.14 53.82 53.87 54.86 55.82 56.01 56.88 56.81 57.36 58.89 60.81 62.60 62.94 62.38 62.96 63.66 63.80 63.39 63.90 64.71 65.00 65.07 65.21 64.96 64.60 64.99 64.54 63.98 63.49 62.30 61.82 59.07 57.44 56.43 54.64 53.76 52.89 50.83 51.30 54.26 56.92 57.28
54.68 54.30 54.81 55.03 54.90 56.00 56.38 56.74 56.17 56.66 58.00 58.66 59.85 61.51 61.65 62.08 61.90 62.50 62.37 62.71 63.33 63.73 64.04 64.58 64.66 64.68 64.24 63.96 63.91 63.76 62.79 60.88 59.63 57.67 57.19 56.06 55.20 52.92 49.41 49.47 52.66 53.95 56.02
54.32 53.53 52.60 53.31 53.74 53.65 54.52 54.65 55.73 56.25 58.43 59.81 60.52 61.14 61.69 62.27 62.06 62.41 62.67 62.81 63.09 62.97 63.06 63.62 63.72 64.14 64.19 63.98 64.02 63.71 62.73 59.97 57.80 57.13 56.92 57.38 57.19 58.28 54.66 54.35 53.77 53.42 55.65
53.86 52.85 52.16 52.52 52.97 52.87 53.40 53.71 53.74 54.06 55.28 57.62 59.58 61.16 62.00 62.16 62.48 62.86 63.12 63.31 63.58 64.14 64.79 64.28 64.07 64.04 63.80 63.35 63.29 63.42 62.87 61.65 58.85 57.62 57.16 57.24 57.48 58.92 59.07 55.53 54.23 52.41 53.18
52.72 52.15 52.20 52.22 52.71 52.75 53.08 53.40 53.48 53.59 53.74 54.29 55.55 57.40 59.97 61.19 61.68 62.57 63.26 63.38 63.79 63.64 64.47 64.69 63.99 63.89 63.97 63.58 63.23 62.94 61.85 61.55 60.79 58.68 57.75 57.45 58.30 59.37 59.50 59.23 57.14 54.92 51.96
51.37 51.04 51.69 52.00 52.74 52.95 53.39 53.89 54.03 53.47 53.57 53.97 54.67 54.75 55.44 56.74 58.60 59.92 60.50 61.58 62.44 62.90 63.28 63.44 63.61 63.53 63.49 63.62 63.15 62.67 62.35 61.53 60.87 59.44 58.67 58.07 58.07 58.25 59.07 57.91 57.32 56.49 54.69
49.73 50.56 51.29 52.22 52.80 53.36 53.47 53.85 54.17 54.29 54.25 53.87 53.94 54.43 54.94 55.64 56.11 56.53 57.66 58.66 59.68 60.30 60.70 61.35 61.76 62.21 62.38 62.77 62.62 62.35 61.94 60.93 61.06 60.27 59.29 59.13 59.16 58.19 58.16 56.18 55.08 54.09 53.11
49.92 51.15 51.51 52.09 52.45 52.60 53.33 53.67 54.08 54.11 54.35 53.96 54.01 54.25 54.34 54.56 54.72 55.22 56.00 56.81 57.03 58.17 58.78 59.79 60.22 60.67 61.14 61.51 61.39 61.17 61.19 60.85 60.29 60.01 59.84 59.05 58.71 58.64 58.68 56.57 55.01 54.01 53.90
50.27 51.29 51.53 51.73 52.22 52.58 53.01 53.31 53.67 53.76 54.32 54.11 53.88 54.22 54.53 54.53 54.42 54.39 54.58 54.97 55.39 56.25 56.97 57.52 57.91 58.82 59.86 60.45 60.99 60.84 60.89 61.26 61.18 60.63 59.35 59.70 59.24 58.32 58.31 57.48 55.80 55.38 53.73
48.92 50.44 51.58 52.20 52.68 53.05 53.10 52.89 53.17 53.68 54.01 53.79 53.82 53.96 54.02 54.13 54.19 54.45 54.51 54.52 54.53 54.50 55.15 56.02 56.54 57.43 58.33 59.17 60.03 60.48 60.87 60.45 60.90 60.66 60.59 59.62 58.68 58.53 58.28 57.15 56.17 55.67 54.23
49.26 49.92 49.83 50.52 51.99 52.48 52.70 52.79 52.75 52.96 53.22 52.79 52.67 52.98 53.33 53.56 53.51 53.64 53.87 54.38 54.62 54.64 54.76 54.27 55.23 56.42 57.15 58.07 59.07 60.14 59.98 59.89 60.07 59.95 60.08 59.40 57.75 54.82 57.57 56.66 55.79 55.58 55.40
47.65 48.63 49.53 50.33 51.07 52.01 51.67 51.43 51.74 51.79 52.44 51.95 51.71 52.27 52.16 52.28 52.37 52.73 52.83 53.12 53.71 54.50 54.71 54.52 54.37 54.55 56.01 53.99 53.39 55.38 58.98 59.15 58.75 58.54 59.10 59.16 53.25 53.74 53.72 53.81 53.83 55.71 54.92
47.13 48.07 49.44 50.45 50.91 51.49 50.21 49.79 50.65 51.37 50.76 50.30 50.79 50.60 50.41 50.06 50.39 50.98 51.49 52.02 52.54 53.36 53.18 53.66 54.24 54.23 54.91 52.53 53.02 52.49 56.39 57.81 58.17 57.95 57.94 57.96 57.44 54.34 56.46 53.49 53.26 53.09 52.77
47.14 48.60 50.17 50.99 51.17 49.02 48.40 48.49 48.31 48.54 48.37 49.06 47.97 48.08 47.76 47.64 48.47 48.98 49.24 50.00 50.82 51.17 51.67 52.36 52.81 53.48 53.94 50.79 51.69 51.83 56.48 57.24 57.49 57.71 57.49 57.80 57.63 56.04 55.61 53.78 52.06 51.61 48.41
48.84 49.97 47.93 46.16 46.63 45.83 45.57 44.82 45.48 45.68 46.27 46.01 45.19 45.33 45.44 45.67 46.35 46.57 47.15 48.09 48.58 49.11 49.88 51.04 51.17 51.54 53.00 49.90 49.74 51.35 55.68 55.47 55.78 56.52 56.78 57.16 57.19 55.18 52.12 52.63 46.97 41.76 38.95
45.11 44.39 43.67 42.51 41.88 43.40 43.10 42.52 43.48 43.34 43.83 43.43 43.66 44.18 44.28 44.47 44.39 45.15 45.73 46.93 47.33 47.57 48.74 49.29 50.53 50.08 51.06 50.19 49.41 50.28 54.34 54.08 54.21 55.19 55.87 52.25 55.50 52.80 51.08 50.74 44.91 41.02 38.23
42.93 42.06 41.11 41.07 41.22 41.01 39.91 39.16 39.98 40.03 40.53 40.83 40.94 41.74 42.05 42.01 42.24 43.30 44.73 45.24 45.63 46.04 46.49 47.54 48.91 49.76 49.91 50.91 49.35 49.76 51.86 52.55 53.10 53.51 53.57 54.07 50.62 50.03 49.58 49.43 46.12 44.15 39.19
40.41 39.92 39.19 39.04 39.60 39.69 38.48 37.43 37.45 39.28 39.49 39.34 39.15 39.27 39.70 40.50 41.02 40.84 42.25 43.71 44.15 44.02 44.54 45.22 46.34 47.94 48.57 48.24 48.23 48.87 48.87 49.74 51.33 52.29 53.36 51.73 48.01 47.52 47.34 46.68 46.24 42.68 40.27
37.82 38.11 36.94 36.30 37.44 37.62 36.75 34.92 35.89 36.92 37.16 36.95 36.86 37.25 37.57 38.49 39.46 38.69 38.90 41.42 42.12 41.97 41.62 42.12 43.45 43.70 45.39 47.26 46.51 47.19 48.50 48.01 48.64 50.83 51.37 47.88 46.23 46.41 45.70 45.69 43.75 40.34 34.49
34.31 35.43 34.62 33.56 33.65 34.44 34.34 34.48 35.06 35.77 35.58 35.02 35.11 35.83 35.35 36.34 37.48 37.92 37.98 38.57 38.83 39.72 39.66 39.95 39.98 41.09 42.16 44.35 46.26 45.71 45.41 45.66 46.85 45.78 46.25 45.78 45.75 44.67 42.03 41.03 39.08 34.64 33.56
33.22 33.46 32.15 31.78 31.83 32.97 33.20 34.03 34.20 34.54 33.43 33.59 33.84 34.20 34.82 34.93 36.18 36.54 36.28 36.64 38.29 39.39 39.19 39.88 40.08 39.81 38.93 41.27 43.20 42.71 42.76 43.53 45.48 42.79 43.00 41.83 38.98 37.82 37.64 34.23 33.49 32.98 33.19
31.98 30.64 30.81 30.80 31.06 31.65 32.09 32.82 33.55 33.51 32.29 31.68 32.39 33.10 33.39 33.96 35.25 34.36 34.70 37.65 38.70 39.97 39.56 39.82 40.42 40.86 41.15 42.11 42.19 42.31 43.13 43.88 45.05 41.37 39.95 37.35 36.43 35.74 33.53 31.90 31.83 31.77 30.53

GFSMW_sfc_wetblb_003.txt.gz
Wetbulb
55.49 56.22 57.43 59.08 60.18 60.73 61.98 62.61 62.93 64.13 65.19 65.65 65.51 65.01 65.07 66.00 66.42 66.86 66.39 66.28 66.02 65.53 64.84 64.26 64.02 64.49 62.84 62.01 62.28 61.80 60.73 60.36 61.01 58.87 58.76 59.10 59.28 58.92 59.28 59.78 59.23 58.08 57.11
53.70 54.73 55.61 56.37 56.18 57.61 59.49 60.97 62.49 63.06 63.76 64.90 65.83 66.06 65.61 65.98 66.46 66.81 66.67 66.32 66.35 66.17 65.53 64.88 64.35 64.67 64.09 63.28 62.43 61.98 60.78 60.65 61.13 57.52 56.58 53.10 55.52 57.84 58.92 59.44 58.80 58.55 58.30
53.88 54.17 54.89 55.84 57.24 57.23 57.93 58.75 60.54 62.48 63.58 64.80 65.10 65.48 65.97 66.22 65.35 65.60 65.72 66.04 66.16 66.09 65.88 65.59 65.24 65.02 64.90 63.87 63.63 62.89 61.17 58.93 60.38 60.22 56.84 52.44 50.76 53.79 56.90 56.33 55.67 55.63 55.28
54.72 54.96 55.15 55.39 56.13 56.83 58.11 58.84 59.67 60.81 62.07 63.86 63.89 63.94 63.71 63.08 64.49 65.03 65.64 66.05 66.31 65.82 65.76 65.79 65.82 65.55 65.45 64.68 64.32 63.82 62.43 61.49 59.09 60.19 59.04 58.61 57.00 53.01 51.64 55.66 55.53 55.43 55.68
54.56 54.13 54.86 55.64 55.95 57.63 58.35 58.35 57.92 57.98 59.45 60.97 62.35 63.43 63.38 64.59 65.25 64.82 64.33 64.67 65.57 66.03 65.79 65.70 65.72 65.62 65.58 65.55 65.03 64.26 63.16 62.85 60.97 60.08 58.46 57.39 56.64 56.49 53.85 51.44 53.41 55.35 56.11
54.60 54.50 55.45 55.93 55.56 57.34 57.64 58.40 57.85 58.25 59.73 60.07 59.55 59.81 61.66 62.31 62.51 62.92 62.90 63.69 64.32 64.86 65.46 65.43 65.56 65.93 65.71 65.42 65.42 65.24 64.15 62.93 62.14 61.57 60.37 57.29 54.39 52.61 52.34 51.23 52.55 52.72 55.06
54.19 53.58 53.89 54.44 54.62 55.34 56.58 56.04 56.23 55.18 56.30 57.76 60.21 61.15 61.25 61.54 61.68 62.14 62.48 62.53 63.28 63.82 64.20 64.75 64.58 65.05 65.53 65.63 65.45 64.98 64.46 63.98 62.73 61.84 60.71 59.83 58.43 57.41 55.21 53.06 52.79 52.41 54.21
53.98 53.35 53.71 54.54 54.56 54.74 55.18 55.43 55.31 54.90 55.48 55.88 56.01 57.27 59.77 61.15 61.92 62.48 62.95 63.17 63.48 64.30 65.63 65.06 64.68 64.58 65.09 65.18 65.07 64.51 64.20 64.09 63.38 62.35 60.80 59.49 58.71 58.53 57.31 55.10 52.25 51.37 53.08
52.53 52.60 53.46 53.91 54.09 54.54 55.12 55.69 55.74 55.77 55.66 55.52 55.73 55.78 56.15 56.35 57.63 59.31 60.78 62.13 62.99 63.57 64.14 64.77 65.00 64.94 64.63 64.63 64.30 63.49 63.15 63.60 63.32 62.13 60.87 59.50 59.32 59.14 58.61 57.88 56.62 53.22 50.46
52.14 52.76 53.34 53.78 54.34 54.71 55.36 55.78 55.62 55.26 55.75 55.76 55.95 55.66 55.64 55.80 56.19 56.49 56.39 57.54 58.78 60.01 61.07 62.00 62.86 63.54 64.07 64.18 63.95 63.51 63.33 62.72 62.57 62.06 61.17 59.90 59.54 59.27 58.90 58.14 57.85 57.04 54.35
51.72 52.44 53.13 53.85 54.34 54.88 55.02 55.04 55.16 55.18 55.33 55.40 55.42 55.62 55.77 55.91 55.99 55.59 55.61 56.00 56.33 56.75 57.24 58.02 59.03 60.05 61.03 62.20 62.59 62.54 62.69 62.13 61.98 62.02 61.23 60.24 59.95 59.01 58.69 58.66 57.81 57.05 56.13
51.70 52.66 52.90 53.51 54.03 54.13 54.56 54.58 54.84 54.64 55.03 55.32 55.26 55.41 55.76 55.69 55.38 55.38 55.72 55.89 55.31 55.80 55.76 56.12 56.40 57.13 58.19 59.67 60.10 60.48 61.09 60.95 60.95 61.10 60.85 60.15 59.51 58.92 58.98 58.20 57.22 56.63 56.51
51.47 52.39 52.88 53.06 53.37 53.93 54.10 53.99 54.11 53.83 54.17 54.33 54.19 54.40 54.88 54.92 54.83 55.00 55.42 55.71 55.56 55.52 55.60 55.45 55.00 55.17 55.86 56.76 58.25 59.09 59.97 60.34 60.49 60.66 60.37 60.24 60.10 58.67 58.46 58.20 57.20 56.47 55.92
49.93 50.91 51.52 51.58 51.96 52.72 53.37 53.15 53.02 53.55 53.67 53.48 53.43 53.07 53.13 53.46 53.68 54.16 54.40 54.55 54.86 54.55 54.83 55.43 55.41 55.15 55.13 55.59 56.14 56.97 58.00 58.73 59.60 60.19 60.04 60.22 59.97 59.33 58.81 57.97 57.34 56.53 55.27
49.85 50.05 49.68 50.08 50.60 50.98 52.41 52.90 53.04 52.81 52.79 52.24 52.09 52.36 52.86 52.85 52.55 52.71 53.03 53.34 53.67 54.14 54.70 54.65 54.86 55.24 55.30 54.85 55.25 55.98 56.44 56.97 57.72 58.92 59.45 59.53 57.92 55.35 57.54 58.25 57.70 56.85 55.39
48.27 48.53 49.05 49.54 50.03 51.01 52.04 51.24 51.18 50.83 51.02 50.25 49.98 51.01 50.60 50.47 50.34 50.51 50.69 51.11 51.46 52.13 52.76 53.11 53.66 53.89 54.34 52.15 51.37 52.07 54.24 54.84 55.64 56.02 57.61 58.41 54.23 54.59 53.98 54.52 54.63 56.80 55.56
47.75 47.52 48.25 49.10 50.42 51.01 50.42 48.83 48.11 47.93 47.85 47.68 48.78 48.17 47.77 47.49 47.99 48.82 49.04 49.21 49.43 50.24 50.18 51.03 51.63 52.06 53.27 51.73 51.42 50.53 52.76 53.12 53.88 54.97 55.70 56.14 57.18 55.01 57.45 55.05 53.49 53.66 53.53
47.03 47.66 49.02 48.92 48.45 48.58 47.62 46.35 46.19 46.38 46.00 45.80 46.30 46.42 46.12 45.74 46.30 46.72 46.75 47.06 47.83 48.31 48.60 49.18 50.16 50.53 51.59 50.19 49.77 49.59 51.68 52.63 53.33 54.36 54.90 55.33 55.51 56.49 56.49 55.96 55.24 53.71 54.24
47.91 47.51 47.55 46.72 46.00 45.47 44.56 43.08 42.57 43.36 42.97 43.16 42.24 42.29 42.78 43.20 43.57 43.52 43.57 44.44 45.57 46.23 47.04 47.79 48.43 48.88 50.11 49.04 48.57 49.03 50.65 50.74 51.71 53.13 53.78 54.20 55.03 54.32 52.98 54.27 53.07 51.40 46.25
46.36 44.80 44.17 43.49 43.55 42.66 41.90 40.40 40.11 40.15 40.41 40.33 40.48 41.22 41.71 41.62 41.32 41.91 42.27 43.27 43.73 44.75 45.93 46.21 47.40 47.78 47.98 48.01 47.99 47.91 48.40 47.25 48.44 50.09 51.11 50.61 52.28 52.78 52.29 53.49 52.43 44.37 39.54
43.99 42.78 41.93 41.17 40.82 40.79 40.04 38.24 37.96 37.46 38.21 38.53 38.91 39.36 39.86 39.93 39.98 40.13 41.54 41.13 41.13 42.22 43.86 44.16 44.95 44.81 45.01 45.93 46.75 46.91 46.55 46.20 46.38 47.13 47.16 49.73 50.46 51.20 51.27 51.43 51.72 47.05 39.93
40.96 40.28 39.04 38.17 38.50 38.56 37.09 35.31 34.42 35.96 36.23 36.69 37.02 37.68 38.11 38.35 38.30 38.13 38.86 39.32 38.99 39.49 40.73 41.41 41.60 42.58 42.88 43.69 44.70 45.60 46.23 45.73 43.38 43.34 45.14 47.07 47.86 48.51 49.62 49.81 51.46 47.78 41.53
37.56 37.32 36.30 35.34 35.56 35.54 34.64 32.79 33.81 34.72 34.84 34.69 34.73 35.40 36.16 36.53 37.12 36.23 36.81 37.07 37.80 37.60 37.43 37.94 37.64 38.18 40.21 41.23 43.24 44.11 44.07 43.42 41.97 43.18 43.97 45.16 45.80 46.35 48.27 48.65 46.40 42.97 37.39
34.21 34.20 33.51 32.22 32.16 33.40 33.38 33.26 33.74 34.14 33.56 32.78 33.24 33.89 33.93 34.52 35.20 35.45 36.18 36.34 35.85 35.37 35.96 35.27 35.92 36.84 37.37 39.06 40.27 40.00 39.87 41.06 40.83 42.04 42.79 43.95 44.62 45.75 45.73 44.14 42.01 37.07 36.28
32.77 33.09 31.44 31.09 31.24 32.22 32.08 32.82 33.14 33.01 31.96 32.06 32.28 32.43 32.95 32.85 32.92 33.97 34.19 35.06 35.55 36.00 34.23 34.98 36.11 34.76 35.42 37.90 40.23 39.56 38.28 38.61 40.53 42.02 42.33 42.15 40.10 37.91 37.33 37.53 33.65 33.86 34.63
31.57 30.80 30.94 30.65 30.63 30.99 31.15 31.88 32.68 32.35 31.31 30.59 31.09 31.43 31.44 31.82 31.94 32.28 32.88 36.34 36.55 37.10 37.46 37.85 37.18 37.68 39.53 40.36 39.77 39.22 39.46 40.40 42.09 42.29 41.98 39.43 36.62 36.45 36.51 32.61 31.97 32.93 32.78

GFSMW_sfc_wetblb_006.txt.gz
Wetbulb
50.73 51.86 52.29 52.63 52.39 52.91 54.92 57.50 58.29 60.21 60.81 60.63 60.68 61.34 61.63 61.47 62.25 63.27 63.44 63.34 63.00 62.18 61.33 61.00 60.58 60.56 59.21 58.04 58.21 57.83 56.47 56.46 55.67 54.15 53.88 54.17 54.82 53.86 54.10 54.00 54.27 54.53 53.95
49.91 50.98 51.91 52.45 52.78 52.92 53.18 53.86 56.45 58.24 59.63 60.55 61.24 61.61 61.98 62.49 63.16 63.53 63.95 64.13 63.60 63.18 62.24 61.47 60.91 60.67 60.54 59.87 58.37 58.07 57.22 57.27 56.57 54.98 52.26 51.67 52.43 55.00 56.21 56.77 56.70 56.40 56.69
49.46 50.12 50.49 51.15 51.88 52.31 52.49 54.33 54.85 55.99 58.68 59.70 60.44 60.46 60.98 60.86 60.48 61.53 61.90 62.69 63.12 63.16 62.89 62.41 61.83 61.21 61.12 60.66 60.37 58.91 57.60 56.57 57.13 58.39 55.73 50.98 49.09 48.83 52.16 54.39 55.96 56.28 53.43
49.62 50.57 50.92 50.47 50.83 52.17 53.38 53.94 54.05 54.35 56.29 58.04 58.74 58.68 58.36 58.32 59.91 60.53 61.39 61.97 62.79 63.07 63.27 63.10 62.56 62.11 62.09 61.43 61.41 61.50 60.10 59.50 57.64 58.17 58.65 57.80 53.67 50.44 48.85 50.83 50.47 51.26 52.03
49.21 50.00 50.88 51.97 52.14 52.25 51.90 52.46 53.73 54.19 54.71 54.31 54.40 55.58 57.98 58.95 59.94 60.48 60.11 60.16 60.99 63.10 63.15 63.05 62.56 62.47 62.77 62.88 62.26 62.34 61.85 61.22 59.54 58.62 57.92 57.45 56.37 55.66 52.96 51.09 52.81 52.93 53.23
49.17 50.35 51.69 52.11 51.25 51.57 51.55 51.50 51.61 51.83 52.48 54.15 55.71 55.22 53.92 54.23 55.30 56.24 56.90 57.76 58.81 59.76 61.45 62.54 62.52 62.62 62.70 62.75 62.82 62.85 62.34 61.44 60.64 59.97 59.40 58.15 55.64 54.91 54.10 52.69 52.78 52.62 54.48
48.57 49.10 49.53 49.88 50.42 50.38 50.85 51.72 51.30 50.91 51.48 51.52 51.56 51.83 53.02 55.40 56.51 56.97 57.19 57.56 57.87 58.36 59.29 60.23 61.54 62.17 62.46 62.87 63.14 63.17 62.83 62.13 61.16 60.05 59.42 59.39 58.84 58.14 55.87 54.20 52.97 51.66 53.09
48.40 48.93 49.52 49.47 49.56 50.63 50.99 51.22 51.57 51.42 51.60 51.30 51.13 51.13 51.24 51.50 52.71 53.95 54.61 56.19 57.47 58.73 59.93 60.33 60.61 60.84 61.82 62.27 62.81 63.22 63.00 62.84 62.44 61.44 60.60 60.08 60.19 59.99 58.57 55.81 53.59 51.47 52.51
47.87 48.50 49.12 49.19 49.41 49.87 50.52 50.76 50.78 51.08 51.38 51.12 51.07 50.90 51.01 50.64 50.59 51.16 51.42 52.29 53.03 55.12 55.06 56.21 58.33 59.65 61.67 62.04 62.00 61.67 62.21 62.19 62.34 61.64 61.46 61.45 61.22 60.57 59.40 58.40 57.15 54.53 51.00
48.35 48.59 48.92 49.40 49.59 49.65 50.41 50.52 50.77 50.74 51.17 51.01 50.63 51.28 51.10 51.37 51.25 51.01 50.60 50.84 51.18 51.70 51.96 52.49 53.13 54.27 56.21 58.23 59.80 60.93 61.29 60.96 61.44 61.50 61.28 61.38 61.42 60.67 59.45 58.27 57.58 56.83 54.68
47.84 48.29 48.69 49.41 49.81 49.87 49.97 50.07 50.16 50.25 50.20 50.54 50.45 50.18 50.65 51.25 51.25 51.16 51.60 51.90 52.13 51.91 51.73 51.58 51.52 51.76 52.39 53.73 54.82 56.46 58.13 59.27 59.91 60.34 60.41 60.40 60.97 60.08 59.20 58.51 57.88 56.68 56.24
48.23 48.59 48.71 49.04 48.93 49.31 49.73 49.32 49.46 49.26 49.79 50.13 50.15 50.09 50.26 50.19 49.72 49.96 50.82 51.72 51.46 52.30 52.35 52.42 52.47 52.55 52.11 52.42 52.49 53.38 54.68 55.44 56.05 57.54 58.88 58.98 59.72 59.56 59.60 58.52 57.40 56.93 56.88
48.15 48.61 48.58 48.82 48.59 48.59 49.37 49.29 49.28 49.30 50.07 50.09 49.65 49.43 49.16 48.94 48.69 49.44 50.48 51.04 50.93 50.92 51.31 51.76 51.67 52.09 52.54 52.51 52.42 52.63 52.95 53.57 54.70 55.64 56.08 57.20 58.09 58.16 58.51 58.64 57.93 57.24 56.60
47.91 47.02 46.57 46.04 46.49 46.92 48.33 48.88 49.28 49.56 49.44 49.20 48.32 47.66 47.87 47.63 47.67 48.16 48.52 48.87 49.24 49.12 49.53 49.98 50.40 50.98 51.63 52.07 52.17 52.03 51.38 52.01 53.05 54.06 54.88 55.78 56.22 56.90 57.80 57.86 57.86 57.34 56.53
47.14 46.10 45.34 45.02 45.51 46.58 48.21 48.25 48.23 47.51 46.66 46.34 46.03 46.48 47.08 46.62 46.43 46.17 46.48 47.16 47.47 47.79 48.01 48.01 48.39 48.99 49.85 50.89 50.66 50.59 50.60 50.19 50.39 51.31 52.27 53.25 53.13 51.57 54.30 56.77 57.39 57.25 56.20
45.86 45.90 45.64 44.84 45.49 46.40 47.12 46.84 45.85 45.07 45.09 43.99 44.14 45.72 45.10 44.83 44.52 44.52 44.83 45.42 45.53 45.63 45.87 45.94 46.79 46.71 48.64 49.44 49.93 50.04 49.31 49.00 49.09 49.31 50.55 51.66 50.97 52.88 53.48 53.78 53.45 55.03 55.59
44.78 44.39 44.57 45.81 45.54 44.88 45.44 42.71 42.39 43.06 44.04 42.67 43.35 42.98 42.06 41.59 42.02 42.64 42.45 42.32 41.77 42.22 43.06 44.02 44.93 45.21 45.99 48.56 49.62 49.38 47.84 47.97 47.88 48.46 49.15 50.06 52.20 51.39 53.36 53.91 53.88 53.59 53.29
45.05 44.88 44.08 43.51 43.41 43.63 42.87 40.54 40.29 39.99 39.98 39.94 39.79 39.92 39.76 39.27 39.53 39.55 39.31 39.42 40.06 40.07 40.28 41.56 43.19 43.74 45.42 47.55 48.10 47.63 46.09 45.01 45.87 46.51 46.58 48.60 49.35 51.12 51.86 52.43 52.49 53.50 54.70
43.39 43.03 42.23 41.48 40.82 40.09 38.78 38.05 37.55 37.53 37.66 37.36 36.64 37.50 37.72 37.05 37.27 36.92 36.68 37.03 37.87 38.06 38.32 39.63 40.69 41.97 42.82 44.86 45.81 44.02 42.37 43.21 43.63 45.74 46.00 46.63 46.71 47.86 49.55 49.49 49.99 50.62 52.73
43.89 40.85 39.84 39.69 38.71 37.61 36.99 35.56 34.90 34.03 33.66 34.21 34.62 35.35 35.71 35.36 34.75 34.92 34.85 35.62 36.32 36.54 37.63 37.28 39.33 41.66 39.74 42.80 44.05 42.94 41.59 39.75 41.46 41.92 42.10 44.49 45.04 46.38 46.76 46.73 47.28 48.07 49.91
40.01 40.76 39.65 36.65 34.80 35.01 33.98 32.11 31.17 30.13 32.19 33.24 33.36 33.39 33.77 33.56 34.01 33.88 34.19 33.96 33.87 35.10 34.98 35.48 36.70 37.06 37.97 37.80 42.31 42.32 40.15 39.54 37.94 36.72 38.62 41.15 44.04 44.69 45.00 45.19 44.82 45.36 49.22
39.04 37.55 35.17 34.04 33.82 33.75 31.31 29.29 28.54 31.40 32.43 32.36 32.11 31.92 32.08 32.64 33.27 31.84 32.28 32.38 32.22 31.95 33.25 33.51 33.75 35.70 35.15 39.43 39.85 41.43 42.40 41.30 36.78 36.01 37.15 39.51 41.60 42.65 43.55 44.28 45.81 46.73 47.59
34.67 33.90 32.31 31.47 31.55 31.96 30.39 27.99 29.08 30.58 30.91 30.52 30.17 30.36 30.93 31.11 31.39 30.58 30.34 30.08 31.09 30.82 31.32 31.35 31.39 31.25 33.36 35.11 38.35 40.11 40.96 39.90 37.08 36.73 38.48 40.98 41.96 42.75 43.24 44.14 44.71 46.10 40.57
32.31 31.96 30.71 29.52 28.73 29.67 29.91 29.00 29.31 30.25 29.72 28.54 28.65 29.31 29.09 30.09 30.00 30.65 30.73 29.75 29.30 30.01 30.26 29.77 29.37 30.45 31.87 32.78 34.69 36.42 36.61 37.79 36.06 37.42 38.47 41.27 43.42 44.51 44.17 43.69 43.52 38.59 36.96
30.73 30.10 28.60 28.20 27.60 27.69 27.69 28.44 29.47 29.52 28.45 28.29 28.27 28.29 28.98 28.45 28.53 29.34 28.97 29.23 30.81 32.16 30.87 30.67 30.88 29.94 30.08 32.63 37.71 37.33 35.17 34.54 35.72 38.39 39.00 38.95 38.06 38.96 39.43 36.95 33.56 33.80 35.23
29.13 28.08 27.57 26.68 26.57 26.75 27.13 28.42 29.39 28.76 27.54 27.14 27.43 27.50 27.84 27.66 27.88 27.43 27.85 32.92 33.52 34.23 35.75 35.93 35.13 33.52 35.72 36.54 37.64 37.63 37.13 37.70 38.84 35.80 35.90 35.28 34.83 35.07 35.95 33.51 31.98 32.22 31.40

GFSMW_sfc_wetblb_009.txt.gz
Wetbulb
48.17 50.03 50.84 51.33 51.63 51.40 51.74 51.68 53.75 57.39 58.67 58.19 59.38 59.92 61.06 60.01 60.36 60.78 61.39 60.88 60.66 59.86 58.68 59.43 58.10 57.90 57.72 57.13 56.32 56.50 55.17 55.68 53.73 52.84 54.07 54.27 54.34 54.07 54.88 55.41 54.96 54.71 53.38
48.37 49.13 49.74 49.59 50.28 50.66 50.85 51.83 52.60 53.33 56.89 58.24 59.56 60.31 60.17 60.22 61.01 61.62 61.84 61.87 61.55 60.93 59.99 59.79 59.37 58.96 59.04 58.22 56.55 56.12 56.10 56.31 55.10 54.46 51.49 52.04 54.50 55.09 56.42 56.01 54.36 54.19 54.92
47.47 47.67 47.92 48.24 48.77 49.51 50.06 52.01 51.61 52.33 54.18 57.32 59.14 59.22 59.62 59.30 59.25 59.48 60.14 61.50 61.99 62.17 61.61 61.28 60.55 59.90 59.25 59.13 58.94 57.63 56.21 55.64 55.67 56.02 55.45 51.43 49.45 47.70 50.67 53.99 55.89 55.87 55.76
46.91 47.99 48.54 48.70 49.08 49.02 49.16 50.33 51.24 52.15 54.17 53.04 54.54 56.29 56.56 56.61 58.06 58.88 59.69 60.54 61.21 61.96 62.56 62.55 61.70 60.45 60.28 59.65 59.72 59.98 58.55 57.37 56.61 56.77 57.37 57.49 52.11 50.69 49.41 49.93 50.44 53.12 54.26
46.99 47.96 48.53 50.01 49.68 49.47 48.63 48.99 50.07 50.97 50.83 51.31 53.03 52.41 52.34 54.36 56.21 56.70 56.87 57.46 58.45 59.71 61.31 61.89 61.93 61.28 61.13 60.89 60.54 61.04 60.89 60.64 58.83 58.01 57.73 56.84 56.44 56.14 53.79 51.64 53.62 50.44 51.00
46.97 48.23 49.21 49.84 49.11 48.86 48.93 49.28 49.93 49.93 50.13 50.15 49.72 49.43 49.34 51.36 52.88 54.18 54.70 55.66 56.66 57.81 58.40 60.04 60.88 61.48 61.72 61.40 61.49 61.53 61.67 61.47 61.17 60.63 59.60 57.96 55.56 54.94 54.18 53.24 53.70 53.67 55.46
46.40 47.32 47.49 47.63 48.45 48.44 48.76 50.27 49.69 49.48 49.71 49.55 49.33 49.07 48.77 48.81 49.16 49.67 51.00 51.02 53.48 55.08 55.56 56.82 57.85 60.79 62.14 62.23 62.33 62.08 61.83 61.84 61.70 61.25 60.66 60.40 59.21 58.87 57.63 55.61 54.26 53.65 55.23
46.35 47.19 47.26 47.25 47.77 48.59 48.41 48.59 48.92 49.06 49.34 49.06 49.08 49.08 49.09 49.17 49.27 49.01 49.09 49.52 50.25 51.12 51.70 52.00 52.97 54.32 57.33 60.80 62.01 62.14 62.13 62.28 61.57 61.52 61.67 61.21 60.83 60.20 58.95 57.25 55.56 53.24 53.42
46.39 47.32 47.49 47.50 47.67 48.02 48.56 48.40 48.81 49.16 49.42 49.16 48.87 48.77 49.10 48.99 48.98 48.59 48.75 49.33 50.06 52.18 51.45 50.91 50.88 51.71 52.17 53.02 54.65 57.39 59.43 60.70 61.20 61.10 61.30 61.07 61.11 60.95 60.53 59.85 58.57 55.61 51.95
46.30 46.73 47.42 47.89 48.31 48.48 48.06 48.19 48.36 48.19 48.31 48.61 48.46 48.98 48.44 48.95 48.87 48.86 48.55 49.29 50.75 50.96 51.08 51.05 51.19 51.19 51.15 51.44 51.44 51.92 53.06 54.08 55.96 58.30 58.47 58.89 59.64 60.07 60.59 60.16 59.53 58.33 55.76
45.85 46.31 47.02 47.84 48.04 47.91 47.41 47.07 47.44 47.97 48.36 48.70 48.43 48.09 48.12 48.47 48.98 48.85 49.05 49.38 49.94 50.16 50.10 50.30 50.44 50.62 50.91 51.36 50.91 50.86 51.43 51.32 52.31 53.54 54.41 55.34 56.95 57.37 58.00 58.58 58.79 57.93 57.11
46.19 46.55 47.13 47.37 47.25 46.67 47.17 47.55 48.13 48.28 48.27 48.40 47.99 47.66 47.86 47.46 46.81 47.01 47.36 48.04 47.89 48.59 48.72 48.92 48.92 48.75 49.25 49.84 49.91 50.10 50.69 50.34 50.42 51.49 52.48 53.21 54.75 54.53 55.60 56.72 56.60 57.37 57.54
46.53 46.33 46.21 45.17 44.32 46.14 46.88 47.17 47.26 46.85 46.64 46.79 46.22 45.88 46.18 45.39 44.60 44.76 45.64 45.97 45.97 46.24 46.73 47.09 46.73 46.96 47.60 47.75 48.67 48.92 49.05 48.63 49.61 49.84 50.02 50.84 51.63 51.49 52.34 53.30 54.18 55.55 56.31
46.46 45.39 43.64 43.12 43.62 46.02 46.27 45.99 45.64 44.59 44.32 44.30 44.00 43.79 44.99 43.89 43.75 44.11 44.30 44.35 44.72 44.64 44.90 44.60 44.50 45.43 46.39 46.53 47.13 47.03 46.63 47.41 48.77 49.10 49.19 49.50 49.78 49.83 50.35 51.22 52.01 53.09 53.58
44.35 43.65 42.37 42.91 44.59 45.35 45.03 44.36 43.60 43.27 43.38 42.73 42.27 42.30 42.18 41.49 41.41 41.70 42.19 42.58 42.50 43.11 42.58 41.75 42.85 43.04 44.12 46.02 45.35 46.00 46.85 47.57 47.35 47.53 47.25 48.04 48.29 47.90 49.64 50.45 51.09 51.60 51.83
43.15 42.85 45.09 43.67 42.82 42.35 42.29 41.46 40.30 39.90 40.52 39.83 39.66 40.48 39.65 39.54 39.24 39.25 39.38 39.77 39.70 39.73 39.81 39.94 40.24 40.10 43.99 45.22 47.05 47.84 44.77 44.18 42.15 42.01 44.14 45.82 46.36 47.31 49.73 50.63 51.08 51.67 50.67
43.12 43.60 42.34 42.15 41.92 41.20 39.72 37.34 37.19 38.14 38.00 37.92 38.25 37.61 37.61 37.20 37.10 37.34 37.31 36.95 36.54 36.64 36.41 37.72 37.74 38.78 39.32 44.33 46.70 46.99 40.85 39.81 39.83 41.72 41.43 43.69 45.41 44.43 45.93 46.64 47.80 48.81 50.21
41.86 41.32 40.25 39.69 39.82 38.85 37.40 36.81 37.44 36.45 36.10 36.00 34.59 35.18 35.13 34.75 35.05 34.85 34.45 34.29 34.56 34.05 34.96 34.86 35.88 36.26 37.65 43.45 45.25 43.79 38.97 38.38 39.01 40.38 40.33 41.23 38.79 40.45 42.98 43.70 43.84 43.77 45.68
40.89 39.87 39.28 38.68 38.38 36.77 37.25 35.74 34.61 33.55 33.07 32.19 31.85 32.55 32.77 32.33 32.53 32.02 31.87 32.50 32.68 32.84 32.66 33.90 34.28 34.07 35.49 41.57 41.25 39.35 37.67 36.87 37.08 39.31 39.67 37.58 36.96 40.73 43.10 41.03 40.88 40.90 42.11
40.86 39.94 39.68 39.68 37.28 35.54 34.06 32.32 31.19 29.48 29.40 30.44 30.97 31.21 31.52 31.17 30.48 30.50 30.53 31.45 31.54 31.80 32.68 31.88 32.85 36.10 33.55 38.01 39.08 37.83 36.80 34.74 36.00 37.52 37.12 38.96 38.09 40.78 41.65 39.38 38.85 38.08 39.24
39.22 38.12 37.51 34.99 32.69 32.15 30.58 28.91 28.22 27.46 29.31 30.52 30.48 30.39 30.33 29.67 30.22 30.03 30.13 30.22 30.05 30.25 29.64 30.49 31.47 31.61 33.36 32.70 36.39 37.23 34.73 34.46 35.51 35.22 35.29 35.62 38.38 39.70 40.57 42.01 40.98 40.92 42.59
37.15 36.47 33.54 31.22 30.68 30.15 28.62 26.88 25.95 28.41 28.89 29.07 28.97 29.00 28.90 29.88 30.91 28.60 28.68 28.87 28.66 28.07 28.05 28.56 29.92 31.25 31.39 34.65 35.37 36.74 37.25 37.72 34.54 33.68 34.62 34.64 38.18 39.13 41.57 42.74 44.38 45.10 44.78
35.15 33.16 29.93 29.18 29.41 29.01 27.50 25.73 26.51 27.61 27.96 27.18 27.20 27.55 28.37 28.66 28.88 27.75 27.57 27.52 27.96 27.17 27.41 28.51 28.12 29.10 30.95 31.45 35.38 36.50 37.09 37.00 34.13 34.09 35.38 38.14 38.32 40.18 39.86 40.14 41.69 42.31 39.82
32.03 30.36 29.48 28.17 28.63 28.63 27.68 26.29 26.76 27.70 27.10 25.80 25.98 26.92 26.91 28.06 27.87 28.36 28.30 27.05 26.44 26.83 27.66 27.53 27.71 28.49 29.49 30.50 31.93 32.77 33.50 34.86 33.80 34.59 34.49 37.12 37.64 38.54 37.90 37.06 38.05 35.41 35.53
31.02 30.13 27.96 26.78 27.55 26.89 25.92 26.86 27.84 26.95 26.07 25.47 26.32 26.42 27.00 26.53 26.48 27.25 26.70 26.89 28.10 29.52 28.19 28.42 28.71 27.99 28.29 30.40 34.03 34.19 32.20 32.43 33.55 34.61 33.67 32.58 32.29 32.84 33.10 34.05 34.50 34.83 33.52
29.22 28.12 27.47 27.05 26.13 25.34 25.26 26.14 26.92 26.60 25.18 25.74 26.16 26.20 26.57 26.11 26.13 25.36 25.61 30.83 31.81 32.53 32.73 32.88 31.95 31.26 33.35 34.15 34.43 34.17 34.41 34.80 34.48 31.86 29.11 28.53 29.82 31.11 31.70 32.18 32.18 33.36 32.52

GFSMW_sfc_wetblb_012.txt.gz
Wetbulb
46.93 48.49 48.70 49.15 50.04 50.24 50.46 50.63 51.87 52.55 57.10 58.16 57.81 57.64 59.16 58.73 59.06 59.46 59.82 59.40 59.19 58.49 57.78 58.44 58.20 56.86 56.97 57.61 56.84 55.49 54.63 54.70 52.81 51.75 54.43 54.48 54.57 54.74 55.45 55.75 55.04 55.23 54.51
46.43 47.42 48.05 47.60 47.86 47.82 49.19 49.81 50.34 51.24 54.16 56.65 58.31 59.05 58.66 59.16 59.76 60.49 60.84 60.94 60.41 60.22 59.43 58.90 59.00 58.29 57.73 57.61 57.42 55.63 55.58 55.28 54.02 53.00 53.65 52.02 54.71 55.65 55.59 56.09 55.55 55.33 55.85
46.23 46.51 46.86 47.07 46.98 46.68 46.77 48.97 49.88 51.61 52.11 55.54 57.91 58.11 58.76 58.65 58.69 59.00 59.42 60.32 60.99 61.16 60.57 60.72 59.80 59.82 58.16 58.39 58.19 57.11 55.25 55.51 57.26 55.34 54.83 51.72 50.68 49.30 50.47 52.60 55.10 55.40 54.99
46.37 46.75 47.25 47.18 47.07 46.81 47.20 48.42 49.28 49.83 50.84 52.11 52.46 52.79 53.86 53.84 55.60 56.77 57.68 57.42 58.43 59.12 60.32 61.43 61.05 60.28 59.95 58.51 58.99 59.14 57.75 57.13 55.97 58.07 56.57 57.04 56.56 52.85 52.24 53.11 50.50 52.86 53.76
45.76 46.53 47.13 48.21 47.72 47.60 47.48 47.99 49.15 49.96 49.26 49.04 48.97 49.07 48.91 51.25 52.52 52.51 51.69 52.70 54.37 55.88 56.67 57.68 58.66 59.53 60.47 60.02 59.78 60.00 59.15 59.11 58.44 57.87 57.61 56.87 55.96 56.20 54.24 52.45 54.34 54.66 52.90
45.67 46.43 47.17 48.37 47.78 47.61 48.07 48.25 48.74 48.69 48.94 49.09 48.52 47.67 47.02 47.46 48.44 48.19 49.17 50.01 51.29 52.92 52.34 52.38 52.95 55.39 58.52 60.21 61.32 61.40 60.70 60.49 60.51 60.18 59.46 57.99 56.10 55.56 54.74 53.76 54.42 54.53 56.43
45.43 45.84 45.81 46.77 47.11 46.82 47.19 48.84 48.35 47.88 47.97 47.89 47.93 47.70 47.40 47.28 46.96 46.95 47.18 47.68 48.94 49.48 50.29 50.08 50.30 50.64 51.28 52.46 55.09 58.48 60.52 60.96 60.61 60.57 60.09 60.27 59.67 59.34 58.06 56.70 55.70 55.08 56.62
45.20 45.85 45.94 46.42 46.79 47.35 47.11 47.23 47.60 47.45 47.73 47.61 47.58 47.46 47.68 47.78 47.68 47.28 47.20 47.53 47.87 48.48 49.09 49.66 49.90 50.16 50.68 50.84 51.02 51.56 53.52 56.09 58.08 58.31 58.67 58.67 59.03 59.91 59.69 57.99 56.39 54.70 55.41
45.21 45.78 46.01 46.57 47.04 47.20 46.47 46.55 46.98 47.08 47.41 47.43 47.37 46.82 46.95 47.04 46.92 46.77 47.03 47.37 47.83 49.77 49.16 48.74 48.72 49.42 49.75 50.13 50.23 50.13 50.00 50.73 51.82 52.63 54.02 55.84 56.30 57.45 57.99 58.46 58.38 56.33 52.82
44.82 45.63 46.04 46.57 46.95 46.25 45.78 46.26 46.89 46.85 47.10 47.18 46.77 47.04 46.58 46.47 46.29 46.01 45.63 46.06 46.98 47.35 47.32 47.42 47.79 48.07 48.02 48.28 48.47 48.57 49.48 49.37 49.93 50.78 50.61 51.51 53.02 54.27 55.72 56.34 56.50 56.25 54.57
44.48 45.09 45.88 46.43 45.92 45.54 45.98 46.24 46.63 46.34 46.00 46.38 45.76 45.07 45.86 45.50 44.97 44.33 44.50 44.33 44.70 45.08 45.29 45.86 46.17 46.10 45.83 46.39 46.40 46.54 47.54 47.57 47.72 47.72 48.73 49.37 50.47 50.89 51.92 52.75 53.18 52.99 53.53
44.73 44.94 45.38 44.90 44.97 45.34 45.81 45.36 45.04 44.12 44.22 44.81 43.96 43.62 44.54 43.37 42.41 42.31 42.80 43.32 42.56 43.25 43.60 43.96 43.33 42.80 43.67 44.93 44.81 44.52 45.69 44.43 44.75 46.00 47.33 47.79 49.19 48.42 49.28 49.79 49.59 50.11 51.15
44.50 44.51 43.20 43.12 44.73 45.01 45.01 43.96 42.87 42.10 42.49 42.72 41.89 41.69 41.89 40.47 39.56 39.90 40.78 41.06 41.08 40.79 41.35 40.89 40.20 40.40 42.49 41.05 42.66 44.15 43.11 44.03 45.28 46.23 46.97 46.77 46.42 45.22 46.37 47.57 47.38 47.99 49.43
44.94 42.61 40.99 43.24 44.18 44.23 43.45 41.86 40.97 40.74 41.24 41.07 40.32 40.05 38.93 37.88 37.87 38.30 38.50 38.64 39.18 38.55 38.38 38.05 38.24 40.03 38.95 39.45 42.52 41.06 42.52 44.57 44.74 45.74 43.20 42.58 42.82 43.17 44.68 45.07 45.47 47.67 48.59
42.98 41.35 42.51 42.64 42.76 41.82 40.24 39.15 38.61 38.67 39.48 38.46 38.40 37.50 37.40 37.12 36.79 36.55 36.42 36.78 36.68 36.53 36.68 35.76 35.94 38.29 36.51 39.35 39.00 39.19 41.34 42.37 39.63 39.32 39.04 41.09 42.60 44.22 45.99 44.86 40.90 43.91 44.87
40.94 43.49 42.92 40.87 39.72 38.58 37.50 37.39 36.81 37.34 37.52 36.49 35.74 35.94 34.95 34.48 34.13 34.13 34.27 34.37 34.02 34.33 34.14 33.86 34.60 34.32 35.39 40.95 41.64 41.53 40.08 37.62 36.91 36.25 36.81 39.19 41.26 42.66 43.39 41.68 42.84 43.79 41.66
42.49 41.65 40.38 39.86 39.23 36.94 36.78 35.55 35.51 36.28 36.64 34.51 33.40 33.00 32.70 32.28 32.21 32.59 32.43 31.92 31.67 32.20 31.72 32.26 32.39 31.91 33.84 38.50 40.90 42.51 36.63 34.42 34.26 35.50 35.20 36.06 39.26 40.51 37.11 38.71 40.61 41.22 41.84
40.72 39.67 38.51 37.66 37.27 37.58 36.01 35.15 35.82 33.54 32.57 31.06 30.69 31.39 31.26 30.68 30.84 30.60 30.14 29.89 30.36 30.01 30.32 30.64 31.17 31.34 32.42 37.19 39.21 39.40 33.76 32.51 33.39 34.92 34.73 35.55 37.13 37.27 37.48 36.46 36.26 36.72 38.02
38.88 37.87 37.37 37.19 35.59 34.28 33.70 32.34 30.27 29.16 29.35 29.38 29.28 29.89 29.89 29.43 29.37 28.69 28.54 29.05 29.10 29.11 29.52 30.42 30.02 29.68 30.70 36.31 37.10 35.88 32.25 32.43 32.86 33.92 34.91 36.47 35.75 38.28 39.28 35.69 34.58 35.38 37.18
38.44 38.18 37.42 37.29 33.98 31.46 30.26 28.57 27.42 27.01 27.08 28.19 28.61 29.02 29.13 28.72 27.89 27.76 27.84 28.81 28.75 29.09 29.82 29.26 29.52 31.61 29.85 34.34 35.64 34.83 32.47 31.20 31.88 33.29 35.06 36.91 35.83 37.73 37.97 35.05 34.24 34.40 36.72
38.68 38.24 36.52 32.71 30.87 28.89 27.86 26.61 25.92 25.37 26.94 28.08 28.18 28.20 28.06 27.50 27.71 28.00 28.04 27.94 27.70 28.09 27.34 27.73 28.32 28.97 30.10 31.11 35.30 35.80 32.71 31.99 32.23 32.12 31.93 32.72 36.25 36.85 37.59 38.37 36.61 38.11 39.29
36.59 34.29 33.35 31.67 30.71 28.94 27.01 25.22 24.33 26.25 26.68 27.04 27.10 27.04 26.83 27.77 29.03 26.59 26.78 27.00 26.72 26.03 25.94 26.19 27.43 29.31 29.93 33.41 34.04 35.60 35.98 35.72 32.53 31.57 31.53 32.36 36.06 37.25 37.49 36.95 39.03 39.59 38.75
33.61 32.86 31.18 30.92 29.98 27.78 26.04 24.31 25.22 25.94 26.09 25.37 25.15 25.71 26.63 26.43 26.72 25.34 25.79 25.61 26.03 25.17 25.07 25.97 26.45 27.38 29.39 29.91 34.06 35.08 35.58 35.40 32.64 31.69 33.52 34.94 35.22 35.29 34.85 35.99 37.38 37.26 33.86
31.34 31.56 30.28 28.97 26.98 26.64 26.32 25.33 25.49 25.90 25.20 23.87 24.13 24.80 24.70 26.35 26.13 26.57 26.52 25.29 24.40 24.72 25.37 26.28 26.18 26.94 27.86 28.94 30.26 31.26 31.36 33.20 32.31 32.90 31.21 32.90 33.07 33.28 33.32 33.22 34.12 33.07 33.36
30.89 30.01 28.40 25.83 25.20 24.76 24.45 24.93 25.64 25.13 23.66 23.40 23.70 24.20 25.25 24.87 25.09 25.91 25.21 25.10 26.27 27.87 27.22 27.07 27.30 26.59 27.08 28.39 32.60 32.04 30.56 32.07 31.55 30.84 29.25 27.95 27.49 27.42 28.18 29.80 31.09 32.04 32.72
28.59 25.98 25.04 24.03 23.83 23.62 23.62 24.42 25.34 24.71 23.56 23.75 24.64 24.73 25.19 24.71 25.01 24.21 24.09 29.36 30.62 31.50 31.51 31.45 30.20 29.43 31.54 32.80 32.69 32.77 33.89 33.59 31.99 27.99 26.06 25.05 24.70 25.78 27.13 27.94 28.98 30.40 31.92

GFSMW_sfc_wetblb_015.txt.gz
Wetbulb
45.86 46.91 47.04 47.03 47.72 47.99 48.67 48.82 50.36 50.97 55.01 56.71 56.33 56.55 57.13 57.76 58.05 58.19 58.42 58.30 57.99 57.62 56.45 57.26 57.25 56.31 56.25 57.05 56.96 54.85 54.26 54.23 53.10 53.45 54.77 55.41 55.46 55.04 55.33 56.15 56.05 55.67 55.59
45.09 46.14 46.86 46.20 45.95 45.81 46.62 48.02 49.53 50.76 52.43 56.12 57.42 57.81 57.56 57.99 58.73 59.48 59.82 60.13 60.01 59.72 58.75 57.63 58.12 57.99 56.82 56.67 56.62 55.90 55.66 55.49 53.64 54.16 54.22 52.30 54.46 54.39 54.90 55.54 55.50 55.43 56.09
44.82 45.23 45.30 45.46 45.37 45.45 45.78 47.74 48.10 49.18 50.55 52.88 56.53 56.96 56.93 56.80 55.67 56.17 56.37 56.22 56.89 57.66 58.43 58.93 58.88 58.73 57.59 57.15 57.92 56.65 55.27 55.40 56.95 54.32 54.75 52.05 51.22 52.06 52.79 52.23 54.63 55.04 55.00
45.11 45.50 46.12 45.78 45.87 45.94 46.42 47.58 48.55 49.16 49.59 49.42 50.20 50.34 50.34 50.36 51.31 52.44 51.51 52.11 52.89 53.61 53.13 53.36 53.96 55.30 57.91 57.85 57.97 58.62 57.28 56.80 55.67 57.50 56.66 56.38 56.45 53.52 53.17 56.51 53.54 54.19 54.46
45.29 45.61 46.22 46.97 46.48 46.72 46.33 46.82 48.05 48.52 48.03 47.97 47.35 47.43 46.93 47.26 47.99 47.99 47.81 48.57 49.36 50.61 50.25 50.06 49.65 50.25 51.22 52.24 54.33 57.31 58.90 59.51 58.04 57.66 57.75 57.70 56.18 55.84 53.74 52.02 54.78 56.80 54.67
44.97 45.43 46.31 47.04 46.36 46.23 46.74 46.96 47.80 47.32 47.62 48.17 47.48 46.74 45.81 46.19 46.87 46.64 46.98 47.40 48.05 48.69 49.30 49.42 48.93 48.48 48.82 49.19 49.89 50.83 51.67 54.06 57.68 58.40 58.12 57.44 56.24 55.93 55.12 53.71 54.28 54.48 56.52
44.43 44.85 45.33 45.64 45.77 45.57 46.15 47.52 46.93 46.42 46.74 46.92 46.79 46.54 46.24 45.87 45.53 45.43 45.44 45.62 46.48 47.03 47.57 47.44 47.81 48.14 48.57 48.75 48.85 48.99 49.31 50.23 51.06 51.84 53.62 55.32 55.12 55.64 55.15 54.19 52.65 53.01 56.45
43.96 44.46 45.18 45.44 45.59 45.65 45.46 45.93 46.25 46.24 46.55 46.44 46.10 45.97 45.98 45.94 45.59 45.17 45.07 44.88 45.24 45.92 45.80 46.57 46.80 47.04 47.75 47.60 47.52 48.04 48.35 48.85 48.79 48.65 50.02 50.77 52.13 53.90 54.04 53.26 51.99 49.65 50.70
43.88 44.37 44.98 45.50 44.96 44.53 44.89 45.67 46.13 46.14 46.03 45.77 45.85 45.20 44.74 44.38 43.92 43.85 43.80 43.99 44.10 45.93 45.26 44.96 44.95 45.72 45.67 45.35 45.46 45.77 45.55 46.31 47.34 47.78 48.22 48.00 49.40 51.09 51.43 52.04 52.27 50.15 46.20
43.74 44.26 45.03 45.13 44.47 44.31 45.03 45.77 45.74 45.37 45.16 44.53 44.04 44.82 43.73 43.28 42.91 42.57 41.95 42.18 42.68 42.89 42.91 43.15 43.40 43.12 42.48 42.97 43.66 43.85 44.33 44.67 45.87 44.95 44.91 45.90 47.94 48.59 48.99 49.19 49.52 49.65 48.36
43.51 44.20 44.62 44.28 44.14 44.84 45.15 44.38 43.70 43.42 43.26 43.08 42.48 42.39 42.02 41.49 40.91 40.11 40.08 40.09 40.19 40.06 40.07 40.60 39.82 39.11 39.57 41.27 39.68 39.89 42.12 42.80 41.67 43.09 44.21 44.93 46.98 46.63 45.91 45.53 45.75 46.14 47.20
43.50 44.03 43.95 43.47 44.41 44.33 43.40 42.52 42.03 41.54 41.68 41.41 40.81 40.45 39.60 38.35 37.31 37.55 37.94 38.36 37.71 38.27 37.89 37.65 36.32 36.30 37.44 38.71 36.37 37.07 40.46 37.97 40.04 42.01 43.31 44.70 43.70 41.01 41.57 42.24 42.27 44.38 44.48
43.35 43.20 42.44 43.68 44.01 43.57 42.06 40.50 39.76 39.66 40.08 39.61 39.03 37.59 36.85 36.08 35.54 35.70 36.12 36.11 35.81 35.22 35.25 35.29 34.27 34.45 35.60 36.26 34.56 37.34 36.22 36.78 38.15 42.14 41.93 38.37 38.24 37.62 39.96 39.29 40.20 43.15 44.02
43.91 41.78 42.42 43.01 42.69 41.86 40.01 38.51 37.81 38.12 38.10 38.08 36.93 35.45 34.98 34.41 34.31 34.06 33.95 33.98 34.08 33.04 33.39 33.35 33.29 33.54 34.61 33.46 34.65 36.17 35.39 36.44 38.32 37.27 37.24 36.91 36.43 36.68 38.25 38.97 40.88 37.81 36.00
41.15 40.54 42.25 41.74 40.83 39.12 37.59 36.52 36.29 36.65 37.63 35.87 34.49 33.72 33.44 32.93 32.30 31.79 31.79 32.08 32.02 32.04 32.22 32.05 31.95 32.53 32.34 33.85 34.26 34.89 35.30 35.97 33.87 33.52 33.38 34.84 37.05 39.47 38.81 38.39 38.90 37.10 35.15
40.02 42.55 41.52 39.48 38.44 36.71 35.65 36.35 37.37 35.59 35.04 32.31 31.68 32.04 31.30 30.93 30.30 30.34 30.54 30.52 30.26 30.29 30.46 30.19 30.54 30.27 32.33 35.81 37.20 36.89 35.14 34.08 31.59 30.49 32.06 34.43 35.68 35.91 39.55 40.57 40.34 39.13 35.58
41.72 40.80 39.70 39.00 37.74 35.61 37.67 34.23 35.01 32.95 31.72 30.24 30.26 30.29 30.15 29.56 29.26 29.45 29.20 28.70 28.36 28.53 28.38 28.74 29.36 29.11 29.89 35.22 36.89 37.54 33.87 31.71 30.99 31.24 31.83 32.40 34.31 35.64 36.04 37.43 38.51 38.27 38.90
40.07 38.88 37.64 36.59 35.49 35.86 36.00 34.61 32.53 30.34 29.45 28.71 28.44 29.00 28.87 28.27 28.33 27.74 27.29 27.03 27.76 27.45 27.56 28.03 28.75 28.68 29.89 34.53 35.79 36.27 32.24 31.44 31.48 31.70 31.94 31.98 32.72 34.45 34.31 33.43 33.19 33.55 34.09
38.50 37.40 36.45 35.64 33.75 35.17 34.15 31.83 28.98 27.37 27.39 27.25 27.05 27.60 27.49 27.23 27.22 26.44 26.26 26.93 27.13 26.87 27.14 28.25 27.96 27.42 28.09 33.53 34.66 34.06 31.48 31.09 30.99 32.14 32.64 32.99 32.49 35.34 36.56 32.91 32.04 32.76 33.43
37.51 36.44 35.32 36.30 34.44 32.16 30.33 29.57 28.27 25.24 25.19 26.24 26.75 26.89 26.92 26.55 25.85 25.40 25.75 26.84 26.59 26.93 27.80 27.14 27.50 29.46 27.67 31.99 34.29 33.69 31.47 30.24 30.77 32.20 32.57 35.10 33.78 35.70 36.37 33.30 32.12 31.98 33.76
36.08 35.48 34.48 32.31 30.23 28.54 28.10 27.95 27.35 24.19 25.41 26.31 26.48 26.51 26.29 25.38 25.36 25.24 25.83 26.10 25.71 26.03 25.37 25.75 26.44 27.06 28.86 29.60 33.84 34.53 31.75 30.94 30.98 31.39 29.96 30.90 34.68 35.50 35.59 35.50 32.52 32.84 35.18
35.13 34.33 32.72 30.94 30.29 29.96 29.19 27.06 24.23 25.00 25.27 25.53 25.43 25.23 24.78 25.92 27.53 24.17 24.78 24.99 24.74 24.10 24.05 24.26 25.40 27.60 28.45 31.81 32.52 34.23 34.40 34.23 30.90 29.06 30.17 31.29 34.06 33.99 34.10 33.01 34.00 35.09 35.84
32.87 32.98 30.95 30.29 29.97 29.34 27.64 23.65 24.19 24.70 24.65 23.80 23.42 23.52 24.10 24.24 24.60 22.89 24.16 23.77 24.26 23.40 23.08 23.97 24.84 26.03 27.72 28.28 32.54 33.40 34.16 34.08 30.69 30.58 33.36 32.96 32.65 32.62 30.67 31.54 33.33 33.58 30.70
29.63 29.64 29.66 28.78 27.91 25.74 24.48 23.66 23.91 24.33 23.54 22.28 22.06 23.05 22.12 25.25 24.64 24.42 24.48 23.70 22.67 22.95 24.00 25.03 25.43 25.63 26.20 27.21 28.13 29.91 30.26 31.59 31.02 33.87 29.25 29.78 30.23 30.62 29.36 28.62 29.56 29.46 29.50
30.83 29.97 28.31 25.56 23.69 23.31 23.08 23.36 23.98 23.63 22.84 22.37 22.59 22.66 23.68 22.50 23.27 24.34 23.91 23.77 24.69 26.34 26.12 26.09 26.15 25.19 24.90 26.83 31.28 30.97 28.99 29.80 32.65 30.23 26.23 24.38 24.73 24.16 24.52 25.75 26.47 27.59 28.01
28.24 26.34 23.82 22.55 22.63 22.40 22.33 23.21 24.11 23.61 22.01 22.73 23.57 23.52 24.12 23.21 24.09 23.37 23.08 28.38 29.59 30.73 30.93 30.78 29.33 28.16 30.39 31.69 31.73 31.70 32.12 32.72 31.69 26.74 23.08 22.57 23.18 22.96 23.45 23.65 24.67 26.35 27.15

GFSMW_sfc_wetblb_018.txt.gz
Wetbulb
45.37 46.21 45.76 45.57 46.37 46.35 47.12 47.72 50.14 50.69 54.65 55.43 55.17 55.37 55.73 56.58 57.24 57.98 58.33 57.99 57.60 57.55 56.03 55.60 55.80 55.86 55.41 56.15 57.46 57.24 55.31 55.51 56.20 53.19 54.18 55.37 56.16 55.71 55.38 55.60 55.30 55.31 55.56
44.49 45.27 45.43 44.98 45.04 44.98 45.64 46.88 47.66 49.01 51.99 55.57 56.43 56.82 56.76 57.37 57.42 55.90 54.49 54.66 54.93 55.09 55.65 56.14 56.39 56.69 56.35 55.90 55.45 54.68 56.00 56.48 55.74 54.26 54.78 52.88 54.70 54.99 55.47 55.56 55.22 55.13 56.00
43.84 44.33 44.88 44.70 44.74 44.93 45.20 47.04 47.23 48.29 49.13 51.03 53.54 53.56 53.18 51.68 51.25 50.85 50.44 50.89 51.50 50.84 50.28 50.18 50.36 51.09 53.54 54.87 55.73 55.85 56.34 55.71 57.40 55.98 54.57 52.35 51.72 55.09 55.54 52.87 54.31 54.65 54.97
43.48 44.38 45.29 45.22 45.21 45.10 45.94 46.88 47.79 47.93 48.45 48.05 49.00 48.12 47.57 46.81 47.38 47.72 47.25 48.18 48.81 49.05 48.98 48.73 48.23 47.89 48.58 47.92 48.66 50.38 52.63 54.72 54.26 57.01 57.39 56.50 55.69 51.96 51.33 56.57 57.21 53.28 53.89
44.08 44.72 44.97 45.98 45.53 45.73 45.25 45.80 47.38 47.55 47.31 47.40 46.89 47.18 45.89 45.75 45.97 45.93 45.50 45.97 46.77 47.75 47.82 47.66 47.16 47.00 47.70 47.13 47.05 47.53 48.12 48.75 49.20 50.88 52.77 53.38 53.95 54.39 52.93 50.17 53.00 55.78 57.29
43.81 44.72 45.31 45.69 45.03 45.17 45.49 45.65 46.65 46.05 46.39 46.98 46.15 45.54 44.47 44.22 44.12 43.74 43.98 44.78 45.25 46.31 46.32 46.46 46.28 46.22 46.55 46.63 46.60 46.93 46.70 47.32 47.84 48.67 48.21 48.88 48.82 48.95 49.37 48.15 48.82 49.55 51.98
43.46 44.07 44.15 44.12 44.29 44.54 45.17 46.37 46.02 45.37 45.64 45.49 45.28 44.82 44.04 43.46 42.87 42.90 42.86 42.44 43.14 43.87 44.09 44.17 44.49 44.87 45.42 45.30 45.06 45.11 45.81 46.16 46.19 46.21 46.76 48.38 48.49 48.82 48.58 48.22 47.18 47.43 49.55
42.85 43.85 44.28 44.00 43.88 44.32 44.77 45.30 45.23 44.92 45.22 44.91 44.15 43.73 43.48 43.33 42.70 42.00 41.96 41.76 41.86 42.50 42.18 42.89 43.20 43.17 43.28 42.16 42.51 43.26 43.98 44.22 44.30 44.40 45.76 45.69 45.37 46.77 48.16 47.77 46.32 43.75 44.61
42.79 43.78 44.15 43.83 43.40 43.74 44.58 44.94 44.67 44.10 43.68 43.87 43.54 42.10 41.48 40.89 40.37 40.16 40.17 40.27 40.30 41.84 40.48 40.44 40.25 39.78 38.97 39.47 40.41 39.51 38.67 40.26 42.45 42.24 41.93 42.92 44.43 45.98 47.70 47.67 46.07 42.81 38.12
42.72 43.33 43.78 43.32 43.04 44.00 44.17 43.89 43.76 42.77 42.22 41.88 41.95 40.88 39.51 39.07 38.47 38.06 37.29 37.49 37.87 38.20 37.53 36.92 36.70 35.52 36.05 36.49 38.31 35.85 35.80 38.30 38.44 37.98 40.36 41.50 43.55 44.59 45.48 42.61 42.17 41.91 40.20
42.66 43.16 43.36 42.93 43.45 43.77 42.48 41.62 41.52 41.43 40.51 40.43 39.54 37.89 37.15 36.62 36.03 35.44 35.33 35.13 35.30 35.30 35.03 34.98 34.31 33.61 33.85 34.22 35.94 33.07 34.27 35.18 34.71 36.39 37.15 41.22 42.10 38.03 38.10 38.32 40.19 38.92 37.56
42.84 43.02 42.68 42.83 43.42 42.07 40.87 39.90 39.93 39.39 38.98 39.23 37.30 36.02 35.32 34.54 33.31 33.17 33.56 33.98 32.85 33.24 32.78 33.28 32.47 32.44 32.74 33.34 32.44 31.44 33.84 33.77 33.68 35.01 36.85 35.90 37.11 35.73 35.91 36.70 36.04 36.34 37.34
42.02 41.90 41.67 42.98 42.27 40.60 39.22 37.89 37.78 37.24 37.49 37.04 34.81 33.46 32.69 31.98 31.11 31.11 31.88 32.11 31.81 31.43 31.33 31.61 31.12 31.04 31.74 31.47 31.15 31.81 32.73 33.23 34.09 34.89 33.40 32.49 32.05 31.32 33.41 33.55 33.64 35.27 37.60
42.21 40.77 42.04 41.80 40.93 39.36 37.14 35.80 35.71 35.97 37.33 36.47 32.62 31.43 30.77 30.29 30.09 30.27 30.49 30.71 30.73 29.61 29.90 30.17 30.28 30.41 30.78 30.71 31.58 32.41 32.68 33.18 34.38 33.65 31.92 31.10 30.89 31.77 32.77 32.69 33.06 34.93 36.18
40.10 41.73 41.30 40.11 38.45 36.42 35.05 34.69 35.06 36.21 35.37 31.78 31.27 31.84 30.83 29.97 29.47 29.20 29.18 29.28 29.07 29.26 29.33 29.24 29.29 29.64 30.21 31.84 32.04 32.77 32.73 32.52 31.89 31.45 31.44 32.03 33.64 36.05 35.74 34.23 33.62 34.07 33.24
39.45 41.80 40.78 38.82 36.24 34.38 34.08 34.62 33.13 32.89 31.53 30.18 31.38 29.84 29.51 29.02 28.58 28.23 28.12 27.81 27.86 27.83 27.94 27.81 27.94 27.99 30.37 34.13 35.78 35.01 32.24 31.75 30.56 29.93 30.84 31.67 33.65 33.88 37.10 37.29 37.39 36.17 32.59
40.82 40.42 39.10 37.66 34.96 34.14 34.16 32.10 30.43 30.58 30.09 28.85 29.05 28.83 28.39 27.84 27.51 27.49 27.03 26.73 26.30 26.21 26.42 26.65 27.13 27.05 27.94 33.62 35.16 35.66 31.92 30.65 30.30 30.27 30.40 30.86 32.74 33.82 32.69 35.08 36.45 35.77 36.66
39.90 38.91 37.01 34.72 34.03 33.67 33.53 32.92 31.58 30.91 30.22 28.32 26.90 27.38 27.17 26.54 26.53 25.78 25.07 24.76 25.74 25.46 25.59 25.97 26.65 26.75 28.04 32.93 34.21 34.85 31.12 30.33 30.40 30.62 30.83 30.76 31.62 32.69 32.94 32.13 31.65 32.55 32.84
38.32 36.68 35.66 34.11 32.33 31.83 32.12 30.21 29.42 26.64 26.85 28.27 25.88 26.10 25.94 25.39 25.24 24.48 24.21 24.91 25.18 25.17 25.34 26.39 26.10 25.46 26.23 32.08 33.34 33.01 30.03 29.72 29.68 30.88 31.17 32.81 30.91 33.67 35.38 32.55 30.95 30.04 30.67
36.33 34.90 33.49 33.19 31.39 28.99 28.01 29.02 26.59 25.51 27.35 26.84 25.31 25.43 25.45 24.63 23.72 23.40 23.90 24.66 24.64 25.42 26.20 25.41 25.58 27.66 25.85 30.72 33.25 32.52 29.91 28.77 29.01 29.89 32.12 33.09 32.18 35.05 35.64 30.82 29.74 27.84 27.13
34.56 34.04 32.01 30.74 29.92 30.25 27.23 25.90 27.41 26.96 25.68 25.14 25.08 25.04 24.73 23.61 23.71 23.49 23.54 24.51 24.18 24.39 23.65 23.84 24.69 25.11 26.86 28.24 32.81 33.38 30.32 29.12 29.37 29.95 28.22 29.15 33.64 35.84 33.59 33.27 28.98 28.00 31.01
33.45 31.65 31.04 30.26 29.88 28.65 26.29 24.78 25.97 24.33 24.03 24.10 23.87 23.64 23.25 24.52 26.17 22.48 23.21 22.87 22.85 22.50 22.69 22.80 23.66 25.93 27.18 30.74 31.34 32.91 33.13 33.11 29.51 27.59 28.33 29.69 33.97 32.29 31.76 30.67 31.82 32.34 31.94
30.75 30.70 28.94 29.47 26.42 26.25 24.77 22.45 23.02 23.28 23.15 22.42 22.17 22.27 22.95 23.07 23.03 21.33 22.74 22.69 23.07 22.36 21.87 22.79 23.73 25.34 26.71 26.97 31.28 32.18 33.09 32.92 29.59 29.08 32.12 32.04 31.35 30.45 28.54 29.73 30.43 30.09 25.60
28.67 29.31 27.83 26.64 25.46 24.65 23.43 22.39 22.64 22.94 22.36 20.80 20.97 21.79 21.23 23.97 22.95 23.66 23.60 21.89 21.82 21.37 23.25 24.26 24.79 24.73 25.45 25.89 26.79 28.81 29.13 30.72 29.79 32.12 28.94 28.92 28.71 28.87 27.77 26.15 25.63 24.61 25.38
28.31 28.11 26.04 24.37 22.69 21.98 21.96 22.22 22.98 22.45 21.79 21.27 21.87 21.83 22.90 20.90 22.12 22.78 22.28 22.54 23.55 25.19 25.18 25.42 25.58 24.57 24.25 26.01 30.46 30.28 28.18 28.74 30.46 28.90 25.91 23.92 23.37 22.58 22.65 22.96 23.25 23.68 24.75
26.36 25.13 23.39 22.06 21.65 21.33 21.26 22.07 22.75 22.41 20.73 21.44 22.89 22.83 23.31 21.78 23.26 22.30 22.10 27.70 29.08 30.12 30.25 30.28 28.84 27.72 29.82 30.97 31.22 30.96 31.24 31.84 30.24 25.10 22.60 22.15 21.62 21.36 21.71 21.85 21.74 22.65 24.21

GFSMW_sfc_wetblb_021.txt.gz
Wetbulb
47.97 48.59 48.69 49.34 50.54 50.58 51.62 52.07 54.57 56.10 59.08 59.09 59.25 59.67 59.30 58.78 56.76 55.82 55.77 55.43 56.35 56.32 56.51 56.55 56.16 56.62 57.27 57.37 57.81 58.31 58.06 58.02 59.31 56.33 56.18 58.11 59.54 59.99 60.28 60.74 60.10 59.54 59.57
47.42 47.78 48.44 48.67 48.91 49.52 50.58 51.13 51.71 53.62 57.99 59.78 59.85 59.44 56.05 54.77 54.01 53.55 53.12 53.05 52.28 52.31 52.10 52.14 52.04 52.18 52.38 52.13 52.15 53.19 53.04 55.10 56.95 55.07 54.83 52.31 55.22 58.73 59.21 59.80 59.40 60.02 60.64
46.68 46.82 47.80 48.30 49.20 48.88 49.12 50.02 50.93 51.59 52.60 54.95 55.20 54.28 53.89 53.18 51.74 50.81 50.90 51.07 51.13 50.56 50.63 50.73 50.67 50.65 50.81 49.75 49.93 50.24 50.03 48.76 51.34 53.14 52.46 50.04 49.46 53.02 56.41 57.65 59.20 59.66 59.65
46.97 47.15 47.43 48.04 48.57 48.52 49.72 50.35 50.54 51.03 51.03 52.48 51.73 50.86 50.04 48.45 49.01 49.14 49.35 49.57 50.07 49.36 49.00 49.34 49.33 49.17 49.33 48.32 48.52 48.79 48.91 48.94 47.37 49.52 51.53 51.37 50.64 46.45 46.40 52.26 54.94 56.16 56.91
47.14 46.94 47.19 47.77 48.13 48.90 48.96 49.69 50.06 49.97 50.26 50.47 50.55 49.70 48.28 48.07 47.89 47.76 47.35 47.60 48.30 48.36 47.25 47.79 47.71 47.17 47.26 47.01 47.01 46.95 46.98 47.67 46.78 47.07 47.47 48.21 49.28 49.90 48.17 44.48 47.27 50.93 53.00
46.67 47.30 47.62 47.76 47.74 48.62 49.06 49.44 49.30 48.62 49.04 48.74 48.10 47.52 46.83 46.23 45.83 45.34 44.97 45.27 45.83 46.03 45.00 45.37 45.15 45.16 44.37 44.39 44.49 45.76 45.27 44.95 46.11 46.75 47.01 47.12 44.73 43.86 45.40 44.53 45.35 46.59 49.22
46.37 46.66 46.77 46.66 47.36 47.88 48.48 48.89 48.60 47.07 47.54 47.35 46.94 46.50 45.62 45.03 43.93 43.41 42.76 42.22 42.20 42.70 42.08 42.57 42.25 41.73 41.43 41.81 42.22 43.93 43.10 42.89 43.71 44.58 46.00 43.74 44.05 44.65 44.76 45.23 43.01 43.71 46.93
46.28 46.52 46.64 46.72 47.01 47.35 47.75 47.83 47.44 46.62 46.51 45.93 44.89 44.53 44.26 43.41 42.31 41.54 41.00 40.56 40.44 41.01 41.03 40.39 40.16 39.39 38.77 39.34 39.68 41.62 40.18 40.71 41.61 43.88 40.27 41.12 42.03 43.79 44.79 44.99 43.20 37.26 40.66
45.46 46.11 46.26 46.46 46.56 47.06 47.02 46.60 45.62 45.39 45.49 44.32 43.18 41.88 41.29 40.32 39.52 39.38 39.50 39.15 39.29 38.67 38.48 38.59 37.99 37.63 37.42 37.55 37.89 38.89 36.63 37.66 40.57 38.46 38.79 39.89 41.59 44.58 44.97 43.29 40.17 37.84 32.85
44.93 45.82 45.92 45.65 46.06 46.45 45.88 45.48 44.85 43.86 43.41 42.29 41.37 39.51 38.68 38.23 38.01 37.89 36.96 37.00 37.27 37.20 36.60 36.46 36.57 36.11 36.14 36.24 36.37 36.19 35.95 36.63 37.42 37.28 37.43 39.04 40.71 40.48 40.95 40.53 39.40 39.10 38.19
44.97 45.40 45.29 45.21 45.83 44.55 44.06 43.55 43.01 42.31 41.21 39.97 38.44 37.49 37.06 36.56 36.34 35.87 35.84 35.78 35.90 35.64 35.04 34.89 34.85 34.53 34.42 34.95 34.74 34.31 34.96 34.85 35.45 36.55 36.79 38.06 37.25 36.40 36.79 36.62 37.55 38.07 36.84
45.02 45.09 44.54 44.97 43.84 42.66 42.14 41.58 40.99 40.73 39.68 38.09 36.78 35.92 35.75 35.21 34.49 34.25 34.50 34.89 34.13 34.47 33.97 33.75 33.54 33.44 33.40 33.82 33.19 32.95 33.94 33.99 34.11 34.98 36.36 35.32 34.92 33.67 34.01 34.13 34.44 35.54 35.74
44.00 43.83 43.84 43.98 42.24 40.85 39.92 39.45 39.18 39.02 37.85 36.46 35.24 34.47 33.74 33.41 33.12 33.16 33.46 33.51 33.20 33.06 33.14 32.78 32.21 32.14 32.39 32.47 32.85 33.52 33.88 34.36 34.59 34.70 34.49 33.47 33.16 32.40 33.51 33.98 34.38 35.45 35.61
43.51 42.85 43.46 42.61 41.24 39.59 38.58 37.86 37.64 37.67 36.08 34.75 34.20 33.55 33.06 32.94 32.59 32.61 32.49 32.36 32.47 31.93 31.91 31.88 31.62 31.57 31.63 31.84 32.78 33.69 34.06 34.09 34.37 34.25 33.78 33.12 32.82 32.45 33.50 33.89 34.70 34.86 34.73
41.69 42.67 42.56 41.22 39.04 37.48 37.01 36.88 36.83 35.37 34.28 33.39 32.87 32.20 32.47 32.35 32.04 31.71 31.53 31.55 31.41 31.18 31.12 30.66 30.81 30.98 31.03 31.96 33.02 33.89 33.65 33.26 32.91 33.20 33.08 33.37 34.16 35.15 35.48 34.51 34.26 33.95 33.44
41.45 42.58 42.09 39.73 37.62 36.86 36.55 35.46 34.80 33.79 33.13 32.27 31.29 31.55 31.49 31.19 30.87 30.81 30.50 30.30 30.15 30.25 29.97 29.69 29.54 29.58 30.49 33.00 34.70 34.68 33.50 32.86 32.16 31.65 32.41 33.09 33.91 34.50 36.05 36.40 36.19 35.24 32.36
42.08 42.33 40.90 38.63 36.77 36.32 35.96 33.47 32.42 33.13 31.83 31.06 30.56 30.28 30.21 29.83 29.90 29.82 29.32 29.02 28.82 29.11 28.77 28.92 29.12 28.85 29.49 32.56 34.12 34.67 33.17 32.24 31.71 31.42 32.01 32.23 33.21 34.01 33.83 34.70 35.42 35.61 36.55
41.89 40.51 38.79 36.31 35.79 35.55 34.05 32.89 32.18 31.19 30.20 29.62 29.43 29.40 29.13 28.85 29.07 28.56 28.14 28.16 28.59 28.29 28.15 28.25 28.57 28.41 29.03 31.82 33.21 34.01 32.37 31.81 31.47 31.58 31.88 31.91 32.27 33.39 32.42 32.65 33.31 32.71 32.59
40.54 38.94 37.11 35.34 34.34 33.54 33.15 31.37 29.69 29.11 29.22 29.17 28.44 28.35 28.29 27.82 27.69 27.33 27.37 27.83 28.21 27.86 27.88 28.02 27.79 27.20 27.60 31.31 32.35 32.88 31.51 30.89 30.79 31.77 31.89 32.50 31.80 33.26 34.66 33.47 31.28 30.11 30.59
37.49 36.06 34.60 33.74 32.83 31.69 31.24 29.98 28.51 28.29 28.11 27.74 27.52 27.85 27.81 27.22 26.71 27.01 27.11 27.79 27.89 27.35 27.68 26.97 27.26 28.15 27.34 30.19 32.41 32.36 30.84 29.78 30.00 30.95 31.83 32.54 32.00 33.72 35.62 31.11 29.40 27.31 28.21
35.11 34.64 33.12 31.15 30.68 31.01 30.57 28.69 27.79 27.24 27.27 27.20 27.19 27.27 27.32 26.40 27.34 27.16 27.16 27.04 26.63 26.51 25.80 25.77 26.65 27.11 28.42 29.45 32.20 32.66 30.47 29.73 29.76 30.40 29.46 30.46 32.89 35.86 33.24 32.36 29.11 28.14 30.22
34.18 31.37 30.15 29.66 29.48 29.93 29.31 27.14 26.59 26.81 26.41 26.32 26.00 26.28 26.35 26.38 27.25 26.02 26.45 26.30 25.62 24.85 24.72 24.93 25.78 27.75 28.89 30.64 31.09 32.24 32.46 32.38 29.58 28.67 29.52 30.81 33.53 31.91 31.25 30.07 30.62 31.27 30.40
32.01 31.33 29.90 29.65 28.58 27.86 26.93 25.89 26.17 25.71 25.45 25.03 25.03 25.26 25.95 26.13 26.34 25.60 25.59 25.09 25.18 24.31 23.94 24.76 25.42 26.77 28.36 28.74 30.84 31.68 32.38 32.65 29.72 30.01 31.62 31.58 30.68 30.09 28.80 29.00 29.65 29.15 25.98
29.71 30.13 30.29 28.44 27.02 26.20 26.05 25.26 25.13 25.30 24.57 23.99 24.44 25.46 25.08 26.92 26.39 25.74 25.82 24.67 24.03 23.85 24.80 25.35 25.67 26.16 27.07 27.70 28.69 29.46 30.03 30.72 30.14 31.95 28.86 28.78 28.68 28.78 27.73 26.57 26.59 25.93 25.59
29.44 29.04 27.38 26.10 25.19 24.71 24.42 24.59 25.36 24.49 24.37 24.31 24.49 24.67 25.18 24.31 24.56 25.15 24.86 25.07 26.45 26.96 26.41 26.60 26.74 25.79 25.62 27.24 30.48 29.97 28.64 29.18 30.61 28.54 26.70 25.04 24.64 24.25 23.69 24.15 24.44 24.95 25.01
27.21 25.83 25.15 24.42 23.94 23.60 23.58 24.14 24.67 24.50 23.47 23.63 24.81 24.51 25.23 24.77 24.74 23.93 24.07 27.68 28.77 29.81 29.95 30.04 28.81 28.12 29.69 30.82 30.80 30.65 30.89 31.51 30.07 25.76 23.15 22.17 22.96 21.91 22.23 22.29 22.66 23.64 24.12

GFSMW_sfc_wetblb_024.txt.gz
Wetbulb
52.76 53.71 54.69 55.85 56.97 58.01 59.30 60.63 61.93 62.85 63.41 63.30 63.11 63.06 60.18 59.42 58.22 57.56 57.02 56.68 56.61 56.21 56.33 56.13 55.57 55.46 55.05 54.40 54.07 54.07 53.24 53.82 55.46 52.74 54.07 55.06 57.00 59.68 59.51 61.35 61.55 61.20 61.16
52.40 53.05 54.15 55.20 55.48 56.33 57.54 59.36 61.16 63.06 63.65 63.45 61.28 59.98 57.92 56.77 56.08 55.51 54.70 54.31 53.85 53.79 53.52 53.66 53.42 53.46 53.12 52.84 52.41 52.27 51.07 51.77 52.79 50.48 49.91 48.23 51.27 55.09 54.97 54.96 55.18 57.36 58.30
51.57 52.45 53.38 54.13 54.87 55.01 55.73 57.08 58.73 58.79 59.71 58.95 58.02 57.10 56.57 55.70 54.12 53.52 53.12 52.86 52.73 52.28 52.45 52.34 52.15 51.93 51.89 50.66 50.65 50.30 49.91 48.36 50.45 51.04 48.82 47.01 45.14 48.45 51.23 52.28 53.09 54.63 55.61
52.25 52.58 52.93 53.49 54.08 54.36 55.59 55.71 56.00 56.09 56.59 57.15 56.37 55.39 53.72 51.40 51.86 52.02 52.36 52.30 51.77 50.38 50.08 49.99 49.57 49.30 49.16 48.03 47.83 47.92 47.93 47.25 45.54 47.51 48.79 49.27 48.18 44.42 43.79 49.23 49.84 51.34 51.89
52.10 51.98 52.37 52.61 53.47 54.58 54.80 55.11 54.87 54.53 54.76 54.79 54.42 53.18 51.82 51.61 51.70 51.53 51.05 50.63 50.48 48.83 46.98 47.10 46.84 46.07 45.65 45.62 45.12 45.76 45.81 45.11 43.89 44.46 45.20 46.20 47.31 46.95 43.32 42.21 43.96 46.99 48.39
51.90 52.23 52.37 52.76 52.88 54.01 54.20 53.92 52.97 52.30 52.94 52.89 52.66 52.08 51.05 50.49 49.78 48.95 48.33 47.95 47.60 46.71 45.04 44.49 44.52 43.98 43.17 43.24 43.13 44.50 44.73 42.85 42.96 43.64 44.80 45.21 42.73 41.03 41.53 40.70 42.22 43.27 45.31
51.52 51.13 51.26 51.74 52.25 52.56 52.75 52.60 52.06 50.82 51.47 51.21 50.68 50.19 49.45 48.58 46.88 46.33 45.40 44.48 44.18 43.63 42.75 42.76 42.25 41.90 41.81 41.84 41.76 42.89 43.24 41.74 41.26 42.95 43.88 42.15 40.88 41.44 41.13 41.01 42.19 41.44 43.38
51.94 51.68 51.86 52.09 51.92 52.01 52.13 51.89 50.84 49.92 49.95 49.36 48.36 47.97 47.68 46.40 45.17 44.05 43.46 42.46 41.88 41.42 41.44 41.22 41.32 40.82 40.65 40.65 40.80 41.13 41.57 40.75 40.41 41.99 40.51 40.17 40.75 41.82 42.34 41.97 40.45 37.45 38.70
51.55 51.57 51.78 52.05 51.83 51.66 51.20 51.00 50.09 49.12 48.34 47.37 46.70 45.51 44.76 43.72 42.79 42.14 41.76 40.81 40.45 39.83 40.09 40.15 39.90 39.90 39.66 39.51 39.57 39.57 39.02 39.10 39.76 39.73 39.84 39.55 40.24 41.95 41.50 40.38 38.93 36.93 32.74
51.20 51.25 51.26 51.41 51.77 51.14 50.32 49.96 49.58 47.73 46.70 45.96 44.80 43.28 42.01 41.19 40.75 40.38 39.37 39.43 39.41 39.20 38.94 38.72 38.70 38.60 38.52 38.48 38.44 38.24 38.23 37.86 38.31 38.56 38.34 38.76 39.32 40.42 39.51 38.13 37.34 36.15 34.31
50.73 50.86 51.08 51.16 50.96 50.09 49.30 48.22 47.67 46.19 44.81 43.86 42.80 41.76 40.32 39.42 39.21 38.80 38.61 38.43 38.48 38.14 37.67 37.44 37.24 37.18 37.05 37.35 37.07 36.93 36.94 36.63 37.12 37.93 37.63 37.28 38.52 37.66 37.05 37.03 36.25 35.37 35.32
51.17 51.19 50.53 50.12 48.90 48.45 47.83 46.81 46.40 45.00 43.58 42.11 41.04 39.65 38.99 38.41 38.12 37.07 37.60 37.73 37.22 37.51 36.97 36.71 36.41 36.25 36.15 36.29 35.75 35.45 36.12 36.03 36.00 36.44 36.45 36.09 36.58 35.71 35.85 35.65 34.94 35.58 36.21
50.19 50.18 49.51 49.11 48.25 47.39 46.27 45.29 45.10 43.51 42.11 40.70 39.38 38.33 37.61 37.11 35.95 36.14 36.84 36.79 36.52 36.45 36.45 36.01 35.31 35.07 35.12 34.95 35.29 35.37 35.68 36.06 36.21 36.13 35.55 35.17 34.98 33.98 34.67 34.65 34.97 35.89 35.63
49.07 49.21 49.04 48.60 47.69 46.29 44.90 44.09 43.43 42.44 40.16 38.59 38.00 37.16 36.07 36.10 36.43 36.44 36.10 35.87 35.90 35.50 35.28 35.16 34.78 34.61 34.51 34.50 34.66 34.82 35.33 35.62 35.80 35.78 35.58 34.87 34.17 33.70 33.71 34.08 33.96 34.76 34.55
48.19 48.21 48.45 47.87 46.43 44.59 43.69 43.26 41.90 39.77 38.58 37.26 36.44 35.61 35.80 35.91 35.90 35.53 35.46 35.43 35.20 34.96 34.84 34.16 34.20 34.29 34.10 33.98 33.67 34.30 34.50 34.51 34.41 35.08 34.60 34.65 34.73 35.09 35.42 34.36 34.07 33.54 33.16
47.54 47.92 48.00 47.27 44.95 43.57 42.50 41.14 39.95 37.72 37.34 36.11 35.09 34.97 34.97 35.02 34.88 34.78 34.52 34.53 34.44 34.46 34.18 33.72 33.45 33.14 33.27 34.14 34.22 34.33 33.62 33.82 33.67 32.79 33.49 34.06 34.32 34.47 35.76 35.97 35.98 34.89 32.39
47.33 47.14 47.19 45.79 43.83 42.89 41.79 39.89 38.44 37.19 35.63 34.30 33.98 33.87 33.79 33.73 33.93 33.97 33.71 33.53 33.43 33.83 33.46 33.20 32.98 32.46 32.75 33.54 33.67 34.16 33.31 33.36 33.05 32.80 32.62 32.82 33.59 34.19 33.69 34.78 35.13 35.37 36.44
46.99 46.93 45.81 43.78 42.34 41.77 40.11 38.05 36.69 34.37 33.07 33.35 33.30 33.32 33.17 32.91 33.28 33.13 33.11 33.29 33.38 32.99 32.65 32.48 32.21 31.84 31.93 32.66 32.99 33.43 33.25 32.91 32.86 32.83 32.78 32.32 32.52 33.46 33.39 32.98 33.29 34.69 34.08
47.22 46.20 44.64 42.13 41.04 39.78 38.05 36.12 33.76 33.45 33.63 32.95 32.64 32.61 32.64 32.12 32.25 32.22 32.36 32.73 32.40 32.30 32.08 31.83 31.31 30.74 30.97 32.01 32.21 32.79 32.35 31.66 31.79 32.46 32.68 32.77 32.31 33.55 34.07 32.93 31.35 31.66 31.68
44.56 42.23 41.08 40.41 39.56 37.43 36.44 34.72 32.49 33.24 32.46 31.99 31.93 32.46 32.35 31.82 31.60 31.98 31.84 32.29 32.17 31.33 31.43 30.97 31.29 31.11 30.45 32.08 32.60 32.74 31.92 30.39 31.15 31.74 32.19 33.21 32.68 33.64 34.44 31.71 30.28 28.35 29.13
41.24 40.43 39.58 38.81 37.03 35.57 34.54 33.28 32.67 32.20 31.85 31.94 31.95 32.10 32.20 31.78 31.91 31.91 32.05 31.64 31.12 30.81 30.55 30.10 30.69 30.97 31.57 31.70 32.68 32.82 31.25 30.72 30.70 31.14 31.33 31.99 33.04 33.98 32.91 32.17 30.11 28.75 29.83
38.50 38.90 37.41 35.75 35.01 33.71 32.53 31.69 31.99 31.91 31.83 31.50 31.30 31.54 31.81 31.51 31.34 31.29 31.37 31.10 30.42 29.44 29.11 29.01 29.53 31.04 31.66 32.07 32.07 32.62 32.65 32.46 30.33 29.68 31.33 31.50 33.06 31.66 31.06 30.50 30.87 30.97 30.38
37.40 37.56 36.44 33.75 31.91 31.60 32.90 31.65 31.49 31.45 30.99 30.92 30.84 30.99 31.29 31.31 31.77 30.69 29.93 29.51 29.48 28.48 28.03 28.09 28.40 29.12 30.21 30.81 32.01 32.30 32.57 32.70 30.26 31.12 31.97 32.51 30.89 30.16 29.36 29.78 29.68 29.38 27.78
36.34 36.01 34.59 31.85 30.82 31.89 31.24 31.33 31.18 30.89 30.15 29.94 30.42 30.93 30.52 30.48 30.87 30.46 30.10 28.90 28.33 27.73 27.56 27.71 27.56 28.09 28.68 29.42 30.49 30.92 31.69 31.69 31.20 31.67 30.92 29.95 29.33 28.96 28.46 27.85 28.13 27.65 27.11
35.43 35.45 33.28 32.62 31.62 30.95 30.57 30.77 30.58 30.15 29.52 29.97 30.30 30.23 30.11 30.08 29.65 29.65 29.18 28.45 29.24 28.90 27.51 27.99 28.07 27.49 27.08 28.35 30.77 30.52 29.51 30.04 30.75 30.09 28.40 27.04 26.23 25.34 25.69 26.02 26.26 26.36 25.99
34.36 32.98 32.12 31.29 30.23 30.01 30.03 30.12 30.14 29.78 29.02 28.83 29.55 29.36 29.11 29.40 28.62 28.07 28.10 30.22 30.04 30.29 30.18 30.09 29.42 29.11 30.16 30.83 31.02 30.61 30.73 31.58 30.71 26.94 24.48 23.94 24.09 23.88 24.00 23.65 23.70 24.44 24.81

GFSMW_sfc_wetblb_027.txt.gz
Wetbulb
55.12 55.96 56.94 58.34 59.20 60.80 61.94 62.84 62.81 63.55 63.90 63.63 63.43 62.88 59.75 58.77 57.44 56.82 56.36 55.85 55.55 55.36 55.09 54.90 54.46 54.43 53.77 53.43 52.98 52.79 52.00 52.17 53.33 51.21 51.79 52.35 52.95 54.93 55.52 53.83 53.40 54.19 55.64
53.96 55.07 56.26 57.23 57.78 59.27 61.25 62.54 63.30 63.78 63.21 62.69 61.35 59.90 58.13 56.86 55.81 55.39 54.35 53.92 53.59 53.62 53.41 52.92 52.68 52.28 52.04 51.40 50.59 50.19 49.08 49.78 50.57 47.81 47.23 45.48 48.38 52.56 50.37 50.11 52.30 52.01 53.51
53.21 54.09 55.15 55.77 56.72 57.40 59.24 59.39 60.42 60.01 59.90 59.43 58.56 57.49 56.78 55.94 54.03 53.56 53.05 52.80 52.13 51.26 50.87 50.45 49.88 49.66 49.61 48.61 48.05 47.74 47.78 45.48 47.18 47.79 45.42 42.26 40.62 44.21 48.06 48.98 49.81 49.32 49.09
53.86 54.17 54.41 54.88 55.44 55.91 57.11 57.32 57.49 57.62 58.20 58.78 57.65 55.84 53.54 51.12 52.27 52.59 52.91 52.40 51.07 48.68 47.78 47.78 47.17 46.55 46.59 45.45 45.88 45.41 46.22 45.54 42.82 44.65 45.07 46.36 45.21 41.23 40.69 45.49 45.66 47.40 46.82
53.37 53.43 54.06 54.55 55.32 56.11 55.92 55.97 55.70 55.34 55.39 55.09 54.64 53.68 52.30 52.32 52.63 52.26 51.51 50.69 50.15 48.16 45.74 45.47 45.35 44.35 44.05 43.77 43.88 43.55 44.47 43.90 42.34 42.24 42.48 43.31 44.84 44.67 39.41 36.29 40.02 43.58 45.00
53.15 53.66 54.15 54.57 54.51 55.41 54.86 54.72 53.46 53.11 53.75 53.85 53.61 52.90 51.95 51.41 50.41 49.49 48.80 48.25 47.69 46.43 44.58 43.91 43.65 43.34 42.73 42.34 42.46 42.67 43.47 42.80 42.30 42.07 41.88 42.73 40.37 38.41 38.09 36.56 37.77 38.56 42.55
52.74 52.39 52.46 53.01 53.46 53.45 53.37 53.15 52.69 51.66 52.36 52.10 51.56 51.03 50.32 49.42 47.85 47.32 46.21 45.10 44.53 43.31 42.29 42.41 41.92 41.67 41.96 41.89 42.07 42.06 42.67 42.84 41.32 40.50 40.67 41.98 40.35 40.50 39.66 38.37 37.79 38.36 39.21
52.68 52.30 52.85 53.17 53.02 52.85 52.70 52.46 51.60 50.61 50.66 49.98 49.16 49.02 48.42 47.28 45.97 44.75 43.75 42.82 42.01 41.41 41.53 41.10 41.00 40.82 40.70 40.40 40.86 40.95 41.53 41.44 40.39 39.90 39.90 39.76 40.14 40.40 39.92 38.48 37.86 33.55 34.81
52.33 52.47 53.09 53.25 52.92 52.62 52.55 51.93 50.81 49.84 49.16 48.36 47.61 46.37 45.62 44.51 43.33 42.73 42.23 41.51 41.17 40.41 40.30 40.35 39.71 39.82 39.70 39.47 39.78 39.59 38.94 39.11 39.00 38.95 39.06 38.77 39.35 40.00 39.58 40.45 38.63 34.75 29.40
52.39 52.64 52.76 52.90 53.01 52.50 52.17 51.80 50.82 48.81 47.90 47.00 45.98 44.75 43.36 42.51 41.92 41.44 40.13 39.80 39.84 39.60 39.22 38.94 38.70 38.59 38.64 38.50 38.29 38.11 38.38 37.63 37.96 38.14 37.97 37.97 38.50 38.30 38.78 38.52 37.66 36.17 33.14
52.24 52.39 52.57 52.95 52.42 51.67 51.01 50.19 48.73 47.32 46.16 45.62 44.90 43.38 41.81 41.01 40.74 39.73 39.02 38.84 38.86 38.53 38.14 37.86 37.62 37.47 37.27 37.32 36.89 36.69 36.88 36.29 36.62 37.38 37.18 36.93 37.42 36.81 36.78 36.70 35.98 34.92 34.53
52.65 52.49 52.45 52.15 51.11 50.49 49.75 49.17 48.05 46.55 45.44 44.39 43.17 41.56 40.80 40.21 38.87 38.12 38.17 38.20 37.66 38.05 37.66 37.29 36.88 36.63 36.43 36.30 35.56 35.14 35.71 35.15 35.22 35.98 36.02 35.73 36.60 35.45 35.72 35.09 34.23 33.89 34.26
52.18 52.17 51.76 50.94 50.37 49.85 49.00 48.06 47.11 45.38 44.33 43.04 41.93 40.53 39.11 38.34 38.04 37.64 37.62 37.61 37.18 37.04 37.11 36.71 35.90 35.55 35.54 35.25 35.15 35.14 34.47 34.81 35.24 35.35 35.09 34.88 34.96 33.77 33.98 33.83 33.03 33.33 34.20
51.62 51.52 50.71 50.70 50.31 49.38 47.92 47.02 45.62 44.55 42.58 41.13 40.15 38.63 37.91 37.57 37.24 37.24 37.02 36.80 36.76 36.29 36.17 35.95 35.48 35.33 35.14 35.12 34.94 34.24 33.84 34.21 34.55 35.02 35.01 34.98 34.14 33.30 32.97 32.90 32.83 33.46 32.40
50.51 50.60 50.28 50.36 49.56 47.99 46.80 46.24 44.35 42.56 41.24 39.25 38.19 37.16 37.17 37.05 36.81 36.54 36.33 36.33 36.18 36.04 35.99 35.31 35.22 35.30 35.12 34.75 34.34 33.74 33.20 33.07 33.13 34.03 34.62 34.66 35.40 35.68 35.25 33.51 32.87 32.04 31.67
50.07 50.33 50.65 50.28 48.52 46.88 45.59 44.50 42.16 40.28 39.51 37.91 36.51 36.24 36.12 35.95 35.87 35.72 35.38 35.43 35.42 35.48 35.36 34.96 34.70 34.21 34.27 35.98 35.77 34.39 32.62 32.60 32.52 32.51 33.38 33.93 34.45 34.71 35.83 35.92 35.99 34.74 30.88
50.07 49.87 50.10 49.55 47.71 46.10 44.82 43.07 40.93 39.35 37.89 36.18 35.23 34.91 34.97 34.72 34.87 34.97 34.72 34.62 34.56 34.94 34.51 34.43 34.20 33.36 33.45 35.26 35.12 34.66 32.31 32.11 32.45 32.29 32.26 32.55 33.72 33.81 32.95 34.58 35.24 34.65 35.55
49.68 49.72 49.80 48.33 46.66 45.40 43.88 41.32 39.37 36.85 35.26 34.68 34.55 34.60 34.31 33.92 34.19 34.04 34.01 34.29 34.35 33.83 33.57 33.45 33.32 32.65 32.85 34.56 34.26 33.98 32.45 32.19 32.31 32.25 32.27 31.76 31.70 32.72 32.58 31.83 31.51 32.32 31.97
49.92 49.61 48.70 46.47 44.52 42.66 40.60 37.95 36.01 35.26 34.72 34.36 33.94 33.83 33.69 33.10 33.19 32.94 33.14 33.60 33.27 33.01 32.60 32.86 32.33 31.83 31.78 33.71 33.94 33.33 31.86 31.39 31.15 31.93 32.06 31.79 31.58 33.62 34.58 31.65 30.95 28.83 29.04
48.31 46.28 44.78 43.34 41.99 39.68 38.54 36.88 34.76 34.62 33.99 33.25 33.10 33.62 33.59 32.96 32.55 32.73 32.67 33.17 33.09 32.43 32.54 31.94 32.26 32.84 31.27 33.69 34.13 33.41 31.66 29.99 30.18 31.05 31.77 33.35 32.23 34.03 34.60 30.85 28.42 25.82 26.38
43.91 43.31 42.34 41.23 38.95 38.23 37.33 35.43 34.76 33.46 33.08 33.39 33.42 33.41 33.50 32.96 32.95 32.64 32.88 32.65 32.24 31.82 31.31 30.86 31.53 31.65 32.47 32.47 34.10 34.01 31.39 30.26 29.42 29.63 29.69 30.81 33.11 34.28 33.47 32.64 28.15 27.05 29.64
40.85 41.43 39.95 37.50 37.46 37.30 36.03 33.48 33.15 33.18 33.27 33.05 32.73 32.84 33.06 33.11 32.80 32.28 32.37 31.90 31.35 30.32 29.83 29.75 29.92 31.53 32.05 33.18 33.09 33.64 33.34 32.76 29.59 28.63 29.55 30.04 33.80 32.11 31.67 30.35 31.00 31.34 30.32
39.92 40.20 37.87 35.57 34.92 34.33 34.80 33.61 32.52 32.76 32.46 32.31 32.19 32.43 32.83 32.76 32.72 31.48 30.90 30.47 30.40 29.30 28.60 28.40 28.35 29.01 30.49 30.75 32.55 32.67 32.82 32.65 29.83 29.77 30.83 33.28 31.18 30.60 29.22 29.66 30.09 29.70 25.71
38.53 38.66 36.52 34.20 32.66 33.26 32.88 32.91 32.54 32.41 31.77 31.43 31.74 32.22 31.69 31.74 31.79 31.86 31.38 30.04 29.18 28.18 27.75 27.32 27.15 27.69 28.15 28.73 29.44 29.78 29.93 31.08 29.95 31.13 30.22 29.39 29.20 29.31 28.04 26.98 26.73 25.64 25.51
37.95 37.88 36.54 34.73 33.21 32.89 32.23 32.27 32.04 31.83 30.76 31.05 31.22 31.40 31.47 30.82 30.64 30.88 30.36 29.52 30.03 29.68 27.61 27.76 27.71 26.27 25.88 27.68 30.80 30.25 28.56 28.58 30.11 29.19 26.95 25.37 24.61 23.46 23.65 23.90 24.21 24.74 24.76
37.55 36.25 35.26 34.21 32.24 32.00 31.74 31.83 31.78 31.19 30.30 29.63 30.38 30.67 30.11 30.37 30.23 29.43 29.28 32.12 31.99 32.05 31.61 31.28 29.94 29.39 30.75 31.50 31.44 30.97 30.73 31.33 30.62 26.11 23.30 22.40 22.45 21.94 22.18 22.22 22.66 23.54 24.00

GFSMW_sfc_wetblb_030.txt.gz
Wetbulb
51.55 52.65 52.61 54.14 55.97 57.51 58.13 58.34 58.84 59.45 59.77 59.39 59.25 56.79 54.19 52.37 51.29 51.11 51.20 50.75 50.74 50.96 49.36 49.54 48.88 48.52 47.96 46.74 46.46 45.62 44.72 44.38 44.92 43.33 43.57 43.96 45.95 45.47 45.42 45.71 45.54 47.89 48.45
49.73 51.44 52.44 53.27 55.40 57.22 58.58 59.18 59.32 58.60 58.34 57.34 56.91 55.53 53.37 51.27 50.74 50.46 49.59 49.30 48.45 48.20 48.00 45.86 45.89 45.00 44.90 43.86 42.67 42.02 42.10 42.65 42.34 39.84 39.17 37.58 40.68 42.95 44.11 44.86 46.36 45.85 45.17
49.27 50.11 50.54 51.71 53.59 54.33 55.29 56.03 55.94 55.61 55.32 54.62 53.99 52.97 51.89 50.34 48.76 48.39 47.72 47.22 46.00 45.48 45.02 44.08 43.07 42.37 42.16 41.01 40.39 39.90 40.27 39.34 40.08 39.39 37.85 35.63 34.88 38.05 41.36 42.93 43.87 41.71 42.24
50.19 50.49 50.56 50.60 50.90 51.57 52.77 53.52 54.37 54.56 54.72 53.98 52.36 50.06 47.80 46.36 47.28 47.46 47.85 46.42 44.96 43.05 42.96 42.94 41.62 40.44 40.31 38.80 39.06 40.57 39.05 39.00 36.68 38.18 41.34 38.50 37.76 35.30 35.72 39.48 39.37 40.41 40.19
49.81 49.79 50.18 51.31 51.55 51.50 50.52 50.46 50.54 50.54 50.53 50.16 49.53 48.26 47.03 47.18 47.42 46.70 45.27 44.70 43.70 42.10 41.52 41.16 40.06 38.95 39.09 37.99 37.86 37.22 37.30 38.64 37.00 36.42 36.52 36.78 38.17 37.70 33.93 31.02 33.68 37.59 39.11
49.53 50.00 50.86 51.64 50.73 50.27 49.44 48.87 48.90 49.02 49.36 48.97 48.32 47.17 45.81 45.25 44.22 43.04 42.28 42.09 41.59 40.67 39.70 40.27 38.62 38.02 37.70 37.42 37.04 36.98 36.54 37.41 37.45 36.68 35.66 35.39 35.61 34.65 33.47 32.21 32.94 33.30 36.14
49.07 49.02 48.76 49.18 49.25 48.50 48.36 48.60 47.80 47.16 47.39 46.57 45.91 45.25 43.85 42.40 40.40 40.15 39.14 38.23 38.16 37.54 36.90 37.28 36.60 36.52 36.87 37.03 36.70 36.35 35.95 36.51 35.52 35.12 34.86 35.88 35.58 36.35 35.50 33.84 32.55 31.84 34.43
48.71 48.47 48.65 48.59 48.45 48.66 47.60 47.29 46.59 45.64 45.34 44.36 43.26 42.58 42.31 40.73 39.49 38.30 37.62 36.82 36.51 36.22 36.53 36.23 36.02 35.93 36.33 35.86 35.35 35.28 35.52 35.07 33.60 32.58 33.18 34.34 35.27 35.84 35.47 34.07 32.17 29.44 31.29
48.41 48.33 48.79 48.87 48.15 47.55 47.43 46.66 45.70 44.81 44.08 42.79 41.22 39.69 39.13 38.44 37.46 36.85 36.56 36.21 35.90 37.66 35.63 35.21 34.72 34.86 35.02 34.92 34.41 33.79 32.92 32.79 32.59 32.23 32.48 33.23 34.81 35.31 35.10 34.69 34.13 31.00 26.94
48.45 48.55 49.00 48.61 48.22 47.99 47.21 46.29 45.27 43.65 42.60 41.49 40.08 38.83 37.44 37.05 36.50 35.78 34.69 34.75 34.75 34.90 34.41 34.10 33.91 34.04 34.13 33.77 32.82 32.24 32.80 32.52 32.04 33.86 32.83 33.36 34.28 34.20 34.39 33.78 33.55 32.52 29.72
48.47 48.78 48.80 48.70 47.67 47.19 46.44 44.62 43.48 42.42 41.26 40.57 38.96 37.15 36.39 36.20 35.36 34.36 34.07 33.92 34.17 33.93 33.85 33.71 33.48 33.05 32.77 32.54 31.74 31.29 32.33 31.79 30.97 32.00 32.67 32.87 33.57 33.19 33.10 33.23 32.74 31.46 30.86
48.88 48.88 48.60 47.84 46.51 45.71 44.95 43.66 42.75 41.28 40.32 39.46 37.70 36.64 36.10 34.98 33.87 33.46 33.75 34.12 33.19 33.36 33.33 33.10 32.76 32.47 32.51 31.95 30.78 30.56 31.12 29.97 30.35 31.22 31.63 31.68 33.89 31.89 32.46 31.76 30.83 30.59 30.78
48.43 48.24 48.03 47.14 45.91 44.91 44.33 43.14 41.64 40.14 39.51 38.60 36.81 35.29 34.48 33.69 32.77 32.95 33.48 33.74 32.94 32.30 32.51 32.66 31.91 31.87 32.27 31.56 30.89 31.51 29.87 30.56 30.75 31.07 30.95 31.07 31.34 30.75 31.00 30.47 30.00 30.40 31.58
48.65 47.87 47.18 46.46 45.47 44.69 43.49 42.15 40.40 39.32 38.04 37.12 35.48 34.09 33.17 32.92 32.59 32.86 32.99 33.04 32.38 31.85 31.65 31.85 32.02 32.11 32.04 31.94 32.11 30.94 30.55 30.12 30.83 31.26 31.18 31.18 31.19 30.51 30.41 30.64 30.72 31.79 30.57
47.61 47.28 46.53 45.70 44.50 43.21 42.23 40.90 39.20 37.89 36.94 35.44 34.44 33.34 33.42 33.17 33.12 32.79 32.68 32.50 32.33 32.19 31.98 31.77 31.53 31.30 31.83 33.34 31.92 31.85 30.35 29.54 29.72 30.25 30.91 31.83 33.21 35.48 34.58 32.52 31.36 30.60 29.21
47.72 47.12 47.33 45.36 43.41 41.72 41.03 39.98 37.39 36.35 35.86 34.35 33.34 33.74 33.25 32.91 32.44 32.04 31.73 31.13 30.92 30.65 30.76 30.29 30.20 29.47 32.66 35.87 36.29 34.86 30.58 29.64 29.25 28.88 30.18 30.82 32.67 32.80 35.36 35.19 35.40 34.41 30.77
47.11 47.24 46.48 45.30 43.68 41.62 40.65 37.13 35.49 35.45 33.77 32.90 32.82 32.83 32.60 32.27 31.59 31.27 30.42 29.82 29.20 29.22 28.73 28.59 28.74 27.97 28.22 35.35 35.99 35.74 31.08 29.48 29.16 29.15 29.29 29.62 31.42 31.66 30.03 33.07 34.94 34.54 35.25
46.78 46.42 45.79 43.75 42.29 40.81 39.23 36.69 34.52 32.94 32.51 31.93 32.10 32.64 32.08 30.86 30.24 29.31 28.64 28.35 28.54 27.70 27.33 27.51 27.81 27.55 29.82 34.86 35.14 35.25 30.49 29.43 29.26 29.46 29.33 28.94 28.92 30.25 31.59 30.95 30.39 30.60 31.14
46.12 45.57 44.07 41.88 40.15 37.63 35.90 34.07 32.67 32.05 32.20 32.01 31.51 31.12 30.45 29.15 28.91 27.83 27.27 27.57 27.14 26.71 26.46 28.02 27.56 26.48 27.55 33.84 34.72 33.72 29.71 29.34 28.84 29.77 29.76 30.04 29.65 32.86 34.28 30.75 30.40 28.19 27.66
44.65 42.59 40.95 40.07 37.51 35.75 34.70 32.29 31.24 31.17 30.98 30.80 30.31 29.94 29.79 28.72 27.49 27.10 26.80 27.28 26.99 28.10 28.98 28.40 27.29 29.62 27.41 32.69 34.69 33.55 30.30 28.47 28.31 28.88 29.64 32.36 31.37 33.26 34.36 30.59 27.88 25.27 24.63
40.68 40.66 39.76 36.92 34.55 34.11 33.82 31.36 31.16 29.32 29.88 30.56 30.27 29.85 29.16 28.10 27.80 27.19 26.82 26.45 26.08 26.65 25.40 26.16 26.07 25.87 27.68 29.08 33.96 33.91 30.24 28.73 28.28 28.20 27.47 28.52 32.12 34.02 33.46 32.60 26.97 26.25 29.19
39.16 38.72 35.15 34.19 33.85 34.10 32.13 30.38 28.14 29.28 30.02 29.63 29.32 28.66 28.34 29.44 30.06 26.30 25.88 25.89 25.23 24.10 23.59 24.14 25.38 26.89 27.45 31.72 31.86 33.18 32.93 32.55 28.62 27.31 27.39 27.97 32.84 31.71 31.32 29.52 30.58 31.12 29.83
37.63 36.17 34.09 31.87 30.80 31.19 30.67 28.76 28.22 29.59 28.95 28.02 27.50 27.73 28.12 27.97 27.58 25.61 24.91 24.45 24.49 23.19 23.43 24.37 24.48 25.15 27.30 27.26 31.39 32.20 32.77 32.40 29.09 27.89 30.05 32.56 30.87 29.82 27.66 28.70 29.47 28.96 23.59
35.13 34.23 32.15 30.02 28.74 29.23 29.36 28.85 29.00 29.04 28.02 26.48 26.51 26.81 26.08 27.48 26.16 26.60 25.93 23.95 22.99 23.08 24.46 24.60 24.35 24.74 25.40 25.89 27.01 28.65 28.91 30.35 28.70 30.26 28.99 28.30 27.86 27.92 26.93 25.37 24.95 24.29 24.47
34.90 33.86 31.72 29.58 28.41 28.78 28.50 28.21 28.41 27.89 25.94 25.66 25.36 25.74 26.15 25.25 24.70 25.21 24.30 23.18 24.17 26.36 26.42 25.86 25.49 24.33 24.43 26.58 31.26 30.52 28.25 28.09 29.52 28.94 24.74 22.66 22.17 21.52 21.98 22.65 23.42 23.81 24.11
34.07 32.51 31.04 29.41 28.74 28.29 27.62 27.47 28.13 27.09 25.75 24.12 24.94 24.79 24.49 24.02 24.22 23.23 24.65 30.33 31.52 32.09 32.01 31.85 30.04 28.56 31.09 32.07 31.79 31.29 31.17 31.17 30.37 24.72 21.05 20.44 20.54 20.76 21.33 21.34 21.88 22.73 23.48

GFSMW_sfc_wetblb_033.txt.gz
Wetbulb
49.16 50.85 51.75 53.62 55.12 55.41 56.12 56.72 57.61 58.50 59.75 57.01 53.93 51.68 49.38 49.80 49.23 49.18 48.83 48.09 47.99 46.88 45.54 45.43 44.19 44.21 43.34 41.29 41.31 41.56 41.02 41.10 40.70 39.18 38.37 39.50 41.93 40.54 40.40 41.17 42.37 44.17 44.66
48.00 49.80 51.43 53.19 55.61 55.87 56.08 55.87 55.48 55.24 56.11 55.56 53.39 51.29 49.03 48.43 48.18 47.29 45.77 45.17 44.77 44.99 43.94 42.57 41.61 40.73 40.71 39.43 38.61 38.29 38.96 39.86 38.82 36.07 35.47 34.42 37.60 39.36 40.10 40.51 42.75 40.53 40.05
48.07 48.05 49.56 51.93 52.83 53.03 53.05 53.44 53.10 53.15 53.20 52.71 51.76 50.44 49.58 47.68 46.54 45.25 43.67 42.73 42.41 42.59 42.06 40.70 39.74 39.06 38.66 37.61 36.96 36.47 36.95 36.59 37.51 36.55 35.52 31.99 31.55 34.42 38.23 40.11 38.93 38.44 38.21
48.47 49.06 49.92 49.62 50.13 49.99 51.51 52.44 52.61 52.20 51.54 51.65 50.32 47.82 46.49 45.13 45.16 45.03 43.45 41.80 40.85 40.20 40.72 40.02 38.71 37.86 37.74 36.04 36.49 37.93 35.82 36.49 35.07 36.18 39.01 36.03 34.85 31.98 32.40 36.50 37.09 36.54 37.64
48.76 48.81 49.26 49.96 49.31 48.63 47.21 47.21 48.29 48.71 48.22 47.80 47.71 47.08 45.16 44.92 44.74 43.25 41.75 40.11 38.82 39.06 39.37 38.75 37.52 36.54 36.67 35.56 35.23 34.99 34.46 34.87 35.47 34.78 34.56 33.28 33.49 34.55 31.70 28.49 31.01 35.36 36.41
47.98 48.75 49.57 49.73 47.57 46.51 46.29 46.58 47.57 46.79 46.90 46.99 45.70 44.52 42.77 41.51 40.16 39.03 38.41 38.32 37.80 37.54 37.34 37.72 35.93 35.50 35.40 34.92 34.59 34.72 34.00 34.28 34.62 34.46 33.73 33.13 31.63 32.12 30.73 29.64 30.41 30.90 33.36
47.91 48.28 47.96 47.31 45.99 45.40 45.54 46.30 46.20 44.52 44.54 43.84 42.76 41.25 39.22 38.22 37.36 36.81 35.92 35.75 35.62 35.19 34.65 34.91 34.07 33.99 34.39 34.70 34.22 33.82 33.41 33.52 32.18 31.53 31.59 32.78 33.07 33.36 32.89 31.60 30.13 29.50 32.33
47.81 47.79 47.74 46.64 46.01 45.96 44.73 44.79 44.26 42.88 42.17 41.39 40.01 39.12 38.46 37.50 36.52 36.07 35.28 34.69 34.34 34.04 33.93 33.68 33.49 33.48 33.88 33.51 32.91 32.66 32.51 32.57 30.81 29.91 29.97 31.27 32.19 33.34 33.31 31.70 30.23 27.44 28.75
46.97 47.40 47.34 46.73 45.34 44.43 44.27 43.91 42.96 41.64 40.49 39.09 37.99 36.63 36.39 35.89 34.90 34.44 34.29 33.81 33.61 36.21 33.28 32.79 32.54 32.77 32.78 32.50 31.82 31.33 30.50 30.33 30.02 29.55 29.71 30.10 32.18 32.79 32.90 32.68 31.95 29.11 24.56
46.64 47.07 47.23 46.47 45.12 45.15 44.08 42.90 42.11 40.71 39.19 37.70 36.56 35.77 34.84 34.65 33.97 33.45 32.62 32.71 32.70 32.87 32.50 32.44 32.04 31.94 31.77 31.48 30.58 29.99 30.55 29.60 29.51 30.97 29.16 30.42 31.63 31.87 32.24 31.71 31.33 30.98 28.44
46.37 46.94 47.08 46.53 45.67 44.64 43.42 41.77 40.80 39.59 38.01 36.75 35.36 34.51 33.97 33.67 33.24 32.63 32.20 32.02 32.07 31.97 32.00 31.87 31.46 31.10 30.95 30.74 29.62 29.09 30.13 29.02 28.50 28.80 30.03 30.02 30.86 30.68 30.97 31.29 31.20 30.24 29.31
46.84 46.86 46.72 45.82 45.00 43.26 42.11 40.77 39.59 38.56 37.00 36.06 34.97 34.06 33.72 32.96 31.89 31.67 31.94 32.36 31.50 31.54 31.38 31.42 31.15 30.88 31.07 30.54 29.18 28.51 28.73 27.80 27.74 28.57 29.04 29.24 31.51 29.46 30.20 30.33 29.55 29.32 29.65
46.49 46.39 45.34 44.93 44.03 42.50 41.46 39.94 38.59 37.20 36.38 35.55 33.94 33.21 32.37 31.62 30.94 31.14 31.88 31.88 31.24 31.11 31.03 31.05 30.61 31.01 31.64 30.28 29.39 29.00 28.05 28.26 28.17 28.40 28.66 28.95 28.99 28.43 29.31 29.43 29.17 29.74 31.02
46.57 45.75 44.84 44.38 43.70 42.72 41.16 39.07 37.37 36.59 35.55 34.43 33.19 32.02 31.50 31.29 31.16 31.44 31.59 31.48 31.09 30.53 30.48 31.09 31.12 31.00 30.24 30.13 30.08 29.17 28.67 27.92 28.56 29.27 29.31 29.13 29.06 28.77 29.22 29.74 29.79 30.97 29.23
45.56 45.42 44.53 43.96 42.81 41.57 39.64 38.01 36.40 35.52 34.82 33.44 32.60 31.85 31.86 31.97 31.79 31.30 31.02 30.83 30.86 31.04 30.78 30.36 29.55 29.30 29.96 32.18 31.70 31.34 29.48 27.48 27.32 28.20 29.41 30.03 31.49 33.97 33.24 31.23 29.45 28.92 28.31
45.79 45.61 45.43 43.84 42.06 40.61 38.40 37.05 35.38 34.47 34.12 32.49 31.87 32.47 32.37 31.81 30.92 30.62 30.52 29.79 29.73 29.28 28.68 27.93 27.82 27.27 30.98 35.02 36.04 34.74 30.50 28.35 27.59 27.45 28.95 29.39 31.67 31.41 34.45 34.27 34.69 33.66 30.06
45.29 45.74 45.15 43.59 41.58 39.64 37.62 35.03 33.94 33.45 32.07 31.70 31.95 32.17 31.46 31.20 30.80 30.07 29.22 28.47 27.51 26.69 26.25 26.52 26.51 25.93 26.13 34.80 35.66 35.66 31.13 28.61 27.17 27.64 28.11 28.69 30.56 31.01 29.26 32.29 34.10 33.65 34.85
45.91 45.83 43.83 42.07 40.07 37.97 35.91 33.98 33.11 31.89 31.40 31.43 31.19 31.41 31.19 30.02 29.32 28.39 26.75 26.09 26.10 25.49 25.42 25.51 25.76 25.33 27.90 34.25 34.67 35.11 30.17 27.71 27.14 27.57 27.98 27.84 28.31 29.65 30.51 29.78 29.29 30.71 30.98
45.94 44.16 42.49 39.50 37.67 35.37 34.18 32.55 31.36 31.32 31.22 30.58 30.49 30.39 29.80 28.59 27.82 26.14 25.39 25.51 25.23 24.78 24.42 25.66 25.18 24.19 25.07 32.86 33.95 33.09 29.10 28.42 27.83 28.80 28.53 29.99 28.70 31.71 33.34 30.55 29.85 27.42 26.70
41.64 39.42 37.88 35.96 34.07 33.20 33.33 31.67 29.72 29.75 29.87 29.94 29.53 29.39 29.05 27.66 26.04 25.34 25.10 25.44 24.75 25.66 26.38 26.14 24.99 27.57 24.28 30.87 33.13 32.25 29.00 27.30 27.20 28.53 28.92 31.37 30.04 32.55 34.59 29.52 27.14 23.38 23.74
38.32 37.66 36.17 33.99 32.84 31.93 31.94 30.32 29.27 28.46 29.25 29.77 29.59 28.98 27.90 26.69 26.22 25.45 24.79 24.55 24.21 24.16 22.93 22.73 22.84 23.25 25.22 26.82 32.58 32.84 29.26 27.75 28.49 27.37 26.92 27.12 31.58 34.48 32.32 31.52 25.09 25.24 28.71
35.46 34.96 33.30 32.21 32.05 31.73 31.11 27.86 27.00 28.29 29.01 28.86 28.46 27.39 26.29 27.87 28.40 24.73 24.28 23.82 23.29 22.10 21.43 20.97 22.16 23.61 24.57 30.13 31.19 32.69 32.80 32.65 28.38 26.94 26.74 27.72 32.69 30.96 30.03 28.11 29.84 30.60 29.23
33.76 33.89 32.41 30.31 29.06 29.36 28.86 27.11 27.20 28.31 27.85 27.13 25.83 25.74 26.53 26.51 25.89 23.91 23.56 22.77 22.56 21.73 22.34 22.55 23.82 24.59 26.04 24.74 31.01 32.20 33.00 32.36 29.08 28.11 30.38 30.98 29.71 28.57 26.43 27.97 28.99 28.56 23.65
31.95 31.61 30.22 28.39 27.03 28.06 28.15 27.16 27.47 28.02 26.50 24.75 24.70 25.84 25.02 26.61 24.25 24.53 23.98 21.86 21.23 21.09 23.91 24.43 24.18 24.04 24.93 25.38 26.77 28.78 28.21 30.35 29.26 29.96 26.57 27.00 26.71 26.98 26.12 24.97 25.03 24.14 24.01
31.55 30.96 29.30 27.66 26.19 26.58 26.78 27.05 27.11 26.37 24.96 24.80 24.41 23.80 24.39 23.16 22.95 23.46 22.05 22.02 22.79 25.65 25.65 25.09 25.16 23.90 24.17 26.29 30.97 30.07 28.21 28.29 29.05 27.66 23.41 21.80 21.53 21.06 21.74 22.56 22.96 23.22 23.26
31.27 29.72 28.01 27.03 26.24 26.09 25.72 26.30 27.05 26.13 24.55 23.37 23.86 23.28 23.32 22.32 22.75 21.14 22.09 28.58 30.25 31.03 31.03 30.87 29.10 27.59 30.42 31.50 31.34 31.12 31.14 30.66 29.52 23.62 20.30 19.94 20.40 20.19 20.68 20.86 21.29 22.10 22.72

GFSMW_sfc_wetblb_036.txt.gz
Wetbulb
47.70 49.10 50.32 52.07 53.34 53.91 54.71 55.03 56.98 56.95 55.22 53.51 51.14 48.32 46.67 48.95 48.40 48.27 47.67 46.43 44.84 44.13 42.70 41.80 41.09 41.26 39.40 37.97 38.50 38.32 38.56 38.71 37.57 36.01 35.51 37.12 39.40 38.00 37.42 38.23 39.76 39.50 38.77
46.81 48.37 50.68 52.40 54.76 54.03 54.75 55.17 55.59 55.37 53.83 52.17 49.72 48.16 46.28 46.98 46.59 45.40 43.17 42.91 42.34 42.06 41.43 39.69 38.87 38.39 38.06 36.91 36.17 35.87 36.15 37.34 36.51 33.75 33.32 32.48 35.18 36.88 37.34 37.77 39.15 36.08 37.99
46.94 47.51 50.09 52.49 52.54 52.32 52.33 52.55 52.30 51.79 51.04 49.76 49.07 47.82 47.00 45.95 43.54 41.70 40.16 39.90 40.35 40.55 39.44 38.50 37.76 37.15 36.57 35.41 34.97 34.53 34.43 34.06 35.88 35.12 33.16 28.45 28.15 31.90 34.78 35.88 36.09 36.37 35.06
47.60 47.98 50.38 50.50 50.70 50.14 50.36 50.95 51.10 50.47 49.92 49.62 48.35 47.08 45.40 43.66 42.82 41.25 39.07 38.42 38.60 38.58 38.77 38.09 36.94 36.05 35.74 34.13 34.44 36.05 33.35 33.52 33.29 34.40 37.33 34.29 32.81 28.89 28.15 33.95 34.96 33.69 35.39
48.08 49.45 50.46 50.25 49.09 48.66 48.00 48.68 49.10 48.71 47.88 47.35 47.18 46.40 44.40 43.95 42.39 40.20 37.42 36.64 36.72 37.30 37.53 36.92 35.67 34.82 34.71 33.47 33.21 33.10 32.35 32.80 33.62 32.48 32.81 31.59 31.45 31.52 29.78 26.57 28.48 32.86 34.33
47.89 48.41 48.20 47.81 45.41 45.29 45.91 46.69 47.28 46.04 46.12 46.19 44.74 44.25 42.61 40.47 39.44 37.49 36.28 35.92 35.70 35.83 35.65 35.74 34.17 33.57 33.39 32.95 32.50 32.31 31.90 31.83 31.70 31.72 31.03 30.71 29.29 29.07 27.92 26.83 27.68 28.28 31.16
47.40 47.27 46.35 45.30 44.86 44.57 44.93 45.46 45.35 43.12 43.30 42.56 41.39 40.29 38.38 37.42 36.08 35.36 34.74 34.37 34.12 33.81 33.21 33.29 32.33 32.06 32.35 32.63 32.13 31.71 31.21 31.08 29.76 28.75 29.03 30.39 30.48 31.19 30.06 28.77 27.67 27.19 29.89
47.41 46.95 45.72 44.86 44.44 44.35 43.71 43.43 42.63 40.92 40.85 39.88 37.82 36.91 36.61 36.24 35.22 34.74 34.13 33.54 33.24 32.90 32.46 31.91 31.64 31.63 32.00 31.54 30.88 30.68 30.41 30.54 28.78 27.76 27.61 28.90 29.48 30.13 30.41 29.21 27.57 24.91 26.59
46.53 45.72 44.88 44.67 43.92 43.11 42.53 42.03 40.84 39.38 38.92 37.70 36.67 35.08 34.90 34.62 33.71 33.14 32.99 32.54 32.56 34.96 31.67 31.16 30.95 30.91 30.92 30.69 30.12 29.69 28.77 28.42 28.05 27.40 27.63 27.64 29.20 30.03 30.20 30.20 29.54 26.97 22.59
45.84 45.34 44.80 43.99 43.32 42.74 41.17 40.54 40.07 38.50 36.88 35.75 35.27 34.27 33.39 33.10 32.56 32.25 31.53 31.68 31.55 31.53 31.06 30.73 30.42 30.33 30.33 30.13 29.19 28.52 28.92 27.93 27.75 29.61 27.45 27.38 29.13 29.43 29.84 29.62 29.50 28.97 26.60
45.59 45.27 44.73 43.95 43.21 41.82 40.75 39.15 38.18 36.79 35.48 34.83 33.84 32.97 32.49 32.28 31.95 31.41 31.04 31.05 30.84 30.54 30.45 30.29 30.07 29.82 29.69 29.53 28.36 27.97 28.52 27.51 27.08 27.40 27.60 28.03 28.57 28.66 28.79 29.15 29.13 28.44 28.23
45.83 45.43 44.42 43.21 41.92 40.67 39.54 38.20 37.16 35.88 34.72 34.10 33.23 32.39 32.23 31.53 30.84 30.71 30.88 31.03 29.97 30.09 29.95 29.93 29.77 29.62 29.85 29.39 28.20 27.30 27.14 26.56 26.63 27.05 27.14 27.33 30.28 27.50 28.16 28.30 27.83 28.03 28.45
45.20 44.75 43.53 42.58 41.15 39.97 38.62 37.50 36.42 34.98 34.34 33.81 32.60 31.75 30.99 30.54 30.02 30.19 30.66 30.66 29.85 29.39 29.56 29.81 29.50 29.56 29.96 29.07 28.16 27.42 27.18 27.20 27.10 27.02 26.88 27.35 27.38 26.96 27.60 27.72 27.67 28.45 29.90
44.99 44.12 43.29 42.21 40.99 39.80 38.35 36.67 35.24 34.85 33.67 32.95 31.79 30.91 30.52 30.16 30.10 30.32 30.18 30.30 29.61 29.18 29.48 29.41 29.36 29.22 28.54 28.34 28.46 28.58 27.82 27.25 27.64 27.81 28.04 27.65 27.55 27.25 27.59 28.87 28.63 29.75 27.54
44.02 43.84 43.06 41.89 40.21 38.79 37.34 35.97 34.69 33.85 33.27 32.15 31.46 30.94 30.81 30.75 30.49 30.10 29.83 29.40 29.63 29.28 28.84 28.34 27.97 27.37 28.25 30.90 30.91 30.36 28.53 26.95 26.34 26.93 27.61 28.74 30.85 33.80 32.95 30.98 29.36 28.70 27.92
44.33 44.11 43.56 41.62 39.93 38.01 36.26 35.33 33.80 33.05 33.04 31.78 31.26 31.63 30.99 30.53 30.19 29.26 28.89 28.94 28.30 27.58 27.33 26.37 25.99 25.64 29.65 33.88 35.68 34.22 29.93 28.21 26.33 26.32 27.83 28.26 30.95 30.60 34.06 33.57 33.97 32.85 29.14
44.59 43.99 43.31 42.06 40.44 37.66 36.24 33.88 32.95 32.65 31.55 31.04 31.31 30.94 30.63 30.25 29.32 28.94 28.15 27.28 26.49 25.52 24.88 24.93 25.00 24.48 24.53 34.13 34.98 35.24 30.52 26.98 26.27 25.90 26.83 27.39 29.55 30.44 28.79 31.37 33.18 32.79 34.34
44.84 44.49 43.62 41.49 39.24 36.87 34.93 33.13 32.47 31.12 30.65 30.53 30.62 31.33 29.93 28.98 28.33 27.23 26.33 25.34 25.02 24.25 23.96 24.24 24.39 23.55 25.88 33.13 34.08 34.50 28.58 27.45 26.99 26.42 26.53 26.21 27.96 28.37 29.33 28.88 28.81 29.47 27.52
45.57 44.72 42.51 38.40 35.83 34.29 33.55 31.91 30.53 30.78 30.67 30.43 30.67 29.35 28.91 27.63 26.89 26.00 24.70 24.56 24.14 23.45 23.48 24.04 23.45 22.30 23.32 31.88 33.18 32.21 28.05 27.40 26.53 27.58 27.48 29.12 27.81 31.07 33.32 30.70 27.36 25.72 24.95
41.52 38.92 37.68 36.02 34.05 32.59 32.57 31.42 30.04 29.66 29.96 30.11 28.68 28.26 27.74 26.86 26.03 25.31 24.36 24.23 23.60 24.10 24.31 23.39 22.91 26.39 22.92 29.52 32.60 31.94 28.48 26.60 26.68 28.24 28.89 31.09 29.81 33.00 34.10 28.24 25.41 21.83 22.72
36.38 35.98 35.54 33.81 32.08 31.99 32.03 29.79 28.71 28.82 28.87 28.54 28.00 27.70 27.16 26.36 25.74 24.33 23.86 23.50 22.74 22.99 21.46 21.73 21.57 21.86 23.71 24.65 32.11 32.82 29.38 27.80 28.82 26.78 26.76 27.03 32.06 32.76 31.59 30.88 24.11 24.68 29.03
34.05 33.93 32.27 30.77 30.45 30.96 30.76 28.35 27.06 27.19 27.76 27.69 27.29 26.54 25.96 27.20 27.03 23.79 23.26 22.54 21.78 20.66 20.18 20.01 21.54 22.92 23.16 29.42 30.90 32.67 33.02 32.80 27.59 26.64 26.83 28.37 31.35 30.23 29.59 27.81 29.61 30.58 28.80
32.90 33.02 31.39 29.38 28.16 28.31 29.31 26.71 25.58 26.94 26.44 25.73 25.23 25.23 25.38 25.02 24.21 22.52 21.98 21.00 20.97 20.05 20.10 22.27 22.90 23.94 25.50 23.37 30.54 32.04 32.92 31.91 28.91 27.83 29.85 30.18 29.10 28.19 26.14 27.67 28.88 28.26 22.99
30.67 31.10 30.12 28.17 25.87 26.60 27.06 26.33 26.19 26.59 25.48 24.03 23.91 23.84 23.53 25.24 22.87 23.63 22.79 20.29 20.12 20.04 23.64 23.89 23.37 23.09 24.09 24.95 26.24 28.19 27.17 30.06 28.79 29.24 25.66 26.32 26.35 26.70 25.90 24.72 24.10 23.18 23.03
30.16 30.30 28.75 26.88 24.84 25.43 25.47 25.72 25.84 25.38 24.22 23.59 23.84 23.23 23.89 21.87 21.69 22.19 20.64 20.96 22.09 24.92 24.60 23.91 24.06 22.95 23.25 25.59 30.37 29.50 28.11 27.86 28.33 27.41 22.79 21.19 21.06 20.65 21.03 21.68 22.23 22.34 22.46
29.01 27.74 25.90 25.57 24.48 24.81 24.56 24.98 25.68 25.00 23.61 23.66 23.85 23.05 22.95 20.83 22.00 20.51 20.18 27.15 29.32 30.21 30.23 30.21 28.30 26.69 29.58 30.81 30.70 30.97 30.80 30.19 28.95 23.17 19.65 19.61 19.70 19.31 19.79 20.24 20.66 21.23 21.80

GFSMW_sfc_wetblb_039.txt.gz
Wetbulb
47.84 47.95 48.97 49.94 51.81 51.05 52.44 53.20 54.97 53.79 54.65 52.56 50.47 48.88 48.93 48.41 47.76 47.30 46.57 45.63 44.66 42.15 40.29 39.42 38.79 38.44 37.23 35.87 36.48 36.58 36.14 36.85 36.18 33.78 34.55 35.50 37.21 36.45 34.84 36.24 36.23 35.72 36.77
45.85 46.96 48.55 50.26 52.10 52.54 53.06 54.78 53.91 52.53 52.16 50.94 48.26 47.48 47.61 46.50 45.33 44.45 43.38 42.70 40.51 40.06 39.41 37.80 37.02 36.59 36.26 35.28 34.37 33.85 33.95 34.66 35.29 32.67 31.83 29.94 32.12 34.94 36.18 34.93 37.04 34.01 35.01
45.96 46.12 47.81 51.02 52.10 52.48 52.82 54.01 52.30 50.53 49.38 48.47 47.55 45.75 45.07 44.54 42.78 41.54 40.50 38.66 38.79 38.55 37.89 36.93 36.30 35.54 35.14 33.91 33.35 32.68 32.67 31.93 34.08 33.67 31.14 27.00 25.38 29.70 32.59 33.08 34.08 34.67 32.84
46.66 47.31 48.64 50.93 51.29 51.37 50.84 50.84 50.23 48.66 48.45 48.97 47.30 46.79 44.47 41.88 42.41 40.30 36.74 36.72 37.26 37.12 37.39 36.49 35.47 34.63 34.17 32.56 33.34 33.82 31.43 32.25 31.10 32.50 35.57 32.64 30.92 26.76 26.08 31.48 33.19 31.20 32.89
46.69 47.17 50.42 51.79 50.58 49.10 48.37 48.18 48.20 47.72 46.68 46.60 46.53 45.09 42.69 41.19 38.82 36.53 35.24 34.93 35.26 35.86 36.01 35.43 34.28 33.48 33.06 31.69 31.60 31.04 30.64 31.09 31.13 30.49 30.93 29.86 29.75 29.08 27.20 24.78 26.70 30.31 31.82
45.99 48.31 49.37 48.70 46.06 45.83 46.40 46.90 47.02 45.30 45.56 45.59 44.68 44.19 41.23 38.90 37.08 35.34 34.68 34.18 34.25 34.40 34.17 34.22 32.83 32.05 31.83 31.15 30.78 30.49 30.09 29.72 29.72 29.35 28.47 28.56 27.54 27.16 25.49 24.43 25.32 25.66 28.75
47.00 47.52 47.52 46.20 45.03 44.98 45.31 46.01 45.76 43.28 43.62 43.26 42.61 41.72 39.77 38.37 36.34 34.76 33.86 33.20 33.02 32.47 31.88 31.93 31.14 30.78 30.81 30.97 30.69 30.16 29.61 29.52 27.99 27.03 27.18 28.51 28.33 29.02 28.01 26.41 25.08 24.40 27.43
47.44 48.35 47.56 45.93 44.92 44.63 44.38 44.02 43.33 41.11 40.84 40.06 37.73 37.09 36.94 36.44 34.86 34.01 33.19 32.58 32.09 31.80 31.23 30.90 30.52 30.32 30.60 30.12 29.60 29.37 29.05 28.99 27.30 26.26 26.10 27.34 27.77 28.38 28.20 26.80 25.14 23.03 24.43
47.19 46.98 44.92 44.46 43.55 42.72 42.48 42.25 40.86 38.95 38.15 36.77 36.12 34.66 34.69 34.12 33.05 32.06 31.99 31.64 31.64 33.43 30.66 30.21 29.80 29.71 29.78 29.50 28.94 28.47 27.58 27.02 26.73 26.19 26.57 26.41 27.81 28.45 28.17 28.17 27.75 25.19 21.10
45.98 44.29 43.95 43.02 42.45 41.34 39.71 39.78 39.58 37.54 35.79 34.93 34.98 33.76 32.53 32.05 31.59 31.38 30.78 30.76 30.63 30.58 30.14 29.60 29.26 29.20 29.20 28.99 28.07 27.49 27.87 26.68 26.59 28.05 26.47 26.27 27.49 27.65 27.95 27.91 27.93 27.32 24.98
43.63 43.30 42.80 42.37 41.27 39.88 38.87 37.33 36.55 35.48 34.30 34.00 33.06 32.28 31.35 31.13 30.94 30.47 30.29 30.16 29.88 29.73 29.54 29.17 28.92 28.70 28.58 28.33 27.31 26.86 27.47 26.32 26.10 26.36 26.43 26.84 27.48 27.19 27.22 27.52 27.59 26.92 26.70
43.69 42.76 41.88 40.90 39.91 38.27 37.30 35.85 35.05 34.23 33.33 33.06 32.29 31.25 30.96 30.48 29.94 29.81 29.94 30.03 29.10 29.19 28.80 28.79 28.64 28.38 28.49 27.82 26.64 25.86 26.18 25.95 25.59 26.22 25.92 26.30 29.60 26.71 26.86 26.55 26.44 26.83 27.23
42.61 41.94 40.95 40.13 38.69 37.49 36.06 34.87 34.03 33.12 32.74 32.59 31.65 30.44 29.89 29.64 29.17 29.26 29.64 29.59 29.01 28.33 28.46 28.52 28.00 27.82 28.08 27.25 26.64 26.42 26.33 26.40 26.35 26.19 25.77 26.30 26.41 25.69 26.71 26.82 26.70 27.54 29.45
42.60 41.59 40.68 39.55 38.31 36.99 35.60 34.24 32.88 33.14 32.39 31.93 30.81 29.71 29.38 29.21 29.16 29.29 29.32 29.12 28.42 27.99 27.73 27.58 27.44 27.35 26.90 27.01 27.23 27.60 27.27 26.65 27.04 26.97 26.63 26.54 26.47 26.11 26.61 28.17 28.20 29.31 26.91
41.99 41.69 40.31 38.84 37.35 35.87 34.85 33.71 32.85 32.46 32.25 31.27 30.52 29.69 29.69 29.74 29.50 29.64 28.56 28.43 28.25 27.51 27.28 26.82 26.35 25.89 26.99 29.76 29.61 29.28 27.79 26.28 25.47 25.93 26.19 27.55 29.81 32.89 32.11 30.36 28.07 27.89 27.35
42.69 42.24 41.12 38.41 36.86 35.63 34.19 33.77 32.51 31.83 32.18 30.93 29.96 30.25 29.97 29.81 29.42 28.38 27.73 27.20 26.59 26.14 25.69 25.08 24.78 24.41 28.36 32.91 35.24 33.93 28.44 26.36 25.50 25.14 26.42 26.61 29.94 29.47 33.53 33.18 33.65 32.50 28.76
43.17 42.45 40.75 39.35 37.91 35.77 34.94 33.01 31.95 31.97 30.98 30.34 30.03 30.07 30.00 30.14 28.74 27.77 26.85 26.00 24.84 24.12 24.05 24.32 23.99 23.16 23.29 32.68 34.60 34.78 28.86 25.95 25.54 25.24 26.24 26.61 28.75 29.75 27.99 30.79 33.03 33.14 33.87
43.57 42.87 41.35 39.61 37.43 35.61 33.89 32.46 32.21 30.90 30.14 29.37 29.42 30.54 31.09 29.18 27.56 26.24 24.70 24.17 24.12 23.81 23.98 23.40 23.11 22.32 24.51 32.53 33.66 34.09 27.28 25.77 25.37 25.71 25.72 25.35 26.04 28.02 29.49 29.21 30.91 26.83 26.78
44.32 43.21 41.65 38.31 35.55 33.96 33.22 31.77 30.26 29.76 29.62 29.15 30.04 30.75 29.63 27.47 25.91 24.58 23.86 24.09 23.78 23.43 22.78 22.95 22.33 21.22 22.02 31.17 32.79 31.92 27.20 26.65 25.33 26.03 27.60 28.47 28.01 31.14 33.50 30.10 26.17 25.08 24.73
42.95 39.16 37.01 35.68 34.05 32.59 32.46 31.08 29.33 29.41 29.47 29.90 30.17 29.17 27.19 25.66 24.67 24.28 23.96 24.09 23.32 23.69 23.84 22.88 21.99 24.81 21.85 29.12 32.40 31.63 28.08 26.34 26.73 28.41 27.55 30.78 29.73 32.79 33.58 28.14 25.35 22.04 22.77
37.90 36.62 35.80 34.15 32.17 32.02 32.07 29.81 28.96 28.49 29.38 30.10 28.39 26.41 25.59 25.28 24.87 24.05 23.71 22.31 21.70 22.13 20.36 21.07 20.41 20.93 23.01 24.47 31.92 32.58 28.82 27.34 27.80 26.09 26.61 26.93 31.76 32.58 31.55 31.03 24.67 24.73 29.00
35.38 34.46 31.78 30.54 30.77 31.52 30.91 28.57 27.14 27.10 28.97 26.91 25.99 25.03 24.70 27.01 26.23 23.09 22.19 21.36 20.60 19.67 19.43 19.50 21.49 23.08 22.74 29.07 30.38 32.29 32.68 32.46 26.99 26.57 26.58 27.40 31.50 30.37 29.75 28.06 29.60 30.61 28.81
32.40 32.01 30.28 29.03 28.69 30.73 31.97 27.45 25.17 26.21 25.49 24.68 24.11 24.33 24.80 24.15 23.39 21.75 20.97 19.90 20.06 19.36 19.52 21.75 21.96 22.85 24.95 22.85 30.05 31.69 32.33 31.63 29.22 27.57 29.30 30.36 29.36 28.37 25.97 27.44 28.72 27.99 22.21
30.50 31.13 30.62 28.54 25.66 26.23 26.81 26.78 25.39 25.53 24.42 23.17 22.89 23.09 23.39 23.11 21.77 23.32 22.39 19.59 19.69 19.89 23.13 23.04 22.64 21.87 23.14 24.08 25.38 27.24 26.71 30.15 28.50 28.78 25.84 26.61 26.23 26.45 25.48 23.84 23.58 22.49 22.41
30.44 30.94 29.25 27.20 24.56 25.16 24.95 24.84 24.80 24.43 23.39 22.92 23.47 23.03 23.20 20.96 20.84 21.76 19.79 20.66 21.79 24.12 23.79 23.11 23.24 22.28 22.57 25.08 29.92 29.22 27.94 27.40 28.22 27.48 22.82 20.67 20.42 19.92 20.23 20.93 21.30 21.73 21.63
28.16 27.06 26.01 25.41 23.68 24.30 23.57 23.88 24.63 24.49 23.62 23.33 23.56 23.44 22.30 20.22 21.76 20.08 20.37 26.74 28.71 29.76 29.89 29.74 27.81 26.18 29.02 30.36 30.48 30.87 30.79 30.25 29.02 23.15 19.13 18.79 19.01 18.80 19.07 19.31 19.78 20.44 20.82

GFSMW_sfc_wetblb_042.txt.gz
Wetbulb
49.91 48.48 48.33 48.63 49.27 49.62 51.43 53.79 55.77 55.99 54.72 52.69 51.03 50.64 47.86 47.47 47.22 47.02 47.83 45.44 44.25 42.85 41.29 38.41 37.25 36.82 35.89 34.44 35.05 35.18 33.95 35.20 34.61 32.75 33.42 34.00 34.83 35.75 34.00 34.63 34.99 33.85 34.62
45.93 46.60 47.01 47.46 50.34 50.04 51.06 53.57 52.54 52.47 53.64 53.47 48.74 48.31 49.10 46.30 44.90 44.59 44.83 45.64 41.74 40.68 38.39 36.64 35.82 35.49 35.01 34.06 32.91 32.46 32.44 32.79 33.43 31.10 30.08 27.84 30.40 32.78 34.90 32.59 35.24 31.75 33.51
47.73 45.40 46.22 47.86 50.11 50.44 51.42 53.37 51.42 49.55 48.49 47.77 47.09 45.61 44.76 44.11 42.10 41.97 41.61 40.12 39.84 37.72 36.77 35.85 35.15 34.33 34.11 33.14 31.85 31.35 31.85 30.60 31.92 32.32 30.06 25.80 24.36 27.86 30.95 31.96 33.09 32.19 30.76
47.56 46.44 46.23 48.37 50.41 50.95 51.65 51.56 49.33 47.44 47.55 48.41 47.17 47.32 46.82 43.56 41.80 40.14 39.21 38.25 36.69 36.05 35.98 35.26 34.27 33.48 33.07 31.84 32.35 32.21 30.34 30.89 29.31 30.61 33.70 30.97 29.72 24.92 24.46 29.54 31.31 29.23 31.23
48.09 46.09 46.57 49.81 50.83 50.35 49.68 47.90 46.67 46.32 46.05 46.91 47.33 45.11 42.39 40.47 39.39 38.14 36.21 35.77 33.96 34.61 34.79 34.12 33.23 32.46 32.09 30.68 30.34 29.58 29.24 29.68 29.20 28.79 28.83 28.06 28.09 27.46 25.41 23.21 24.86 29.22 30.32
45.87 45.90 47.58 50.24 48.44 47.58 46.84 46.48 46.00 44.21 44.63 44.73 43.67 42.87 39.03 37.74 36.99 36.04 34.41 32.89 32.95 33.05 32.87 32.97 31.78 31.31 30.97 30.12 29.59 29.21 28.81 28.34 28.08 27.83 27.07 27.13 26.10 25.30 23.90 22.51 24.40 24.56 26.62
43.51 45.75 47.65 48.31 46.45 46.08 45.70 45.85 45.35 43.35 43.94 45.04 44.20 41.95 39.94 39.31 35.87 34.08 33.10 32.26 31.75 31.14 30.66 30.92 30.57 30.10 30.07 29.92 29.79 29.16 28.53 28.22 27.00 26.04 26.11 27.50 27.06 27.58 26.57 24.74 24.00 23.25 26.06
43.65 46.74 48.20 48.37 47.19 46.13 45.71 45.42 44.31 42.10 42.73 42.51 40.72 38.91 37.91 36.45 34.56 33.38 32.53 31.56 31.32 30.49 30.21 30.10 29.96 29.73 29.80 29.16 28.79 28.52 28.12 27.73 26.31 25.36 25.25 26.34 26.82 27.39 27.02 25.69 23.89 22.02 22.49
44.72 46.88 47.99 47.27 45.92 45.43 44.23 43.84 42.14 40.07 39.17 37.93 37.18 35.24 34.76 33.95 32.42 31.22 31.44 31.26 30.67 32.03 29.81 29.80 29.40 29.08 28.91 28.57 28.12 27.62 26.69 25.96 25.74 25.42 25.13 25.41 26.86 27.48 27.43 26.99 26.06 24.17 20.13
45.22 46.82 46.17 44.97 44.88 43.32 41.54 41.20 40.62 38.31 36.54 35.77 35.35 33.56 32.11 31.82 31.19 31.18 29.98 29.73 29.81 29.89 29.59 29.19 28.86 28.52 28.31 27.95 27.07 26.41 26.69 25.89 25.88 27.27 25.57 25.31 26.28 26.80 27.09 26.74 26.84 26.16 24.05
45.19 44.27 43.34 42.34 41.50 40.78 39.89 37.67 36.71 35.76 34.43 33.77 32.68 31.94 30.91 30.51 30.30 29.98 29.24 29.14 29.17 29.27 29.10 28.79 28.25 27.81 27.45 27.06 26.02 25.55 26.63 25.73 25.55 25.61 25.52 25.94 26.34 26.08 26.24 26.27 26.59 25.76 25.50
42.95 41.86 40.75 39.66 39.22 37.69 37.48 36.05 35.36 34.27 33.15 32.50 31.78 30.78 30.46 29.86 29.39 28.83 28.79 29.21 28.41 28.65 28.61 28.18 27.67 27.18 27.18 26.27 25.24 25.10 25.56 25.18 25.09 25.61 25.35 25.30 28.72 25.41 25.87 26.01 25.41 25.43 26.34
40.68 39.74 39.62 38.65 37.33 36.14 35.15 34.30 33.84 32.51 32.18 31.99 31.02 30.00 29.20 28.96 28.14 28.24 28.64 28.77 28.35 27.94 28.06 27.56 26.75 26.47 26.73 26.01 25.65 25.61 25.54 25.71 25.66 25.43 24.91 25.04 24.95 24.37 24.94 25.25 25.49 26.24 28.60
40.60 40.14 38.63 37.28 36.18 35.22 33.93 32.88 32.16 32.37 31.71 31.19 30.31 29.21 28.47 28.21 28.07 28.19 28.27 28.37 27.96 27.89 26.86 26.36 26.20 26.13 25.71 26.10 26.38 27.11 26.77 26.10 25.98 25.82 25.79 25.45 25.09 24.84 25.23 26.39 27.27 28.50 26.07
39.97 39.68 37.54 36.06 34.82 33.40 32.72 32.37 31.73 31.71 31.63 30.64 29.92 28.74 28.61 28.61 28.37 28.02 27.82 27.88 27.68 26.85 26.64 25.68 25.23 24.82 26.04 28.93 28.74 28.87 27.53 25.89 25.01 25.36 25.73 26.33 28.33 32.80 32.15 30.22 28.03 27.76 26.79
40.52 39.27 37.93 35.41 33.89 33.16 32.32 32.18 31.41 31.06 31.70 30.45 29.23 29.41 29.01 28.48 27.84 27.41 27.19 27.51 26.83 25.85 24.82 24.22 23.88 23.39 27.56 32.35 34.78 33.69 27.75 26.69 25.61 24.88 25.89 25.50 29.22 28.60 33.29 33.15 33.63 32.53 29.95
40.48 39.19 37.04 36.04 34.95 33.49 33.16 31.48 31.15 31.29 30.54 29.79 29.43 29.19 28.73 28.25 27.95 29.19 27.82 26.58 24.89 23.62 23.18 23.01 22.83 22.26 22.41 32.41 34.38 34.70 28.49 26.31 24.78 24.76 25.24 26.21 28.56 29.51 26.61 30.46 33.07 33.67 33.16
41.05 39.52 38.08 36.20 34.96 34.00 32.69 31.49 31.53 30.52 29.71 28.94 28.78 28.99 28.66 27.78 28.81 27.56 26.05 24.48 23.15 22.45 21.96 22.17 22.16 21.42 23.75 32.32 33.38 33.90 27.00 25.43 24.83 24.65 24.61 24.42 25.48 27.01 29.55 29.34 30.65 26.90 26.56
42.30 40.41 38.95 36.21 34.25 32.88 32.46 31.33 29.90 29.40 29.18 28.29 28.37 28.44 28.65 28.62 27.51 25.47 23.68 22.70 22.39 21.92 21.51 22.24 21.38 20.49 21.66 31.14 32.39 31.83 25.98 25.58 25.24 25.97 25.66 26.51 27.77 30.87 33.43 30.25 26.20 25.21 24.98
41.68 38.89 36.52 35.13 33.47 32.15 32.23 30.79 28.86 28.78 28.25 28.42 28.45 28.53 29.12 27.63 24.73 23.22 22.78 22.50 22.14 23.40 23.84 22.86 21.64 24.81 21.35 28.91 31.84 31.52 27.52 25.53 26.37 26.93 26.39 30.60 29.67 32.67 33.65 28.23 25.74 22.45 22.91
37.95 36.56 35.62 33.97 31.90 31.87 31.85 29.55 28.79 28.32 28.70 28.88 29.04 28.23 27.15 24.25 23.51 22.83 22.51 21.77 21.18 21.74 20.10 21.14 20.79 21.02 22.73 23.94 31.46 32.37 28.34 26.71 27.28 25.78 26.76 27.04 31.51 32.68 31.73 31.15 24.54 24.73 28.88
35.53 34.95 31.90 30.32 31.17 32.05 31.71 29.24 28.65 27.27 28.04 28.82 27.53 25.84 23.97 26.39 25.01 22.50 21.04 20.23 19.87 19.63 19.45 19.83 21.65 22.77 21.99 28.36 29.90 32.05 32.43 32.03 26.92 26.67 26.52 27.12 31.64 30.58 29.79 27.86 29.52 30.44 28.53
32.42 32.29 30.39 29.17 29.29 30.86 33.38 30.25 26.83 26.62 26.68 26.80 24.79 23.26 23.68 23.15 23.06 20.87 19.83 19.47 19.58 19.24 19.48 21.54 21.53 22.41 24.94 22.34 29.75 31.40 31.90 31.74 28.93 27.45 29.36 30.58 29.53 28.29 25.61 26.95 28.33 27.58 21.55
30.23 30.46 29.83 28.51 25.79 28.13 30.45 27.94 25.73 25.59 26.02 22.60 22.06 22.52 22.92 21.34 20.72 23.26 21.83 19.34 19.53 19.57 22.48 22.50 22.26 21.62 22.72 23.10 24.86 26.02 26.46 29.89 28.54 28.93 25.99 26.77 25.99 25.87 25.00 23.28 22.96 21.94 21.89
30.59 30.83 29.30 27.00 24.18 25.43 25.11 24.91 25.46 24.96 23.14 22.19 22.52 22.41 22.12 20.17 20.05 21.51 19.41 19.91 21.10 23.17 23.52 22.91 22.98 21.91 22.05 24.75 29.69 29.21 27.86 27.65 28.07 27.37 22.56 20.23 19.83 19.22 19.56 20.10 20.72 21.36 21.29
28.67 27.34 25.96 25.04 24.08 24.41 23.40 23.20 23.91 23.89 22.74 22.22 23.12 23.15 21.19 19.45 21.42 19.68 19.44 26.45 28.37 29.65 29.65 29.42 27.45 25.95 28.71 30.11 30.34 30.77 30.68 30.14 28.96 22.63 18.57 18.13 18.45 18.08 18.29 18.56 18.97 19.85 20.70

GFSMW_sfc_wetblb_045.txt.gz
Wetbulb
50.82 52.80 53.43 53.47 53.14 53.28 54.70 56.29 59.22 62.30 61.68 58.46 57.41 55.82 53.93 52.24 52.69 49.94 48.70 47.87 47.51 45.04 41.86 41.91 41.86 41.80 40.69 39.89 40.54 41.17 40.24 39.87 40.59 40.74 41.35 42.03 41.78 43.25 43.16 41.01 43.00 40.51 40.48
48.50 51.09 51.57 51.66 52.01 53.53 53.77 55.80 59.25 59.69 59.34 59.10 56.58 53.99 52.65 51.14 50.87 49.24 47.07 45.42 44.54 42.20 41.68 41.68 40.82 40.71 39.70 39.18 39.23 39.71 39.60 38.91 39.43 37.28 37.69 36.43 39.52 40.95 40.57 41.09 40.96 39.34 39.62
46.45 48.97 50.09 51.31 52.23 53.00 53.21 55.57 56.76 56.64 55.64 52.48 50.58 48.48 47.98 47.95 46.57 45.04 44.38 42.61 41.60 40.12 40.90 40.56 40.08 39.80 39.82 38.21 38.22 38.67 38.65 37.05 38.14 38.12 37.24 35.32 34.25 34.28 38.41 39.00 40.29 38.43 37.38
46.02 47.35 49.24 50.20 51.60 53.73 53.99 55.58 54.11 52.78 51.77 52.10 51.18 50.37 49.77 47.54 46.03 44.24 42.67 41.24 41.47 38.44 39.77 39.44 39.06 38.85 38.73 38.14 37.79 37.52 37.41 37.84 35.38 37.48 36.86 36.96 36.09 32.24 31.44 36.86 37.35 36.69 35.31
44.92 45.77 48.27 50.66 52.53 53.78 54.19 53.74 51.67 51.15 50.69 51.46 51.98 51.80 48.39 45.91 43.69 40.56 38.98 38.72 38.14 38.95 38.57 38.53 38.27 37.68 37.47 37.05 36.88 36.28 36.17 36.32 35.87 35.36 35.05 34.78 34.93 34.70 32.00 29.03 32.17 34.16 35.42
44.50 46.65 49.37 50.79 52.22 53.02 52.58 50.78 49.95 48.60 49.33 49.96 49.96 49.00 44.88 41.82 38.78 38.10 36.61 36.27 36.43 36.99 37.17 37.20 37.31 37.17 36.81 36.47 36.06 35.64 35.36 34.90 34.61 34.75 33.89 33.56 32.79 31.75 30.57 29.11 30.07 30.10 32.73
45.44 47.00 47.48 49.67 50.78 51.15 50.16 49.23 48.71 46.47 47.23 46.98 45.85 44.94 41.67 40.83 38.33 37.82 36.42 35.17 35.59 35.82 35.88 36.56 36.28 36.01 35.92 35.66 35.75 35.41 35.14 34.45 34.16 33.49 33.52 34.23 33.34 32.97 31.89 30.43 29.52 28.83 31.31
44.65 46.32 48.11 50.03 50.61 50.59 49.13 48.96 47.48 45.50 45.98 45.17 43.50 42.83 41.41 39.68 37.77 36.67 36.86 36.44 35.84 35.29 35.75 35.54 35.61 35.27 35.18 34.87 35.02 34.99 34.71 34.06 33.94 32.37 32.69 33.14 33.25 33.14 32.66 30.98 29.02 27.33 29.39
42.61 45.95 48.37 49.90 50.27 49.54 48.89 47.76 46.20 44.92 44.19 42.45 41.81 39.68 38.78 37.49 36.35 36.38 36.37 35.77 35.36 35.02 35.02 35.29 34.81 34.69 34.38 34.12 34.03 33.98 33.33 33.32 33.24 32.99 32.72 32.09 32.96 33.21 33.12 32.65 31.56 28.55 24.74
42.02 46.00 48.54 48.97 49.15 48.96 47.28 46.34 44.91 42.89 42.16 40.74 39.32 37.39 35.96 36.56 35.98 35.85 34.96 34.99 34.89 34.79 34.60 34.38 34.33 33.94 33.65 33.29 32.95 32.73 32.74 32.59 33.15 33.37 32.26 32.25 32.59 32.55 32.81 32.35 31.85 31.04 28.25
43.27 46.79 47.68 47.29 46.12 44.81 44.42 42.55 40.81 39.59 38.97 37.33 35.92 35.80 35.22 34.87 34.80 34.48 34.36 34.27 34.41 34.36 33.99 33.77 33.37 33.06 32.58 32.29 32.08 31.77 32.08 31.47 31.83 32.42 31.75 31.27 31.93 31.61 31.79 31.87 31.29 30.16 29.66
45.52 45.87 44.12 42.98 42.87 41.34 40.82 40.35 39.44 37.41 36.71 36.15 35.54 34.53 34.06 33.82 33.54 33.38 33.53 34.15 33.43 33.72 33.33 32.90 32.36 32.03 31.70 31.45 31.03 30.89 31.41 31.12 30.99 31.23 30.88 30.64 31.37 30.43 30.82 30.47 29.88 29.95 30.40
42.05 40.91 41.16 40.97 40.10 39.39 38.71 38.80 37.10 34.86 34.87 34.98 34.15 33.58 33.02 32.93 32.72 32.78 33.05 33.20 32.91 32.55 32.29 32.07 31.41 30.94 30.68 30.63 30.90 31.27 31.69 31.68 31.44 30.92 30.31 30.19 29.84 29.20 29.80 30.05 29.72 30.09 29.93
40.11 40.66 39.75 38.60 37.86 37.44 37.21 35.96 34.52 34.31 34.36 34.25 33.69 32.66 32.33 32.27 32.49 32.50 32.51 32.44 32.30 31.79 31.35 31.00 30.32 30.01 29.98 30.21 31.09 32.19 32.54 32.07 31.83 31.01 30.98 30.42 29.94 29.28 29.73 30.05 30.51 30.82 29.96
39.42 38.74 37.10 36.25 35.68 35.72 35.09 34.01 33.45 33.93 34.28 33.37 32.82 31.83 31.68 31.98 31.98 31.73 31.55 31.51 31.60 30.94 30.64 30.07 29.55 29.31 30.11 31.03 33.14 33.72 33.03 31.85 31.24 31.08 30.77 31.00 31.52 33.10 33.15 31.57 30.57 30.22 29.81
39.14 38.10 36.74 35.67 34.93 34.62 33.96 33.67 33.02 33.28 34.15 32.92 31.47 31.61 31.45 31.43 31.01 30.87 30.70 30.75 30.23 29.91 29.74 28.88 28.27 28.44 29.49 32.12 34.71 34.78 33.15 31.88 30.65 29.82 30.44 30.62 30.90 30.97 33.23 33.09 33.48 32.88 30.68
38.26 36.79 36.23 35.69 34.89 34.22 34.03 32.90 32.88 33.49 32.86 31.80 31.50 31.23 31.12 30.61 30.59 30.59 30.32 29.72 29.09 29.08 28.32 28.07 27.92 27.46 27.70 32.21 34.28 34.41 32.87 31.04 30.56 30.03 29.84 29.46 30.17 31.34 30.12 31.64 33.17 33.65 34.01
38.66 37.37 36.59 35.18 34.49 34.45 33.85 33.03 33.20 32.57 31.78 31.20 30.88 31.07 30.85 29.99 30.26 30.17 29.29 28.74 28.53 28.03 27.86 27.46 27.08 26.74 27.63 32.02 33.18 33.56 31.95 30.84 30.58 30.27 29.77 29.13 29.46 30.32 30.68 31.03 32.39 30.72 29.96
39.94 38.64 37.32 35.21 34.45 33.60 33.44 32.66 31.91 31.59 31.20 30.61 30.62 30.38 30.36 29.81 29.77 28.39 28.09 27.85 27.81 27.40 26.89 27.06 26.39 26.28 27.56 30.83 32.19 32.35 30.86 30.03 29.86 30.03 30.14 29.95 29.80 31.70 33.23 31.53 29.11 28.08 27.95
39.97 37.09 36.00 35.08 33.76 33.08 33.57 32.27 30.94 31.16 30.34 30.25 30.03 30.44 30.65 29.89 28.04 27.82 27.36 26.82 26.90 27.19 27.19 26.60 26.96 26.98 26.61 29.33 31.74 31.97 30.44 29.12 29.31 30.33 30.12 31.19 30.91 32.50 33.83 29.88 28.26 25.48 25.68
37.89 36.92 36.10 34.44 33.10 33.45 33.34 31.38 31.09 29.81 29.89 30.24 30.01 29.89 29.31 27.93 27.46 26.95 26.63 25.87 25.86 25.81 25.26 26.02 26.46 26.55 27.38 28.36 31.13 31.93 30.50 29.47 29.46 28.59 28.85 29.60 31.51 32.86 31.95 31.33 27.41 26.07 29.48
36.29 35.93 33.11 31.93 32.86 33.79 32.75 31.44 29.88 29.87 30.29 29.97 28.95 28.16 28.01 28.49 26.87 26.05 25.25 24.98 24.90 24.60 24.56 25.02 26.36 27.34 27.23 28.87 30.02 31.65 32.14 32.12 29.05 28.41 29.21 29.43 31.91 30.73 29.98 28.69 29.00 30.46 29.32
34.20 34.27 32.40 31.27 31.86 33.72 34.05 29.68 28.51 29.50 28.81 28.61 27.32 26.75 26.75 26.22 26.05 25.33 24.83 25.16 24.39 24.01 24.36 25.38 25.40 25.80 27.33 27.05 29.47 31.03 31.63 31.74 30.05 29.93 30.25 30.94 29.75 28.56 26.56 26.98 28.44 27.56 23.80
31.50 31.51 31.10 30.79 30.43 32.60 31.18 29.09 28.77 29.12 28.58 26.64 26.11 25.89 25.38 24.70 24.84 26.15 25.33 24.65 24.16 24.24 25.31 25.26 24.90 25.17 25.48 26.18 27.55 28.66 29.88 30.67 29.80 29.79 28.67 27.70 26.53 26.06 25.51 24.18 24.31 23.83 23.76
31.16 31.78 30.16 28.05 27.37 29.15 28.31 28.43 28.50 28.66 26.59 25.75 25.50 25.64 24.99 24.32 24.17 24.71 24.58 25.21 25.59 26.50 26.65 26.21 25.81 24.51 24.31 26.35 30.09 29.81 28.88 29.46 29.23 28.43 25.04 22.37 21.75 21.15 21.34 21.79 22.41 22.89 22.88
29.25 27.91 27.18 26.29 25.94 27.30 26.63 26.48 27.73 27.71 25.87 24.95 25.39 25.02 24.36 23.85 24.20 23.49 23.56 26.81 28.59 29.08 29.08 28.81 27.91 27.41 28.84 29.90 30.28 30.48 30.91 30.17 29.09 24.32 20.45 19.80 20.20 19.57 19.58 19.70 20.33 21.27 22.05

GFSMW_sfc_wetblb_048.txt.gz
Wetbulb
54.66 56.27 57.57 58.80 59.65 60.20 60.60 60.60 61.06 63.06 65.47 66.00 66.14 66.95 65.89 63.44 60.47 59.33 57.60 56.94 53.33 50.47 45.00 43.97 45.00 47.98 47.24 45.88 46.05 45.59 44.95 44.23 44.38 44.65 45.39 46.44 46.33 47.01 46.98 46.44 45.99 44.73 43.86
50.09 53.04 55.43 57.48 58.19 58.91 59.59 60.42 61.02 63.20 65.43 65.88 65.30 64.94 61.67 55.35 54.16 54.05 53.01 51.27 50.60 47.65 47.03 47.77 45.44 46.58 45.05 44.67 44.27 44.54 44.01 43.18 43.40 41.19 42.88 42.24 43.40 45.31 45.97 44.53 44.59 42.98 43.49
48.46 49.48 51.11 55.37 57.48 58.12 59.25 59.48 60.99 63.38 64.91 64.74 63.85 59.29 54.20 49.74 48.43 48.54 49.04 47.70 44.95 44.22 43.90 44.89 45.81 43.93 44.74 43.11 43.19 43.60 42.99 41.86 42.35 41.80 41.05 40.09 39.77 39.12 43.46 43.05 42.35 42.41 41.15
49.15 49.74 50.33 51.19 55.17 57.63 59.88 59.62 60.83 62.65 63.48 61.60 58.22 56.35 56.62 50.81 47.88 47.36 46.27 43.88 42.87 42.28 43.02 42.93 44.38 44.26 43.89 43.08 42.20 42.34 42.28 42.61 40.30 42.12 40.45 40.37 39.09 36.40 35.87 41.25 41.27 40.85 39.69
49.10 49.38 50.30 51.44 52.88 56.86 59.13 59.29 60.34 61.09 60.05 59.63 59.68 59.31 56.29 50.14 45.80 43.53 42.28 41.97 41.39 42.80 43.09 43.26 43.50 42.86 42.76 42.33 41.90 41.47 40.81 40.92 40.92 40.13 39.51 39.31 38.99 38.58 35.81 33.70 37.32 39.28 40.24
48.57 49.56 51.06 51.92 52.45 55.35 58.64 59.26 58.72 58.58 58.66 59.30 59.16 58.98 52.05 46.11 41.84 40.90 40.21 40.04 40.83 41.76 41.81 42.21 42.40 42.40 41.97 41.46 40.88 40.75 39.92 39.74 39.83 39.56 38.67 37.52 36.66 35.92 34.99 33.95 35.01 34.95 37.49
47.77 48.87 49.62 50.96 52.53 54.04 57.24 57.64 57.26 56.33 57.09 57.90 58.05 55.10 50.38 46.46 43.87 42.07 39.42 37.31 39.68 38.73 40.41 41.43 41.24 40.96 40.84 40.57 40.70 40.10 39.78 39.45 39.16 38.36 37.92 38.02 37.05 36.71 35.62 34.37 33.81 33.33 35.85
47.99 48.15 49.11 50.99 52.68 54.56 56.39 56.47 56.06 54.88 55.54 56.41 55.33 52.41 45.81 43.84 41.13 39.63 38.61 38.85 40.64 41.11 41.25 40.74 40.46 39.98 39.90 39.89 39.82 39.82 39.87 39.18 39.00 36.65 37.18 36.88 37.10 37.05 36.22 34.45 32.74 30.77 33.10
47.65 48.55 49.66 52.07 53.07 54.78 55.99 55.69 55.13 53.82 53.73 53.49 51.53 47.64 44.12 40.86 38.21 37.87 38.32 38.29 39.07 39.91 40.00 40.04 39.51 39.56 39.21 38.77 38.65 39.20 38.23 38.27 38.01 37.40 37.24 36.66 36.88 36.93 36.67 36.08 34.98 31.97 28.01
49.25 50.39 50.17 51.03 53.82 55.25 55.92 55.73 54.37 52.44 51.69 50.38 48.78 45.84 41.55 39.38 39.20 38.52 38.10 40.38 39.86 39.42 39.37 39.35 39.07 38.79 38.15 37.66 37.87 37.73 37.31 36.96 37.74 37.00 36.45 36.24 36.50 36.21 36.25 35.71 35.06 34.12 31.32
49.28 50.31 51.63 50.64 53.27 54.95 54.61 53.37 52.01 49.72 48.64 47.90 45.42 43.52 40.62 38.61 38.91 38.63 40.60 40.04 39.69 39.54 39.08 38.82 38.37 37.62 36.96 36.92 37.12 36.56 36.37 35.63 36.08 36.51 35.72 35.05 35.53 34.89 34.82 34.77 34.11 32.95 32.44
48.01 50.04 51.03 51.44 52.38 52.17 51.66 50.71 49.09 47.73 46.41 44.41 41.85 39.62 37.71 38.84 39.30 39.91 39.60 39.70 38.87 39.07 38.46 37.94 37.14 36.40 35.98 36.20 35.70 35.39 35.82 35.36 35.16 35.41 34.90 34.31 34.36 33.62 33.94 33.63 32.74 32.62 33.14
47.70 49.01 49.82 49.45 49.62 49.28 48.63 47.55 46.33 43.96 42.55 41.36 38.37 36.98 37.53 39.56 39.25 38.85 38.80 38.70 38.25 37.82 37.39 36.99 35.96 35.28 35.04 34.99 35.12 35.26 35.74 35.87 35.64 35.22 34.33 33.87 33.32 32.51 33.14 32.84 32.56 32.71 32.26
44.92 46.42 47.26 47.61 47.63 47.39 46.17 44.12 40.13 39.15 39.60 38.09 37.41 37.41 38.93 38.83 38.50 38.20 38.02 37.84 37.79 36.94 36.29 35.85 34.93 34.55 34.40 34.19 34.64 35.61 36.09 36.07 35.68 35.23 34.54 33.79 32.91 32.47 32.46 32.59 32.55 32.13 31.90
43.54 44.47 44.62 44.19 43.69 41.39 39.73 37.40 36.50 36.76 37.61 37.05 38.14 38.01 38.09 37.90 37.41 37.23 37.09 36.95 36.69 36.03 35.52 34.67 34.22 34.33 34.29 34.11 35.10 36.19 36.16 35.55 34.90 34.84 34.27 33.91 33.67 33.48 33.82 32.28 31.68 31.43 30.99
40.53 41.10 41.23 40.37 38.51 37.08 35.61 35.44 35.33 36.00 37.65 37.06 36.77 36.59 36.50 36.65 36.55 36.28 36.15 35.84 35.25 34.87 34.66 33.77 33.35 33.69 33.26 32.30 34.48 35.24 35.14 34.90 34.00 32.99 33.36 33.67 33.42 33.17 33.95 34.13 34.16 32.92 30.93
40.30 39.14 38.76 37.88 36.90 35.93 35.74 34.96 35.62 37.19 36.57 36.82 36.07 35.87 35.95 35.32 35.45 35.45 35.24 34.75 34.35 34.61 33.63 33.00 33.30 32.76 32.80 32.19 34.05 34.50 34.51 34.00 33.38 32.88 32.65 32.35 32.79 32.97 32.06 32.74 34.01 34.27 35.30
39.86 38.46 37.61 36.90 36.50 36.68 36.16 35.94 36.86 37.41 36.60 35.73 35.23 35.44 35.21 34.53 34.81 34.95 33.95 32.76 33.50 33.59 33.60 33.26 32.55 32.22 32.24 31.65 33.06 33.68 34.01 33.61 33.28 33.08 32.67 32.11 32.05 32.26 32.01 31.52 32.50 32.82 32.15
39.89 39.12 38.78 37.58 37.68 37.03 36.93 37.52 36.50 36.37 36.16 34.82 34.51 34.59 34.69 34.16 34.37 33.23 31.53 32.33 33.53 33.24 33.23 32.48 31.75 31.52 32.30 30.99 32.18 32.83 32.97 32.51 32.59 32.88 33.09 32.69 31.77 32.97 33.53 32.01 31.60 30.03 30.42
41.61 39.71 39.10 38.52 37.29 36.96 37.23 36.50 36.24 35.76 34.43 34.31 34.03 34.51 35.05 34.62 32.52 31.18 32.76 32.64 33.15 32.41 32.43 31.85 32.16 30.45 31.25 31.08 31.65 32.41 32.27 31.48 31.58 32.52 32.78 33.07 32.45 33.09 33.56 31.48 29.74 28.04 28.31
38.51 38.17 37.82 36.98 36.54 37.34 37.41 35.51 35.44 34.04 34.39 34.42 34.51 34.51 33.67 31.55 31.21 32.96 33.05 32.46 32.19 31.91 31.87 31.27 32.09 31.35 31.21 31.13 31.39 31.90 31.64 31.11 30.65 30.63 30.65 31.78 32.75 33.17 32.89 32.07 29.17 27.98 29.93
36.95 37.18 35.28 34.90 36.29 37.34 36.85 35.51 34.31 34.09 33.85 33.05 31.60 30.65 30.61 31.07 32.92 32.69 32.00 31.49 31.68 31.25 30.86 30.69 31.14 31.87 31.61 30.85 30.68 31.59 32.10 32.39 30.44 29.62 30.84 31.54 32.36 31.73 31.08 30.05 29.85 30.57 30.43
38.58 38.64 36.78 35.78 36.88 37.50 37.47 32.56 31.04 31.50 30.94 30.55 29.67 29.93 32.02 32.24 32.39 32.41 31.33 31.85 31.13 30.35 29.84 29.36 29.25 29.74 30.49 30.72 30.73 31.54 32.32 32.50 31.23 31.05 31.63 32.04 31.03 29.92 28.38 28.54 29.01 28.46 26.91
37.17 36.77 35.74 35.07 35.13 34.54 32.81 30.73 30.65 30.95 30.26 28.87 29.22 31.14 31.59 31.30 31.62 31.28 31.35 31.31 30.50 29.74 28.98 28.60 28.16 28.58 28.97 29.54 30.31 30.66 31.03 31.62 31.13 31.26 30.99 29.91 28.83 28.09 27.79 26.98 27.13 26.91 26.56
35.64 36.48 36.01 35.33 32.79 31.36 30.22 30.50 30.57 30.67 29.69 29.90 30.82 31.75 31.46 31.23 30.59 30.35 31.31 31.25 31.04 29.91 28.54 28.58 28.13 27.18 26.81 28.36 30.60 30.63 29.76 30.78 30.41 29.77 27.62 26.06 25.31 24.66 24.85 25.09 25.55 26.14 25.99
34.46 33.52 33.47 32.20 30.35 29.82 29.23 29.84 31.10 31.35 30.92 30.36 30.79 30.91 30.73 30.72 30.28 30.24 30.32 28.10 28.56 28.63 28.47 28.41 28.15 28.51 29.42 30.04 30.23 30.37 30.94 30.33 29.78 25.99 24.02 23.38 23.56 22.97 22.91 22.64 23.03 23.95 24.84

GFSMW_sfc_wetblb_051.txt.gz
Wetbulb
55.13 56.06 57.71 59.01 59.78 60.87 61.37 61.62 62.28 62.37 63.44 65.72 66.90 67.37 67.24 65.99 63.75 65.17 66.41 64.97 63.00 57.94 52.97 50.96 50.99 50.70 49.28 49.33 48.78 47.48 46.67 45.30 45.14 46.13 47.50 47.54 46.84 47.60 47.67 47.62 46.40 46.27 45.31
51.61 53.82 55.84 57.14 58.27 59.73 60.99 61.68 62.10 62.56 63.72 66.08 67.12 67.50 66.25 59.07 58.98 58.23 58.56 57.63 54.19 50.40 49.09 48.95 49.13 47.56 47.77 46.88 46.53 46.57 45.30 44.44 44.34 42.36 44.57 43.86 44.02 45.88 46.71 47.01 45.29 44.41 44.62
50.47 51.25 52.19 55.44 58.31 58.82 60.02 60.98 61.82 62.64 64.28 66.06 66.95 64.41 56.87 54.66 52.63 52.11 50.49 50.66 50.27 49.38 49.32 47.27 45.60 46.57 47.32 45.79 45.44 45.22 45.33 43.66 43.72 42.96 41.34 40.66 40.60 39.67 44.80 44.07 44.27 43.29 43.54
50.89 51.55 52.23 52.66 54.86 58.24 60.70 61.27 61.91 62.43 64.24 66.27 65.16 60.22 56.39 52.83 50.22 49.49 47.63 47.20 47.02 47.17 46.75 46.38 45.70 44.04 45.69 44.69 44.20 44.03 43.79 44.26 41.20 43.16 41.33 41.42 39.53 36.61 36.00 42.81 42.45 42.89 40.56
50.83 50.85 51.89 53.06 53.65 56.06 59.82 61.35 61.61 62.22 64.27 64.97 64.29 60.12 57.45 55.63 49.48 46.00 44.14 43.20 43.71 43.77 44.17 43.92 44.02 42.91 44.35 43.87 43.45 42.89 42.03 41.58 41.43 40.41 39.52 39.42 39.60 39.23 35.97 34.09 38.00 40.09 41.30
49.17 50.08 51.71 52.90 53.48 55.49 58.63 61.18 60.91 61.53 63.77 63.91 60.81 59.25 58.94 50.20 45.31 42.54 41.40 41.75 43.20 44.14 43.47 43.87 44.17 44.17 43.52 42.95 42.32 42.04 41.41 40.40 40.36 39.72 38.77 37.63 36.68 36.37 35.71 34.23 35.02 35.01 37.83
48.55 48.92 49.75 50.80 51.90 53.73 55.23 58.76 59.75 60.43 61.81 60.71 60.68 60.71 53.51 49.37 46.29 43.30 41.12 41.06 41.50 41.41 41.56 43.02 42.92 42.65 42.79 42.05 42.00 41.58 41.34 40.56 39.94 38.59 37.95 38.15 37.55 37.77 36.24 34.77 33.73 33.16 35.81
48.52 48.98 49.52 50.32 51.16 53.60 54.75 56.42 58.69 59.30 59.35 60.10 60.10 58.21 53.16 50.53 45.78 43.23 41.25 39.84 40.39 39.61 42.46 41.69 42.16 41.59 41.34 41.17 41.19 40.79 40.77 40.19 39.60 38.26 37.97 37.57 37.57 37.89 37.00 34.98 33.05 30.42 32.38
48.82 49.35 50.10 51.17 51.49 52.31 54.02 56.43 57.74 58.36 58.55 59.14 58.50 54.93 50.53 46.44 43.46 40.59 40.28 40.41 40.61 40.88 42.04 41.86 40.91 40.70 40.41 40.16 40.06 39.47 38.40 38.26 38.29 38.17 38.40 37.48 37.79 37.90 37.38 36.62 35.31 32.05 27.57
50.02 50.64 51.57 52.25 53.35 53.32 54.74 56.82 57.61 56.93 57.89 57.98 54.49 50.01 46.37 42.41 40.63 39.20 38.09 39.09 39.13 39.84 40.62 40.40 40.11 39.60 39.14 38.81 38.69 38.14 37.83 37.14 37.95 37.80 36.91 36.85 37.11 36.80 36.74 36.06 35.37 34.21 31.15
49.32 50.13 51.13 52.40 53.33 53.63 55.24 56.50 56.67 55.79 55.68 53.88 49.76 46.45 42.03 40.36 39.80 38.94 39.65 39.50 40.19 40.10 40.20 39.77 39.47 38.88 38.27 37.83 37.52 37.01 36.89 36.40 36.89 37.23 36.58 35.94 36.28 35.48 35.13 34.96 34.34 33.09 32.42
49.70 50.27 50.79 51.92 52.94 52.59 55.33 55.72 54.77 53.47 52.50 50.21 47.18 43.26 40.35 39.68 39.22 39.82 39.51 40.98 39.68 40.47 39.82 39.36 38.54 37.78 37.23 36.91 36.21 35.99 36.66 36.09 35.74 36.05 35.75 35.06 35.45 34.37 34.36 33.91 33.04 32.62 32.85
47.62 49.28 51.04 50.68 52.30 52.98 54.44 53.42 51.95 50.74 48.94 47.28 44.03 40.35 39.79 39.46 39.77 38.43 39.47 39.58 39.69 39.05 38.74 38.19 37.32 36.74 36.17 35.73 35.77 35.99 36.11 36.35 36.36 36.04 35.23 34.53 34.20 32.92 33.19 32.98 32.23 32.67 33.15
45.82 47.86 48.82 50.65 52.11 52.41 52.14 50.39 48.47 46.95 45.22 42.36 40.37 39.88 39.50 38.92 38.45 38.67 39.19 39.29 38.77 37.89 37.56 37.17 36.49 35.75 35.34 35.13 35.33 36.17 36.31 36.61 36.48 36.34 35.66 34.76 33.77 32.63 32.33 31.86 31.85 32.10 30.83
44.42 46.24 47.64 48.64 49.37 49.27 48.65 46.33 44.11 43.73 42.18 40.09 39.81 38.68 38.38 38.35 38.04 38.81 38.57 38.30 37.93 37.19 36.88 35.90 35.41 35.23 35.20 34.88 34.48 35.69 35.77 35.44 35.28 35.47 35.13 34.79 35.11 34.87 34.42 32.58 31.72 31.49 30.10
42.75 44.77 46.14 47.13 46.91 44.84 42.37 40.20 39.80 39.36 39.43 39.34 38.00 37.24 37.44 37.47 38.06 37.86 37.40 37.03 36.36 35.88 35.61 35.13 34.67 34.51 34.17 32.90 34.41 34.88 34.21 34.25 34.11 33.53 33.76 34.01 34.60 34.15 35.03 35.13 35.11 33.91 30.59
41.40 42.45 43.29 41.57 40.20 38.89 38.84 37.26 37.67 38.18 38.09 36.63 36.45 36.90 37.70 37.09 37.02 37.04 36.52 35.84 35.47 35.53 34.79 34.35 34.17 33.75 33.92 32.54 33.86 34.51 33.51 33.11 33.56 33.09 32.80 32.62 33.35 33.75 32.51 33.52 34.53 34.08 34.94
40.02 39.92 38.52 37.45 36.97 37.33 37.42 37.19 37.33 36.24 35.87 35.93 36.41 37.27 36.92 36.12 36.30 36.13 35.17 34.71 34.85 34.78 34.48 33.77 33.52 33.34 33.60 31.57 32.80 33.71 32.86 33.19 33.31 33.26 33.02 32.29 32.22 32.76 32.51 31.90 30.90 31.55 31.99
40.26 39.09 37.66 36.71 36.45 36.52 37.01 36.34 36.02 35.85 35.85 35.52 36.26 36.36 36.19 35.63 35.34 34.01 33.33 33.75 34.06 34.05 33.65 33.23 32.94 32.63 32.76 31.84 32.20 32.69 31.86 31.95 32.00 33.19 33.13 32.93 32.23 33.88 34.57 31.33 29.94 29.79 29.40
38.40 36.52 36.76 36.29 36.41 36.37 36.99 35.98 35.88 35.54 35.78 36.07 35.90 36.24 35.93 35.02 33.51 33.12 32.99 34.20 34.37 33.08 32.91 32.56 33.15 32.34 31.36 32.73 32.05 32.25 31.10 30.23 30.93 31.88 32.16 33.99 33.02 34.38 34.30 31.25 29.00 26.79 27.37
37.78 38.07 37.21 36.41 36.66 37.57 38.10 36.60 37.32 35.85 35.68 35.56 35.46 35.33 34.61 33.28 33.14 33.48 34.08 33.85 33.11 32.96 32.82 32.23 33.12 32.72 32.44 31.67 32.18 32.17 30.62 30.31 30.06 29.94 30.07 31.33 33.61 33.75 33.98 33.25 28.92 27.68 29.70
37.36 38.14 36.87 37.11 38.86 39.68 38.23 35.91 33.89 34.42 35.06 34.63 32.86 31.77 31.61 32.57 33.93 33.58 33.22 32.87 32.65 32.32 32.03 31.63 31.43 32.39 32.43 32.50 31.94 31.88 32.41 32.95 30.27 29.21 30.25 30.93 33.10 33.17 32.45 30.75 30.79 31.23 30.86
36.18 36.21 35.35 35.52 36.88 38.02 37.95 34.28 34.16 33.55 32.18 30.94 30.22 30.65 31.99 33.71 34.09 33.41 32.65 32.18 31.89 31.14 30.76 29.78 29.43 29.91 30.81 30.99 32.39 32.47 32.94 32.85 30.73 30.81 31.92 32.82 32.23 31.47 29.41 29.60 30.31 29.96 26.43
39.05 38.80 38.00 37.05 37.02 36.05 34.28 31.90 31.18 31.37 30.51 29.50 30.00 31.65 32.43 32.55 32.57 32.10 31.99 31.76 31.18 30.18 29.19 28.62 28.15 28.41 28.82 29.30 30.00 30.19 30.39 31.37 30.74 31.16 29.83 30.11 30.10 29.64 28.68 27.46 27.15 26.45 26.12
38.56 38.63 37.54 36.10 32.67 31.70 30.44 30.88 30.93 31.06 29.64 30.10 31.33 32.29 32.11 32.01 31.33 31.21 31.62 31.56 31.30 29.41 27.87 27.86 27.22 26.40 25.99 27.78 30.45 30.10 29.17 29.49 30.13 29.50 27.01 25.69 25.04 24.34 24.54 24.75 24.98 25.19 25.23
38.09 37.40 34.73 31.41 30.26 29.94 29.54 30.24 31.39 31.61 31.42 31.13 31.60 31.60 31.34 31.15 31.23 30.96 30.91 29.56 29.09 28.74 29.03 28.79 27.79 27.78 29.51 30.26 30.27 30.38 30.96 30.98 30.54 25.86 23.47 22.94 23.13 22.73 22.70 22.49 22.47 23.30 24.28

GFSMW_sfc_wetblb_054.txt.gz
Wetbulb
50.49 51.34 52.63 53.00 53.41 54.64 57.38 59.27 58.25 58.08 59.61 60.60 65.02 65.32 64.63 65.28 64.95 65.94 65.47 64.65 60.65 52.35 49.98 48.26 47.32 47.11 45.83 45.14 44.31 43.52 42.30 39.37 39.18 38.81 39.64 40.07 41.83 41.63 41.98 42.51 40.94 40.90 40.51
49.17 50.75 51.55 52.06 53.31 53.87 54.53 56.10 56.97 58.34 58.96 60.28 63.23 64.36 60.10 57.92 56.47 57.70 59.57 57.05 52.61 50.28 46.83 46.02 45.78 45.20 44.89 44.06 43.44 43.27 40.80 39.42 38.69 36.06 38.52 36.64 38.53 40.88 41.47 41.30 40.37 38.50 38.60
47.67 48.40 48.83 50.26 51.45 52.25 53.53 56.12 56.70 57.25 59.33 60.28 61.18 56.64 55.67 53.37 51.32 50.09 49.36 49.66 49.42 49.29 48.27 46.43 46.58 46.20 45.90 43.68 42.71 42.12 41.61 38.63 38.17 36.87 35.82 33.54 32.97 33.29 37.98 39.00 38.72 36.94 36.40
47.98 47.99 47.82 47.87 49.01 52.67 53.47 54.98 56.78 57.00 58.59 60.99 60.12 57.54 56.61 54.67 51.50 49.27 48.77 47.28 47.96 47.08 47.23 47.07 46.81 45.55 44.21 42.38 41.81 41.69 40.12 40.81 37.94 38.54 38.76 35.46 33.91 30.41 29.32 35.03 35.75 35.87 36.23
46.08 46.59 47.40 48.73 49.01 49.19 53.06 54.40 55.55 57.21 57.31 61.64 60.50 57.52 54.43 50.30 48.74 45.88 44.39 44.72 44.88 44.94 45.93 44.57 43.68 43.64 43.07 41.02 40.46 38.50 37.56 37.16 36.87 35.64 35.05 34.03 34.01 33.07 29.84 28.23 30.85 33.61 34.88
42.69 43.76 45.82 48.44 47.71 48.40 48.89 52.42 54.65 55.83 57.47 60.91 59.44 55.86 51.02 47.51 43.83 42.13 41.05 41.50 42.02 42.96 43.25 44.04 43.63 42.95 41.66 40.15 39.45 38.41 36.65 36.07 35.59 35.21 34.32 33.60 32.09 30.69 29.36 27.59 27.89 28.84 31.74
41.81 43.29 43.75 45.09 46.00 46.18 48.36 49.84 54.59 54.65 57.70 59.25 57.51 55.86 48.76 46.33 43.52 41.71 41.25 40.63 40.96 41.50 42.01 42.59 42.03 42.48 41.64 39.31 38.99 37.25 36.34 35.68 34.91 33.64 33.23 34.16 33.58 33.58 31.75 29.70 27.91 27.08 29.55
43.14 43.56 43.01 44.90 45.85 47.27 48.05 48.80 52.69 54.38 57.54 57.19 56.04 50.76 47.10 45.49 43.27 42.58 41.63 41.01 40.78 41.04 41.98 41.80 41.37 40.65 39.88 37.82 37.56 36.69 35.95 35.42 34.59 33.41 33.18 33.09 32.87 33.19 32.40 30.30 27.65 26.57 26.17
43.62 42.51 43.75 45.42 45.91 46.24 48.11 49.14 52.03 54.64 55.95 55.90 52.39 49.00 47.54 45.00 43.00 42.38 41.87 41.35 40.68 41.12 40.64 40.09 39.27 38.45 38.57 36.53 36.52 35.42 34.37 34.14 33.49 32.48 32.21 32.23 32.70 32.66 32.00 31.54 30.28 26.96 24.24
45.26 46.09 46.64 47.58 47.59 47.76 48.40 49.50 52.88 53.94 54.92 55.35 52.16 47.99 44.41 42.03 40.81 40.51 39.76 39.89 40.33 40.47 40.10 39.03 38.28 37.44 35.40 35.26 35.06 34.03 33.93 32.83 32.58 33.20 31.77 31.53 31.89 31.39 31.10 30.51 30.34 29.04 26.04
46.15 47.13 48.07 49.04 47.85 48.41 48.48 50.05 52.68 54.00 55.69 50.98 46.26 42.17 39.55 39.38 40.58 39.79 39.56 39.50 39.65 39.07 38.05 38.49 37.38 35.79 35.32 35.13 33.79 33.31 33.55 32.56 32.09 32.15 31.82 31.77 31.67 30.28 29.66 29.41 29.14 28.05 27.16
46.38 47.01 47.56 48.75 48.17 47.59 48.07 50.94 53.91 54.81 49.20 45.95 40.32 38.44 38.40 39.13 38.86 38.45 38.67 39.71 38.84 39.02 38.28 37.91 36.29 35.05 34.26 33.63 32.71 32.41 32.95 31.98 31.42 31.61 31.24 31.02 33.72 29.38 29.22 28.17 27.57 27.24 27.29
45.13 45.06 45.88 46.63 48.47 49.33 49.57 52.13 52.81 48.63 45.87 41.06 38.41 38.64 39.16 38.76 38.58 38.38 38.81 39.16 38.48 37.65 37.18 35.53 34.81 33.75 33.86 32.87 32.23 32.55 32.08 32.09 31.86 31.63 30.85 30.48 30.02 28.21 27.76 27.35 26.80 27.50 30.34
43.50 43.37 45.31 47.37 47.72 49.72 52.03 50.97 47.82 45.69 41.27 38.85 38.33 39.06 38.91 38.52 38.56 38.24 38.22 37.73 37.16 36.22 34.61 34.85 34.09 33.41 33.06 33.11 32.80 33.30 32.08 31.63 31.95 32.32 31.55 30.66 29.92 28.49 27.24 28.21 27.20 28.93 27.18
42.83 44.40 46.19 47.04 49.04 48.52 47.91 45.20 42.14 39.97 39.09 37.96 38.31 38.19 38.00 37.88 37.72 37.21 37.02 36.81 36.16 34.35 34.49 33.17 32.42 32.46 33.17 33.76 32.42 32.31 31.30 30.11 29.74 30.37 31.28 31.00 32.78 35.71 34.39 31.31 27.79 27.65 27.07
41.86 43.64 45.78 45.84 44.16 42.89 41.79 40.35 37.71 37.70 38.49 37.56 37.82 37.52 37.30 36.79 36.37 36.16 35.37 34.97 33.06 32.60 32.35 31.81 32.08 31.57 33.73 34.50 34.90 33.75 30.29 29.99 29.08 28.53 29.35 29.85 33.26 32.25 35.44 35.59 35.61 33.90 29.66
41.59 42.53 40.14 38.86 38.67 38.13 37.92 36.03 36.25 37.35 37.47 36.70 37.10 36.52 36.52 35.83 35.28 35.11 34.25 32.51 31.56 31.61 30.78 31.08 31.71 31.33 30.76 33.96 33.90 34.36 30.45 28.96 28.28 27.90 28.11 28.99 32.07 32.25 29.12 32.57 34.63 33.60 34.86
40.44 38.28 35.39 34.72 34.74 37.02 37.10 37.42 37.52 36.78 36.42 36.13 36.23 36.64 35.67 34.67 34.56 33.34 32.41 31.34 31.33 30.97 30.93 31.36 30.99 30.21 31.45 33.05 32.94 33.80 28.86 27.75 27.73 28.13 28.13 27.39 27.39 28.73 31.28 29.62 25.94 27.22 28.50
38.32 36.77 35.99 34.96 36.11 36.15 36.66 36.17 35.82 35.88 35.41 34.92 34.84 34.89 34.81 33.66 32.92 31.51 30.20 30.38 31.15 31.39 30.51 30.62 29.79 28.21 27.75 32.38 32.47 31.63 27.58 27.12 26.13 28.69 28.46 29.48 28.49 32.81 35.14 30.71 27.28 27.79 27.25
36.08 35.10 35.32 35.92 35.48 35.80 36.68 35.71 34.71 34.29 33.72 34.13 34.37 34.89 34.17 32.71 30.99 29.86 31.01 32.11 31.19 30.56 30.50 29.58 28.57 31.37 26.64 32.62 32.87 31.67 28.07 25.59 26.06 27.00 28.36 32.90 31.77 34.17 34.68 30.59 28.79 25.17 25.18
35.71 36.32 36.27 35.64 36.86 37.53 37.25 35.01 34.52 33.20 34.23 34.65 34.20 33.09 31.94 31.42 31.86 31.85 31.68 30.98 29.87 29.36 27.89 27.31 27.38 27.50 27.91 27.05 33.11 33.11 28.18 26.73 27.08 26.12 26.67 27.45 33.17 34.04 34.50 34.00 27.30 26.31 29.24
37.21 37.21 36.36 37.07 38.67 39.06 37.65 34.30 32.52 33.61 33.16 32.03 30.93 30.75 31.52 32.56 32.64 30.96 30.05 29.15 28.28 27.06 26.22 25.80 25.17 26.13 26.17 32.23 31.83 33.32 33.03 32.73 27.71 26.44 26.54 27.41 33.09 33.22 32.75 30.88 31.22 31.88 31.17
36.39 37.44 37.52 37.89 38.80 37.38 34.16 31.12 30.75 31.23 30.62 30.11 29.62 30.09 31.96 32.38 31.49 29.37 27.77 26.74 27.10 25.88 24.98 24.41 23.56 23.22 25.30 24.54 32.09 32.47 32.66 32.26 29.03 28.14 30.55 32.27 31.93 31.18 28.65 29.56 30.77 29.88 23.69
34.77 35.61 35.33 34.66 33.82 33.41 31.99 30.68 30.67 30.87 30.45 29.97 30.34 30.94 30.47 28.98 28.00 27.49 27.54 26.50 25.45 24.32 23.98 23.04 21.92 21.62 22.50 23.32 24.64 27.28 25.84 29.77 28.52 29.58 26.45 29.10 28.98 28.99 27.68 25.89 25.04 23.77 23.48
35.67 35.55 33.21 29.97 28.48 29.27 29.13 29.83 30.44 31.23 29.93 30.18 29.99 28.82 28.08 26.95 26.24 26.16 25.23 24.97 25.32 25.37 23.23 22.64 22.57 21.14 21.00 24.26 29.93 29.39 27.48 27.51 29.49 29.15 24.14 22.42 21.28 21.54 22.08 22.48 22.65 22.88 22.75
35.84 32.11 30.35 29.09 28.66 28.75 28.86 30.08 31.26 31.50 30.90 29.58 27.45 26.53 26.17 26.01 25.65 25.16 24.21 30.24 29.89 29.43 29.22 28.85 26.51 25.21 28.65 30.35 30.57 30.66 31.36 31.56 30.80 24.24 20.36 19.89 20.40 20.40 20.73 20.73 20.93 21.68 22.63

GFSMW_sfc_wetblb_057.txt.gz
Wetbulb
47.78 48.39 49.37 52.12 51.70 52.63 54.58 55.75 58.10 60.92 65.18 65.79 65.37 65.04 63.85 63.52 63.99 64.76 63.63 62.60 58.91 54.70 52.36 49.63 47.24 46.03 44.85 43.60 42.91 41.52 40.26 38.24 38.57 37.83 39.83 39.81 39.94 39.74 40.02 40.43 39.26 40.23 39.93
46.16 48.22 48.38 48.17 49.35 50.30 50.92 54.60 55.84 58.60 62.16 64.73 65.76 64.76 60.48 57.37 58.14 61.76 61.23 58.78 52.87 51.69 48.82 46.90 45.51 43.85 42.73 42.19 41.53 41.23 39.42 39.48 39.30 37.87 38.54 36.89 37.80 38.89 40.13 39.34 39.63 37.31 37.49
44.16 44.75 45.92 47.45 48.38 49.05 50.59 52.17 54.22 55.47 58.04 59.52 59.08 56.75 55.48 54.08 52.46 49.94 48.95 49.25 49.27 49.96 48.03 45.12 45.11 43.89 44.25 43.13 42.36 42.15 40.82 39.23 38.13 36.59 36.43 33.58 34.75 33.72 37.78 38.76 37.61 35.93 35.57
43.94 44.99 45.61 45.16 46.20 48.66 50.01 51.87 54.07 54.76 55.73 58.86 58.67 59.19 59.54 57.60 52.83 48.95 49.10 48.42 48.17 47.18 47.32 46.24 45.47 45.29 46.06 44.75 41.50 42.00 39.97 40.30 37.31 36.98 37.92 35.00 32.99 29.93 29.68 34.32 35.37 34.78 35.57
43.56 44.79 45.25 46.66 46.65 46.57 48.27 49.54 52.20 54.28 55.50 57.97 59.57 59.71 58.49 51.06 48.78 47.72 46.74 45.25 46.93 48.19 48.66 47.37 45.43 44.70 44.75 42.34 40.21 40.03 38.94 38.91 37.41 36.42 34.63 33.24 32.58 31.33 29.88 28.20 30.84 32.66 33.14
40.84 42.95 44.64 46.23 45.50 45.02 46.86 48.91 51.77 52.16 54.03 57.49 58.30 58.18 52.62 49.19 48.24 45.39 43.01 44.89 45.16 43.83 45.43 44.34 44.20 43.75 43.38 42.36 41.56 39.43 36.94 35.31 35.26 34.82 33.44 32.96 31.57 30.49 28.88 27.16 27.70 27.98 30.32
40.52 41.66 41.13 42.49 43.35 45.10 45.82 47.37 49.18 51.89 52.97 56.82 57.11 54.70 52.16 50.45 48.60 45.58 43.49 42.82 42.34 42.16 42.74 43.30 42.37 42.33 42.94 42.85 41.57 39.05 37.33 35.08 33.98 33.24 32.90 33.38 32.61 32.63 31.05 28.73 26.90 26.12 27.63
40.43 40.57 41.40 42.95 43.50 44.51 44.98 46.17 47.11 51.01 54.53 56.05 53.52 51.00 49.51 48.07 46.00 44.98 44.72 44.31 44.31 43.39 41.43 42.01 42.11 41.90 41.93 41.59 39.65 37.73 36.08 34.62 33.72 32.53 32.46 32.48 32.42 32.53 31.64 29.61 26.91 24.19 24.88
43.57 43.55 44.60 44.63 43.64 43.57 45.71 45.75 46.48 51.40 54.75 52.71 49.22 47.76 46.61 45.76 44.80 43.95 43.50 43.37 42.09 41.56 41.57 40.51 40.65 40.50 39.92 39.51 37.87 34.91 34.65 32.83 32.56 32.10 31.65 31.59 31.84 31.72 30.92 30.34 29.23 26.26 22.35
44.76 44.92 45.26 46.33 46.21 45.43 45.40 46.83 47.44 51.61 53.58 49.76 47.84 46.39 45.20 44.48 43.16 42.61 41.35 41.42 41.52 41.18 40.00 39.99 39.65 38.99 37.86 37.16 36.33 34.98 33.80 33.69 32.66 32.77 30.89 30.48 30.98 30.48 29.93 29.28 29.05 27.84 25.16
43.76 45.01 47.36 46.34 46.74 47.07 46.23 46.18 48.01 51.87 50.18 48.15 44.84 42.68 42.11 41.59 41.16 40.17 40.90 40.89 40.48 40.09 39.36 38.93 38.01 37.34 35.99 35.80 34.23 33.92 33.95 32.23 31.78 31.41 31.55 31.40 30.70 29.36 28.51 28.16 27.79 26.69 25.32
44.20 44.68 45.00 45.92 46.03 46.63 47.58 46.85 48.89 51.91 45.70 43.47 41.44 40.06 39.20 39.72 39.67 39.37 40.40 39.85 39.28 39.28 38.42 37.91 36.94 36.37 34.99 34.57 33.63 32.92 32.26 32.21 31.32 31.42 30.90 30.37 32.85 28.63 28.11 27.03 26.15 25.52 25.77
43.80 43.62 42.64 43.59 44.43 45.72 46.03 47.46 50.81 44.35 41.68 40.12 39.23 39.35 38.80 38.86 37.56 38.56 38.99 39.10 38.59 38.42 38.04 36.64 35.52 34.84 34.39 33.34 33.09 32.92 32.36 31.82 31.82 31.88 30.80 29.93 28.90 27.42 27.03 26.19 25.70 26.33 28.98
43.28 43.55 44.97 45.12 45.34 47.27 48.06 48.98 44.05 41.09 39.76 38.93 38.95 38.03 38.27 37.18 38.27 38.52 38.55 38.89 38.58 38.11 35.94 35.76 34.80 34.31 33.49 33.55 32.72 32.94 31.96 31.67 31.87 31.01 30.58 29.81 28.71 27.45 26.52 26.74 26.38 27.43 25.51
42.35 42.95 45.33 42.14 40.83 44.47 45.17 42.61 40.55 39.78 39.40 38.84 38.14 38.21 38.25 38.64 38.34 37.80 37.76 37.54 36.82 35.28 34.78 33.60 33.39 33.23 33.10 33.19 31.84 32.92 32.04 31.10 29.45 29.25 29.80 29.91 31.52 35.50 34.06 31.06 27.04 26.32 25.49
41.72 39.67 38.98 39.92 38.57 37.40 38.33 38.41 38.16 38.67 39.30 38.44 37.43 36.76 37.90 37.54 37.24 36.58 35.99 34.95 34.13 33.65 33.30 32.61 32.21 30.21 33.64 36.55 36.20 34.11 31.12 29.55 28.40 27.69 28.35 28.32 32.13 31.69 35.29 35.51 35.63 34.11 29.10
40.18 36.69 35.46 35.68 36.22 37.52 37.43 36.23 36.95 38.21 36.77 36.30 35.87 36.74 36.56 35.49 35.34 35.39 34.06 33.04 32.46 32.41 31.46 31.15 29.97 30.33 31.58 35.50 35.05 34.73 29.94 28.23 27.23 26.60 26.57 27.36 30.54 30.54 27.50 31.68 34.89 33.96 35.01
36.40 35.08 34.86 34.96 35.91 36.83 36.68 36.73 36.89 36.46 36.17 35.83 35.72 35.68 35.16 34.20 33.98 33.41 32.52 32.03 31.77 30.25 29.05 29.47 30.32 30.59 32.69 34.54 33.95 33.93 27.99 27.02 26.57 26.60 26.38 25.70 26.19 27.41 30.83 28.90 27.19 28.22 27.68
35.23 34.68 34.85 35.10 35.34 35.48 36.17 35.90 35.40 35.56 35.35 34.50 34.32 34.46 33.96 33.21 32.77 32.16 31.79 31.03 30.22 29.76 30.31 30.78 29.96 28.11 29.28 33.30 32.96 31.03 27.23 26.91 25.73 27.23 27.11 28.27 27.56 32.28 34.63 30.30 26.66 26.48 26.73
34.94 34.61 35.10 35.05 34.27 35.21 35.47 34.49 34.00 33.81 33.16 33.69 33.85 33.29 33.26 32.70 31.50 31.45 30.91 30.57 31.09 30.85 30.81 29.58 28.03 31.01 26.63 32.81 33.02 31.50 27.46 25.54 25.91 26.09 26.65 31.82 31.10 33.73 34.55 30.83 28.04 24.80 24.53
35.18 36.37 36.46 35.32 35.37 35.71 35.66 34.26 33.90 32.37 33.09 33.52 33.40 32.91 32.50 31.80 31.60 31.53 31.71 31.08 30.13 29.28 27.38 26.85 26.29 26.16 27.06 26.65 33.35 33.65 27.62 26.19 25.09 25.18 25.81 26.25 32.44 33.81 33.95 33.42 27.05 25.98 29.32
35.88 36.75 35.70 35.64 36.15 37.03 35.63 33.99 32.48 32.59 33.28 33.19 32.38 31.75 31.89 32.72 32.55 31.00 30.09 28.86 28.11 26.37 24.85 24.78 24.37 24.81 25.17 31.59 32.11 33.51 33.12 32.46 26.36 25.62 25.47 26.13 32.61 32.40 31.90 29.86 30.88 31.65 30.22
35.20 36.58 34.81 34.98 35.67 36.31 35.73 33.56 32.73 32.49 31.29 30.50 30.37 30.84 31.59 31.78 30.87 28.69 27.55 26.54 25.92 24.75 23.70 23.89 22.75 22.75 24.65 23.65 30.41 31.61 32.34 31.60 28.23 27.24 29.93 32.16 31.25 29.67 26.90 28.78 29.79 29.00 22.79
37.22 38.10 37.93 36.82 34.78 33.80 32.67 31.10 30.96 30.98 30.47 30.23 30.35 30.91 29.95 28.45 27.68 27.07 26.36 25.11 24.47 23.64 23.33 23.02 21.80 21.18 21.91 22.61 23.85 26.07 25.31 29.06 28.27 29.11 25.50 28.23 27.33 27.19 26.37 24.80 24.29 23.06 22.57
35.81 35.86 34.52 31.42 29.97 29.83 29.54 30.49 30.99 31.55 30.55 30.27 30.00 28.98 27.58 25.95 24.93 25.34 24.74 24.28 24.68 25.00 23.11 22.88 22.90 21.18 20.91 24.22 29.78 29.26 27.53 28.01 29.39 28.13 22.83 20.96 20.66 20.61 21.15 21.64 21.94 22.17 22.10
33.35 31.63 30.42 28.49 27.18 28.50 28.70 30.23 31.65 31.89 30.56 28.98 26.61 25.86 25.23 25.19 24.73 24.05 23.81 31.27 30.43 30.46 29.84 29.26 26.51 25.09 28.54 30.76 30.77 31.06 31.49 31.21 29.89 22.01 19.44 18.95 19.44 19.34 19.72 19.73 19.82 20.58 21.63

GFSMW_sfc_wetblb_060.txt.gz
Wetbulb
47.35 47.60 48.67 48.86 49.33 50.58 50.67 53.24 61.08 63.85 65.58 65.02 64.53 63.75 63.57 62.95 61.99 62.14 60.90 60.07 58.74 55.69 53.44 51.26 47.69 45.97 46.15 43.64 42.03 40.64 38.92 37.17 36.76 37.25 37.97 41.45 40.13 40.06 41.18 40.94 38.77 39.35 38.83
43.38 45.97 47.04 46.61 46.93 48.50 48.95 50.70 55.20 62.65 65.22 65.64 65.71 64.73 64.33 60.09 60.85 61.23 61.63 60.49 57.28 54.62 52.24 49.45 46.48 45.25 43.67 42.10 41.27 40.60 38.89 39.54 38.18 36.13 37.12 37.85 39.19 39.73 38.86 38.87 39.12 37.17 36.98
43.75 43.12 44.10 45.57 46.24 46.67 47.53 49.16 52.63 57.26 64.13 65.74 61.79 57.11 56.70 55.78 54.97 54.98 55.40 54.73 54.10 54.45 50.44 47.92 45.93 44.11 46.12 41.59 41.11 41.92 42.59 38.77 38.18 37.12 37.19 34.27 34.66 33.60 36.12 36.10 35.35 34.28 34.02
42.18 43.52 44.05 44.69 44.81 45.65 47.20 49.08 50.76 53.32 56.92 61.62 62.70 59.98 59.96 56.39 55.57 51.68 51.24 48.20 51.76 52.35 49.86 46.77 45.36 45.70 44.83 43.14 45.42 44.30 41.37 39.48 37.96 38.10 37.34 36.28 34.91 32.43 31.35 34.65 35.23 34.65 34.86
41.48 42.39 43.18 44.60 45.07 44.95 45.18 47.14 49.38 51.47 53.17 59.95 61.82 61.50 61.06 55.38 49.81 50.45 49.07 49.52 47.92 49.47 49.71 48.54 46.38 46.95 45.81 44.52 43.74 42.77 40.35 39.78 37.80 37.95 33.87 32.31 32.10 31.64 30.39 28.81 31.00 32.95 33.11
40.21 40.99 43.03 44.01 44.06 44.02 44.99 46.59 47.56 49.66 51.93 55.78 59.91 60.53 56.74 51.01 48.72 46.71 46.89 47.65 47.46 47.92 49.46 48.42 48.01 46.01 43.79 42.42 41.83 40.69 40.04 38.03 35.67 35.66 35.31 32.43 31.31 30.56 29.38 28.35 28.43 28.97 31.21
39.17 39.46 40.64 41.89 42.82 42.61 44.57 45.81 47.27 48.77 50.41 51.76 56.39 58.75 55.43 53.06 51.66 47.49 47.61 46.19 46.00 46.25 44.46 46.44 45.06 43.37 42.59 41.68 41.11 40.03 38.77 36.82 35.84 33.59 33.17 32.38 31.86 32.01 30.71 29.18 27.39 26.76 28.63
41.81 43.12 43.86 43.73 42.42 42.31 42.82 43.72 45.38 46.27 48.76 52.05 55.17 56.19 53.83 53.50 51.49 49.39 47.18 46.21 45.01 44.63 45.10 45.22 44.80 43.62 41.83 41.15 39.92 38.84 38.76 38.28 33.96 33.56 31.47 31.38 31.54 31.92 31.54 29.69 27.27 24.72 24.74
43.56 44.07 44.72 45.19 44.91 45.00 44.30 43.32 43.98 45.34 50.86 52.69 51.11 50.68 51.54 48.98 47.06 45.73 46.53 45.60 45.06 44.78 44.27 44.63 43.14 41.52 40.92 40.19 39.09 37.99 36.85 35.79 34.64 31.94 33.11 30.95 31.14 31.38 30.51 29.93 28.91 26.26 22.10
43.13 43.84 44.62 45.02 45.42 45.86 45.74 45.81 45.65 44.44 51.31 48.29 47.60 47.01 47.05 46.85 45.91 45.98 44.99 44.70 45.11 44.28 43.53 42.51 40.85 40.04 39.30 38.56 37.65 35.80 35.29 34.66 33.94 32.30 30.49 30.49 30.71 29.92 29.32 28.74 28.41 27.42 25.09
42.62 43.38 44.17 44.97 45.34 45.55 45.78 45.93 45.78 45.94 47.82 46.83 45.48 44.22 43.45 44.06 43.98 44.22 44.27 44.51 43.36 42.03 40.97 40.02 39.60 38.33 37.61 38.15 35.90 33.87 34.20 33.10 31.15 30.92 30.77 30.54 30.21 29.26 28.40 27.86 27.23 26.15 24.95
43.00 43.45 43.55 43.93 44.18 44.53 44.85 45.54 46.38 47.12 47.88 45.28 44.20 43.16 42.56 42.98 42.37 42.25 42.08 41.79 40.69 41.29 39.79 38.60 37.64 36.91 36.47 36.09 34.68 34.24 33.52 32.85 31.14 30.94 29.98 30.10 32.37 28.70 27.75 26.69 26.00 25.26 25.18
42.81 42.01 41.21 41.59 42.20 42.48 44.60 45.79 46.09 46.96 43.83 41.94 40.34 39.97 39.75 39.30 38.97 39.00 39.34 40.11 39.79 38.73 38.10 37.47 36.41 35.67 34.86 34.04 33.81 33.71 32.97 32.77 32.33 30.95 29.76 29.52 28.49 27.17 26.91 25.94 25.01 25.11 27.72
42.28 41.16 42.24 40.46 37.81 38.14 43.78 45.46 43.70 42.44 41.48 40.55 39.25 38.55 38.45 38.59 39.38 39.12 39.04 38.88 38.51 37.31 36.78 35.78 34.94 34.35 34.05 34.24 34.11 33.82 32.72 31.82 30.54 30.21 29.64 29.33 28.15 27.21 26.12 26.13 25.47 26.54 24.91
42.30 40.44 39.06 39.90 37.68 36.80 36.58 37.78 37.77 38.27 40.40 40.08 38.88 37.24 39.09 38.30 38.49 38.14 38.07 37.58 36.34 35.31 34.70 33.86 33.43 33.59 33.94 34.23 33.36 32.44 31.62 29.72 28.50 29.02 29.31 28.95 31.06 35.00 33.67 30.62 27.02 26.15 25.22
39.84 36.92 36.36 37.99 37.61 36.36 35.40 37.24 37.32 39.17 39.60 38.47 37.79 37.83 37.99 37.52 37.12 36.62 35.28 34.52 34.17 33.80 33.41 32.83 32.66 32.67 35.30 37.81 37.11 33.09 29.69 29.76 28.53 27.32 26.38 27.23 30.65 30.24 34.63 34.92 35.33 33.92 28.44
37.02 35.18 34.37 35.07 36.39 37.09 37.74 36.77 37.10 38.21 37.15 36.76 36.63 36.58 36.03 34.84 34.63 34.79 34.06 33.69 32.65 32.55 32.03 31.87 31.91 32.03 33.93 36.60 36.23 34.94 29.18 27.30 25.97 25.05 25.70 26.88 29.61 29.72 26.81 31.16 34.39 33.64 35.23
35.74 34.39 34.25 34.75 35.35 35.95 36.01 36.29 36.35 35.91 35.35 34.71 34.86 35.37 35.05 34.65 34.37 33.98 32.58 32.01 32.34 31.64 31.31 30.87 30.95 31.24 33.61 35.82 35.03 33.65 26.93 25.73 25.66 26.13 25.89 25.52 26.11 27.18 30.14 28.42 26.37 27.00 27.82
34.71 34.31 34.85 34.81 35.11 35.06 35.71 35.24 34.54 34.52 34.49 34.25 34.21 34.63 34.66 33.00 33.11 32.06 31.71 31.96 31.39 30.61 30.35 30.71 30.02 30.80 30.67 34.45 33.81 30.41 26.00 26.85 26.06 26.95 26.80 27.64 26.88 31.55 34.29 29.90 26.87 26.92 26.68
34.94 34.19 34.54 34.41 33.66 34.49 34.91 33.69 33.01 33.57 33.32 34.11 34.03 33.67 32.74 32.31 32.03 32.27 31.86 31.84 31.46 30.80 30.96 29.58 29.14 31.13 26.93 33.54 33.17 31.05 26.92 26.08 26.28 26.40 26.55 30.72 30.28 33.15 34.33 30.21 26.21 24.23 24.25
35.70 36.11 35.50 34.19 34.54 35.31 35.08 33.17 32.65 31.83 33.41 34.11 33.32 32.45 32.16 31.81 31.64 31.29 31.37 30.92 30.17 29.34 28.35 26.87 25.77 24.40 26.36 26.08 33.33 33.86 27.28 26.68 26.13 25.77 26.13 26.68 32.10 33.54 33.47 32.54 24.91 25.24 28.58
35.77 35.94 35.13 35.46 36.28 36.79 35.52 33.48 31.46 32.53 32.85 32.40 32.12 32.02 32.21 33.13 32.56 30.97 30.05 29.41 28.54 26.56 24.25 23.38 22.96 24.03 24.46 31.20 31.67 32.41 32.42 31.96 26.62 25.80 25.85 26.17 32.16 31.99 30.83 28.73 29.98 31.02 29.48
35.55 35.55 34.72 35.40 35.89 36.10 34.98 32.10 32.12 32.69 32.66 32.29 31.95 32.07 32.58 32.49 31.59 29.16 27.67 26.13 25.14 23.89 23.24 24.17 22.86 22.74 24.23 23.24 29.91 31.33 31.90 31.35 28.00 26.97 29.71 31.42 30.38 28.76 26.08 27.72 29.08 28.41 22.00
35.54 35.47 35.11 34.81 34.54 35.96 34.98 33.46 33.71 33.65 33.01 31.75 31.09 31.28 31.06 28.55 26.39 25.72 25.23 24.71 24.58 23.74 23.60 22.88 21.30 20.81 22.17 23.08 24.51 26.39 25.33 29.22 28.22 28.83 23.66 26.58 26.18 26.06 25.50 23.95 23.59 22.64 22.05
37.50 37.54 36.27 34.09 32.15 31.88 31.96 32.10 31.95 30.92 29.83 30.12 30.22 28.49 27.00 25.04 24.63 25.16 24.56 23.95 23.69 24.35 22.76 22.40 22.74 20.96 20.70 24.22 29.51 28.99 27.50 26.61 27.85 25.76 21.11 19.99 19.99 19.65 20.13 20.79 21.24 21.40 21.26
37.41 34.74 31.72 28.23 28.54 28.38 28.89 29.14 31.62 31.96 31.72 30.67 26.29 24.98 24.29 24.00 23.97 23.59 23.51 31.38 30.72 30.90 30.30 29.71 26.35 25.20 28.69 31.00 30.80 30.78 30.48 29.55 29.10 21.22 18.48 18.03 18.34 18.22 18.74 18.92 19.08 19.68 20.61

GFSMW_sfc_wetblb_063.txt.gz
Wetbulb
47.08 46.03 47.14 48.07 48.23 48.25 49.25 52.81 61.68 64.69 65.56 64.91 64.59 63.91 63.20 63.20 62.08 62.13 61.34 59.71 59.70 58.59 56.97 53.62 50.21 48.14 47.44 45.30 42.82 40.10 38.53 36.75 36.81 37.71 39.04 38.22 38.85 37.93 38.32 38.68 38.75 40.01 38.32
43.89 43.89 45.41 45.30 46.04 47.21 47.18 49.21 59.19 63.03 65.12 65.25 65.02 64.24 64.23 64.03 63.17 61.25 60.66 59.77 59.26 57.63 55.52 52.47 49.86 48.23 44.78 42.18 41.21 40.67 38.27 37.12 36.24 36.48 36.46 35.49 37.85 38.07 38.00 38.10 38.51 36.56 36.54
44.21 43.72 43.04 44.55 45.00 45.08 46.10 46.93 50.33 59.97 63.83 65.17 64.24 58.65 59.08 57.93 56.37 57.44 58.99 58.74 58.40 57.26 56.40 52.70 49.95 47.13 46.42 44.02 42.48 41.37 40.71 37.89 38.40 37.32 37.75 34.04 33.75 33.22 34.53 34.98 34.80 34.38 33.69
41.92 42.37 42.85 42.82 43.27 44.39 44.78 46.42 47.73 51.36 61.65 64.44 62.15 61.04 61.34 60.25 61.16 61.63 57.61 52.43 56.18 55.94 53.37 50.89 49.13 47.12 46.44 45.06 47.40 46.87 43.57 42.23 39.80 39.00 38.58 35.28 34.34 31.91 29.58 32.46 32.61 32.65 33.53
39.56 40.74 41.75 43.01 43.69 43.71 43.55 44.47 45.97 48.39 53.85 62.05 63.07 61.55 61.21 61.15 54.13 51.66 51.83 48.43 52.55 52.85 51.97 49.47 47.99 48.87 49.63 49.37 48.79 47.34 43.31 42.03 40.62 37.87 34.42 33.48 33.19 30.48 29.35 28.22 29.49 31.75 32.30
40.33 41.33 41.66 41.84 41.41 42.14 42.14 42.85 45.05 46.80 49.56 55.87 61.97 62.06 60.86 52.88 52.80 51.38 51.35 48.13 48.58 49.57 49.75 49.57 49.41 48.24 47.73 47.16 46.78 46.24 43.34 39.64 39.70 36.79 36.78 35.23 33.96 31.26 29.66 27.39 26.97 27.31 29.42
41.91 42.74 43.20 43.39 43.21 42.42 41.65 43.10 44.22 46.54 47.66 50.89 57.05 59.77 58.58 53.88 54.43 53.39 53.34 48.93 46.93 46.89 46.96 48.51 48.50 47.67 46.59 45.34 44.28 42.21 39.12 38.43 37.90 36.86 34.36 35.44 33.75 33.80 29.86 28.47 26.22 25.78 27.46
41.88 42.94 43.60 43.95 44.27 44.89 44.38 42.91 42.71 43.17 44.29 48.23 52.53 55.88 56.49 55.53 53.85 52.42 52.36 51.91 49.92 48.00 46.25 46.44 47.61 46.65 44.83 42.90 42.22 40.21 38.83 37.61 35.39 35.35 34.72 33.47 33.61 31.54 30.64 29.12 26.71 24.13 24.16
41.60 42.81 43.80 44.17 44.52 44.92 45.44 45.08 44.91 44.79 44.47 47.07 50.51 53.23 52.47 51.36 50.08 49.06 49.35 48.70 47.28 46.55 46.07 46.07 44.57 44.27 43.20 40.70 39.77 38.53 38.04 36.15 35.90 34.38 34.14 33.33 32.27 30.70 30.01 29.66 28.55 26.40 22.16
41.73 42.42 43.16 44.16 44.74 45.02 45.34 45.87 46.10 45.43 45.05 48.18 48.54 48.57 48.53 47.18 45.95 46.48 45.99 45.00 45.83 45.67 44.89 44.46 43.18 42.15 41.25 39.71 38.47 36.74 36.31 35.28 34.97 34.43 32.87 32.61 31.04 29.32 29.03 28.58 28.11 27.10 25.21
41.23 42.38 43.42 43.85 43.75 43.59 43.67 44.53 45.28 45.65 45.74 47.36 45.79 44.54 43.85 43.70 44.64 44.81 45.04 44.67 44.46 44.19 43.21 43.44 41.80 39.79 38.46 37.86 36.53 35.86 35.31 34.29 33.84 33.15 32.75 31.90 31.09 29.16 28.55 27.56 26.96 25.92 24.95
42.47 42.44 41.30 41.52 42.33 41.26 41.09 41.76 44.07 45.22 45.88 45.80 43.65 42.58 42.59 43.32 42.79 42.39 43.31 44.15 42.35 42.77 42.42 40.94 39.35 38.29 37.63 36.92 35.43 34.72 34.38 33.34 32.25 32.31 31.95 31.15 32.47 29.73 27.97 26.54 25.83 25.23 24.58
42.69 41.04 40.92 41.29 37.53 36.20 36.84 38.70 42.84 43.57 45.52 43.42 41.86 41.06 40.56 42.02 43.40 43.60 44.85 43.61 42.32 40.26 39.47 38.69 37.29 36.18 35.29 34.51 34.27 33.85 33.30 33.02 32.76 32.39 31.97 31.10 29.83 28.70 28.24 25.61 24.81 24.80 27.00
42.65 41.57 41.08 37.90 34.58 34.76 35.52 36.19 37.72 41.41 40.14 39.93 39.32 38.16 38.44 41.11 40.67 40.41 40.91 40.35 39.04 37.91 37.34 36.22 34.98 34.56 34.69 34.54 34.36 33.93 33.07 32.45 31.85 31.68 30.40 29.89 28.74 27.33 25.49 25.89 25.30 26.21 24.65
41.39 37.68 37.86 36.29 34.89 34.43 35.71 36.60 36.51 36.75 37.74 38.18 38.72 38.71 40.11 38.88 39.09 38.01 37.88 36.79 36.36 35.15 34.62 33.99 33.98 34.36 34.55 34.68 33.56 33.26 32.03 30.77 29.66 30.04 28.85 29.61 31.43 34.01 32.85 30.27 26.96 26.21 25.61
35.91 36.39 36.30 35.77 36.22 34.43 36.79 37.30 35.81 37.68 38.16 37.36 37.03 37.73 37.40 37.18 35.99 34.99 33.65 34.42 34.09 33.81 33.74 33.65 34.71 35.65 37.05 38.20 36.51 32.93 30.79 29.93 28.14 27.39 27.39 26.90 29.73 30.15 33.71 34.38 34.92 33.73 28.53
35.35 34.77 34.21 34.13 33.97 36.75 37.47 35.71 36.40 36.92 36.43 35.78 35.91 35.62 35.39 34.54 34.60 34.73 34.32 33.43 33.05 33.19 32.71 32.92 33.83 34.86 36.13 37.53 36.82 34.02 29.83 27.54 26.96 26.13 25.85 26.85 29.03 29.35 27.00 31.16 34.18 33.57 35.11
33.69 34.07 34.14 34.32 34.97 35.59 35.62 36.02 35.74 35.25 35.16 34.85 34.81 35.24 35.04 34.43 34.23 33.60 32.80 32.70 33.27 33.17 33.16 32.80 32.61 32.46 34.19 36.48 36.11 33.45 28.25 26.71 25.64 25.55 25.45 24.93 25.68 27.26 29.99 28.46 27.63 27.72 27.82
33.33 34.12 34.64 34.54 34.87 35.08 35.27 35.17 34.95 35.20 34.96 34.42 34.89 35.35 35.11 33.68 33.31 32.36 32.07 32.42 32.36 31.83 31.01 31.44 30.76 31.55 31.98 35.49 35.06 30.55 26.78 27.25 25.78 26.48 26.14 27.43 26.85 31.23 33.92 30.02 27.55 26.38 26.22
34.23 33.90 34.10 34.31 33.96 34.10 34.90 34.29 34.01 34.22 33.61 34.02 34.01 34.10 34.00 33.24 32.61 32.36 32.00 31.89 31.77 31.13 30.74 29.39 29.57 32.47 28.06 33.76 33.35 31.70 26.79 25.32 25.84 26.32 26.61 30.43 29.80 33.30 34.27 29.28 24.75 22.47 23.12
35.12 35.33 35.06 33.99 34.50 35.12 34.75 33.05 33.32 32.68 34.00 34.14 33.63 33.02 32.78 32.36 32.42 32.07 31.96 31.25 30.20 29.40 27.22 25.55 24.89 24.52 26.23 26.29 33.38 33.82 27.28 26.94 26.44 26.26 26.26 26.70 32.06 33.39 33.16 32.02 23.65 24.57 27.78
35.21 35.64 35.15 35.33 36.22 35.92 34.36 32.55 31.51 33.38 34.17 33.45 32.59 32.32 32.62 33.15 32.47 31.19 30.39 29.57 27.94 25.67 23.61 22.97 22.69 23.37 23.31 30.60 31.13 32.16 32.31 31.78 26.93 25.94 25.84 26.12 31.83 31.18 30.41 28.26 29.55 30.64 29.31
35.08 35.73 35.18 34.99 35.62 35.16 34.02 31.86 32.51 33.56 33.48 32.84 32.30 32.46 32.88 32.71 32.40 29.72 26.95 25.96 25.60 23.74 22.19 23.73 22.37 22.50 24.36 23.25 30.46 31.26 31.85 31.53 28.06 27.13 29.10 29.87 29.09 28.06 25.28 27.39 28.75 28.06 21.28
34.81 35.19 35.34 34.87 35.18 34.98 34.76 33.52 33.76 34.15 33.32 32.18 32.29 33.22 32.76 30.13 26.61 25.41 24.86 24.78 23.95 23.50 23.71 22.99 21.57 20.69 21.91 22.96 24.52 26.29 25.02 28.92 27.52 27.70 22.21 25.62 25.32 25.30 24.83 23.34 22.96 22.06 21.44
35.86 36.09 34.78 34.43 33.19 33.92 33.81 34.14 34.28 33.85 32.36 31.98 31.97 28.89 26.22 24.25 24.08 24.83 24.22 23.70 23.37 24.31 22.81 21.89 22.10 20.76 20.71 24.37 29.38 28.88 27.07 25.55 26.85 25.08 20.50 19.36 19.19 18.78 19.22 19.98 20.52 20.73 20.61
36.86 36.44 34.17 31.38 31.31 31.48 31.09 30.70 31.49 31.76 30.65 28.45 26.22 24.90 23.78 24.17 25.01 24.36 24.34 31.69 31.15 31.22 30.54 29.22 26.07 25.33 28.77 30.72 30.52 30.54 30.03 28.87 28.81 20.73 17.71 17.38 17.64 17.48 17.98 18.29 18.54 19.06 19.81

GFSMW_sfc_wetblb_066.txt.gz
Wetbulb
46.74 46.09 46.13 47.93 47.51 47.16 48.93 50.54 60.60 64.91 65.32 64.85 64.63 64.26 63.56 63.37 62.59 62.05 60.83 59.36 60.05 59.36 58.78 57.31 54.16 51.08 49.65 47.75 44.81 40.40 38.80 36.72 36.89 37.72 37.29 37.64 37.99 37.20 37.88 38.51 37.38 38.46 37.12
42.58 44.09 44.84 44.08 45.81 46.62 46.62 48.50 52.55 61.82 64.76 64.92 65.16 65.38 64.83 64.34 63.54 62.50 61.61 59.63 59.27 58.50 58.50 56.49 53.64 51.31 47.78 44.32 43.02 40.81 38.04 36.94 36.78 36.25 37.13 35.24 38.66 37.21 37.23 36.87 37.39 35.89 35.25
42.49 42.38 42.39 43.46 43.42 44.21 44.71 45.91 48.61 55.87 63.50 64.92 64.71 60.76 61.84 58.99 58.64 59.08 60.82 59.95 58.64 58.17 57.96 55.75 53.78 51.08 49.50 46.08 43.96 41.90 42.61 40.67 38.06 39.70 41.63 35.97 36.31 33.61 33.91 34.80 35.10 33.96 32.67
39.21 40.34 41.17 41.73 41.86 43.06 43.81 45.04 46.16 49.34 58.81 63.94 63.78 63.09 62.45 61.29 61.72 62.03 61.35 59.99 58.71 58.27 57.35 55.76 52.79 50.66 49.24 46.56 44.70 47.08 49.51 47.59 43.24 41.06 40.58 38.36 37.99 33.98 31.75 32.01 31.94 31.93 32.54
38.55 39.60 40.24 41.48 41.37 42.05 41.81 42.33 43.58 46.02 49.74 60.01 63.00 62.48 61.46 61.85 57.70 56.35 58.92 52.41 55.92 57.14 55.18 53.40 51.47 49.02 49.13 48.51 47.37 47.58 46.51 46.62 44.31 42.78 42.45 37.54 36.01 33.69 32.83 30.56 29.68 31.15 31.47
41.28 42.38 43.16 44.18 43.82 43.10 42.16 42.43 43.47 44.65 46.00 51.27 60.38 61.49 61.00 57.06 54.04 52.83 52.63 50.64 53.40 54.26 53.87 50.57 50.02 49.23 48.69 48.89 47.80 46.57 45.42 43.59 42.66 41.92 38.40 38.40 35.66 32.68 32.49 30.72 28.37 28.20 29.07
41.57 42.55 42.98 43.68 44.41 44.54 44.59 44.73 43.14 43.00 44.10 46.65 53.38 60.57 60.89 57.67 55.96 55.67 55.46 51.74 50.72 48.96 50.29 50.03 48.86 48.90 48.65 47.89 46.42 45.41 44.22 41.78 40.64 40.39 39.33 38.01 35.72 34.05 33.17 31.48 27.12 28.31 27.28
41.27 42.26 42.83 43.49 43.93 44.53 44.41 44.26 44.68 44.57 44.00 43.32 46.95 51.96 56.87 56.52 56.46 55.11 56.05 54.01 53.33 53.18 50.31 50.24 49.29 47.81 47.32 46.19 45.34 44.50 41.40 40.26 37.80 36.43 36.26 35.10 34.41 33.76 33.44 31.93 29.89 25.10 25.04
40.82 41.93 43.36 43.88 43.45 43.63 43.90 43.81 44.10 44.36 44.61 44.79 45.77 48.07 52.09 53.29 53.94 51.05 50.85 50.38 49.19 48.16 49.37 49.47 47.90 47.03 46.04 43.87 42.60 41.78 39.45 38.19 36.96 35.75 35.17 34.65 33.89 33.97 33.23 32.44 31.18 27.99 23.05
41.21 42.32 42.89 42.66 42.88 43.14 43.28 43.12 43.46 43.83 44.60 44.28 46.07 48.38 49.60 50.50 48.80 47.01 46.90 46.31 46.15 46.78 46.34 46.18 46.16 45.15 44.12 41.04 39.57 38.03 36.94 36.01 35.49 35.12 34.20 33.57 33.10 32.38 32.40 31.58 29.79 28.60 26.30
41.49 41.98 41.60 41.24 42.05 40.29 39.10 39.36 40.37 41.41 43.37 44.09 45.86 46.24 45.93 45.57 44.83 44.11 43.39 44.17 44.57 44.94 44.53 44.11 43.55 43.36 41.45 38.84 37.17 36.35 35.77 34.87 34.25 33.85 33.58 32.64 32.45 31.67 31.02 30.67 28.34 27.74 25.90
42.11 41.64 39.97 40.75 37.51 35.44 36.18 36.79 37.96 40.22 42.43 43.30 44.18 43.06 44.75 44.92 44.57 44.98 45.37 44.80 44.21 44.00 43.25 42.55 40.89 38.90 37.42 36.93 35.88 35.10 34.70 33.78 32.98 32.91 32.71 31.92 33.05 30.85 30.44 29.58 29.15 26.98 26.11
41.38 39.60 39.01 37.68 34.70 33.97 34.94 35.71 36.60 38.09 41.90 42.62 41.02 42.52 43.96 44.08 43.82 43.94 44.07 44.21 43.46 42.22 41.22 39.63 37.83 36.93 36.13 35.57 35.27 34.65 33.77 33.55 33.61 33.76 33.44 32.50 31.71 30.59 29.85 28.42 27.38 26.56 27.17
40.20 37.15 36.53 37.94 34.62 34.11 35.08 35.79 35.71 36.72 38.62 39.76 40.68 40.99 42.28 42.56 42.52 42.78 42.66 41.34 40.38 39.01 38.00 36.96 35.89 35.07 34.77 34.79 34.73 34.59 33.99 33.60 32.71 32.35 31.74 30.93 30.02 29.14 28.66 28.27 27.68 26.34 25.19
38.05 35.39 35.71 37.96 34.69 34.17 35.08 34.77 34.65 35.04 36.29 38.06 39.83 38.94 39.63 39.98 39.40 37.99 37.60 37.32 36.62 35.55 35.52 34.87 34.76 34.94 35.04 35.11 33.84 33.56 32.46 31.53 30.71 30.67 30.44 30.59 31.82 33.94 33.07 30.83 28.74 27.21 25.83
36.89 36.28 35.74 36.45 34.95 33.01 34.20 34.72 34.30 34.52 36.62 36.13 36.41 36.74 36.00 35.12 34.71 34.61 34.05 33.93 34.03 34.33 34.99 35.26 35.80 36.41 37.70 38.91 37.05 33.36 31.45 30.57 29.64 28.70 28.13 28.69 30.04 31.02 33.34 33.91 34.78 33.36 27.77
36.06 34.86 34.27 34.34 31.70 34.79 35.85 35.01 35.81 36.52 35.35 35.32 35.29 35.15 35.07 34.43 34.26 34.34 33.85 33.42 33.37 34.26 34.72 35.47 36.01 35.80 37.02 38.50 36.87 34.64 31.25 29.76 28.41 27.67 27.44 27.77 29.34 29.31 27.53 30.92 33.84 33.40 34.79
34.51 34.14 34.31 34.42 34.40 33.35 34.92 36.10 36.29 35.73 35.51 35.14 34.95 35.43 34.76 34.46 34.60 34.25 33.68 33.56 34.17 33.86 33.75 33.77 33.85 33.24 36.58 37.71 34.78 32.85 29.11 27.88 27.06 26.39 26.15 25.66 26.07 27.07 29.38 28.39 27.48 27.78 28.29
32.83 33.66 34.58 34.55 32.34 33.61 34.55 35.61 35.32 35.66 35.29 34.98 35.00 34.80 34.77 33.84 33.64 32.97 33.01 33.62 33.27 32.29 31.91 32.40 32.08 32.59 34.00 36.59 34.78 30.83 27.74 27.81 26.87 27.30 26.71 26.99 26.47 30.92 34.10 29.41 27.00 25.83 25.48
33.32 33.74 34.12 34.20 33.71 34.21 35.21 34.58 34.23 34.25 33.56 33.95 34.21 34.36 34.28 33.44 32.85 32.89 32.15 32.30 32.27 31.84 32.10 31.71 32.08 33.34 31.11 34.15 33.92 31.21 27.62 25.68 26.44 27.07 26.70 30.44 30.12 33.44 34.16 28.75 24.53 21.73 22.36
33.23 35.10 34.75 33.98 34.26 35.04 34.92 33.65 33.53 32.57 33.93 34.19 33.85 33.45 33.63 33.25 33.19 32.71 32.33 31.90 31.52 30.87 28.76 27.53 26.72 26.76 28.00 29.88 34.87 33.49 27.84 27.54 26.75 26.31 26.30 26.68 32.23 33.03 32.69 31.88 23.45 23.89 26.82
34.86 35.49 34.98 34.56 35.52 35.25 34.40 33.02 31.94 33.53 33.99 33.77 33.21 32.94 33.34 33.92 33.31 31.88 30.71 29.34 27.68 25.95 24.75 24.36 23.45 23.46 23.02 31.45 32.34 32.89 32.62 31.89 26.95 26.19 26.12 26.29 31.42 30.47 29.79 27.80 29.37 30.59 28.41
34.34 35.27 34.01 34.54 34.55 34.46 34.19 32.18 32.96 33.87 33.70 33.40 32.95 33.03 33.80 33.89 33.22 29.99 27.64 26.56 26.09 24.48 22.90 24.03 22.73 22.34 24.37 24.27 31.22 31.67 32.00 31.49 27.87 27.07 28.72 29.36 28.55 27.74 24.82 27.01 28.43 27.09 20.58
34.52 35.00 35.20 34.48 33.77 34.71 34.46 33.87 34.20 33.97 33.23 32.63 32.41 32.57 30.77 26.92 25.11 24.83 24.66 23.95 23.79 23.11 23.43 22.63 20.91 20.57 22.21 23.29 24.66 26.36 24.97 28.68 27.01 27.23 21.90 25.09 25.12 24.89 24.39 22.69 22.13 21.43 21.00
35.25 35.73 35.27 34.36 33.37 33.91 33.59 34.35 34.43 34.19 32.78 32.95 32.40 27.19 24.67 22.87 22.61 22.99 22.44 22.29 22.15 23.95 22.24 21.42 21.95 20.94 20.97 24.82 29.36 28.67 27.03 25.42 26.72 24.71 19.86 18.64 18.46 18.16 18.58 19.33 19.90 20.13 20.06
34.83 34.30 34.34 33.55 33.44 33.68 33.58 33.71 34.23 34.08 32.46 28.13 24.81 23.56 22.67 22.99 23.99 23.73 23.89 32.33 31.50 31.66 30.67 29.34 26.35 25.31 28.82 30.41 30.41 30.41 29.68 28.63 28.40 19.96 17.11 16.84 17.02 16.87 17.37 17.79 18.02 18.52 19.27

GFSMW_sfc_wetblb_069.txt.gz
Wetbulb
49.34 50.23 50.40 51.00 51.51 51.36 52.09 54.04 62.49 66.63 66.90 65.71 64.40 64.52 63.70 63.78 64.29 64.59 63.74 63.23 63.55 63.29 62.77 62.39 61.93 60.99 59.73 57.64 55.00 50.21 47.61 45.19 45.62 45.32 45.25 45.69 46.02 45.55 47.63 48.54 47.43 46.63 45.29
46.48 47.76 48.15 48.16 49.27 50.63 50.64 51.60 54.51 62.37 66.51 66.06 65.49 65.51 65.17 64.81 64.62 64.56 63.94 62.81 62.63 62.80 62.69 62.24 61.18 59.73 58.44 56.33 52.13 48.47 45.06 44.40 44.50 45.37 45.24 44.02 43.93 44.54 43.96 44.10 45.05 45.15 43.99
43.64 45.45 46.33 46.96 47.36 47.80 48.97 49.78 51.45 55.38 64.35 66.54 66.20 65.35 64.78 62.23 63.05 63.01 63.57 62.36 62.09 62.13 62.02 61.83 61.04 58.97 57.84 54.66 51.88 49.57 49.23 45.10 43.08 44.15 47.10 41.09 42.74 40.58 40.84 42.51 43.47 43.15 42.53
41.40 42.55 43.65 44.44 45.08 46.35 47.05 48.22 49.40 50.93 58.00 65.33 65.27 63.77 62.95 62.24 63.16 63.96 63.97 63.54 62.01 61.62 61.43 60.91 60.48 58.77 57.03 54.98 52.19 49.67 50.50 49.40 45.31 43.26 41.90 43.18 43.82 39.39 37.66 37.65 40.12 40.83 39.35
43.52 44.17 44.60 45.15 45.37 44.98 45.37 46.13 46.91 48.34 50.41 59.61 64.70 63.88 62.67 63.62 64.12 63.58 63.15 62.54 61.48 61.88 61.17 60.42 59.53 57.91 56.15 55.12 51.55 49.16 49.99 51.46 48.61 46.98 41.96 40.18 38.77 37.11 36.50 37.74 35.26 37.04 36.69
44.13 45.04 46.12 47.02 47.35 48.03 48.02 47.17 46.93 47.49 48.57 49.93 58.42 63.56 62.93 62.17 61.71 59.91 60.84 59.27 59.47 60.48 60.55 59.14 58.58 57.61 55.33 53.51 52.05 51.69 50.73 50.57 49.02 47.43 44.17 41.27 40.03 37.65 35.99 34.90 35.86 36.39 34.81
43.86 44.65 45.40 46.18 46.54 46.55 47.10 48.31 47.99 48.06 47.83 48.30 50.34 57.91 62.01 62.57 61.29 61.53 59.84 56.29 55.80 56.33 57.93 57.02 56.84 55.58 55.33 54.05 53.07 51.31 50.40 49.20 47.63 45.11 42.60 42.24 40.66 39.27 36.64 34.90 33.53 33.04 33.37
43.69 44.74 45.30 45.35 45.28 45.78 46.14 46.03 46.26 46.78 47.88 48.53 48.56 49.98 54.98 60.31 60.37 60.66 59.74 58.42 57.33 57.25 57.96 56.31 55.00 54.50 53.48 52.76 51.55 50.71 49.95 48.08 45.73 42.56 40.35 37.67 38.42 37.21 35.54 36.08 35.28 29.79 30.33
43.68 44.55 45.12 44.62 45.00 44.53 43.88 43.58 43.89 44.86 46.11 47.37 48.23 48.87 50.45 53.52 58.79 58.81 58.78 59.05 57.04 54.88 54.17 54.11 53.13 52.19 51.87 50.88 49.45 47.91 45.33 42.83 40.07 38.49 37.15 36.72 36.17 36.49 35.17 35.37 34.89 33.63 29.27
44.00 44.62 43.99 43.61 43.83 42.00 41.31 41.60 41.96 42.23 43.50 45.43 46.79 48.18 50.14 51.64 54.39 55.30 55.13 53.94 51.82 51.90 52.00 51.67 50.78 49.70 48.67 47.98 47.21 43.89 40.72 37.68 36.92 36.09 35.27 34.79 34.52 34.76 34.23 34.51 32.82 33.10 31.35
43.22 43.90 42.70 43.37 40.64 39.52 39.38 39.68 40.27 40.61 42.22 44.88 45.61 47.41 48.94 49.89 50.60 50.53 49.34 49.05 48.54 48.73 48.52 48.54 47.91 46.28 44.24 43.21 40.20 38.27 37.56 35.79 34.94 34.99 34.84 33.53 33.39 33.32 32.40 32.67 32.00 31.42 30.84
43.61 42.97 41.91 40.62 38.63 37.88 38.57 38.94 39.39 39.91 42.23 44.51 45.23 46.40 46.91 47.69 48.14 47.66 47.42 47.59 46.76 46.87 45.88 45.24 43.71 41.39 39.18 38.53 37.07 36.29 35.67 34.75 33.85 33.63 33.66 33.52 34.39 32.58 32.50 31.82 31.11 30.58 30.86
43.59 41.08 39.70 39.09 37.84 37.21 38.07 38.02 38.34 38.76 41.56 43.77 43.99 44.68 45.34 45.73 45.76 45.98 45.71 45.62 44.84 43.79 43.31 41.11 38.35 37.29 36.67 36.20 36.11 35.63 35.03 34.87 34.26 34.38 33.66 33.13 33.53 32.86 32.73 31.17 30.25 31.08 30.64
41.15 38.48 37.99 38.62 37.42 37.15 37.53 36.65 36.77 37.96 39.89 42.40 42.66 43.01 43.44 44.31 44.28 44.06 43.12 41.52 40.50 38.89 37.80 37.24 36.40 36.07 35.87 35.99 35.53 35.07 34.49 34.12 33.87 33.48 33.21 32.51 31.68 31.27 30.88 30.60 30.79 31.18 29.74
39.46 36.79 37.56 38.30 37.02 36.71 36.39 36.12 36.19 37.06 38.34 39.19 38.80 39.28 39.56 39.11 38.82 39.04 38.03 37.33 36.66 36.19 36.09 35.49 35.50 35.85 36.12 35.57 34.52 34.14 33.29 32.56 31.96 32.04 32.25 32.19 32.14 33.55 33.97 33.75 32.31 31.31 31.03
38.23 36.89 36.64 36.43 36.85 36.10 35.79 36.00 36.24 36.15 37.21 35.82 35.06 35.54 35.53 35.21 34.71 34.88 35.22 35.23 35.31 35.87 36.92 37.75 36.81 36.58 37.63 39.24 37.94 34.80 33.00 32.56 31.74 30.47 29.98 30.44 31.81 32.43 33.23 33.78 34.45 34.62 32.69
37.08 35.71 35.08 34.74 34.52 35.99 36.39 35.94 36.09 37.01 36.30 35.75 35.52 35.20 35.00 34.57 34.73 35.17 35.16 35.35 35.79 36.87 37.05 38.28 38.06 37.15 37.83 39.34 38.29 36.15 32.33 31.04 30.19 29.70 30.03 30.07 30.74 30.95 30.15 31.97 33.57 33.62 34.36
35.48 34.91 35.06 34.84 34.52 35.07 36.15 36.73 36.72 36.48 36.15 35.70 35.34 35.41 35.02 34.67 34.90 34.85 34.37 34.35 35.12 35.04 35.06 35.06 36.04 35.90 37.33 37.70 35.94 33.79 30.53 29.68 29.76 29.58 29.44 29.02 29.46 30.09 31.81 31.82 31.73 31.60 31.51
34.04 34.84 35.13 35.13 34.41 34.84 35.87 35.47 35.42 35.90 35.54 34.70 34.56 34.67 34.85 34.30 34.29 33.78 33.18 33.70 33.36 32.88 32.53 32.55 32.59 33.14 34.23 35.44 34.76 31.31 30.14 29.44 28.97 29.29 29.27 30.56 30.01 31.64 34.22 32.74 30.28 29.03 28.76
34.23 34.07 34.36 34.61 34.60 35.10 36.19 35.19 34.25 34.36 33.51 34.16 34.20 34.49 34.46 33.83 33.17 33.33 32.58 32.73 33.04 32.45 33.79 32.82 34.09 35.39 33.79 35.14 34.81 30.90 30.38 29.06 29.37 30.04 29.76 30.86 31.65 33.33 34.01 31.25 28.62 25.80 26.49
34.00 34.79 35.10 34.01 34.56 35.65 35.57 34.09 33.76 32.83 34.14 34.65 34.43 33.95 33.96 33.44 33.46 32.97 32.85 32.61 31.95 31.50 31.03 30.35 30.75 30.68 30.42 34.58 34.67 33.06 30.82 30.11 29.19 28.82 28.78 29.47 31.87 32.26 31.48 30.95 27.17 26.91 30.28
35.00 35.72 34.71 34.37 35.17 35.58 34.96 33.43 32.02 33.82 34.48 34.23 33.68 33.58 34.03 34.64 34.15 33.22 32.69 31.65 28.81 27.14 26.32 26.23 25.94 26.55 28.22 32.75 33.42 33.23 32.94 32.40 29.13 27.93 28.67 29.08 30.29 29.57 29.19 28.16 29.29 30.12 28.72
34.95 35.73 34.63 34.09 34.51 34.95 34.80 32.52 33.32 34.46 34.28 33.87 33.33 33.33 34.28 33.58 32.12 29.26 28.69 27.94 27.79 26.63 25.93 25.86 24.64 25.04 26.58 27.85 31.89 32.13 32.02 31.36 29.16 29.12 29.11 28.39 27.75 27.24 25.52 26.83 27.58 26.73 24.28
33.83 34.69 34.58 33.37 33.26 34.76 34.87 34.21 34.24 34.67 34.00 32.87 32.80 33.35 31.45 27.93 27.36 27.40 27.25 26.78 26.42 25.83 25.45 24.51 23.69 24.29 25.76 27.16 28.24 28.91 28.72 29.39 28.39 27.19 25.20 25.62 25.11 24.60 24.66 23.78 23.91 23.87 23.88
34.95 35.61 35.30 34.30 33.94 34.26 34.14 34.39 34.41 34.70 33.76 33.51 32.81 29.29 27.13 25.73 25.23 25.82 25.94 25.65 25.69 26.78 25.04 24.53 25.03 24.42 25.04 27.73 30.71 30.48 29.17 28.94 28.38 26.18 22.91 22.00 21.48 21.04 21.47 22.13 22.49 22.91 22.84
34.89 34.99 34.70 33.86 33.64 33.96 33.94 34.28 34.84 34.89 33.98 30.45 27.30 25.77 25.38 25.70 26.68 27.26 27.82 32.76 31.92 31.43 30.65 29.55 27.84 27.71 29.60 30.31 30.26 29.99 29.40 28.15 27.78 22.22 20.17 19.96 20.15 19.78 19.89 20.23 20.65 21.29 21.53

GFSMW_sfc_wetblb_072.txt.gz
Wetbulb
54.28 55.54 56.23 56.77 57.07 57.76 58.07 58.42 61.33 66.16 68.54 66.81 65.30 65.34 64.54 65.23 67.48 68.34 68.08 67.31 66.76 66.21 65.69 65.49 65.31 65.27 64.51 64.01 62.48 60.86 58.25 55.77 56.38 52.68 51.57 50.90 50.87 50.35 51.75 53.25 52.84 51.61 50.68
52.32 53.06 54.40 55.11 55.36 55.86 56.70 57.02 57.83 61.57 66.09 67.67 66.99 67.41 66.49 66.15 65.76 66.68 66.75 67.45 66.94 66.51 65.82 65.36 64.82 64.72 64.25 64.28 62.89 60.40 56.99 57.35 54.12 54.18 54.59 51.19 49.55 49.31 49.73 51.34 50.95 50.75 50.11
49.70 51.03 51.88 52.76 53.82 54.13 55.34 55.62 56.47 57.47 61.28 66.33 67.29 67.29 67.16 66.86 65.43 64.85 64.58 66.32 66.82 66.41 66.11 65.72 65.35 64.61 64.14 63.67 63.39 60.27 57.97 54.66 52.67 54.46 56.23 51.58 51.40 48.50 48.73 47.69 48.94 48.99 47.78
46.80 47.23 48.22 49.53 50.86 52.15 53.71 54.01 54.85 55.80 57.43 62.05 64.57 65.23 63.90 63.50 65.00 65.70 66.27 64.98 65.98 66.14 66.13 65.74 65.46 65.24 64.32 62.97 62.89 60.66 58.84 58.45 52.70 50.80 49.84 50.14 50.90 48.51 44.70 45.03 45.93 46.16 44.78
49.10 49.03 49.75 50.27 50.67 50.50 50.76 51.67 52.26 52.80 54.41 56.77 61.89 63.95 63.76 64.28 65.61 66.05 65.88 65.61 64.56 64.47 65.12 64.94 65.19 64.36 63.86 63.18 62.56 59.39 58.39 58.54 57.19 52.56 49.80 48.70 47.81 45.96 46.14 47.45 40.49 40.78 42.52
49.22 50.08 50.80 51.62 51.63 52.81 53.23 53.44 51.35 51.13 52.37 53.36 56.13 61.30 62.49 63.59 64.08 64.84 64.73 65.45 64.46 62.88 63.38 63.58 63.85 64.19 63.32 61.92 62.03 60.13 58.23 58.03 58.21 54.63 51.89 48.26 46.81 46.55 44.71 43.59 42.79 41.51 39.61
49.73 50.37 50.60 50.85 51.27 51.14 51.08 51.44 52.24 52.09 52.61 52.57 53.70 54.62 60.34 62.93 63.10 63.11 62.64 62.19 62.02 60.74 61.20 62.25 62.09 62.12 62.72 61.73 61.18 59.11 57.79 57.34 56.79 54.47 51.26 47.23 44.37 43.55 43.46 42.70 39.65 35.45 36.44
49.85 49.81 49.59 50.02 50.34 49.86 49.59 49.65 49.79 50.37 51.68 52.69 53.49 53.87 55.07 58.72 61.63 62.02 61.71 62.03 61.90 61.44 61.90 61.26 61.01 60.88 60.72 59.96 59.56 58.71 57.45 56.39 55.70 52.84 47.06 41.57 39.25 40.25 38.47 38.43 36.26 33.37 33.77
48.80 48.88 49.09 49.60 49.12 48.22 47.77 47.58 47.95 48.96 50.10 50.74 52.18 53.10 54.03 54.60 57.02 60.41 60.92 61.08 61.62 61.64 62.01 60.55 58.52 57.87 56.66 56.23 55.91 54.61 54.32 52.35 50.83 46.37 40.89 38.30 37.85 37.29 37.69 37.36 38.07 36.22 33.72
48.75 49.00 48.54 48.57 47.56 46.80 46.99 47.60 47.38 47.22 48.05 49.19 50.82 51.30 52.68 53.87 54.73 56.17 58.18 58.11 58.22 56.78 56.03 56.17 55.06 53.67 53.27 52.92 51.57 51.07 48.49 44.92 41.32 38.93 37.49 36.12 36.10 35.77 35.63 34.60 35.20 33.60 32.11
47.38 48.53 47.81 47.34 46.13 46.16 45.83 45.99 46.18 46.31 47.86 49.16 50.21 50.31 51.54 52.81 53.75 54.34 54.84 54.65 53.73 53.13 53.21 53.27 52.26 50.87 49.98 49.20 45.18 42.40 40.43 37.67 36.97 36.85 35.75 34.65 35.37 34.26 34.59 33.54 33.92 33.53 32.97
46.96 47.74 46.46 45.39 44.73 44.29 44.83 44.44 44.81 45.53 47.18 46.84 48.98 49.44 49.86 50.15 50.69 50.91 51.64 51.63 51.19 51.11 50.67 50.10 48.87 46.73 44.47 42.09 39.40 37.70 36.87 35.76 34.82 35.09 34.29 33.55 35.41 34.30 34.32 34.27 33.26 32.39 33.30
47.28 46.28 44.92 44.55 43.65 43.28 43.51 43.28 43.47 44.26 46.36 46.11 46.19 46.67 47.42 48.16 48.20 48.24 48.48 48.88 49.21 48.68 47.26 45.21 42.21 40.21 38.74 37.58 37.28 36.56 36.03 36.17 36.18 36.15 35.35 34.66 34.95 33.63 33.37 32.74 32.17 32.22 32.89
46.75 45.28 43.65 43.74 43.24 42.88 42.12 41.82 41.97 43.23 44.91 44.11 43.64 43.33 44.05 45.04 44.69 44.49 43.58 43.13 41.92 40.59 39.22 38.77 38.06 37.61 37.12 36.62 36.63 37.22 37.23 36.66 35.50 35.52 35.02 34.19 33.88 33.00 32.48 32.93 31.72 31.78 32.05
45.43 43.72 42.98 42.48 42.56 42.75 41.74 41.63 41.18 41.58 41.99 40.50 38.29 38.05 38.84 39.48 38.88 38.69 38.39 37.96 37.57 37.08 37.35 36.89 36.83 37.09 36.91 36.99 36.63 36.14 35.43 34.13 34.03 33.39 33.79 33.50 33.91 34.17 33.64 33.92 34.37 33.75 32.59
44.08 40.89 40.00 38.95 40.49 41.71 40.70 40.52 40.41 40.30 40.63 38.72 36.93 36.69 36.05 36.11 36.09 36.48 36.60 37.30 37.17 37.30 37.64 37.52 37.36 37.38 37.74 39.21 38.38 35.77 34.24 33.94 33.25 31.61 31.57 32.22 34.29 34.63 34.51 34.65 34.73 34.65 33.53
42.54 40.08 38.25 37.55 39.23 39.91 40.62 39.50 40.02 40.28 38.75 36.95 36.75 35.81 35.52 35.47 36.30 37.46 37.92 37.80 37.47 37.94 37.72 37.82 37.23 36.94 38.09 39.66 38.98 37.13 33.10 32.33 31.60 30.89 31.10 32.28 32.89 32.45 31.69 32.18 33.77 34.71 34.98
40.88 39.39 38.14 37.21 37.79 40.06 40.86 40.54 39.88 37.77 37.35 36.56 35.84 36.02 35.45 35.15 36.33 36.59 36.43 36.48 36.24 35.85 35.98 35.84 36.25 36.02 37.37 38.01 35.66 33.65 31.49 31.49 31.79 32.28 32.28 31.13 30.94 31.10 32.30 33.43 33.83 33.91 34.10
38.80 38.32 38.48 37.16 37.84 39.23 40.10 40.23 39.58 38.69 36.52 35.76 35.63 35.60 35.67 35.14 35.24 34.54 34.00 34.88 34.66 33.39 32.83 33.13 33.04 33.10 34.28 34.90 33.42 32.98 32.50 31.87 31.39 31.39 31.37 32.06 32.12 31.90 34.19 33.83 32.19 31.76 31.64
36.23 36.36 37.51 36.72 36.87 37.56 39.80 39.12 37.88 36.91 36.04 35.49 35.17 35.32 35.48 34.59 33.77 33.97 33.03 33.25 33.91 33.63 34.58 33.87 35.53 36.32 34.62 35.36 33.54 32.29 32.06 31.42 31.95 32.13 31.93 30.95 32.33 33.02 33.24 31.88 30.56 28.22 28.44
35.28 36.45 37.55 36.07 36.16 37.10 37.81 36.94 35.91 34.79 35.82 35.99 35.41 35.15 35.53 34.54 34.36 34.55 34.56 34.55 33.81 34.26 33.69 33.03 32.66 32.88 34.93 34.97 34.22 32.94 32.73 32.17 31.49 30.96 30.60 31.39 31.40 31.48 30.88 30.64 29.49 27.93 30.90
36.16 36.41 35.62 35.33 36.28 36.89 36.19 34.56 33.27 35.24 35.24 34.61 35.38 35.18 35.97 35.67 35.83 35.39 35.12 34.98 33.54 31.45 30.65 30.24 30.29 31.59 33.50 34.10 33.84 33.58 33.18 32.50 30.89 29.46 30.37 30.71 29.83 29.28 28.95 28.69 29.07 30.06 30.00
37.31 37.39 36.63 35.92 36.53 36.40 35.74 33.97 34.76 35.84 35.78 35.38 35.26 35.33 35.87 35.96 36.33 35.08 32.89 32.19 32.10 31.15 30.44 29.61 29.00 28.86 30.54 32.51 32.15 32.34 31.75 31.28 30.91 30.82 29.63 28.21 27.87 27.57 27.50 27.21 27.89 28.07 28.03
37.20 37.51 36.32 34.99 34.68 35.94 35.79 35.66 36.18 37.17 36.69 34.76 34.36 35.96 33.62 32.94 33.13 32.85 33.13 32.53 32.04 31.20 29.93 28.93 28.76 29.44 30.38 31.64 32.59 31.98 32.37 30.18 30.30 28.85 28.82 26.44 25.93 25.75 25.98 26.43 27.18 27.50 27.35
37.31 37.67 36.57 35.80 35.62 35.65 35.35 36.37 37.38 37.26 36.16 36.22 35.09 33.95 32.87 32.42 31.95 31.97 32.75 32.45 32.02 31.84 30.31 29.75 29.70 29.41 29.32 30.73 31.49 31.24 30.67 30.87 29.52 28.19 26.62 26.03 25.61 25.27 25.89 26.28 26.49 26.84 26.75
37.55 37.63 37.33 36.68 35.99 35.63 35.94 36.34 37.62 37.22 36.30 35.32 32.97 32.07 31.58 31.29 31.81 31.76 31.47 32.46 31.75 31.18 30.81 30.05 30.33 30.53 30.46 30.40 30.27 29.79 29.26 28.02 27.52 25.60 24.14 24.14 24.49 24.18 24.20 24.42 24.96 25.84 25.46

GFSMW_sfc_wetblb_075.txt.gz
Wetbulb
54.09 55.21 56.06 58.01 59.24 59.74 60.21 60.97 64.39 68.43 69.85 68.03 66.39 66.47 65.07 67.76 69.29 69.70 68.98 68.50 67.82 66.88 66.05 65.22 64.81 64.91 63.83 63.87 63.45 62.63 61.53 60.56 61.22 57.46 54.60 54.97 54.36 53.05 53.32 54.53 54.53 53.55 52.96
53.14 54.16 55.25 56.39 57.06 57.81 58.56 59.23 59.68 61.17 65.73 68.00 67.10 66.29 65.61 66.15 66.49 69.40 69.24 68.93 68.30 67.87 66.63 66.05 65.50 65.29 64.23 64.11 63.91 62.56 60.52 59.84 59.86 55.37 55.04 52.27 52.17 52.03 51.79 52.70 52.88 52.72 51.88
51.43 52.85 53.93 54.84 56.48 56.41 57.04 57.72 58.43 59.04 60.79 65.04 67.94 67.55 68.02 67.76 65.88 65.60 66.66 67.36 68.64 68.09 67.50 66.72 66.21 65.60 64.83 63.49 64.09 62.98 60.60 57.66 57.87 57.28 57.10 53.39 52.91 50.36 51.28 50.40 51.43 51.25 50.75
51.67 51.71 51.69 52.44 54.01 54.98 56.51 57.05 57.64 57.94 58.66 60.56 63.55 65.65 65.63 64.85 66.31 66.86 66.15 65.36 66.38 67.88 67.57 66.96 66.12 65.83 65.25 64.17 63.94 64.04 62.07 59.17 56.13 54.91 56.17 56.69 53.40 51.22 45.26 48.58 48.69 49.53 48.81
49.66 49.08 49.93 50.74 51.56 52.15 53.02 54.23 54.75 55.13 56.42 57.37 59.04 61.91 63.61 65.58 65.87 65.94 65.70 66.88 65.48 65.04 65.81 65.50 64.99 65.03 65.51 64.82 63.76 63.41 62.48 59.61 58.67 53.90 52.87 52.15 50.86 50.13 47.40 45.97 42.64 45.83 46.01
50.40 50.97 51.98 52.58 52.59 53.82 54.17 54.42 52.90 52.95 54.07 54.90 55.66 57.98 61.23 63.13 63.78 63.78 64.14 65.14 66.36 65.33 64.03 64.62 63.99 63.80 63.47 64.01 63.52 63.53 62.38 60.22 59.77 57.37 55.60 51.47 50.13 48.13 45.14 45.05 42.84 42.21 41.82
50.38 50.97 51.29 51.63 52.11 52.04 52.26 52.49 53.16 53.06 53.59 53.84 54.08 54.51 56.75 60.81 62.52 63.16 63.59 63.67 64.43 64.14 63.37 63.31 63.35 62.75 63.04 62.63 62.00 61.39 61.22 59.59 58.83 58.09 55.29 53.11 50.38 47.26 46.60 45.31 38.57 37.58 36.79
50.83 50.85 51.09 51.62 51.49 51.02 50.85 50.93 50.77 51.11 52.06 52.94 53.93 54.82 54.90 55.61 58.07 62.28 63.20 63.38 62.95 61.84 62.28 61.33 61.93 61.96 62.09 61.82 61.16 60.06 59.69 59.00 58.54 57.58 55.59 51.32 45.17 43.53 41.93 40.89 37.17 34.60 35.53
50.37 50.58 50.98 51.47 50.50 50.11 49.76 49.93 49.70 50.05 50.81 51.17 52.04 53.02 54.15 54.53 54.91 57.47 61.16 61.99 61.61 61.07 61.49 61.15 60.12 60.42 60.23 59.93 58.75 58.01 56.80 55.96 54.99 48.29 43.77 40.93 39.42 39.47 39.64 39.62 40.71 40.63 36.77
50.27 50.70 50.60 50.44 49.73 49.45 49.62 49.91 49.56 49.04 50.02 51.07 51.95 52.23 52.55 53.53 54.45 55.04 55.55 58.06 59.40 58.82 57.63 57.95 57.86 56.68 55.85 55.10 54.22 52.62 49.91 46.16 44.04 42.76 39.73 39.20 37.92 37.02 36.82 36.67 35.39 35.33 34.92
49.63 50.54 50.22 49.47 48.63 48.79 48.77 48.40 48.27 48.16 49.03 49.56 50.56 51.55 52.00 52.81 53.64 53.99 54.88 55.41 55.05 54.63 54.73 54.76 53.73 52.66 52.08 51.53 49.34 48.01 44.51 42.19 40.37 40.19 38.02 36.63 36.96 35.71 35.17 35.58 35.53 34.38 34.31
48.41 49.89 48.77 47.87 47.59 47.21 47.19 46.58 46.63 46.96 48.26 48.05 48.12 48.59 50.11 50.54 51.16 51.80 52.67 52.88 52.88 52.92 52.49 51.96 51.11 49.55 48.05 44.52 41.97 40.64 39.91 38.46 36.65 36.80 36.62 35.49 36.25 35.65 35.50 36.06 34.53 34.15 33.45
47.58 48.78 47.50 46.63 46.03 45.71 45.36 44.87 44.85 45.66 47.47 46.99 46.43 46.78 47.39 47.95 48.08 48.73 49.33 50.05 50.22 49.47 48.45 47.41 45.52 42.98 41.22 39.55 38.43 37.79 36.94 36.54 36.33 36.30 36.18 36.11 35.88 35.17 34.55 34.14 33.41 33.15 33.68
47.29 48.26 46.68 46.02 45.18 44.78 44.04 43.81 43.69 44.30 44.65 43.59 42.32 41.46 42.40 42.33 42.09 41.54 41.39 40.89 41.17 40.41 39.63 39.80 38.77 38.33 37.87 37.66 37.29 37.23 36.82 36.80 36.59 36.74 37.01 36.32 35.74 34.38 33.59 33.51 32.78 32.46 31.64
47.13 46.79 45.68 45.29 44.18 44.25 43.53 43.48 43.14 43.19 43.24 40.81 38.68 37.81 38.60 38.88 38.59 38.37 38.25 38.06 38.07 37.88 37.84 37.42 37.50 37.80 37.54 36.92 36.17 35.56 35.22 34.50 34.07 33.98 34.36 34.69 35.43 36.11 34.80 34.02 33.70 33.82 32.93
47.48 46.52 44.21 42.28 42.48 43.23 42.50 42.36 42.16 41.88 41.37 39.01 37.35 37.21 37.24 37.37 37.53 37.98 37.96 38.03 38.02 38.07 38.08 37.75 37.80 38.01 38.75 40.00 39.21 36.35 34.43 34.03 33.34 31.52 31.78 33.59 35.10 35.42 35.53 35.18 34.97 34.75 32.39
46.20 44.02 42.84 41.36 41.22 41.60 42.66 41.90 41.74 41.50 39.16 38.08 37.09 36.70 36.97 37.61 38.63 39.15 38.75 38.12 37.86 38.07 37.36 37.18 37.05 36.58 37.29 39.07 38.32 36.55 32.01 31.72 31.56 31.58 31.87 31.89 32.98 32.84 31.93 32.27 33.38 34.20 35.34
45.10 43.32 41.61 40.32 40.40 41.68 42.33 42.34 41.40 39.29 38.13 37.27 36.49 36.41 36.70 36.69 37.04 37.03 36.68 36.76 36.80 36.16 35.92 35.50 35.62 35.85 36.97 38.00 36.95 34.71 32.05 32.30 32.38 32.68 32.28 31.56 31.49 31.74 32.07 33.15 33.65 33.84 33.77
44.05 42.01 40.36 39.23 39.97 40.96 42.58 42.13 40.94 39.44 37.73 36.54 36.03 36.31 36.44 36.00 36.11 35.43 35.00 35.37 34.32 33.32 33.02 33.66 33.57 33.28 33.57 35.21 34.91 33.83 33.18 32.27 31.36 31.46 31.43 32.18 32.07 32.98 34.21 33.21 32.62 31.43 30.71
39.13 38.42 38.58 39.09 38.81 39.40 41.95 41.42 40.25 39.61 37.34 36.46 35.82 35.90 36.25 35.50 34.58 34.72 33.40 33.69 34.50 34.15 34.94 34.70 35.13 35.74 33.98 34.78 34.44 33.90 32.76 31.31 31.26 31.96 31.72 31.56 32.22 33.25 33.29 30.73 29.37 27.27 27.67
36.96 38.06 38.19 37.50 37.59 38.42 39.38 38.90 38.09 36.32 36.61 36.43 36.01 35.63 35.81 35.21 35.16 35.13 35.35 34.96 34.49 34.26 33.84 33.36 34.19 35.03 35.08 34.32 34.50 34.11 32.85 31.50 30.93 30.12 29.92 30.59 31.38 31.50 31.11 31.07 28.39 27.33 29.66
37.16 37.86 36.28 36.09 37.05 37.62 37.87 36.32 34.04 35.91 36.57 35.93 35.46 35.55 36.03 36.42 36.28 35.87 36.29 36.47 35.50 33.52 32.09 31.71 31.66 33.31 34.04 34.68 34.27 34.06 33.19 32.62 29.92 28.58 29.48 30.19 30.65 29.89 29.71 28.94 29.64 30.57 30.38
38.47 38.26 37.15 36.47 36.79 36.83 36.58 34.54 34.93 35.81 35.67 35.75 35.94 36.41 36.92 37.40 37.68 36.59 34.63 33.02 33.14 32.17 31.15 30.07 29.46 29.18 31.26 32.48 32.60 32.52 32.03 31.87 30.01 30.00 29.36 29.21 28.75 28.75 28.27 28.34 28.86 28.88 26.87
38.74 38.80 38.11 36.76 35.71 36.44 36.07 35.84 36.18 36.53 36.23 35.49 36.00 36.58 35.43 35.70 35.01 34.59 34.44 33.54 32.84 31.79 30.05 29.11 28.86 29.05 29.97 30.81 31.73 31.42 31.65 31.10 30.49 29.80 29.33 27.49 27.42 28.06 27.13 27.06 27.29 26.81 26.45
39.40 39.04 37.54 36.65 36.16 36.40 35.95 36.84 37.42 37.65 36.42 36.74 36.66 35.32 33.92 33.41 33.06 33.15 33.49 33.18 31.81 31.61 30.41 29.72 29.47 29.06 28.71 30.16 31.14 30.55 29.59 29.59 29.06 27.99 26.13 25.32 25.05 24.75 25.35 25.79 26.09 26.16 26.05
39.24 38.68 38.16 37.73 36.67 36.50 36.71 37.61 38.99 39.16 37.93 36.67 34.46 33.40 32.85 32.59 32.22 31.34 30.35 32.84 32.06 32.18 32.00 31.51 31.02 30.26 31.05 30.77 30.49 29.94 29.58 28.94 28.28 25.08 23.84 23.46 23.93 23.86 24.22 24.35 24.74 25.68 26.18

GFSMW_sfc_wetblb_078.txt.gz
Wetbulb
50.78 52.17 54.55 55.44 55.70 56.84 57.21 61.04 65.85 67.19 67.48 66.42 65.66 66.38 64.38 64.79 65.79 65.51 65.56 64.85 64.13 63.45 61.66 60.43 59.50 59.16 58.49 58.49 58.72 58.22 57.43 55.95 54.84 52.20 49.03 49.21 49.61 48.55 48.63 49.62 49.53 49.59 49.33
49.18 50.02 51.40 51.85 52.55 54.64 54.98 55.57 56.92 60.76 67.07 66.63 66.06 65.96 64.90 65.69 64.99 65.02 66.15 65.59 64.62 63.89 62.97 61.52 60.71 59.84 59.19 58.84 59.06 57.78 56.51 55.80 55.82 51.26 48.08 45.68 47.16 47.73 48.02 47.90 48.98 47.85 47.89
47.83 48.47 49.33 50.89 51.99 52.35 52.37 53.83 54.87 55.44 56.46 63.63 66.18 64.26 65.01 63.98 64.19 64.99 65.20 65.45 65.45 64.67 63.59 62.28 61.87 61.00 60.49 59.80 59.55 58.98 57.20 55.34 54.28 52.82 51.20 48.33 47.32 44.62 46.11 45.96 47.26 46.90 45.60
45.59 47.34 47.66 47.92 49.39 50.47 50.76 51.48 53.08 54.04 55.22 55.54 61.92 63.99 63.25 62.95 64.13 63.29 64.10 65.15 65.20 64.94 64.30 63.21 62.42 61.71 61.22 59.87 60.30 60.51 59.03 56.24 54.33 51.90 54.39 51.99 48.62 45.01 41.05 43.63 44.37 45.74 45.35
44.16 44.60 46.44 48.82 49.43 49.60 48.89 49.10 50.01 50.75 51.45 51.93 52.96 54.42 61.38 63.55 63.53 63.26 63.24 63.50 63.65 64.84 64.39 64.68 64.27 62.45 62.43 61.64 60.29 59.55 59.55 58.51 55.47 53.86 50.45 51.19 46.74 45.10 42.82 38.46 39.81 42.54 43.30
45.88 47.51 49.15 49.90 49.65 50.27 50.48 50.32 49.33 49.26 49.84 50.04 50.10 50.05 50.51 53.88 58.24 59.95 59.74 60.26 62.48 62.63 63.09 63.87 63.09 62.62 62.69 62.31 62.02 60.62 60.51 60.47 57.21 54.29 51.60 49.89 47.98 47.77 44.44 42.31 39.77 40.87 40.23
46.69 47.10 46.96 47.52 48.60 48.01 48.34 48.88 48.90 49.22 49.82 49.92 49.88 49.48 49.26 49.49 52.10 56.73 58.82 59.37 59.63 60.67 61.55 62.96 62.62 62.25 62.33 62.50 62.43 61.04 60.15 59.64 57.98 57.43 52.52 51.65 50.90 48.19 47.60 47.38 41.51 38.92 36.50
47.08 47.45 48.14 47.76 47.20 47.50 46.79 46.90 46.85 47.10 47.89 48.29 48.63 49.13 49.63 49.55 50.08 51.10 55.70 58.15 59.42 59.60 61.11 61.24 61.03 61.11 61.53 61.45 61.11 60.51 60.18 59.00 57.43 56.86 55.69 49.35 44.46 46.41 45.04 44.33 38.89 35.77 36.21
47.13 47.41 48.37 47.23 46.32 45.54 45.92 46.13 46.15 46.43 47.06 47.51 48.05 48.29 48.86 49.04 49.23 50.23 51.23 54.95 57.71 60.00 59.92 60.14 59.67 60.02 60.05 59.87 59.41 58.57 57.83 57.36 55.78 49.93 45.81 42.94 42.30 42.89 42.79 41.67 42.66 41.98 36.99
47.24 47.24 47.60 46.31 45.70 45.74 45.72 45.62 45.78 45.59 46.84 47.47 47.68 48.57 48.12 48.63 49.14 49.61 50.03 51.60 54.30 55.40 55.91 56.72 57.20 56.79 56.01 55.31 55.08 52.77 49.72 46.81 44.37 43.53 42.52 40.96 40.00 39.21 39.10 39.82 40.21 41.12 38.67
46.57 46.51 46.53 45.46 45.12 44.83 44.22 44.04 44.21 45.00 45.85 45.96 46.22 46.30 47.28 48.29 49.02 49.28 50.17 50.27 50.87 52.07 53.12 53.79 52.79 52.45 51.77 51.03 49.46 46.58 45.30 43.17 41.66 41.15 39.87 38.25 37.92 37.35 37.85 38.92 38.30 36.37 35.95
46.33 46.08 45.03 44.02 43.40 43.13 42.58 42.01 42.53 43.37 44.65 44.78 46.42 47.23 47.82 47.63 47.36 47.85 48.70 50.03 50.39 51.28 51.27 50.53 48.78 46.85 44.12 43.01 42.75 41.67 40.89 39.34 37.89 37.13 36.87 36.94 38.43 37.04 37.74 37.29 35.58 34.56 34.48
45.23 45.13 44.01 42.99 41.98 41.69 40.80 40.46 40.66 41.33 42.59 42.40 43.32 43.14 42.81 42.86 42.28 42.35 42.00 42.62 42.53 42.33 41.70 41.38 39.93 38.46 38.32 37.97 38.03 37.82 37.13 36.82 36.89 36.93 36.62 36.28 36.27 35.71 35.87 34.54 33.79 33.81 33.99
44.26 44.60 42.77 41.94 41.22 40.89 40.23 39.88 39.88 40.51 39.89 38.91 38.87 38.85 39.04 39.22 38.77 38.65 38.59 38.62 38.92 38.49 38.26 38.34 38.03 37.88 37.75 37.71 37.49 37.19 36.75 36.64 36.58 36.74 36.59 36.36 35.79 34.72 33.81 33.78 33.32 32.75 31.50
44.02 44.22 42.76 41.40 41.35 40.58 39.97 39.93 40.00 39.68 38.96 37.27 36.85 37.07 37.87 38.11 38.10 37.79 37.79 37.92 37.90 37.83 38.06 37.73 37.61 37.42 37.32 37.00 36.36 36.03 35.41 34.56 33.85 34.12 34.76 35.39 36.50 36.77 35.68 33.79 32.94 32.24 30.62
44.51 43.85 42.05 41.22 40.71 39.81 39.17 39.94 39.05 38.57 38.18 36.92 36.62 37.45 37.69 38.02 38.08 38.09 38.00 37.97 37.97 38.05 38.27 38.21 38.31 38.00 38.49 39.84 38.93 35.80 34.12 33.34 32.38 31.89 32.19 33.36 34.98 35.81 36.21 35.99 35.69 34.81 31.95
44.46 42.25 39.77 39.43 39.60 40.23 41.03 39.22 38.31 38.08 37.23 37.05 36.88 37.27 38.21 38.37 38.40 38.46 38.09 37.45 36.97 37.31 36.59 36.45 36.81 37.01 37.80 40.06 39.17 36.79 31.56 31.55 31.60 31.79 31.90 32.69 33.20 32.60 31.76 32.43 33.50 34.18 35.25
43.00 40.94 38.47 38.00 39.42 40.96 41.30 40.32 37.91 36.66 37.48 36.58 36.30 37.14 37.39 37.01 37.26 36.93 36.26 35.93 36.03 35.42 35.01 35.33 36.15 36.53 37.88 38.76 37.65 35.19 30.78 31.68 30.76 30.14 29.98 30.22 30.50 31.09 31.93 32.25 30.66 30.95 31.58
40.28 38.86 38.77 39.18 39.58 40.49 41.14 39.49 36.60 36.03 36.80 36.18 36.05 36.56 36.75 36.04 35.89 34.72 33.96 34.26 33.78 33.26 33.04 32.84 31.57 30.90 33.33 36.08 35.54 32.73 29.75 28.75 28.10 29.25 29.67 29.95 29.34 33.56 34.59 30.83 28.32 27.09 27.00
36.85 37.08 38.28 38.99 38.67 39.31 41.04 38.41 36.81 35.34 34.71 36.09 35.62 36.09 36.07 35.08 34.07 33.97 33.34 33.68 34.35 34.01 34.28 33.77 31.36 34.19 30.10 35.69 35.48 32.54 29.61 27.55 28.02 28.08 29.01 32.81 31.52 33.24 32.93 27.90 25.24 23.30 23.39
36.74 37.99 38.15 37.17 37.46 38.18 39.10 38.25 36.97 35.25 35.95 36.01 35.67 35.41 35.37 34.76 34.94 34.89 34.86 34.40 33.90 33.31 30.46 29.54 30.82 30.71 30.93 31.37 35.36 35.27 29.70 27.32 26.20 25.65 25.85 26.85 31.63 31.28 30.95 30.75 24.16 24.66 26.61
36.49 36.78 35.39 36.24 37.06 37.82 37.87 35.79 33.92 35.96 36.06 35.70 35.11 35.00 35.18 35.77 35.74 34.62 34.42 34.26 32.29 28.96 27.06 26.77 26.66 28.53 29.32 34.26 34.32 34.10 33.08 32.02 25.68 24.75 25.27 26.19 30.62 30.03 29.90 27.96 29.54 30.40 29.68
35.57 36.02 34.49 35.05 36.64 37.04 36.48 33.92 34.49 35.51 35.26 34.98 35.27 35.81 36.14 36.06 36.53 35.71 33.19 29.37 27.99 26.40 25.38 24.94 23.88 24.26 27.55 27.88 33.18 32.53 32.04 31.46 26.37 26.18 28.24 29.49 29.04 28.74 26.27 28.75 29.22 28.85 23.03
36.37 35.71 34.89 33.55 33.03 35.71 35.94 35.50 35.87 36.00 35.78 35.37 35.53 36.25 36.06 36.18 34.42 31.30 29.19 27.40 26.49 25.29 24.73 23.70 22.83 22.86 24.07 25.15 26.17 27.45 26.51 30.60 27.86 28.32 25.13 26.96 27.72 28.36 26.79 25.74 25.19 24.16 23.37
36.57 36.13 34.62 33.62 34.98 35.50 35.39 36.15 36.40 36.66 35.49 35.79 35.65 34.86 31.64 28.41 27.00 27.31 26.20 24.58 25.43 27.39 23.93 23.40 23.88 23.09 23.22 26.89 29.73 28.52 26.56 25.52 26.87 26.15 22.33 21.17 21.34 21.40 22.22 22.84 23.28 23.23 23.39
37.28 35.84 34.75 33.86 34.75 35.50 35.57 36.43 37.35 36.93 36.36 35.79 33.02 28.83 27.68 26.76 25.88 25.48 25.77 32.94 32.29 33.24 33.21 32.78 27.67 27.70 31.05 31.48 30.76 29.89 29.49 29.23 28.49 22.66 19.98 19.61 20.23 20.41 21.79 22.10 22.36 24.16 25.57

GFSMW_sfc_wetblb_081.txt.gz
Wetbulb
49.54 52.45 54.32 55.64 62.31 63.07 62.39 65.12 65.35 65.42 65.72 64.77 63.91 63.56 63.58 65.02 64.69 63.27 63.46 62.75 62.84 62.07 60.51 58.50 57.58 57.32 57.16 57.42 57.52 57.10 56.79 54.82 53.56 50.83 48.29 48.02 48.13 48.25 49.09 49.04 49.28 49.91 50.76
48.08 49.47 52.07 52.69 53.79 55.72 59.48 61.55 64.33 65.39 65.52 65.82 65.33 64.77 64.08 63.47 63.80 64.63 64.99 64.24 62.78 62.75 61.36 59.92 58.37 57.41 56.77 56.75 57.10 56.78 55.53 55.41 53.45 50.09 46.65 44.82 46.73 47.49 47.47 47.42 48.60 48.04 47.95
46.30 47.52 48.28 49.34 49.90 50.57 51.50 53.19 55.01 60.97 66.28 65.59 64.35 63.19 63.50 63.16 62.77 63.22 63.57 64.37 64.83 62.56 62.37 60.32 60.36 58.68 58.36 57.79 57.28 57.20 56.51 54.86 54.01 51.71 49.17 45.80 45.07 44.68 45.41 45.89 46.45 46.92 45.84
44.57 45.61 46.49 45.85 46.83 47.24 48.66 50.04 50.70 51.40 53.31 64.48 64.94 63.42 63.01 62.00 63.15 63.22 62.71 62.68 63.48 63.82 63.30 61.62 60.14 60.25 59.41 58.36 58.45 58.91 57.36 55.49 55.14 52.56 52.95 51.40 49.62 45.09 42.97 43.03 43.70 45.05 45.21
45.66 43.65 45.14 47.79 48.52 48.83 48.60 48.78 48.30 48.78 48.95 49.68 56.55 62.06 61.22 62.02 61.66 62.33 61.85 62.41 62.20 62.90 63.56 62.46 61.84 60.32 60.52 60.35 59.62 59.22 58.85 57.81 56.65 55.41 51.17 50.81 47.57 44.62 42.14 40.48 41.00 44.32 44.58
44.34 45.62 46.94 48.47 48.13 48.54 48.79 48.74 48.79 48.01 48.11 48.04 47.63 48.10 48.76 49.75 53.68 59.07 60.22 60.40 61.47 61.56 61.91 62.28 61.73 62.04 62.43 62.16 61.45 60.74 60.33 59.87 58.64 56.83 52.56 52.53 51.32 49.80 44.75 41.76 39.33 42.50 42.03
45.25 45.79 45.98 46.24 46.07 46.11 46.57 47.91 47.41 46.84 47.63 47.52 47.67 47.78 47.26 46.95 47.96 50.77 55.79 58.13 59.79 59.23 60.28 60.84 62.71 62.54 62.36 62.21 62.10 61.33 60.15 59.59 58.33 56.88 55.64 54.37 52.93 52.02 50.09 48.21 42.22 40.87 39.34
45.19 46.05 46.06 46.00 45.43 45.39 45.20 45.19 45.17 45.40 46.17 46.45 46.58 46.73 47.21 47.67 47.94 48.57 50.27 54.13 57.22 58.53 61.36 61.37 61.90 61.96 61.68 61.41 61.40 60.77 60.68 59.55 58.62 57.28 56.11 53.15 50.88 49.17 49.27 49.16 44.41 38.97 36.96
44.80 46.28 46.99 45.88 44.24 44.03 44.58 44.50 44.56 44.77 45.84 46.22 46.62 46.70 46.78 46.84 47.10 47.78 48.50 50.12 54.80 57.80 59.35 59.86 59.76 59.94 59.88 59.79 59.38 58.57 57.92 57.93 56.29 55.05 52.32 47.67 45.07 45.21 44.41 44.14 45.36 44.37 37.42
44.53 45.29 45.31 44.76 44.51 44.36 43.85 43.97 44.32 44.87 45.46 45.56 45.80 46.39 46.67 47.31 47.79 48.32 49.22 50.56 51.33 52.29 53.43 54.73 56.11 55.90 55.57 55.43 55.16 52.12 50.12 48.10 44.92 44.17 43.03 41.64 41.90 41.41 42.56 42.75 43.29 43.23 41.91
43.81 44.25 43.67 44.32 44.18 43.56 42.93 42.54 43.27 44.76 44.62 44.96 45.15 45.07 45.55 46.58 47.20 47.56 48.22 48.54 49.36 50.03 50.62 50.79 50.40 50.57 49.74 50.12 48.38 46.45 45.19 42.98 41.53 41.15 39.76 38.60 39.53 38.73 39.12 39.29 39.25 38.76 38.40
44.01 43.16 42.28 42.61 42.30 41.69 41.41 41.46 42.47 43.46 43.59 43.80 43.82 43.39 44.09 43.63 43.01 41.61 42.72 46.34 46.03 47.14 46.30 44.95 42.81 42.54 41.39 42.38 42.13 41.32 41.00 40.03 38.59 38.19 38.04 37.50 38.67 37.57 37.52 37.53 36.35 36.39 35.65
43.32 41.92 41.08 40.65 40.36 39.70 39.97 40.10 40.61 40.97 40.43 39.92 39.55 39.26 40.69 39.82 39.35 39.59 40.48 40.95 41.07 40.40 40.37 39.88 38.96 38.68 38.93 38.87 39.01 38.64 38.10 37.88 37.72 37.81 37.43 36.93 36.76 35.92 35.73 35.20 34.35 34.40 34.86
43.69 41.70 40.33 39.61 39.66 39.22 38.84 38.56 38.57 38.49 37.79 37.12 36.73 36.79 38.02 38.28 38.08 38.69 38.92 39.14 39.24 38.67 38.52 38.59 38.32 38.34 38.30 38.19 37.93 37.68 37.23 36.90 36.74 36.85 36.69 36.36 35.67 34.69 34.36 34.20 33.66 32.99 31.75
42.76 41.95 40.18 38.94 38.79 38.39 38.19 38.10 37.44 36.89 36.28 35.67 35.54 36.84 37.96 38.26 38.26 37.95 38.07 38.39 38.41 38.26 38.32 37.65 37.54 37.56 37.65 37.38 36.58 36.25 35.40 34.82 34.52 34.99 35.64 36.11 36.96 37.51 36.12 33.42 32.82 32.59 31.62
43.01 42.16 40.81 40.14 38.35 37.65 38.07 38.41 37.23 36.91 36.77 35.58 36.60 37.85 38.24 38.27 38.09 38.10 38.09 38.20 38.40 38.72 38.75 38.22 38.03 37.81 38.25 39.73 38.82 34.84 32.78 32.50 32.62 32.23 32.65 34.40 36.39 37.31 37.62 37.03 36.51 34.51 30.26
44.02 41.95 39.95 39.35 38.96 38.61 38.82 37.25 37.02 37.45 36.14 36.15 37.40 38.12 38.53 38.12 38.03 38.14 37.68 37.24 36.87 37.19 37.01 37.06 37.61 37.37 37.82 39.79 38.96 36.59 30.81 30.42 30.92 30.93 32.13 33.03 33.75 32.39 30.02 32.49 34.01 34.09 35.41
42.11 41.13 39.83 39.32 39.03 39.74 39.58 38.83 37.82 36.01 35.70 36.56 37.06 37.91 37.68 37.26 37.39 36.86 36.02 35.74 35.80 35.57 35.84 36.21 37.25 37.46 38.61 39.57 38.13 35.82 31.07 30.42 29.27 29.25 29.18 28.60 28.44 29.21 30.20 30.10 29.22 29.25 29.93
39.47 39.06 39.81 40.05 40.20 40.12 39.65 38.21 36.91 35.61 35.75 36.13 36.38 36.83 36.96 36.18 35.72 34.77 33.96 34.41 33.92 33.23 32.14 32.21 30.12 29.98 32.12 36.49 35.62 31.69 28.37 27.90 26.87 28.20 28.24 28.23 27.73 33.61 34.47 27.94 25.88 24.30 24.91
37.80 38.18 38.92 39.45 39.54 39.90 39.66 37.42 34.79 33.92 34.12 35.90 35.99 36.45 36.15 35.01 34.06 33.86 33.40 33.58 33.62 32.84 31.44 30.06 30.10 34.46 30.47 36.24 35.51 30.80 28.03 26.31 27.03 27.16 27.87 33.27 30.12 32.61 32.08 25.72 23.82 22.21 22.36
36.75 38.15 38.61 37.78 37.97 38.62 39.83 37.33 35.63 33.86 34.99 36.20 35.93 35.41 35.45 34.77 34.91 34.78 34.62 33.86 33.69 30.88 28.96 28.30 28.72 28.42 29.72 31.79 36.02 34.29 27.56 26.51 24.72 24.86 25.25 26.22 31.66 31.36 30.98 30.48 23.63 24.23 25.43
36.88 36.73 35.95 36.51 37.34 38.46 38.05 36.17 34.34 35.76 35.98 35.79 35.36 35.14 35.53 35.90 35.37 34.26 34.32 33.72 29.38 27.87 26.95 26.96 26.50 27.52 28.85 34.43 34.65 34.27 33.16 31.03 25.03 24.22 24.85 25.71 30.80 30.20 30.14 28.07 29.19 30.10 28.78
35.33 35.62 34.58 34.76 36.56 37.54 36.95 34.74 34.92 35.53 35.33 34.93 34.70 35.05 35.49 35.51 35.28 33.03 31.14 30.29 27.04 25.35 24.33 25.12 24.06 25.03 27.41 27.18 33.73 33.09 32.76 31.92 26.16 25.77 28.12 29.95 29.20 28.84 26.16 28.18 29.33 28.50 22.58
35.89 35.27 34.18 33.29 32.71 35.45 36.13 35.61 35.50 35.70 35.13 34.62 35.05 35.47 35.20 35.42 35.74 33.83 29.85 26.20 25.10 23.98 24.07 23.06 22.12 22.10 23.26 24.72 25.54 26.35 25.08 30.37 27.30 27.85 24.06 27.18 27.67 28.05 26.53 25.27 24.70 23.72 22.91
37.01 35.35 33.88 33.09 32.84 34.44 35.31 36.03 35.99 35.92 35.29 35.44 35.66 35.83 36.08 33.40 26.74 26.74 25.07 23.85 24.52 25.90 23.33 22.63 22.89 22.18 22.69 26.05 29.17 27.75 26.09 24.99 26.74 25.77 22.37 20.72 20.91 21.12 21.99 22.55 22.93 23.11 23.47
35.79 34.59 34.01 33.13 32.91 34.25 35.31 36.11 36.50 36.60 35.91 35.32 34.88 33.02 28.93 24.93 24.95 24.86 25.27 32.67 33.39 34.09 32.90 31.29 27.81 27.97 30.43 33.02 31.82 30.41 29.80 29.59 29.05 22.72 19.66 18.93 19.64 19.75 21.28 21.55 21.84 23.15 25.07

GFSMW_sfc_wetblb_084.txt.gz
Wetbulb
49.15 50.39 53.39 62.12 62.35 62.61 64.01 64.65 64.79 64.52 64.80 63.56 62.98 62.74 62.88 63.44 61.69 61.18 61.78 61.88 62.23 61.45 59.99 58.26 56.88 56.65 57.01 57.22 56.80 56.41 56.26 54.94 52.97 50.64 49.24 48.17 48.11 47.68 48.40 48.85 50.95 53.42 53.02
46.91 48.60 50.84 52.07 60.28 62.46 63.24 64.17 64.65 64.33 64.64 64.66 64.05 63.83 63.40 63.29 63.21 63.04 62.55 61.83 61.53 61.69 61.10 59.42 57.77 56.69 55.94 55.68 56.05 56.04 54.79 55.22 52.67 50.06 46.73 46.75 47.83 47.65 47.47 47.22 48.13 48.45 50.81
47.50 46.05 47.51 51.07 51.10 56.23 60.77 63.77 64.67 64.72 64.95 64.05 63.91 62.56 62.59 62.17 62.01 62.76 62.85 63.39 63.79 61.66 60.94 59.73 59.45 57.40 56.87 56.36 55.68 55.94 55.68 54.39 53.37 51.00 50.92 45.07 45.13 44.97 45.73 45.74 45.65 46.58 46.31
45.46 43.65 44.21 45.46 47.39 47.42 49.16 51.72 54.12 59.57 61.42 63.89 63.33 62.57 63.01 63.11 62.83 62.75 62.28 62.97 63.78 63.70 61.93 60.42 59.06 58.15 57.89 57.02 56.50 56.89 56.53 55.05 54.39 52.66 53.05 50.18 48.70 46.38 45.34 43.56 45.01 44.72 45.04
45.85 44.27 44.63 46.65 46.92 47.14 46.48 47.17 48.30 49.03 49.56 61.01 63.54 62.54 61.17 61.28 60.52 61.22 61.00 61.01 61.48 62.91 63.35 62.45 60.41 58.84 58.44 58.03 57.80 58.23 57.61 57.93 58.06 55.57 52.90 52.57 49.78 46.73 45.86 46.57 43.08 45.17 44.57
42.85 43.73 46.20 47.50 46.91 47.18 47.44 47.52 47.50 46.84 47.01 47.30 48.98 58.04 60.35 56.41 54.67 58.38 59.86 60.30 60.58 60.93 61.47 62.13 62.22 60.87 59.67 59.35 59.82 59.82 59.53 59.11 58.30 57.98 56.03 54.37 52.04 51.46 46.39 44.79 43.68 44.48 44.44
43.48 44.80 45.23 45.06 45.02 44.86 45.78 47.38 47.09 45.74 46.31 46.73 47.43 47.47 46.95 46.37 47.36 49.38 53.79 56.49 58.16 59.25 60.74 60.56 60.09 60.79 61.49 62.04 61.89 61.04 59.55 59.36 59.01 58.09 56.90 55.46 55.38 53.11 51.70 50.81 45.23 43.98 42.06
43.56 44.55 45.27 44.70 43.90 44.17 44.03 44.49 44.70 44.56 45.45 45.89 45.85 46.12 46.89 47.57 47.94 48.29 49.19 52.13 55.96 57.59 59.37 59.62 60.02 60.27 62.06 61.93 61.59 60.65 60.07 59.35 59.03 58.07 57.18 54.95 53.69 52.45 51.91 51.50 46.96 39.59 39.67
43.17 44.53 44.65 44.29 43.63 43.36 43.13 43.55 43.88 44.81 45.25 45.40 45.93 45.71 46.14 46.28 46.50 47.27 47.95 49.60 53.76 56.87 57.11 58.37 58.99 59.47 60.61 60.30 59.39 58.57 57.75 57.36 54.23 52.82 51.98 48.47 45.56 46.11 46.31 46.36 46.90 47.48 41.89
43.46 43.73 43.39 42.94 43.20 43.36 42.76 43.50 44.89 44.65 44.35 44.70 45.09 45.38 45.51 46.28 46.71 47.73 48.95 49.85 50.64 51.60 53.09 54.29 54.78 54.52 55.40 55.78 55.80 52.45 50.14 48.06 45.23 44.55 43.06 42.39 42.43 42.77 43.84 44.18 44.70 44.97 43.36
42.77 41.89 41.62 42.22 42.48 42.30 42.51 42.79 44.32 44.45 44.37 44.47 43.92 43.73 44.24 44.78 44.71 45.51 46.30 47.19 47.89 48.87 49.14 48.81 48.02 48.30 48.37 49.08 47.47 45.93 44.93 43.04 41.84 41.48 40.72 40.01 40.62 40.06 40.15 40.22 39.91 38.79 38.89
42.70 41.26 40.69 40.57 40.01 40.17 41.24 41.97 43.32 43.17 43.04 43.21 42.25 41.35 40.51 39.92 39.09 39.22 40.44 43.55 44.08 43.40 42.63 41.48 40.32 40.02 41.26 41.91 42.80 42.36 42.04 41.04 39.52 39.22 38.92 38.46 39.06 37.72 37.93 37.78 36.41 35.70 35.51
41.69 40.65 39.85 39.35 38.62 38.34 39.38 40.67 41.68 40.46 40.18 39.88 38.98 38.58 38.14 38.19 38.88 38.80 39.38 40.31 39.80 38.96 38.71 38.35 38.40 38.90 40.01 40.03 39.82 39.65 39.04 38.69 38.51 38.43 37.81 37.47 37.48 36.30 35.94 35.50 34.74 34.69 34.57
42.11 40.17 39.09 38.58 37.68 37.66 37.91 38.67 38.54 38.40 37.91 37.60 37.09 36.24 36.29 36.65 38.41 39.03 39.14 39.24 39.43 39.00 38.80 38.92 38.89 38.85 38.74 38.68 38.51 38.13 37.51 37.25 37.08 37.24 37.05 36.52 35.77 35.00 34.73 34.31 33.83 33.21 32.13
41.54 41.04 39.26 38.07 37.14 36.96 36.99 37.43 37.06 36.52 36.31 36.08 36.09 36.07 37.83 38.47 38.49 38.35 38.52 38.76 38.65 38.32 38.26 37.80 37.80 37.99 38.01 37.76 36.83 36.60 36.04 35.34 34.96 35.80 36.10 36.41 37.29 37.89 36.69 34.17 33.16 33.10 31.91
43.53 42.20 40.25 39.24 36.85 36.30 36.66 36.95 36.33 36.13 36.13 35.64 35.68 37.70 38.37 38.34 38.13 38.24 38.45 38.68 38.70 38.60 38.47 38.08 37.98 37.86 38.56 40.02 38.88 34.36 33.32 33.91 33.51 33.04 33.25 35.85 36.90 37.97 38.46 38.02 36.61 33.32 28.99
40.84 42.16 39.99 39.25 37.68 37.56 37.64 36.16 36.04 36.26 35.21 35.48 36.73 38.30 38.33 37.91 37.87 38.02 37.73 37.18 37.14 37.53 37.38 37.52 37.46 37.22 37.87 40.01 38.99 36.38 29.79 31.27 31.21 31.86 31.90 31.82 32.64 30.59 29.03 33.23 34.46 34.09 35.58
42.25 41.57 39.60 38.42 37.66 38.17 37.55 36.66 36.44 35.71 35.43 35.68 37.25 38.15 37.94 37.37 37.26 36.72 35.98 35.85 36.30 36.24 36.75 37.15 37.57 38.24 39.13 39.98 38.47 35.93 28.71 28.48 28.54 28.36 27.41 26.96 27.27 28.65 29.77 28.59 28.15 27.67 27.79
40.42 40.46 41.47 40.24 39.83 39.30 39.03 37.98 36.89 36.39 35.96 35.88 37.00 37.36 37.31 36.19 35.73 34.76 34.24 34.80 34.50 33.61 33.16 33.63 33.33 32.23 33.54 37.48 35.94 30.82 27.60 27.03 26.40 27.73 27.12 26.98 27.38 34.22 34.04 27.06 25.48 23.87 24.52
37.81 38.90 39.21 40.14 39.61 39.17 38.88 37.38 36.11 35.61 34.44 35.54 36.54 36.87 36.48 35.29 34.25 34.03 33.24 33.36 31.55 31.30 30.17 29.29 29.77 34.26 30.72 36.11 34.90 29.63 27.04 25.61 26.56 26.45 27.48 33.33 29.52 32.54 32.02 25.44 23.71 21.83 22.09
37.61 38.22 38.71 39.11 39.05 39.19 38.47 36.54 35.56 34.64 35.38 36.71 36.42 35.81 35.74 34.92 34.82 34.46 34.24 33.45 29.79 29.19 27.92 27.30 27.47 27.90 29.47 32.01 35.46 33.37 27.07 26.01 24.69 24.82 25.23 26.09 31.79 31.26 30.91 30.09 23.61 23.85 25.00
37.53 38.24 37.30 37.54 37.95 39.38 38.39 36.20 34.86 35.99 36.26 36.12 35.54 35.23 35.44 35.90 35.45 34.45 34.15 31.90 28.89 27.61 26.78 26.27 26.53 27.47 28.44 34.68 34.74 34.35 32.30 30.53 24.91 24.10 24.74 25.42 30.56 29.93 29.96 28.00 29.33 30.13 28.10
36.98 36.95 35.94 35.03 35.68 37.83 37.97 35.52 35.23 35.69 35.54 35.37 34.97 35.33 35.73 35.35 35.05 34.26 32.03 28.54 27.31 26.27 25.17 26.18 24.96 25.51 27.50 26.78 33.92 33.66 33.11 32.08 26.05 25.69 27.81 30.52 29.92 29.08 26.49 28.30 29.46 28.66 22.49
36.07 36.09 35.35 33.80 33.54 35.42 36.70 36.50 35.79 35.92 35.28 34.64 34.76 35.18 34.79 34.59 34.44 33.21 30.76 27.15 24.95 24.11 24.90 24.22 23.69 23.64 24.34 24.63 25.34 26.47 25.62 31.03 27.59 28.28 24.25 26.85 27.67 27.85 26.15 25.14 24.46 23.52 22.53
36.63 36.08 34.93 33.24 32.89 33.48 34.11 35.89 35.93 35.75 34.67 34.92 35.16 35.17 35.32 34.70 32.29 30.19 27.40 24.57 24.41 26.01 23.63 23.04 22.79 21.62 22.00 25.01 28.41 27.58 26.04 24.85 26.77 25.59 22.13 20.41 20.50 20.53 21.47 22.07 22.58 22.68 23.17
36.03 34.64 35.08 33.26 32.79 33.29 34.61 35.81 36.28 35.93 35.34 34.74 34.87 35.08 34.52 30.66 27.58 24.42 24.05 31.44 31.86 33.38 33.05 31.45 26.61 25.85 29.89 32.98 33.67 32.31 30.89 30.42 29.95 22.98 19.42 18.33 18.88 18.80 20.46 20.96 21.24 21.96 24.88

GFSMW_sfc_wetblb_087.txt.gz
Wetbulb
49.13 49.50 55.71 62.97 63.13 62.74 63.17 64.34 64.59 64.59 64.49 63.46 62.78 62.04 62.55 60.49 59.51 60.07 62.38 62.71 62.70 60.94 58.23 57.30 56.39 56.17 57.05 57.31 56.86 56.02 55.59 54.22 53.42 51.53 50.32 49.14 49.12 47.74 48.23 48.87 51.91 54.29 54.43
46.61 47.95 49.31 53.68 60.53 62.28 63.26 63.67 64.39 63.90 64.60 64.53 63.27 63.21 62.51 62.68 61.48 60.86 60.42 61.45 61.75 61.03 60.14 58.29 57.17 56.21 55.96 56.02 56.09 55.85 54.34 54.94 52.65 51.00 47.62 48.86 50.61 48.14 48.01 47.35 48.19 48.81 52.61
45.47 46.10 47.16 48.83 54.19 59.40 61.11 63.52 64.19 64.07 64.39 63.89 63.20 62.21 62.25 61.81 61.71 61.39 60.94 61.20 60.94 60.48 60.37 59.47 59.36 57.35 56.59 56.19 55.43 55.79 55.26 54.23 53.10 50.94 52.91 46.35 46.74 45.59 46.85 45.51 45.48 46.37 46.67
44.77 45.07 45.23 45.17 48.76 54.22 56.13 60.87 62.45 62.92 63.20 63.66 63.06 61.97 61.78 62.10 62.19 62.20 61.75 62.23 63.17 62.69 61.14 60.35 59.37 58.55 56.96 55.97 55.84 56.12 55.83 55.16 53.88 52.24 52.79 51.10 50.37 48.96 48.45 46.07 44.37 44.99 46.33
45.03 44.08 44.44 45.90 45.45 46.40 47.05 50.76 54.23 55.29 56.61 62.53 63.24 62.74 61.37 61.40 60.32 61.03 61.26 61.57 62.22 63.19 62.74 61.83 59.81 58.32 57.58 57.07 56.40 55.86 55.83 56.83 57.35 55.52 53.80 53.30 49.89 47.80 49.20 51.65 49.86 45.93 45.60
43.30 43.05 45.08 46.56 45.99 46.11 46.40 46.29 47.34 47.02 48.30 56.43 60.89 61.59 61.70 59.38 57.94 58.68 59.32 59.66 60.32 60.74 61.48 62.13 61.27 59.60 58.44 57.88 57.48 57.30 57.52 57.89 57.63 57.20 56.04 54.34 52.25 51.48 48.76 46.93 49.67 45.82 44.11
41.61 42.99 44.59 44.66 44.57 44.78 45.27 46.41 46.84 46.47 46.78 46.99 46.54 48.00 52.46 55.56 55.85 54.05 54.38 56.67 58.25 59.10 60.09 60.43 60.85 61.28 61.18 60.12 59.18 58.23 57.66 57.53 57.23 57.68 56.92 55.80 55.46 54.46 51.84 51.47 48.61 45.32 43.31
41.13 43.58 44.23 44.08 43.63 44.00 44.12 44.55 44.61 44.96 45.95 45.76 45.75 45.73 46.46 46.55 46.46 46.88 47.89 50.65 54.08 56.13 58.17 59.72 59.71 59.96 60.06 60.18 60.14 59.55 59.99 59.15 58.33 57.95 56.22 56.16 54.66 52.91 52.59 52.02 48.30 41.87 40.64
41.92 43.43 43.81 43.17 42.66 42.66 42.85 43.37 44.29 44.71 45.24 45.62 45.92 45.78 46.26 46.31 46.31 46.84 47.27 48.49 51.34 55.65 55.91 56.88 57.70 58.52 58.91 58.84 58.68 57.21 57.44 55.56 51.45 49.59 50.33 49.50 46.52 47.28 47.53 48.05 48.41 48.21 42.51
42.31 42.64 42.35 42.12 42.03 42.10 42.24 43.50 44.42 43.96 43.96 44.37 44.90 44.80 45.10 45.83 47.17 48.28 48.76 49.47 50.08 51.07 52.54 54.15 55.46 55.20 55.21 55.28 54.82 51.32 50.41 48.05 45.80 45.49 44.90 43.68 43.38 43.73 44.23 44.58 44.85 44.81 44.66
41.53 41.04 40.84 41.30 41.10 41.01 41.67 42.98 43.43 43.73 43.29 43.28 43.08 43.30 43.62 43.58 44.23 45.09 46.15 47.24 48.01 48.70 48.74 48.43 48.28 48.80 49.12 49.39 48.08 46.38 45.65 44.02 42.10 42.46 41.87 40.83 41.58 40.84 40.90 40.95 40.68 39.47 40.15
41.49 40.33 40.03 39.54 39.27 39.40 40.44 41.88 42.73 42.78 42.94 42.50 41.57 40.12 40.00 39.60 39.23 39.44 41.38 44.22 42.92 42.01 41.97 41.16 41.12 41.98 42.42 43.28 44.43 43.32 41.65 40.49 40.62 40.05 39.84 39.29 39.90 38.60 38.53 38.12 36.76 36.10 36.36
39.81 38.94 38.63 38.32 37.93 37.91 38.86 40.82 40.61 39.98 40.56 40.20 39.26 37.78 37.41 37.46 37.17 37.51 38.32 39.01 38.44 37.98 38.10 38.50 38.59 39.05 39.45 39.05 39.24 39.23 38.97 39.82 39.63 39.44 38.87 38.30 37.99 36.55 36.33 35.89 35.20 35.01 35.44
40.20 38.65 37.94 37.53 36.85 37.20 37.29 38.45 37.25 37.79 38.13 38.41 37.45 36.58 36.09 36.20 36.50 38.52 39.48 39.66 39.87 39.34 39.31 39.41 39.19 39.03 39.15 39.07 38.98 38.69 38.09 37.81 37.57 37.68 37.51 37.06 36.38 35.44 34.31 34.10 33.79 33.49 32.15
39.93 39.48 38.60 37.61 36.38 36.31 36.42 36.57 36.19 35.98 36.36 37.08 36.48 36.45 37.24 37.42 37.69 38.66 38.87 39.00 38.74 38.39 38.50 38.30 38.33 38.52 38.63 38.38 37.45 37.15 36.56 36.00 35.44 35.40 35.06 35.00 37.43 38.18 37.08 33.21 32.31 32.32 31.30
41.88 40.65 39.88 38.64 36.71 36.09 36.32 36.46 35.41 35.29 36.03 36.06 35.69 36.85 37.21 38.02 38.26 38.60 38.74 38.71 38.49 38.39 38.48 38.20 38.34 38.40 39.31 40.57 39.54 36.47 34.87 34.84 34.48 33.37 33.86 35.01 36.60 38.42 39.14 38.16 36.72 32.73 28.39
42.26 41.69 40.34 38.94 37.52 37.62 37.35 35.82 35.38 35.50 35.06 35.78 36.68 37.33 37.47 37.81 37.95 38.15 37.82 37.53 37.29 37.77 37.39 37.56 37.84 36.87 37.72 40.20 38.97 36.39 32.82 32.54 32.44 32.58 32.00 30.49 31.52 30.30 28.96 34.67 35.34 35.33 36.39
40.96 42.32 40.28 38.81 37.82 37.30 37.11 36.55 36.08 34.78 34.95 35.88 36.78 37.61 38.12 37.44 37.44 37.02 36.49 36.57 37.03 37.16 37.01 37.43 38.04 37.99 38.50 39.51 38.36 35.68 29.57 28.97 27.97 27.36 26.50 26.21 26.73 29.02 28.98 28.23 27.11 26.07 26.45
41.57 41.26 41.01 39.88 37.60 37.63 37.61 37.66 36.23 36.43 36.42 36.85 36.91 37.30 37.47 36.45 36.12 35.22 34.84 35.43 35.29 34.44 33.84 34.63 34.73 35.23 36.70 38.29 36.39 30.90 27.57 27.31 26.41 27.25 26.42 26.93 27.47 34.69 32.87 26.70 25.31 23.65 24.43
38.03 39.06 39.51 39.62 38.82 38.24 38.72 37.26 36.24 35.92 35.69 36.62 36.66 37.13 36.85 35.90 34.89 34.57 33.56 33.43 34.02 32.87 32.71 31.67 30.46 34.89 31.33 35.91 34.78 29.46 27.17 25.43 26.30 26.78 27.66 33.35 29.35 32.67 32.17 25.07 23.49 21.51 21.67
37.22 38.13 39.03 38.11 38.12 38.90 38.44 36.96 36.21 35.45 36.39 37.03 36.67 36.40 36.27 35.35 35.03 34.50 34.13 33.03 31.88 31.03 28.71 27.42 27.85 28.43 30.30 31.95 34.99 33.18 27.21 26.27 24.89 25.17 25.33 26.26 32.04 31.39 30.99 30.07 23.60 23.34 24.60
38.50 39.12 38.49 38.37 38.93 38.89 38.21 36.51 35.30 36.34 36.75 36.49 36.09 35.71 35.63 36.07 35.38 34.34 33.56 31.64 29.34 27.23 26.30 26.49 27.08 27.41 28.19 35.02 34.91 33.96 31.46 30.45 25.15 24.23 24.74 25.31 30.64 30.00 29.99 27.78 29.60 30.37 28.50
37.41 37.69 37.48 36.92 37.48 38.65 38.25 36.06 35.72 36.19 35.89 35.69 35.23 35.40 35.80 35.58 35.25 34.12 32.50 29.92 27.63 26.44 25.10 26.66 25.35 25.87 27.64 26.57 34.60 34.35 33.68 31.85 25.92 25.81 27.63 31.01 31.11 29.62 26.39 28.34 29.62 28.78 22.45
37.57 37.16 36.23 35.30 34.43 35.42 36.37 37.00 36.19 36.17 35.66 34.99 34.98 35.43 34.89 34.56 34.78 34.18 31.89 28.23 26.48 25.70 26.41 25.61 24.78 24.41 24.88 25.07 25.64 27.19 26.92 31.71 28.27 28.89 24.47 26.93 27.89 28.16 26.35 25.13 24.42 23.37 22.12
36.98 36.27 35.65 35.03 34.72 34.04 34.30 35.09 36.26 36.02 35.00 35.03 35.14 35.10 35.15 34.51 33.40 32.85 30.53 26.10 25.71 27.68 25.59 24.62 24.53 23.21 23.07 25.11 28.27 27.55 26.08 25.07 27.18 25.65 22.15 20.48 20.07 19.95 20.77 21.54 21.98 22.15 22.61
35.67 34.88 34.98 34.83 33.87 33.15 33.58 34.81 36.13 36.01 35.17 34.72 34.85 34.85 34.93 33.93 32.90 30.59 25.62 32.91 31.36 33.45 33.39 32.09 26.83 25.30 29.36 31.81 33.49 33.45 32.15 31.44 30.91 23.62 20.03 18.21 18.15 18.09 19.53 20.20 20.63 21.37 22.60

GFSMW_sfc_wetblb_090.txt.gz
Wetbulb
52.30 50.58 53.81 63.31 63.30 63.15 63.97 65.05 64.85 64.23 64.93 64.20 63.47 62.46 62.23 61.02 60.27 62.23 64.84 64.05 63.74 61.12 58.96 58.08 56.93 56.86 57.19 57.09 56.33 55.33 55.07 53.72 53.39 52.90 52.18 51.17 50.89 49.89 48.78 49.08 50.10 53.88 54.77
48.14 48.85 49.84 52.29 61.89 62.56 63.41 64.06 64.72 64.19 64.32 64.76 64.29 63.23 62.09 61.29 60.55 61.25 61.54 63.56 63.06 61.83 59.54 58.57 57.22 55.91 55.73 55.66 55.57 55.14 53.61 54.33 52.95 52.24 48.58 50.47 51.87 49.79 48.98 47.70 48.09 48.04 52.28
45.76 47.53 47.90 48.78 52.97 61.04 62.23 63.06 64.07 64.34 64.47 64.31 63.46 62.41 62.40 62.00 61.17 60.14 59.31 59.74 61.52 61.50 61.06 58.58 57.75 56.15 56.22 55.74 55.34 55.49 55.01 53.90 52.55 51.41 53.23 47.48 48.40 47.04 48.24 46.48 46.11 46.51 47.00
45.00 44.62 45.24 46.66 46.99 53.47 60.51 62.54 63.37 63.16 64.20 63.50 63.38 62.83 62.10 62.05 61.92 61.72 61.26 60.75 60.76 60.07 60.13 59.58 58.67 57.36 56.57 55.60 55.73 56.16 55.70 54.89 53.53 52.54 52.87 52.08 52.00 50.58 49.91 47.58 47.02 46.53 46.28
45.39 45.85 44.58 44.92 45.48 48.16 53.18 58.60 61.08 62.06 62.62 63.68 63.74 63.02 61.44 61.66 60.46 61.09 61.28 61.12 61.53 61.88 61.77 61.07 60.27 59.36 59.56 58.38 56.43 55.53 55.42 56.49 57.07 55.22 54.04 53.85 50.31 49.68 51.08 51.49 52.64 46.70 44.69
43.94 44.78 44.36 45.62 44.94 44.98 45.79 48.89 53.07 49.97 55.89 61.67 61.88 61.22 60.44 59.56 59.12 59.12 59.08 59.29 59.97 60.42 61.28 61.88 61.23 60.31 58.85 58.56 58.19 56.87 56.02 57.16 57.23 57.24 56.16 54.44 52.36 49.35 48.42 49.27 51.57 49.94 48.20
42.59 42.28 44.15 44.52 44.66 44.02 44.16 45.95 47.16 46.48 48.45 51.91 54.69 57.90 59.82 61.69 60.96 59.07 58.02 57.80 58.52 59.00 60.08 60.19 60.76 61.08 60.29 58.88 57.88 56.82 56.68 56.81 56.70 56.67 56.52 56.04 55.29 54.63 52.26 51.87 49.89 48.57 45.56
40.97 41.44 43.97 43.80 43.47 43.77 44.24 44.88 45.07 45.14 47.01 46.42 45.96 46.60 47.43 48.00 48.00 47.79 48.13 50.52 53.26 55.26 56.98 58.43 59.56 59.97 60.08 59.76 58.88 57.87 57.21 56.49 56.39 57.68 57.32 56.76 55.06 53.81 53.37 52.51 50.28 43.92 43.08
38.70 41.37 43.16 42.94 42.67 42.44 42.90 43.73 44.46 44.87 45.66 45.57 45.69 45.44 45.87 45.99 46.01 46.37 46.93 47.74 49.27 53.83 54.61 55.06 56.06 57.46 58.23 58.78 58.65 58.31 58.18 56.27 54.18 52.25 51.74 50.96 47.58 48.08 48.42 49.05 49.75 48.88 43.29
39.11 41.13 41.88 41.70 41.37 41.46 41.91 43.60 44.18 43.95 44.02 44.50 44.72 44.65 44.57 45.21 45.84 46.77 47.25 48.20 49.01 50.11 51.48 55.28 55.74 55.70 56.24 57.43 56.01 52.95 51.62 48.91 46.60 47.43 46.69 45.06 44.45 44.70 45.19 45.49 45.96 46.07 46.35
39.63 39.67 39.93 40.15 40.07 40.70 42.28 42.41 43.02 43.27 43.10 43.21 43.13 42.95 42.45 42.52 43.10 44.31 45.47 46.24 46.75 47.34 47.09 49.08 49.35 49.84 50.27 50.63 49.80 48.48 47.23 45.20 43.51 42.90 43.08 41.98 42.60 42.05 42.02 41.97 41.27 39.92 40.60
40.22 39.63 39.26 38.84 38.80 39.63 41.02 41.29 41.78 42.10 41.93 41.82 40.90 40.27 39.69 39.74 39.73 40.38 41.59 43.02 41.55 41.15 41.62 42.04 42.80 42.95 44.00 45.87 46.43 45.21 44.41 43.51 42.04 41.21 41.29 39.61 40.90 39.44 39.31 38.93 37.74 37.26 37.64
38.92 38.30 37.94 37.89 37.69 38.15 39.58 39.93 39.78 39.55 39.66 39.41 38.51 38.05 38.12 38.28 37.82 37.75 38.26 38.76 38.56 38.33 38.68 39.41 39.74 40.02 40.15 40.06 40.30 40.58 40.11 40.03 39.22 39.01 38.58 39.11 38.77 37.38 37.16 36.57 35.95 35.69 36.52
39.02 38.01 37.24 37.10 36.72 37.23 38.40 38.14 37.30 37.65 37.64 37.53 36.77 36.34 36.26 36.73 36.83 37.50 37.80 38.24 38.56 38.48 39.27 39.69 39.50 39.06 38.94 38.59 38.65 38.49 38.06 37.81 37.86 38.08 38.12 37.73 37.13 36.15 35.54 34.38 32.37 33.36 33.02
38.57 38.31 37.86 36.89 36.08 35.90 36.57 36.49 35.80 35.72 36.39 36.11 35.76 35.38 36.24 36.94 37.36 37.53 37.87 38.79 38.94 38.67 38.94 38.68 38.73 38.96 39.18 39.04 38.09 37.91 37.25 36.57 35.96 35.97 35.93 35.75 37.23 38.47 36.79 32.76 31.15 30.36 29.12
40.44 39.25 38.77 38.10 36.20 35.54 35.66 35.97 35.07 34.94 35.71 35.30 35.26 36.25 36.65 37.26 37.16 37.73 37.79 38.57 38.41 38.53 38.73 38.61 38.84 39.00 39.93 41.25 40.41 37.59 35.97 35.87 35.34 33.87 33.96 35.44 37.56 39.23 39.38 38.16 36.39 31.94 27.89
41.13 40.31 39.30 38.86 37.19 36.64 36.70 35.41 34.82 34.86 34.86 34.92 35.88 36.47 36.62 36.98 37.05 37.85 38.05 37.63 37.43 37.85 37.60 37.91 38.21 38.29 39.52 40.96 40.04 37.88 33.45 33.12 32.95 32.99 32.06 30.83 32.09 30.84 29.52 35.86 36.22 36.48 36.67
41.77 42.29 40.77 38.79 37.67 37.27 37.06 35.92 35.47 34.70 34.81 35.02 35.83 36.55 36.71 36.61 37.80 37.52 37.00 37.02 37.47 37.03 37.19 37.34 37.64 37.72 38.37 39.29 37.74 36.35 32.64 31.67 29.79 27.70 26.63 27.02 27.43 29.41 28.68 27.90 26.84 25.90 26.43
39.35 39.68 42.33 40.07 37.98 37.62 37.13 36.43 34.97 34.96 35.77 36.15 37.23 37.78 37.54 36.40 36.53 35.81 35.40 35.94 35.88 35.20 34.64 35.58 35.95 36.68 37.21 38.35 37.09 31.15 27.59 27.44 26.46 26.96 26.75 27.81 27.86 34.78 32.41 26.67 25.30 23.49 24.43
37.52 38.94 39.38 38.90 37.88 36.81 37.50 36.33 35.30 36.02 35.52 37.24 37.43 37.59 37.26 36.42 35.50 35.31 34.09 34.04 34.90 34.13 33.98 33.13 33.66 36.75 32.69 36.74 35.02 30.18 27.98 26.12 27.11 27.53 28.66 33.70 29.34 33.13 32.45 24.50 22.94 21.00 21.05
36.18 37.38 37.90 37.41 37.91 38.03 37.94 37.03 36.68 36.02 36.86 37.55 37.29 36.81 36.65 35.97 35.55 34.92 34.52 33.90 33.10 32.28 31.32 30.59 29.96 29.46 30.51 32.04 34.70 33.08 27.29 26.73 25.48 25.92 25.62 26.85 32.63 31.59 31.15 30.28 23.54 23.12 24.15
37.60 39.69 38.82 38.43 38.62 38.94 38.57 37.05 35.32 36.60 37.14 36.90 36.49 36.25 36.17 36.36 35.55 34.41 33.43 32.63 31.40 30.00 28.77 28.55 27.83 28.35 29.37 35.16 35.06 34.10 31.27 30.57 25.32 24.12 24.61 25.22 30.74 30.29 30.12 27.73 29.66 30.51 29.06
37.83 38.19 38.15 37.72 38.35 38.79 38.84 36.77 36.55 36.61 36.42 36.16 35.79 35.82 36.03 35.88 35.36 33.90 32.26 30.44 29.81 28.81 27.33 27.67 26.79 27.12 28.06 26.68 35.54 34.83 34.08 31.94 25.56 25.64 27.78 30.92 31.39 30.38 26.96 28.36 29.63 28.81 22.46
37.64 37.82 37.17 36.52 36.30 37.58 37.50 37.56 35.82 36.50 36.05 35.38 35.31 35.57 35.30 34.96 34.99 34.61 32.42 30.55 29.02 27.07 27.15 26.54 25.47 24.92 25.55 25.63 26.06 27.79 28.18 32.37 28.58 29.60 24.81 26.98 27.81 28.01 26.29 24.91 24.43 23.11 21.77
40.12 38.35 37.14 36.24 35.94 35.97 36.18 35.74 35.53 35.79 35.26 35.35 35.36 35.31 35.26 35.41 34.08 33.08 32.01 30.81 29.71 28.93 26.83 25.93 25.70 24.45 24.19 26.04 28.81 27.83 26.22 24.98 27.13 24.77 22.36 21.13 20.66 20.19 20.65 21.34 21.59 21.63 22.09
37.07 35.79 35.81 35.62 35.36 35.10 35.10 34.60 35.32 35.60 35.40 34.86 34.98 35.00 34.82 34.19 33.35 31.81 30.51 34.20 32.69 34.30 34.06 32.85 28.26 26.95 30.24 32.57 33.54 33.53 32.60 31.88 31.61 24.01 20.76 19.41 18.80 18.54 19.29 19.52 19.88 20.84 22.08

GFSMW_sfc_wetblb_093.txt.gz
Wetbulb
55.07 53.38 54.15 63.98 64.67 65.70 66.18 66.61 67.30 67.49 67.15 66.42 65.13 65.16 65.32 65.52 65.74 67.23 67.33 66.47 65.71 64.01 63.05 62.65 62.33 62.10 61.80 61.82 61.62 61.09 60.22 59.48 59.57 59.42 60.13 59.83 60.00 59.32 58.81 58.31 57.38 57.35 59.03
53.38 54.00 52.89 56.15 63.49 63.75 64.91 65.02 65.27 65.05 66.33 66.12 66.07 65.69 65.86 65.25 66.43 65.94 66.43 66.78 66.25 65.12 63.26 62.80 61.89 61.29 61.05 60.72 60.42 59.80 58.81 59.51 59.02 59.53 56.92 56.97 58.52 58.52 56.88 56.71 55.77 56.14 56.58
51.11 52.88 51.28 52.57 55.37 61.84 63.90 64.81 65.02 64.67 65.44 66.14 64.48 63.65 64.18 63.97 62.77 62.22 63.17 64.16 65.71 65.25 64.02 62.82 62.74 61.24 60.72 60.06 59.80 59.52 58.95 58.36 58.12 58.86 59.15 54.00 54.34 54.87 55.91 54.12 54.28 54.11 53.95
47.59 47.89 48.47 49.47 51.74 52.54 60.51 63.74 65.05 64.94 64.88 65.06 64.86 63.90 63.49 62.96 63.67 63.58 63.22 62.28 62.80 63.82 63.56 62.78 62.00 61.71 60.56 59.79 59.61 59.48 59.76 59.19 58.24 57.10 56.91 56.10 55.44 52.66 52.36 54.74 52.07 51.15 51.08
47.05 47.49 48.18 48.73 48.89 50.71 55.27 61.75 63.91 64.23 64.73 64.10 64.34 63.71 62.86 63.60 63.59 63.21 63.90 62.23 62.61 62.65 62.47 62.50 62.15 61.61 60.95 60.70 59.94 59.34 59.52 59.42 59.36 58.20 56.95 55.67 53.96 53.11 52.69 52.78 56.78 51.50 50.18
47.05 47.72 48.95 48.17 48.67 49.02 50.85 56.54 61.83 62.27 63.00 63.92 64.26 63.94 63.30 62.32 61.57 62.34 62.64 63.22 63.25 63.47 63.17 62.81 62.23 61.81 61.47 61.36 61.09 59.90 59.11 59.12 58.95 59.50 58.52 56.51 54.71 52.69 51.64 51.14 53.03 55.13 51.15
46.76 47.47 46.72 47.22 47.90 48.28 48.70 51.27 55.88 54.48 57.39 62.51 63.11 63.21 62.90 62.80 62.47 62.03 61.68 61.39 61.91 62.14 62.73 63.21 63.47 63.16 62.36 61.51 61.25 60.27 59.70 59.14 58.98 59.21 59.05 58.75 57.78 55.97 53.55 52.97 53.45 50.29 49.00
44.44 45.02 45.65 47.14 47.56 47.18 47.41 48.77 50.03 49.26 50.84 52.60 53.03 53.66 54.84 56.80 56.89 55.70 56.30 56.94 57.37 58.21 59.01 60.05 61.88 62.68 63.02 62.78 61.53 60.55 60.17 59.50 59.53 58.87 58.83 58.72 58.24 56.85 56.04 53.80 51.86 46.17 46.57
41.67 43.09 44.74 46.15 45.89 45.65 46.31 47.28 47.62 47.76 48.46 48.63 48.92 48.90 49.64 50.29 49.88 49.97 50.51 51.15 51.99 54.53 56.87 57.73 58.75 59.42 61.24 61.80 61.83 61.13 60.63 59.98 60.26 59.73 58.42 56.01 51.92 52.12 51.91 52.86 53.84 50.68 44.99
41.77 42.40 44.22 44.34 44.20 44.85 45.16 46.27 46.85 46.76 47.04 47.38 47.93 47.94 48.25 48.84 49.69 50.24 50.76 51.61 52.50 53.28 54.94 56.45 57.08 57.67 57.78 59.59 60.07 57.93 56.27 54.67 51.51 51.27 51.16 49.67 48.92 49.07 48.93 49.77 49.76 49.06 49.41
41.61 42.11 42.58 42.92 42.95 43.92 44.95 45.00 45.34 45.50 45.67 46.10 46.41 46.47 45.71 46.29 47.37 48.43 49.13 49.97 49.97 50.54 51.24 51.77 52.49 53.00 53.56 53.98 52.54 51.00 49.69 49.01 47.86 47.23 47.47 46.31 46.66 46.72 46.40 46.47 44.46 44.40 46.91
41.15 41.18 41.12 41.29 42.35 43.27 43.76 43.95 44.36 44.32 44.34 44.31 44.06 43.55 43.77 44.06 44.59 45.00 45.64 46.51 45.32 45.16 45.96 46.87 47.35 47.27 47.99 49.68 49.96 48.80 47.69 46.05 46.73 44.62 43.87 42.78 42.81 42.18 43.79 43.43 41.50 41.49 42.25
40.05 39.92 40.19 40.53 41.20 42.10 42.73 42.73 43.08 42.86 42.48 41.99 41.80 41.46 41.72 42.21 41.96 42.22 42.36 42.82 42.99 42.69 43.29 44.26 44.11 43.96 44.40 44.84 45.42 44.96 44.31 44.01 43.34 43.23 42.92 42.28 42.08 41.01 40.86 39.59 38.99 39.17 39.17
40.18 39.79 39.55 39.66 39.93 40.99 41.79 41.21 40.74 41.28 40.97 40.73 40.59 40.23 40.36 40.65 40.70 40.94 41.18 41.63 41.73 41.82 42.13 42.33 42.24 42.14 42.08 42.14 42.20 42.09 41.56 41.18 40.78 40.91 41.05 40.59 40.48 39.09 37.90 37.10 37.19 37.27 37.34
39.84 40.24 39.85 39.38 39.08 39.36 40.39 39.65 39.36 39.48 39.90 39.42 39.23 39.07 39.27 39.67 40.06 40.12 40.27 40.37 40.62 40.70 40.90 40.80 40.94 41.34 41.37 40.96 40.73 40.38 39.80 39.17 38.34 38.16 37.98 38.40 38.87 38.85 38.14 36.60 35.62 35.62 34.53
41.08 40.55 40.45 39.62 38.65 38.89 39.40 38.75 38.16 38.16 39.03 38.69 38.42 38.66 38.92 39.15 39.31 39.63 39.61 39.78 39.83 40.12 40.25 40.07 40.46 40.78 41.01 41.77 41.17 39.34 38.03 37.69 37.08 35.49 36.35 38.80 39.90 39.81 39.37 38.06 36.61 35.19 33.52
42.33 41.53 41.08 40.83 39.98 39.16 39.17 38.50 37.76 37.56 37.73 37.84 37.86 38.28 38.50 38.56 38.98 39.25 39.37 39.04 39.01 39.55 39.11 39.52 40.30 40.51 41.23 42.15 41.14 39.05 34.42 33.97 33.73 34.15 34.48 33.86 34.62 34.85 36.60 38.25 37.88 37.69 36.92
43.25 43.10 42.36 41.38 40.80 39.67 38.93 38.50 37.43 36.96 37.18 37.22 37.65 38.12 38.20 38.15 38.64 38.88 38.44 38.23 38.39 38.24 38.20 38.29 38.62 38.99 39.76 40.88 39.95 38.06 35.64 34.71 33.03 32.10 32.01 31.85 31.77 32.41 31.91 31.66 30.93 30.55 32.04
40.99 41.45 43.35 42.99 40.80 39.76 39.28 38.20 36.72 36.80 36.97 37.16 37.60 38.17 38.35 37.68 37.87 37.54 36.79 37.24 37.26 36.78 36.36 37.31 37.68 37.48 37.92 38.94 38.37 34.49 32.62 30.50 29.54 30.46 31.76 33.06 33.46 34.74 32.98 30.37 28.84 28.53 28.87
39.13 40.02 40.90 40.81 40.34 39.19 38.64 37.48 36.55 36.38 36.71 37.93 37.93 38.93 38.67 37.98 37.17 36.74 35.31 35.24 36.35 35.76 36.03 35.41 36.41 38.25 36.68 37.86 35.73 32.06 30.33 29.05 29.28 31.31 33.52 34.22 33.43 34.43 31.83 28.54 27.81 26.03 26.39
38.80 39.37 39.38 38.96 38.87 38.23 38.47 37.45 37.09 37.12 38.26 38.98 38.40 38.33 38.12 37.57 37.19 36.24 35.69 35.49 34.77 34.16 33.53 32.82 32.69 32.68 34.67 35.26 35.15 33.52 30.58 30.07 29.73 30.11 30.20 31.60 33.42 32.45 32.40 30.42 28.45 27.00 28.39
39.14 39.93 39.09 38.77 38.43 38.71 38.94 38.01 37.14 38.19 37.99 38.14 37.83 37.45 37.50 37.41 36.75 35.55 34.74 34.39 33.36 31.95 30.71 30.28 30.17 31.70 33.47 35.36 35.19 34.22 32.05 32.23 29.32 28.01 28.65 29.97 32.08 31.29 31.02 30.13 30.11 31.13 30.38
37.91 39.01 39.23 38.67 38.95 39.35 39.62 37.96 37.87 37.45 37.36 37.31 36.85 36.89 36.74 36.88 36.17 34.71 33.38 32.22 31.95 30.82 29.44 29.66 29.37 30.29 31.38 33.06 36.07 35.23 34.56 32.70 28.22 28.63 29.41 30.23 31.81 31.17 29.70 29.00 29.87 30.68 27.32
38.42 38.19 37.88 37.27 37.61 38.74 38.89 38.94 37.73 37.47 36.85 36.51 36.54 36.52 35.91 35.75 35.60 34.97 33.47 31.96 30.76 29.84 29.58 29.07 29.38 29.70 29.58 29.83 30.63 32.30 33.20 32.70 29.98 31.18 30.92 29.05 28.53 28.14 27.41 27.35 27.68 26.60 25.98
41.28 39.71 38.44 37.88 37.91 37.98 37.99 37.88 37.12 37.22 36.22 36.10 36.28 36.03 35.90 36.37 34.73 34.33 33.13 32.30 32.29 31.89 29.81 29.90 29.77 28.52 28.00 29.18 31.20 30.89 30.10 30.39 29.87 27.83 25.98 24.63 24.28 24.07 24.11 24.50 24.77 24.94 25.34
37.78 38.01 37.92 37.26 37.01 36.78 36.84 36.73 36.76 36.71 35.95 35.48 35.81 35.64 35.41 35.74 34.43 32.83 32.30 35.54 34.27 35.04 34.41 33.01 30.75 29.68 31.54 33.31 34.47 34.07 33.46 32.96 32.41 27.31 24.41 23.55 23.30 22.94 23.04 22.93 23.19 24.14 25.65

GFSMW_sfc_wetblb_096.txt.gz
Wetbulb
57.64 57.81 57.19 58.25 63.80 67.63 67.98 67.37 66.95 68.72 69.58 68.26 67.25 66.57 65.98 67.32 67.61 68.79 69.39 68.95 68.15 67.58 67.30 67.26 66.22 66.00 65.14 65.27 65.24 64.52 63.24 62.78 63.58 62.36 62.43 63.00 63.75 63.90 64.14 64.42 64.07 63.38 62.96
56.62 58.09 55.64 56.92 59.86 65.44 67.38 67.94 66.64 66.79 68.22 68.81 66.92 66.61 66.18 66.65 67.26 68.21 69.52 69.61 68.84 68.10 67.33 67.10 66.68 66.04 65.30 65.52 64.92 63.87 62.36 62.51 63.24 61.15 61.23 58.60 61.32 62.51 62.82 63.42 62.50 62.78 62.81
54.64 57.16 57.75 54.83 56.06 62.05 65.24 66.22 66.25 66.47 66.61 66.14 66.81 65.51 65.00 64.66 64.20 64.87 67.03 68.20 68.93 68.86 67.91 67.24 66.91 66.49 65.82 65.20 64.82 63.84 62.90 61.64 62.35 62.36 60.80 58.07 57.61 60.20 61.29 60.56 61.08 60.65 60.78
55.33 55.65 53.41 54.40 53.05 55.09 64.24 65.54 66.68 65.35 65.23 65.70 64.91 64.06 63.92 62.48 63.60 64.55 65.17 66.56 67.17 67.87 67.40 66.89 66.78 66.81 65.96 65.64 65.31 64.16 63.69 62.67 61.23 61.22 61.35 62.70 60.71 58.06 57.08 58.92 56.90 56.32 56.06
53.96 53.64 53.18 53.24 54.85 54.46 55.98 62.94 65.10 65.85 65.55 64.02 64.38 64.24 63.48 64.48 64.97 65.88 64.97 64.39 63.80 63.78 64.99 65.93 65.90 66.16 65.87 65.16 64.96 63.43 63.01 62.65 61.80 61.83 60.99 60.84 60.78 59.49 56.92 55.59 58.64 56.99 55.70
52.34 52.83 54.01 54.48 54.11 54.17 54.29 57.62 63.03 64.98 65.82 65.67 65.51 64.61 64.66 63.71 63.61 64.28 64.29 64.81 63.60 62.81 63.24 63.74 64.23 64.58 64.38 64.01 63.53 64.30 63.49 63.09 62.52 62.30 62.19 60.66 58.57 56.84 55.65 55.33 57.06 55.64 57.99
52.63 52.14 51.81 51.32 52.27 52.53 53.76 54.64 58.25 61.80 65.00 65.36 65.33 65.56 65.52 65.30 64.24 64.42 64.30 64.44 64.38 64.29 64.22 64.12 63.50 63.66 63.51 63.50 63.46 63.27 62.96 62.71 62.06 61.87 61.46 61.49 60.91 60.86 57.21 55.72 55.99 55.71 55.01
52.48 52.49 52.62 53.30 53.24 54.15 53.60 54.11 56.29 60.89 62.27 62.13 63.15 64.85 65.15 65.23 64.67 65.13 63.77 63.71 63.08 63.57 63.47 64.67 65.15 65.09 64.66 64.23 64.57 63.84 63.64 62.86 62.27 61.90 62.06 61.74 61.18 60.90 59.74 58.03 56.40 50.11 50.61
50.50 51.32 51.82 51.76 53.24 53.38 53.08 54.07 54.83 56.20 57.18 59.27 55.74 55.19 56.85 57.44 57.45 56.92 57.79 58.02 57.13 57.73 59.16 60.01 61.04 61.85 62.77 63.25 63.04 62.73 62.42 62.05 62.04 62.29 62.00 61.16 61.05 59.54 58.91 57.34 55.75 54.12 50.64
47.14 48.75 50.21 51.05 51.21 51.49 51.62 52.36 53.77 53.24 52.79 53.72 55.32 54.19 53.29 53.34 53.58 53.69 53.71 54.36 55.25 55.97 56.96 57.99 58.58 59.07 59.76 60.47 60.66 61.43 61.63 61.71 59.11 58.17 59.24 55.38 52.89 53.24 54.71 56.03 55.49 53.14 52.72
47.63 48.08 49.50 50.49 50.28 49.85 50.36 50.94 51.05 51.28 51.45 51.99 52.18 52.15 51.90 52.12 52.64 53.00 53.61 53.95 54.20 54.75 55.14 55.64 56.13 56.46 56.78 57.45 57.61 57.90 55.80 55.31 52.15 51.52 51.31 50.66 51.75 49.69 50.29 51.97 51.75 51.03 51.37
47.08 47.42 48.01 48.19 48.73 49.47 49.66 49.13 49.76 50.02 50.56 50.80 50.94 50.41 50.48 50.91 51.06 51.04 51.23 51.87 51.48 51.66 52.17 52.92 52.69 52.75 53.30 53.98 54.23 52.70 50.95 49.17 48.51 47.80 49.70 47.41 47.01 47.14 46.19 47.04 47.04 48.41 47.82
45.79 46.21 46.83 47.67 48.46 48.84 49.01 49.07 49.26 48.72 48.23 48.41 48.51 48.95 49.18 49.57 49.52 49.34 49.37 49.80 49.93 49.93 50.06 50.53 50.49 50.28 49.90 50.07 50.46 50.00 47.55 47.16 46.89 48.06 46.10 46.22 46.42 44.10 45.01 46.61 45.66 45.21 43.34
45.31 46.24 46.37 46.95 47.75 48.16 48.17 48.15 47.67 47.93 47.75 47.72 47.90 47.49 47.26 47.45 47.24 47.60 47.81 47.90 48.10 48.35 48.18 48.45 48.19 48.16 48.31 48.57 48.40 46.43 45.56 44.90 44.40 45.09 46.09 44.92 45.42 45.45 44.37 42.80 42.44 42.14 42.62
45.28 45.74 46.02 46.45 46.61 46.84 47.08 47.23 46.91 46.74 46.87 46.37 46.34 46.03 45.77 46.04 46.26 46.03 45.70 45.80 46.03 45.99 45.92 46.02 45.92 46.26 46.59 45.92 45.91 46.15 46.35 45.38 43.41 43.17 42.26 42.48 42.02 41.21 41.22 40.60 40.78 41.11 40.36
45.96 46.40 46.17 45.67 46.01 46.77 46.94 46.09 45.63 45.40 45.82 45.58 45.20 44.60 44.47 44.66 44.96 45.11 45.11 45.14 44.95 44.99 44.90 44.55 44.47 44.47 43.56 42.05 42.45 42.88 41.80 41.17 40.48 39.23 40.24 40.44 40.33 40.24 39.89 39.06 38.69 39.16 38.35
47.31 46.83 47.14 46.95 46.68 46.24 46.78 45.79 45.32 44.58 44.48 44.56 44.00 43.61 43.68 43.51 43.82 44.01 44.02 44.00 44.05 44.25 43.44 43.05 42.74 42.83 42.89 42.75 42.16 40.72 36.04 34.97 34.99 36.45 37.36 37.09 38.41 39.79 39.20 39.36 38.59 38.09 37.15
47.67 48.36 48.62 48.32 48.21 47.59 46.17 46.50 44.84 43.74 43.52 43.59 43.36 43.41 43.34 43.15 43.12 43.06 42.85 42.93 42.37 41.37 41.17 41.14 41.27 41.15 41.55 42.00 41.06 39.50 37.52 36.88 36.51 36.51 36.08 36.70 36.34 35.80 35.72 35.02 34.07 34.34 34.61
48.66 49.25 50.12 50.09 49.67 48.03 47.06 45.41 43.79 43.46 43.10 43.12 43.23 43.26 43.06 42.48 42.25 42.23 41.30 41.18 39.99 39.13 38.91 39.47 39.42 38.99 39.25 40.75 39.97 37.57 36.13 34.64 34.23 34.55 35.29 35.46 35.05 35.23 34.60 33.59 32.08 32.06 32.81
44.97 45.86 46.25 46.68 47.55 48.41 47.26 44.84 43.82 43.10 42.67 43.29 43.23 42.90 42.21 40.69 40.69 40.99 39.44 38.78 39.56 37.76 38.20 37.88 38.48 38.84 37.87 39.22 38.43 37.61 35.68 33.32 32.97 34.63 35.35 35.72 35.15 33.89 32.18 32.00 31.18 29.35 30.11
44.06 44.28 44.63 45.27 45.61 46.27 45.45 44.01 43.93 42.36 43.53 43.35 41.99 40.98 40.99 40.18 40.86 40.87 39.98 38.83 37.66 36.63 36.56 35.92 36.17 36.69 37.52 36.94 36.67 35.00 34.03 32.98 32.85 33.07 33.25 34.26 34.58 34.06 32.89 31.38 31.13 29.77 30.64
43.40 43.67 43.96 43.39 42.89 43.26 43.60 43.28 42.14 42.82 42.58 41.79 40.63 39.69 40.33 40.46 39.64 39.87 38.99 37.45 35.95 35.19 34.04 32.99 32.36 33.37 34.73 36.56 35.91 34.79 33.76 34.42 32.62 31.96 33.05 34.02 33.37 32.36 32.27 32.11 30.88 32.11 31.56
42.64 42.94 43.75 42.67 42.48 42.72 43.43 42.12 41.58 41.64 40.16 39.41 38.32 38.54 38.85 38.47 38.16 37.81 37.06 34.22 33.86 33.28 32.07 31.37 30.64 30.82 32.86 35.32 35.99 35.40 34.88 33.97 31.89 32.01 31.94 32.47 32.56 31.74 31.24 30.01 30.65 32.46 31.29
42.46 41.49 40.38 40.32 40.23 40.42 40.29 41.18 39.29 38.69 38.01 37.61 37.71 37.94 37.64 37.43 37.10 37.84 37.55 35.37 32.92 32.24 31.65 30.59 29.89 30.54 32.06 34.20 35.62 34.78 35.00 33.29 31.21 31.68 32.60 32.31 31.92 31.33 30.36 29.66 31.10 30.37 30.25
44.51 43.90 41.08 39.14 39.16 39.91 40.02 40.01 39.01 38.64 37.65 37.96 38.39 38.12 38.86 37.91 35.81 35.89 36.18 35.91 34.64 33.98 31.95 31.42 30.96 30.61 31.84 33.63 35.48 34.63 33.22 32.78 31.77 31.76 30.40 29.12 28.94 28.69 28.39 28.21 28.37 28.57 28.40
42.02 42.13 42.07 40.55 39.71 39.15 38.93 38.80 38.59 38.33 37.95 37.30 38.50 38.73 37.56 37.11 35.44 34.78 34.83 36.71 35.85 36.49 36.30 35.11 33.30 33.30 34.74 34.95 35.38 35.18 34.57 34.10 33.36 29.37 28.43 28.19 28.00 27.33 27.50 27.06 27.14 27.58 27.69

GFSMW_sfc_wetblb_099.txt.gz
Wetbulb
57.52 59.61 60.25 61.65 62.98 66.45 66.97 67.27 68.36 69.22 68.54 67.97 67.23 68.03 67.12 67.72 67.30 69.06 69.15 68.77 68.26 67.58 67.30 67.47 66.03 65.90 65.14 65.43 65.62 64.74 63.57 63.04 63.77 62.24 62.19 62.74 63.65 63.73 64.00 64.60 64.46 64.39 64.04
56.13 57.91 58.61 59.96 61.16 62.09 66.71 66.98 67.73 67.99 68.63 68.40 68.13 67.48 67.83 67.87 67.33 67.29 69.00 69.33 68.84 68.25 67.37 67.25 67.10 66.01 65.48 65.25 65.29 64.89 63.35 63.05 63.52 60.99 61.65 58.90 61.36 62.81 63.41 64.13 63.68 63.61 63.89
55.42 56.70 57.99 58.87 59.19 59.76 64.32 66.36 66.96 67.35 67.92 67.96 67.68 66.63 66.10 64.94 64.65 65.07 66.26 68.49 68.79 68.67 68.07 67.69 67.46 67.18 66.52 65.50 65.82 65.07 63.61 61.69 62.83 62.77 61.32 58.65 56.92 60.41 62.04 62.25 62.64 62.15 62.49
56.06 56.55 57.68 58.15 58.23 58.56 61.73 65.71 65.92 65.59 65.00 66.77 65.79 64.72 64.21 63.24 64.81 65.28 66.31 67.28 67.76 67.80 68.20 67.94 67.22 67.34 66.74 65.79 66.26 65.66 64.44 63.54 62.17 62.78 62.03 62.39 61.86 58.40 58.08 60.40 60.43 60.18 59.07
55.67 55.78 56.98 58.09 58.11 58.14 59.24 61.76 65.13 65.42 64.78 64.33 62.85 62.44 62.82 63.91 65.12 64.25 64.30 65.53 65.66 65.76 66.42 66.59 66.62 66.54 66.77 66.16 65.88 66.12 64.79 64.49 62.99 62.56 61.88 60.97 60.84 60.79 58.14 56.63 57.35 56.07 56.16
55.13 56.05 58.21 58.17 56.65 56.32 56.30 57.47 62.83 62.65 63.28 62.11 62.43 61.07 60.22 60.73 60.43 60.99 61.99 63.71 63.17 62.76 63.63 64.55 65.29 65.51 65.85 64.60 64.38 63.71 64.16 62.78 62.49 62.15 62.84 61.65 60.25 59.26 58.16 56.38 57.28 57.96 56.44
53.97 55.11 55.87 55.13 56.13 55.91 57.33 53.20 56.45 60.93 63.09 62.66 61.27 60.51 59.50 59.80 59.87 60.06 60.36 60.99 62.60 62.51 62.28 63.13 62.82 63.05 63.67 64.15 64.07 63.53 63.85 64.00 63.19 62.79 61.93 62.61 61.94 61.25 58.51 57.15 56.25 55.45 56.12
53.41 54.07 54.85 56.27 53.79 53.75 54.62 55.33 55.31 56.40 62.56 63.64 63.69 63.49 64.01 62.44 61.68 61.44 61.73 61.90 62.17 62.76 64.24 64.01 63.77 63.61 63.61 63.46 63.35 63.05 63.09 62.65 62.43 62.24 61.78 61.79 61.88 61.51 59.14 57.60 56.94 52.46 53.21
53.16 53.75 54.66 54.72 54.81 54.90 55.26 55.66 54.56 56.52 60.89 63.26 60.35 62.81 64.28 63.74 62.99 60.07 60.84 61.75 61.80 60.94 62.96 63.40 64.57 64.67 64.61 64.40 63.36 62.85 62.07 62.51 62.29 62.07 62.28 61.68 60.82 60.34 60.36 59.28 57.65 55.16 50.39
51.93 53.38 54.32 54.65 54.64 54.81 55.54 53.93 55.80 56.46 57.75 60.16 59.45 57.71 56.31 56.65 57.10 56.64 56.03 55.49 55.79 56.54 57.52 58.36 59.44 59.93 60.47 61.03 61.69 61.32 61.85 61.59 61.27 60.22 59.99 58.27 56.59 56.65 56.80 56.80 56.93 55.18 54.24
49.43 50.56 52.77 53.96 53.83 53.34 52.48 53.45 54.73 53.71 53.19 55.47 55.00 55.71 54.78 54.77 54.34 53.99 54.30 54.58 54.75 55.18 55.63 55.97 56.49 56.76 57.00 57.70 57.53 57.74 58.33 58.58 57.05 53.65 56.36 53.34 52.42 52.37 52.08 53.70 53.38 52.18 51.38
49.77 50.40 51.25 52.23 51.46 50.89 52.03 51.85 52.41 52.76 53.36 53.45 53.08 51.93 52.69 53.02 52.91 52.63 52.62 52.97 52.41 52.83 53.06 53.63 53.71 53.90 54.11 54.48 55.03 54.53 52.40 52.08 51.20 50.30 51.10 48.22 48.33 49.77 49.26 48.60 48.84 48.85 48.83
48.05 48.95 49.60 49.78 50.60 51.01 50.98 50.62 51.00 50.98 51.10 51.61 51.59 51.40 51.42 51.69 51.43 51.34 51.44 51.62 51.39 51.07 51.04 51.51 51.65 51.72 51.57 51.71 52.24 51.64 50.17 49.69 48.48 48.19 47.36 47.12 46.61 46.53 46.55 47.81 46.73 46.73 45.75
47.20 48.13 48.61 49.52 50.25 50.60 50.66 50.49 49.97 49.89 49.51 49.87 49.96 49.93 50.25 50.47 50.44 50.13 49.98 49.86 50.32 50.20 49.97 50.08 49.74 49.67 49.84 50.08 50.03 48.67 47.89 46.65 45.69 45.97 46.29 46.22 46.83 46.06 45.15 44.71 44.54 44.33 43.95
46.86 47.53 47.85 48.71 49.28 49.34 49.62 49.84 49.45 49.41 49.26 48.70 48.68 48.16 48.26 48.54 48.32 48.00 48.02 48.05 48.20 48.03 47.89 47.75 47.60 47.86 47.84 46.96 48.22 48.62 47.07 44.98 44.00 43.70 43.20 43.22 42.49 44.48 44.64 43.40 42.12 42.70 41.73
47.25 47.83 47.89 48.09 48.34 48.79 48.75 48.58 48.17 48.09 48.66 48.06 47.68 47.27 47.19 47.09 47.06 46.98 46.95 47.04 46.74 46.62 46.63 46.19 45.91 45.92 44.98 42.57 43.22 45.10 44.34 42.99 41.75 40.20 40.14 40.46 41.06 41.16 41.49 41.34 41.38 41.83 40.11
48.03 48.07 48.32 48.40 48.49 48.91 49.23 47.80 47.62 47.41 47.34 47.33 46.77 46.39 46.38 46.00 46.08 46.06 45.90 45.74 45.72 45.85 45.31 44.92 44.68 44.47 44.09 42.90 42.67 41.83 36.83 35.14 35.20 37.23 38.40 38.49 39.53 39.35 38.78 39.56 39.19 38.64 38.69
49.03 49.46 49.92 49.75 49.68 49.46 48.84 49.01 47.67 46.25 46.24 46.19 45.77 45.88 45.72 45.51 45.39 45.20 44.94 44.90 44.47 44.02 43.65 43.06 42.74 42.61 42.27 42.48 41.54 40.40 38.65 38.08 37.56 37.05 36.50 36.92 37.17 38.04 36.84 34.67 34.06 33.66 33.81
50.33 50.84 51.60 51.47 51.07 49.85 49.15 48.28 46.58 46.11 45.67 45.50 45.41 45.52 45.42 44.74 44.56 44.19 43.73 43.47 42.50 41.48 40.44 40.60 40.56 40.16 40.46 41.28 40.83 38.08 36.03 34.45 33.72 34.22 35.61 35.89 35.45 36.28 36.51 33.67 31.80 31.77 31.98
47.14 47.48 47.97 48.29 49.44 50.69 49.87 47.57 46.43 45.71 44.99 45.65 45.74 45.73 44.85 44.39 43.39 43.74 41.73 40.15 40.61 39.01 39.38 38.54 38.95 39.28 38.71 40.84 39.61 37.24 34.26 32.56 32.48 34.43 34.76 36.66 35.48 35.58 34.62 31.72 30.47 28.91 29.23
46.29 47.14 47.20 47.11 47.34 48.49 49.09 47.07 47.07 45.68 46.31 45.98 45.36 43.86 43.14 43.07 42.91 42.62 41.46 40.62 39.76 38.50 37.96 37.64 38.00 37.75 37.91 38.24 39.24 38.19 34.84 33.99 33.13 33.17 33.07 33.97 35.75 34.10 32.64 32.52 29.44 29.02 29.86
45.65 45.95 46.15 45.31 45.11 45.48 45.92 45.61 45.48 45.88 45.12 44.34 43.30 42.49 42.30 41.80 41.74 41.54 40.54 39.89 38.84 37.86 36.68 35.54 33.93 34.44 36.37 37.85 37.89 36.36 35.55 35.90 32.53 31.42 32.27 33.40 34.55 33.84 33.70 31.41 32.25 31.99 32.10
44.99 45.20 45.20 44.51 44.44 44.65 44.82 44.03 44.22 44.09 43.30 42.63 41.91 41.62 41.16 40.41 39.49 39.14 38.43 37.14 37.28 35.81 33.48 32.56 32.08 31.62 32.36 34.19 36.83 36.28 35.29 35.72 31.99 31.69 33.17 35.09 33.94 32.86 32.12 31.15 32.05 33.10 29.60
45.00 44.61 43.67 42.32 42.41 42.94 42.17 42.22 41.76 42.34 41.26 39.38 39.49 39.09 38.15 38.11 38.14 38.14 37.92 36.34 35.36 34.25 32.94 31.64 30.84 30.51 31.10 32.08 33.35 33.52 34.08 34.30 31.34 32.33 31.35 32.28 32.41 32.34 31.27 29.11 29.53 29.04 28.81
45.42 45.48 44.61 42.85 40.69 41.15 41.35 42.05 41.55 40.69 38.77 38.32 38.31 38.31 38.52 38.99 37.50 37.24 36.96 36.55 37.51 36.64 33.85 32.45 31.74 30.47 29.93 31.88 35.14 34.65 33.03 31.81 31.15 31.48 30.27 28.83 28.04 27.57 27.18 27.17 27.49 27.45 27.02
43.48 43.16 43.51 43.21 41.85 40.56 39.90 39.91 39.63 39.26 38.69 37.98 38.44 38.71 38.86 39.38 38.17 36.46 35.01 38.33 38.01 37.44 37.73 36.53 33.95 32.70 35.04 36.19 36.97 36.97 36.29 34.83 33.84 29.74 27.53 26.86 26.69 25.98 26.18 25.73 25.76 26.14 27.37

GFSMW_sfc_wetblb_102.txt.gz
Wetbulb
55.50 57.45 57.26 58.69 59.17 61.91 64.69 65.53 67.00 67.39 67.48 66.58 65.79 65.97 66.16 66.54 66.53 67.88 68.31 66.47 64.73 64.16 63.58 63.46 61.67 61.94 61.53 61.79 61.81 60.98 59.62 59.04 59.34 57.90 57.19 57.46 58.95 59.75 59.98 60.48 60.19 60.15 60.57
52.72 56.32 56.37 57.44 59.77 62.31 62.60 65.32 66.69 66.84 66.83 65.80 66.61 66.80 66.33 66.28 66.14 66.75 67.18 67.81 66.66 65.64 64.74 64.50 63.70 62.21 61.93 61.70 61.89 61.12 59.45 59.13 59.44 56.87 56.45 54.56 56.64 58.37 59.44 59.61 59.96 59.44 59.50
50.58 54.92 54.57 54.94 55.79 58.88 62.35 63.40 65.74 65.77 66.42 66.30 66.12 65.51 64.91 65.09 64.52 64.93 65.47 66.25 67.29 66.84 65.44 64.75 64.69 63.67 62.77 62.07 62.15 61.64 60.54 58.49 59.18 59.21 57.31 53.50 52.82 55.71 58.19 58.52 59.10 58.34 57.95
51.06 51.74 54.02 53.72 54.25 56.72 62.19 62.99 64.13 64.69 65.36 65.25 65.30 64.02 62.86 62.38 63.09 63.42 64.60 65.23 66.31 66.20 66.40 65.61 65.11 64.61 64.29 63.19 63.05 63.23 61.33 60.52 58.95 58.96 59.90 58.21 57.51 54.19 53.47 56.47 56.93 55.11 54.70
52.34 51.38 53.49 55.08 54.04 55.43 58.68 61.56 63.41 63.39 63.48 63.47 63.59 62.41 61.00 61.72 62.06 62.49 63.07 64.15 63.97 64.10 64.52 65.08 64.86 64.49 64.44 64.03 63.43 62.90 62.46 61.53 60.51 59.77 58.64 58.66 58.88 58.73 55.79 53.00 53.71 53.26 52.56
49.57 52.45 53.84 53.89 52.84 52.82 54.65 59.41 61.55 61.41 62.24 61.22 61.53 60.88 60.30 59.95 59.82 59.34 60.40 61.60 62.15 61.94 62.62 63.65 63.96 63.83 63.93 63.85 63.64 62.73 62.55 62.15 61.68 61.26 60.81 59.52 57.66 56.76 55.92 53.55 53.87 54.04 52.51
48.59 50.26 52.26 51.43 51.93 50.69 50.97 54.28 59.61 59.92 60.12 59.69 60.11 59.67 59.88 60.02 59.24 59.07 58.74 59.24 61.01 61.52 61.61 62.12 62.10 62.44 62.98 63.45 63.06 62.29 61.76 61.66 61.27 60.98 60.96 61.37 60.33 59.50 57.39 54.76 53.54 53.40 50.37
47.58 50.19 51.65 51.34 51.96 52.72 50.99 50.57 51.85 54.64 60.04 58.62 59.07 59.35 59.26 58.96 58.90 59.01 58.86 59.03 60.38 61.59 62.71 62.57 62.50 62.33 62.34 62.39 62.45 62.22 61.95 62.12 61.07 60.89 60.93 60.96 61.15 60.34 58.21 56.34 55.13 51.35 52.08
47.48 49.29 50.52 51.98 49.99 51.50 52.51 52.38 52.79 52.92 55.64 60.13 59.83 60.17 59.50 59.26 59.42 59.52 59.42 59.66 59.27 60.54 61.90 62.03 62.35 62.48 62.58 62.85 62.53 61.54 61.04 61.10 61.49 61.23 61.06 60.82 60.60 60.07 59.36 57.69 57.04 54.66 47.73
47.25 48.79 49.64 50.04 50.32 50.56 52.19 52.73 51.92 51.52 54.73 59.41 58.69 58.12 56.73 58.21 57.61 57.09 55.33 55.61 55.57 56.71 58.84 59.47 59.98 60.07 60.13 59.94 60.53 60.40 60.51 60.34 60.18 59.78 59.72 59.25 57.85 58.30 57.48 56.53 55.67 54.99 52.62
45.10 48.45 49.33 49.84 49.82 49.10 49.08 49.58 50.54 51.20 52.54 55.22 55.31 53.65 54.13 53.86 53.43 53.65 53.94 54.01 54.27 54.74 55.34 55.46 56.15 55.67 55.86 55.51 54.88 54.43 54.11 54.44 54.57 55.47 56.18 56.51 55.03 53.91 53.42 53.69 53.51 52.45 51.76
45.10 45.86 46.86 47.75 47.23 47.14 47.67 48.33 49.01 49.16 50.31 51.03 51.44 50.28 50.50 50.99 50.65 50.72 51.37 51.62 50.09 50.87 51.35 52.03 51.94 51.88 51.96 52.10 52.32 52.12 51.17 50.64 51.59 51.94 51.73 50.95 50.21 49.56 49.56 49.32 49.12 48.51 48.98
45.46 46.02 46.36 46.06 45.51 46.19 46.82 47.20 47.83 47.94 48.48 48.92 48.23 48.57 48.24 48.30 47.88 48.52 48.71 49.08 48.75 48.25 49.06 49.96 49.73 49.82 49.72 49.62 49.66 49.60 49.01 49.43 49.09 48.99 48.94 48.08 48.24 47.03 46.92 46.98 46.47 46.38 46.46
44.63 44.38 44.17 44.82 45.34 45.93 46.03 45.98 45.94 46.18 46.37 46.57 46.50 47.00 47.18 46.20 46.26 46.39 46.82 46.74 47.67 47.22 47.05 47.05 47.27 47.27 47.61 47.86 47.82 47.04 47.02 46.50 46.04 46.43 46.89 46.67 46.80 46.17 45.91 45.50 45.07 44.01 42.12
43.52 44.15 44.19 44.27 44.77 44.88 45.12 45.18 45.00 44.92 45.49 45.74 45.27 44.90 44.84 44.75 44.67 45.14 45.15 45.01 44.40 44.59 45.45 44.76 44.71 44.85 44.86 44.04 43.50 45.60 44.33 43.24 42.92 43.11 42.86 42.39 44.06 46.07 45.21 43.01 40.75 41.94 40.93
44.35 44.61 45.06 45.44 44.24 43.58 44.04 44.87 44.25 44.45 44.99 44.54 43.94 44.49 44.32 44.30 44.46 43.72 44.02 43.46 43.17 43.05 43.25 42.86 42.97 42.66 43.32 43.74 43.90 43.87 41.07 41.23 41.36 39.73 39.59 40.86 41.82 42.82 43.73 43.93 43.78 41.70 36.73
44.68 44.93 44.13 44.08 44.31 44.65 44.67 43.31 43.36 43.98 43.83 43.61 43.51 43.78 43.72 43.70 43.55 43.36 43.14 42.72 42.06 42.17 41.70 41.62 41.89 41.04 40.75 43.23 43.13 42.57 36.70 34.99 35.17 37.15 38.23 38.56 39.81 39.35 38.84 40.84 41.03 40.82 40.96
45.81 45.82 45.17 44.70 44.64 44.83 44.49 43.87 43.23 42.73 43.11 42.70 42.75 43.13 43.10 42.74 42.58 42.28 41.72 40.97 40.49 39.91 39.69 39.17 39.27 39.91 40.66 43.12 42.27 41.21 38.20 37.89 37.62 37.23 36.94 36.95 37.05 37.19 35.42 33.98 32.25 30.16 31.53
45.56 45.50 46.23 46.15 44.96 44.28 44.52 43.45 42.07 41.95 42.39 42.22 42.05 42.58 42.75 41.96 41.79 40.93 39.74 39.35 38.51 37.21 37.61 38.84 38.40 36.99 40.09 41.87 41.55 38.29 36.02 34.69 34.17 35.32 36.27 35.65 35.29 38.79 37.29 31.50 29.40 28.65 30.12
43.85 43.62 44.20 44.71 45.32 44.93 44.39 42.99 41.60 41.11 41.07 42.37 42.45 42.52 42.22 41.42 40.34 39.90 37.85 38.94 39.74 38.63 38.50 37.84 35.39 38.47 36.86 41.52 40.31 37.03 34.17 32.13 32.09 33.09 34.91 37.29 34.91 37.42 36.90 29.24 28.08 27.60 27.82
43.49 44.27 43.69 42.46 42.39 43.33 44.42 42.83 42.16 40.91 42.37 42.96 42.13 41.18 40.76 40.06 39.78 38.86 37.79 37.28 38.94 38.16 37.33 36.21 34.73 34.49 36.17 39.08 40.44 38.72 34.17 32.69 31.93 32.05 31.91 32.53 36.75 35.55 34.00 32.69 27.00 27.22 28.60
43.18 44.00 42.38 41.73 41.81 42.42 42.45 42.08 40.82 41.60 41.73 41.24 40.46 39.70 39.17 40.09 39.58 37.81 37.43 39.26 38.15 36.90 36.20 35.64 34.18 34.40 35.91 38.66 39.87 38.73 37.29 36.18 31.79 30.29 30.30 31.59 36.01 34.72 33.47 30.62 33.35 33.84 31.45
41.77 42.28 41.17 40.83 40.76 41.27 41.35 40.76 40.33 40.98 40.32 39.76 38.83 38.48 39.09 39.44 39.42 38.95 37.67 37.56 37.24 36.17 34.77 33.59 32.62 32.08 32.65 34.55 38.60 38.03 36.44 36.77 31.04 29.97 32.01 35.32 34.89 34.07 33.25 32.69 33.66 33.26 27.50
41.96 41.84 40.48 38.54 38.43 39.15 39.31 38.42 39.02 40.08 39.07 37.79 37.49 38.81 38.39 37.90 37.97 38.31 37.89 36.56 35.59 34.74 33.62 32.51 31.87 31.33 31.22 31.32 32.66 33.60 33.57 35.66 32.03 33.55 31.53 33.21 32.12 31.94 30.18 29.32 29.54 28.64 27.52
42.07 42.66 41.49 39.69 37.76 38.06 40.39 40.00 39.54 39.15 38.25 38.30 38.23 38.15 38.24 38.69 37.25 37.18 37.12 36.86 36.71 36.04 33.81 33.23 32.65 31.07 30.45 31.50 34.05 33.59 31.69 30.31 30.29 29.42 28.37 27.78 26.95 26.88 26.11 25.68 26.14 26.36 25.50
40.27 39.87 39.80 39.03 38.22 37.97 39.46 39.29 39.66 39.21 38.54 37.91 38.12 38.21 38.14 38.01 37.67 36.24 35.57 38.41 38.85 39.19 39.27 37.96 34.62 33.10 35.74 36.29 36.96 37.16 36.65 35.70 34.25 28.56 26.74 26.32 26.21 25.47 25.43 24.91 24.15 24.11 26.09

GFSMW_sfc_wetblb_105.txt.gz
Wetbulb
53.48 59.03 59.50 60.70 61.99 64.01 64.32 65.62 66.28 67.27 67.43 66.72 66.51 66.23 65.52 65.42 66.30 67.41 67.04 65.13 63.48 62.69 62.05 61.28 60.59 60.76 60.60 60.30 60.17 59.60 58.66 58.09 57.99 56.74 56.22 56.26 56.43 57.17 57.31 58.53 59.04 59.36 59.62
51.93 54.18 55.94 56.73 59.30 61.16 62.75 65.32 66.42 66.79 66.82 66.69 65.61 65.44 65.56 65.08 65.55 66.65 67.05 67.01 65.07 63.42 62.80 62.86 60.76 60.93 60.86 61.08 61.09 60.45 58.71 58.87 58.80 56.69 55.82 54.29 55.97 57.24 58.19 58.46 59.06 58.82 58.75
50.84 52.04 53.86 55.66 58.01 59.75 60.66 64.32 65.70 66.38 66.72 65.34 65.81 65.25 65.02 64.94 63.68 63.83 65.18 66.17 66.93 66.24 65.43 64.24 63.28 61.01 61.32 60.78 60.72 60.52 59.62 57.62 58.37 58.39 56.49 52.31 52.35 54.71 56.74 57.20 57.82 58.07 57.25
50.51 53.98 53.21 53.19 55.65 59.14 61.32 63.52 64.87 65.01 65.32 65.65 64.87 64.25 63.10 62.43 63.52 63.05 64.18 65.17 65.98 66.36 66.45 65.39 64.61 63.89 62.54 61.95 61.67 61.92 60.67 59.10 57.63 58.13 58.95 58.00 57.15 53.94 53.26 55.68 54.98 54.73 54.75
49.00 52.22 52.80 53.86 55.54 59.21 60.32 61.62 62.46 63.45 63.53 63.76 64.62 63.28 60.88 61.69 62.76 63.52 63.56 63.54 63.83 64.09 64.65 65.31 65.20 64.44 63.91 63.30 63.05 62.65 61.83 61.17 59.96 58.99 57.97 56.64 56.64 56.32 54.98 52.59 53.36 52.02 50.20
48.61 52.87 52.24 53.29 53.56 55.53 58.96 60.98 61.16 60.76 62.21 62.35 61.08 60.90 60.31 60.33 60.52 60.53 60.37 61.19 61.98 62.28 62.62 63.45 63.12 63.80 63.96 63.82 63.27 63.00 62.61 62.02 61.47 60.78 59.91 58.51 56.83 55.17 54.57 53.98 54.20 52.10 52.41
47.05 49.88 50.37 51.67 51.63 52.71 57.54 60.29 60.66 59.34 59.09 59.76 59.38 58.96 58.79 59.11 58.82 59.02 59.20 59.62 60.41 61.15 61.48 62.14 61.98 62.12 62.16 62.39 62.52 61.93 61.22 61.53 60.84 60.77 60.76 61.12 60.46 59.38 57.37 55.41 54.55 54.75 51.95
45.33 49.55 50.62 50.18 50.34 50.64 53.76 58.18 59.16 58.59 58.09 57.58 57.33 57.88 58.13 57.67 57.71 58.05 58.01 58.49 58.98 60.60 61.95 61.96 61.98 62.33 62.25 61.77 61.88 61.57 61.29 60.91 60.76 60.51 61.11 61.10 60.46 59.65 58.24 56.87 55.67 51.96 51.87
44.73 47.88 50.20 50.52 50.66 49.57 50.02 53.55 56.68 58.51 58.37 57.72 56.67 56.31 56.65 57.07 57.09 57.93 57.51 58.45 58.89 60.04 60.93 61.10 60.84 62.00 61.67 61.59 61.49 61.30 61.13 61.23 61.11 61.16 60.76 60.11 59.32 59.04 59.36 57.82 57.01 56.02 51.27
44.31 47.01 50.53 50.18 50.93 51.14 50.25 50.45 50.96 55.61 58.25 57.85 58.47 57.66 57.78 57.25 58.01 57.60 57.98 57.86 58.38 58.89 60.23 60.55 60.30 60.75 61.20 61.15 60.56 60.25 60.69 60.60 59.75 59.36 58.73 58.15 58.03 58.70 58.53 58.25 57.88 55.90 55.32
44.53 46.39 48.73 50.32 49.72 50.53 50.46 50.05 50.18 52.05 55.15 57.08 55.07 53.59 55.08 55.14 55.15 55.10 54.27 54.49 54.78 55.67 57.21 58.38 57.95 57.33 56.31 55.36 55.22 55.51 54.72 54.84 54.34 54.87 55.41 55.94 55.86 56.07 54.96 54.72 53.73 53.85 53.18
42.65 44.97 45.59 46.23 46.81 46.71 47.46 47.96 49.09 50.78 51.05 52.35 52.15 52.61 51.85 51.61 52.11 51.77 52.17 53.22 52.88 53.15 53.00 52.72 52.54 52.02 52.49 52.39 52.34 52.08 51.42 50.71 50.36 50.63 50.78 52.07 51.05 52.39 51.76 51.95 51.82 51.51 50.17
42.87 43.19 44.60 44.84 45.22 45.55 46.44 47.03 47.41 47.86 47.97 47.98 47.81 47.99 48.87 48.68 48.91 49.10 49.27 49.49 49.05 48.76 49.33 49.94 49.73 49.73 49.19 48.89 48.99 49.14 48.87 48.49 48.21 48.39 48.70 49.79 49.52 49.29 48.58 48.92 48.49 48.24 47.57
42.62 42.37 42.61 43.25 44.32 44.77 45.25 45.27 45.49 46.08 45.98 46.21 45.92 45.70 45.70 45.82 46.19 46.97 47.23 47.59 47.31 46.57 46.54 46.81 46.82 46.82 46.78 46.86 46.76 46.26 45.69 45.63 45.97 46.63 47.45 47.74 47.60 47.64 47.01 46.63 46.75 45.98 45.91
42.63 42.59 42.35 42.82 43.32 43.76 43.99 43.97 43.86 44.22 44.58 44.56 44.32 43.74 43.92 44.37 44.28 44.54 44.73 44.93 45.10 44.88 44.46 44.32 44.16 44.42 43.82 43.67 43.02 44.52 43.62 42.94 43.75 43.60 43.10 42.87 44.48 46.78 47.15 45.61 44.64 44.02 42.83
43.25 43.87 44.21 44.42 43.61 43.54 43.59 43.86 43.28 43.62 44.17 43.45 42.90 43.15 43.05 43.08 42.80 42.67 42.62 43.03 43.05 42.75 43.03 42.40 42.16 41.58 42.62 44.12 44.23 43.39 41.29 40.62 39.84 38.42 38.64 41.13 42.75 44.18 45.09 45.01 44.81 43.61 40.29
43.27 43.40 43.48 43.56 43.51 43.59 43.59 42.62 42.62 43.03 42.98 42.51 42.45 42.67 42.72 42.53 42.14 42.30 42.26 41.98 41.27 41.35 40.48 41.03 40.76 39.93 39.74 43.65 43.47 41.78 36.95 34.82 35.20 37.43 38.73 39.03 40.65 40.46 40.51 42.69 42.63 42.67 42.58
43.88 43.80 43.41 43.40 43.86 43.54 43.36 42.75 42.55 42.26 42.23 41.73 41.94 42.15 42.18 41.81 41.69 41.41 40.94 40.21 39.43 39.04 38.70 38.48 38.50 38.30 39.94 43.27 42.62 41.43 37.78 38.22 38.64 38.55 38.13 37.66 37.10 37.07 36.24 33.65 32.39 32.42 33.27
43.24 44.03 44.29 44.02 43.26 43.39 42.75 42.01 41.27 41.46 41.49 41.10 41.16 41.62 41.92 41.06 40.74 39.79 38.50 38.12 37.67 36.59 36.23 37.13 37.27 36.22 39.35 42.33 41.75 38.83 35.81 35.78 35.41 36.45 36.88 36.95 36.97 39.08 37.60 32.35 30.60 30.55 31.53
43.04 42.99 43.27 43.61 42.99 42.40 42.42 41.02 40.09 40.18 40.55 41.19 41.22 41.46 41.26 40.60 39.50 38.88 37.41 36.73 36.60 36.99 38.64 38.26 34.62 37.50 37.14 41.86 41.54 37.90 34.62 33.25 33.35 33.85 36.28 37.97 36.41 39.18 37.42 31.05 29.73 28.35 28.54
43.06 43.00 42.59 41.57 41.51 42.27 42.19 40.87 40.13 39.49 41.05 41.96 41.45 40.69 40.17 39.67 39.00 37.95 36.97 37.34 37.59 38.63 37.77 36.76 36.10 36.23 35.74 39.41 40.99 39.54 33.91 33.46 32.32 32.23 32.43 34.21 37.99 38.24 37.30 34.00 28.83 27.80 28.53
43.05 43.16 41.51 40.94 41.33 41.92 42.12 41.16 39.55 40.57 41.07 40.59 40.17 39.30 38.58 39.63 38.81 36.87 35.70 36.22 38.53 37.25 36.71 36.00 35.44 35.47 36.19 39.24 40.65 40.83 38.21 36.50 32.50 31.69 31.93 32.83 37.39 35.82 34.60 31.66 32.88 34.21 32.46
41.20 41.39 40.64 40.02 40.01 40.25 40.73 40.04 39.41 39.92 39.65 38.88 37.95 37.54 37.79 37.85 38.08 38.05 38.46 37.25 37.55 37.03 35.90 34.87 33.86 33.39 33.86 35.37 40.09 40.54 39.33 37.66 32.11 31.56 32.91 35.68 36.78 35.69 32.84 33.09 33.91 34.37 26.74
41.49 41.18 39.38 37.82 37.51 38.36 38.70 38.29 39.15 39.37 38.41 37.13 37.73 38.75 38.41 38.48 38.64 39.02 38.63 37.82 36.83 36.03 34.92 33.56 33.06 32.75 32.40 32.02 34.16 36.22 35.85 36.59 34.41 34.14 33.44 34.91 33.83 32.40 30.53 30.00 30.71 28.78 27.59
40.92 41.44 40.21 38.54 37.24 37.12 38.48 40.11 39.84 39.85 38.82 38.13 37.84 38.74 38.59 38.97 37.64 37.65 37.63 37.25 37.31 36.37 34.55 34.20 33.75 32.46 32.09 32.75 34.23 34.40 32.44 31.57 31.04 30.17 29.62 29.76 28.16 26.97 26.36 26.10 26.18 26.93 27.90
39.01 38.53 38.36 37.46 36.95 36.76 36.92 37.39 39.63 39.30 38.67 38.03 38.20 38.35 38.08 37.94 37.85 36.63 36.31 38.93 39.21 39.50 39.81 38.84 35.85 33.90 36.96 37.55 37.64 37.28 36.84 36.32 35.21 29.12 27.22 27.64 27.80 27.17 26.81 25.83 25.01 25.74 27.96

GFSMW_sfc_wetblb_108.txt.gz
Wetbulb
52.16 54.51 61.00 62.88 64.03 65.08 65.55 66.40 65.69 66.49 66.78 66.36 65.68 65.24 64.39 64.27 64.69 64.62 64.03 63.77 63.94 63.38 62.22 61.34 61.21 60.95 60.67 59.96 59.70 58.63 58.02 57.24 56.92 55.94 55.84 56.39 55.87 56.12 56.33 56.04 57.12 57.75 58.53
50.54 53.42 58.94 59.96 62.40 63.00 64.31 65.55 66.08 66.69 66.62 66.48 66.26 66.49 65.62 64.77 65.14 65.26 64.69 64.13 63.14 63.27 62.34 61.56 60.56 60.53 60.12 59.75 59.39 59.25 57.83 58.15 57.99 56.10 54.87 53.05 55.01 56.38 56.73 56.97 57.31 57.80 58.30
48.69 50.62 56.11 58.44 59.74 61.24 62.88 64.57 64.83 65.53 65.65 65.96 65.68 65.63 65.74 64.43 64.15 64.58 64.45 65.01 64.94 63.93 63.38 62.48 60.42 59.94 60.32 60.25 60.19 59.98 58.98 57.42 57.69 57.77 55.95 51.41 50.72 53.48 56.18 56.33 56.92 57.45 56.79
48.51 49.47 54.19 55.52 58.19 60.02 60.99 63.66 64.19 65.67 65.83 66.19 65.68 64.67 63.93 63.25 63.46 63.93 63.59 64.21 65.22 65.74 64.95 64.51 63.98 62.01 61.37 61.16 61.12 61.29 60.29 58.91 57.16 57.65 58.36 57.09 56.22 53.30 53.51 55.25 53.73 54.53 55.23
49.81 49.59 53.76 56.12 57.11 59.15 59.65 62.12 63.23 63.80 63.29 63.35 63.50 63.00 62.37 62.25 63.41 63.60 63.62 63.13 63.63 63.97 64.78 64.76 64.40 63.82 63.69 62.71 62.38 62.14 61.15 60.70 59.48 58.46 57.23 56.77 56.38 55.95 54.51 52.95 53.46 51.14 49.59
48.25 50.76 52.13 54.18 55.97 57.16 58.72 60.77 61.79 62.31 62.76 62.44 61.91 61.06 61.55 61.54 61.52 61.60 61.26 61.50 61.99 62.01 63.01 63.68 64.03 64.43 64.29 63.31 63.12 63.10 62.67 61.90 61.29 60.72 59.91 58.32 56.83 55.91 54.95 53.64 53.87 51.80 50.57
45.64 48.32 49.97 52.68 54.59 56.56 57.74 58.99 60.00 60.99 61.02 60.50 60.04 60.34 60.13 59.88 59.27 59.63 60.01 60.44 60.80 60.81 61.21 61.85 61.52 62.12 62.08 62.56 62.47 61.92 61.75 61.56 61.22 60.75 60.24 60.39 59.55 58.87 57.30 55.43 54.83 52.48 50.42
46.65 49.19 50.75 52.53 54.44 56.24 57.30 58.30 58.83 58.47 58.97 58.75 57.93 58.14 58.45 58.67 58.37 58.47 59.02 59.33 59.35 59.71 60.27 60.59 60.51 61.04 61.12 61.05 61.29 61.23 60.75 60.78 60.11 59.99 60.00 59.97 60.11 60.10 59.70 58.17 55.87 51.71 51.29
46.08 47.92 48.81 49.42 51.90 55.82 56.99 58.37 57.91 57.47 57.46 57.26 56.48 56.01 56.50 56.41 56.21 56.03 56.47 56.86 57.10 58.57 59.32 60.05 59.73 60.63 60.61 60.57 60.48 60.15 59.92 60.15 60.14 60.23 60.57 60.38 60.52 60.58 60.19 58.99 56.65 55.45 51.57
44.06 47.35 48.64 48.62 49.82 54.39 54.47 55.77 57.66 57.37 56.43 55.90 55.62 55.38 55.65 55.48 55.79 55.92 56.09 55.99 56.43 57.08 57.99 59.38 59.81 59.67 59.77 60.37 59.99 59.56 59.84 59.54 59.47 59.88 60.12 60.10 59.66 58.39 57.94 57.61 56.58 56.35 56.48
43.55 48.42 48.86 49.27 49.88 49.47 50.77 50.89 51.58 54.12 55.48 56.21 55.63 55.28 54.87 55.36 55.50 55.78 56.14 56.44 56.63 57.16 57.72 58.94 58.58 58.08 58.06 57.56 56.98 55.91 55.99 56.43 55.62 55.22 55.43 55.69 56.06 55.79 56.15 55.48 54.81 54.60 53.25
42.05 47.89 49.74 48.58 47.96 48.29 48.43 49.29 49.15 51.53 53.72 54.19 53.36 53.29 53.18 54.43 54.22 54.53 53.73 53.69 53.67 54.00 54.94 55.15 54.29 53.41 52.47 52.36 52.53 51.97 52.00 52.07 51.47 50.57 50.31 50.17 50.50 51.57 52.38 51.78 52.66 53.01 52.15
41.04 43.08 44.34 46.09 45.76 46.37 47.01 47.81 49.13 50.19 51.72 52.22 51.29 50.60 49.93 50.02 49.91 50.61 49.92 49.97 49.58 49.72 50.94 50.95 50.66 50.10 50.33 49.30 48.87 47.98 48.02 47.48 46.96 46.62 46.87 47.88 49.56 49.33 49.69 49.82 50.36 49.73 48.90
41.17 41.46 42.48 42.97 43.96 45.23 45.86 46.27 46.70 47.63 47.75 47.90 47.66 46.98 46.64 47.21 47.58 47.13 46.99 46.83 46.74 46.61 46.76 47.08 47.06 46.62 46.36 46.85 46.38 45.58 45.07 44.68 44.55 44.73 45.16 46.34 46.62 47.59 47.99 47.72 48.17 47.97 47.49
41.23 41.63 41.85 42.10 43.21 44.00 43.99 44.08 44.34 45.01 45.29 45.15 44.74 44.49 44.66 44.82 44.56 44.35 44.37 44.74 44.66 44.27 44.28 44.25 43.73 43.82 43.77 43.54 42.94 44.26 43.22 42.75 42.23 42.02 42.37 43.34 43.83 45.72 47.52 46.51 46.42 45.75 44.68
41.29 42.17 42.63 43.16 42.66 42.71 43.19 43.55 42.97 43.30 43.93 43.50 43.02 43.09 43.07 42.97 42.54 42.18 42.10 42.23 41.98 41.89 42.26 41.80 41.96 41.12 42.37 44.67 44.88 43.75 40.50 40.66 40.35 39.18 38.43 39.32 41.84 43.35 45.73 46.23 46.01 45.22 42.66
41.91 42.88 42.75 43.03 43.27 43.32 43.31 42.51 42.51 42.78 42.81 42.35 42.04 42.29 42.15 41.79 41.48 41.51 41.42 40.96 40.36 40.39 39.80 39.94 40.40 39.92 39.72 44.12 44.01 41.88 37.73 34.38 33.93 34.98 37.30 39.85 40.61 40.70 41.14 42.76 42.62 42.85 42.82
42.42 43.02 43.25 43.10 43.16 43.05 42.85 42.55 42.44 42.25 42.12 41.79 41.83 41.80 41.72 41.36 41.06 40.77 40.10 39.15 38.67 38.46 37.92 37.94 38.02 37.78 39.29 43.45 42.94 42.05 38.71 38.87 37.71 36.97 37.63 38.29 37.83 37.78 37.33 34.82 33.58 33.71 33.94
43.30 43.26 43.41 43.50 43.10 42.87 42.49 42.18 41.80 41.92 41.67 41.10 40.96 41.31 41.56 40.49 39.95 39.16 38.09 37.48 37.24 36.21 35.87 36.39 36.17 35.81 37.07 42.64 42.14 39.41 36.72 35.73 36.18 36.80 37.11 37.54 37.13 39.43 37.92 33.27 31.79 31.75 32.47
42.21 42.48 43.17 42.76 42.37 41.96 41.90 41.11 40.34 40.37 40.48 40.69 40.87 40.97 40.66 40.11 38.90 38.22 36.93 36.24 36.10 36.30 36.43 36.23 34.74 36.67 35.18 41.28 41.85 38.88 33.90 31.90 32.97 34.29 36.15 38.94 37.43 39.92 38.36 31.69 30.43 29.45 30.54
41.75 41.84 41.58 40.63 40.81 41.47 40.94 40.25 39.72 39.67 40.95 41.40 40.81 40.23 39.85 39.26 38.56 37.51 36.29 36.21 36.02 36.36 36.49 37.28 37.54 33.81 35.57 38.08 42.28 40.87 33.75 32.64 32.01 32.22 33.25 34.71 38.58 39.56 38.58 35.15 30.09 29.82 30.76
41.73 41.61 40.06 39.96 40.67 41.42 41.58 40.36 39.40 40.43 40.58 40.51 39.94 38.88 38.25 39.16 38.16 36.75 35.45 35.39 35.26 34.48 35.69 35.75 35.76 35.78 36.15 38.93 40.26 41.81 40.34 36.60 32.97 32.17 32.65 32.87 37.92 38.64 37.34 34.78 33.43 34.44 32.40
40.64 40.93 39.91 38.90 38.64 39.46 40.72 39.90 39.04 39.73 39.51 38.92 38.17 37.54 37.24 37.40 36.94 35.91 35.35 34.84 35.53 34.80 35.91 35.20 34.66 34.49 34.84 35.72 39.28 41.09 42.09 40.87 34.45 32.69 33.70 35.74 37.04 36.63 34.29 33.93 34.31 34.80 26.45
40.49 39.81 38.54 37.57 37.32 38.04 38.39 38.60 38.98 39.27 38.57 37.12 36.74 36.99 36.76 36.73 36.79 38.76 38.73 37.71 37.01 36.73 35.52 34.29 33.88 34.10 33.89 33.51 34.02 36.20 38.31 39.61 36.04 34.77 33.48 35.06 36.03 35.38 32.58 31.31 30.91 27.57 26.61
39.92 40.08 38.87 37.70 36.95 36.98 38.02 38.19 38.64 39.49 38.30 39.02 38.53 38.90 38.62 39.60 38.34 38.04 37.38 37.81 38.14 37.61 35.42 35.00 34.35 33.55 33.43 34.16 35.73 35.30 34.57 33.37 33.11 31.45 29.48 30.46 29.65 28.68 27.81 26.77 26.48 26.94 27.99
38.27 37.95 37.74 36.91 36.45 36.23 36.59 36.96 38.07 38.42 38.73 38.09 38.30 38.53 38.37 38.20 38.17 37.27 36.97 39.63 39.96 39.90 40.13 40.04 37.06 34.91 37.82 38.88 38.61 38.68 38.23 37.98 37.64 30.36 26.88 28.31 28.64 27.29 26.57 25.72 25.74 25.70 28.13

GFSMW_sfc_wetblb_111.txt.gz
Wetbulb
50.30 51.63 53.77 60.22 63.97 65.44 66.48 67.54 67.28 67.16 66.91 66.18 65.37 64.57 63.47 63.31 62.79 62.61 63.62 64.40 64.97 63.75 63.19 62.80 62.28 61.84 61.10 60.51 59.47 58.40 57.53 56.81 56.54 55.73 55.60 56.12 56.24 55.46 55.10 54.79 55.48 56.41 57.96
48.57 50.00 52.05 59.52 63.37 64.03 65.28 65.76 66.07 66.42 66.65 66.66 66.25 65.66 64.38 63.57 63.73 63.61 62.79 63.94 63.91 63.41 63.12 62.08 62.18 62.00 61.02 59.82 59.42 58.53 57.39 57.64 56.96 55.34 54.34 52.87 53.46 55.72 56.20 55.68 55.80 55.90 57.13
47.69 48.60 49.83 53.26 60.48 63.43 64.48 64.91 65.24 66.18 66.65 66.53 66.02 64.24 63.63 64.19 63.97 63.46 63.47 63.73 63.18 63.17 62.90 62.07 61.97 61.50 61.28 60.26 59.47 59.00 58.37 57.16 57.29 57.12 55.42 50.96 50.32 52.74 55.75 55.81 56.07 56.75 56.67
48.86 49.34 49.50 51.87 57.90 62.36 63.38 64.83 65.25 65.34 65.83 66.14 65.20 63.68 61.82 60.30 63.05 64.38 63.94 64.29 64.08 63.39 63.52 62.69 61.27 60.69 60.85 60.30 60.35 60.24 59.31 58.72 57.50 57.47 58.02 56.52 55.89 52.76 52.88 54.95 53.42 53.23 55.07
49.88 49.88 49.88 53.04 56.26 60.08 62.93 63.06 64.68 64.61 64.99 65.55 64.33 63.38 61.83 62.21 63.69 63.90 63.99 63.89 64.23 64.34 63.79 63.79 63.50 62.43 61.53 61.56 61.68 61.57 60.89 60.42 59.52 58.51 57.32 56.80 56.31 56.55 54.79 52.42 54.18 52.14 50.64
50.08 49.73 51.12 53.95 56.11 58.60 60.54 61.50 63.03 62.90 63.94 64.52 64.30 62.95 62.70 62.93 62.98 63.13 63.61 63.33 63.46 63.04 63.16 63.39 63.51 63.60 63.38 62.26 61.91 62.13 61.87 61.57 61.07 60.39 59.45 57.95 56.27 55.71 54.95 53.75 53.98 53.05 53.36
49.26 49.45 50.49 52.54 55.07 56.60 58.11 60.56 61.68 61.00 62.76 63.16 63.18 63.18 63.01 63.12 62.94 63.08 62.90 61.99 61.70 61.25 62.33 62.85 63.19 63.29 63.34 63.27 63.14 62.56 62.37 62.16 61.82 61.75 60.58 60.51 59.68 58.70 57.11 55.60 54.73 54.13 53.85
48.40 47.47 49.50 53.12 55.26 56.67 57.25 59.31 60.66 59.92 60.78 60.72 60.11 60.89 61.25 61.33 61.02 60.65 60.40 59.81 59.55 60.03 60.89 61.05 61.22 61.40 61.09 60.84 61.26 61.24 60.81 60.15 59.41 59.38 60.00 60.04 60.00 59.81 58.78 57.25 55.61 53.40 52.53
45.81 47.83 49.62 53.04 54.48 55.39 56.95 57.80 58.02 59.10 58.77 58.27 58.05 57.97 58.05 57.92 57.77 57.48 57.29 57.67 57.74 58.39 59.13 59.27 59.20 59.77 59.59 59.33 59.11 59.03 59.19 59.32 58.87 58.83 58.86 59.05 59.14 59.59 59.57 58.91 58.34 56.41 51.92
45.00 47.03 47.87 50.03 52.90 54.91 54.90 55.53 55.91 57.39 56.54 56.40 56.52 56.13 56.23 56.27 56.12 56.03 55.88 56.18 56.33 56.85 57.34 58.03 58.34 58.07 58.10 58.83 58.51 57.92 58.28 58.51 58.24 58.38 58.50 58.51 58.77 58.47 58.33 58.19 58.20 57.35 55.90
43.85 47.46 47.60 48.33 50.83 52.11 53.43 54.32 54.94 54.72 54.58 54.27 54.19 54.37 54.49 54.93 54.90 54.64 54.69 55.03 56.00 57.31 56.30 58.12 58.13 57.32 57.00 58.30 57.55 57.42 56.42 56.50 55.62 55.06 54.47 54.17 54.20 53.79 54.44 55.06 55.13 54.88 54.64
42.85 46.75 47.31 47.45 47.57 49.45 50.59 51.30 51.41 53.36 53.70 53.83 53.73 53.74 53.89 54.12 53.69 53.44 53.09 53.70 54.06 54.61 55.07 56.30 56.50 55.36 53.95 52.45 52.22 51.41 51.59 51.89 51.15 50.61 51.36 49.32 49.55 49.95 50.63 50.89 51.65 52.36 52.67
40.64 45.12 46.69 47.59 47.47 47.82 48.54 48.68 49.16 50.94 52.31 53.00 52.73 51.81 51.85 52.51 51.44 51.19 51.85 51.08 51.22 49.97 50.19 50.57 50.15 49.48 49.72 49.37 49.65 49.61 48.95 48.73 46.30 45.41 45.39 45.38 46.01 47.43 48.07 48.77 49.32 50.08 49.72
41.40 42.10 44.57 45.24 45.82 46.52 46.66 46.94 47.80 49.02 49.55 50.17 49.96 49.00 47.99 47.97 48.70 49.24 48.40 47.20 47.21 46.93 46.56 46.95 46.63 46.27 46.02 46.09 45.52 45.02 44.13 44.77 43.66 43.73 43.61 43.96 43.90 43.60 45.10 46.75 47.54 47.96 47.91
40.48 41.40 41.76 42.99 43.97 44.67 44.49 44.99 45.44 46.15 46.72 46.90 46.39 45.72 45.38 45.31 44.95 44.85 44.64 44.58 44.46 44.07 44.30 43.62 43.22 42.61 42.52 42.98 41.57 42.10 41.85 41.19 41.09 40.91 41.03 41.19 42.31 44.63 46.01 46.12 45.72 46.12 45.43
40.85 41.48 42.18 43.49 42.72 43.68 43.17 43.52 43.50 44.05 44.84 44.50 43.93 43.91 43.66 43.38 42.95 42.58 42.51 42.23 41.69 41.47 41.65 41.02 40.85 40.20 42.38 45.41 45.39 41.34 38.29 37.88 37.78 37.44 37.49 38.64 40.77 41.11 44.86 45.94 46.17 45.92 43.33
40.81 41.78 42.08 42.66 43.18 43.36 43.12 42.57 42.41 42.64 42.65 42.53 42.28 42.50 42.28 41.86 41.45 41.38 41.20 40.42 39.62 39.66 39.15 39.11 39.51 38.77 39.50 44.78 44.28 41.72 37.76 35.85 35.71 37.38 36.21 37.92 39.48 39.70 39.30 40.27 40.12 39.88 41.11
41.42 41.74 41.53 41.87 42.25 42.37 42.35 41.88 41.90 41.93 41.80 41.30 41.28 41.52 41.54 41.06 40.52 40.38 39.82 38.80 37.99 37.95 37.54 37.33 37.41 37.50 39.36 43.67 43.19 42.31 38.33 38.89 38.76 38.27 37.83 37.75 36.99 36.99 37.89 35.70 34.55 34.38 35.59
41.16 41.58 42.13 42.24 41.85 42.12 41.57 41.29 40.91 41.13 40.97 40.51 40.60 41.03 41.10 40.08 39.63 38.79 37.63 36.97 37.28 36.37 35.66 36.02 35.83 35.43 36.15 42.39 42.25 40.15 36.33 34.25 34.77 36.03 36.85 37.42 37.35 39.02 39.26 34.16 32.70 32.48 32.96
41.06 42.16 41.75 41.74 41.34 40.95 41.18 40.85 40.23 40.29 40.35 40.60 40.65 40.70 40.34 39.59 38.71 38.18 37.08 36.31 35.86 36.20 36.05 35.58 34.35 36.73 34.52 40.01 41.86 40.04 34.93 32.12 32.30 32.60 34.30 39.04 37.91 39.38 39.70 32.75 31.07 30.45 31.26
40.96 41.01 40.74 40.37 40.43 41.19 41.02 40.53 40.06 40.03 41.18 41.38 40.83 39.77 39.59 39.28 38.76 37.72 36.39 36.12 35.66 35.49 34.44 36.32 38.01 36.91 34.13 35.01 41.07 42.46 36.18 34.55 33.37 31.00 31.40 33.82 38.45 39.38 40.10 36.77 30.47 30.33 31.45
40.77 40.83 39.85 39.24 39.80 40.81 40.65 39.72 39.08 39.93 40.34 40.23 39.59 38.98 38.65 39.32 38.21 36.97 35.55 35.29 34.90 34.11 37.41 36.82 36.00 34.83 34.24 38.67 40.05 41.70 42.09 38.25 33.59 32.82 33.27 33.57 36.91 38.86 39.00 36.72 35.63 35.12 33.71
39.36 39.94 38.98 38.56 38.44 39.31 40.68 39.75 39.44 39.82 39.37 38.95 38.22 37.49 37.24 37.40 36.84 35.62 34.91 34.33 34.26 33.67 33.05 34.71 34.89 32.57 34.28 35.96 39.35 40.88 41.76 42.31 36.85 33.46 34.26 36.63 36.71 38.03 36.41 36.01 34.44 35.07 29.12
40.30 39.81 38.96 37.94 37.47 38.06 38.49 38.82 38.60 38.57 38.04 37.33 36.98 36.86 36.68 36.17 36.08 37.13 36.49 35.14 34.41 34.06 35.38 34.44 33.81 34.74 34.29 34.67 34.64 35.68 37.16 39.92 39.33 36.44 34.17 35.04 35.65 36.46 33.71 32.57 30.92 28.92 27.64
39.33 39.15 38.12 37.25 36.77 36.51 37.48 37.83 38.44 38.53 37.49 36.95 36.73 36.82 36.98 37.65 36.39 37.67 38.43 38.48 37.49 36.96 34.04 33.52 32.46 31.62 31.19 32.70 36.28 36.02 34.49 35.14 35.73 33.63 30.57 30.35 30.43 29.18 28.99 27.88 26.68 26.72 26.83
39.15 37.88 37.03 36.00 35.53 35.45 35.77 36.71 37.98 38.20 37.45 37.21 38.43 38.68 38.47 38.02 37.28 37.50 37.55 40.31 40.41 40.44 40.49 40.30 37.58 33.81 37.82 39.40 39.50 39.38 39.46 39.67 39.02 33.70 28.71 28.66 28.40 27.68 27.88 26.93 26.08 25.28 27.46

GFSMW_sfc_wetblb_114.txt.gz
Wetbulb
50.00 52.52 52.96 56.15 61.75 64.27 63.06 66.75 66.98 67.03 66.35 65.34 64.20 63.45 62.56 62.37 62.74 63.79 64.88 63.97 63.86 62.77 61.79 61.21 60.20 60.44 59.15 58.72 59.08 58.06 57.48 56.72 56.34 55.88 55.79 55.85 56.19 55.23 54.53 54.17 55.38 56.19 57.71
49.19 50.70 50.88 54.62 61.93 61.72 64.33 64.63 65.95 66.89 66.48 66.15 65.44 64.66 63.99 63.00 62.58 62.27 63.62 64.86 64.32 63.27 62.79 62.11 61.53 61.45 60.89 59.69 58.87 58.40 56.87 57.26 56.68 55.20 53.79 53.02 53.78 54.78 55.76 54.81 54.47 54.46 56.11
48.06 49.76 49.28 50.94 56.01 61.81 63.28 64.53 63.61 66.90 66.72 66.58 65.91 64.33 63.93 63.50 62.43 61.52 61.34 62.59 64.11 63.70 63.53 62.82 62.59 61.88 61.67 60.36 59.50 59.18 58.23 56.99 56.69 56.81 55.73 51.20 50.62 52.76 55.30 54.84 55.32 55.29 55.17
49.13 49.67 49.19 49.57 52.90 59.75 63.10 64.47 65.01 66.02 66.51 66.61 65.32 63.68 62.96 62.25 63.02 62.82 62.80 62.55 62.77 62.40 62.53 62.04 61.68 61.64 61.38 60.73 60.24 60.05 59.04 59.09 57.46 57.17 57.96 56.79 55.96 54.35 53.04 55.14 53.81 54.54 56.01
49.11 48.99 48.88 50.17 53.81 59.57 61.55 62.91 63.43 64.81 65.79 65.34 65.11 63.00 61.56 62.34 63.33 62.78 62.57 62.55 63.07 62.99 62.97 62.55 61.64 61.26 61.82 60.90 61.25 60.76 60.16 60.13 58.56 58.40 57.31 57.22 56.54 56.58 55.00 53.28 54.62 53.32 51.83
48.05 49.46 48.92 49.81 54.26 58.88 59.39 59.63 61.80 63.45 64.50 64.03 62.87 60.47 58.96 59.43 61.60 62.46 62.70 62.68 63.06 63.20 62.87 62.86 62.82 62.92 62.22 61.56 61.42 61.16 60.94 60.54 59.62 58.99 58.82 57.66 56.39 55.86 55.27 54.22 54.34 54.38 54.17
47.45 49.33 47.40 48.39 53.96 58.11 58.22 57.85 60.20 58.90 62.48 63.15 61.86 61.05 60.26 60.20 61.62 62.06 62.01 62.08 61.98 61.96 62.66 63.00 63.13 63.30 63.49 62.73 62.13 61.18 61.10 61.34 61.32 61.11 60.88 61.00 60.06 58.75 57.23 55.87 54.73 54.62 55.14
47.54 49.61 48.36 47.98 54.45 56.44 59.12 59.19 59.56 59.11 60.42 61.66 62.50 61.65 61.47 61.54 62.12 61.59 62.01 62.96 62.82 63.20 63.57 63.07 63.52 63.20 62.61 62.54 62.33 61.51 61.02 60.35 59.67 59.27 59.48 59.47 59.54 59.75 58.92 57.51 55.83 52.94 52.89
48.26 47.31 48.50 48.87 54.89 56.32 58.19 60.04 60.19 60.14 60.82 60.94 61.14 61.86 62.43 62.48 61.67 62.03 61.99 61.66 60.26 60.07 61.27 61.32 61.13 60.96 60.11 59.79 59.83 58.28 57.64 57.75 57.55 58.25 58.27 58.47 58.68 58.77 58.92 58.28 57.78 55.54 51.96
46.81 47.27 48.34 49.80 54.36 56.53 57.49 57.57 58.50 58.44 58.79 58.40 58.96 58.90 58.99 58.83 58.58 58.37 57.82 57.52 57.28 57.88 58.25 58.39 58.45 58.36 58.09 58.35 57.85 56.85 56.86 56.90 57.53 57.70 57.56 57.78 57.46 57.20 57.35 57.30 57.47 57.00 55.73
45.54 46.33 47.87 49.81 53.28 54.26 55.65 55.58 55.81 55.74 55.42 55.67 55.98 56.86 56.79 56.20 55.90 55.85 55.61 55.80 55.86 56.05 55.64 56.18 56.48 56.53 56.33 56.89 56.98 56.74 57.26 56.85 55.57 53.86 52.72 52.01 51.63 51.62 51.81 51.92 52.35 53.35 53.98
43.89 46.18 47.27 47.12 50.24 51.54 53.09 53.65 53.47 53.47 53.11 53.20 54.17 54.39 54.84 54.62 54.55 54.15 54.04 54.72 54.15 54.10 54.72 55.67 56.05 56.06 54.48 54.74 55.18 53.25 51.66 51.74 51.50 50.25 49.54 48.06 48.42 48.41 47.96 48.43 48.60 50.48 51.38
41.21 44.98 46.07 46.79 48.64 50.24 50.29 50.09 51.54 52.00 52.25 52.79 52.60 52.54 52.71 52.81 52.24 52.18 52.14 52.49 51.92 51.38 51.93 51.66 50.38 50.07 50.77 50.53 50.31 50.31 49.47 48.32 46.90 45.12 44.91 44.33 44.26 43.71 45.07 46.30 46.28 47.47 48.98
41.32 42.36 44.88 44.92 45.91 46.76 47.51 47.81 48.44 50.36 51.00 51.37 50.84 49.98 49.62 49.69 49.45 49.09 48.90 48.63 48.58 47.92 47.67 47.36 46.90 46.83 46.86 46.35 45.57 44.69 43.74 43.32 42.90 42.55 42.46 42.02 41.60 41.28 41.25 42.64 43.00 44.96 46.71
41.34 41.80 42.61 43.35 43.86 44.80 44.48 45.07 45.91 47.10 48.00 48.67 48.34 47.42 46.72 46.22 45.88 45.50 45.07 45.25 45.15 44.74 44.33 43.73 42.75 42.34 42.69 42.68 41.96 42.15 41.07 40.48 39.90 39.52 39.59 39.45 41.28 43.55 44.05 43.26 41.53 43.01 44.58
41.06 42.00 41.94 43.54 43.92 43.28 42.86 43.84 44.02 44.50 45.93 45.63 44.60 44.71 45.01 43.93 43.28 43.32 42.55 42.31 41.77 41.75 41.74 40.96 40.60 40.68 42.90 46.01 44.56 40.70 39.29 39.57 39.34 38.38 37.20 37.43 39.92 40.74 43.50 44.45 44.62 44.51 42.70
40.65 41.50 42.10 42.62 42.92 43.44 43.69 42.79 42.22 42.67 42.94 42.64 42.56 42.88 42.60 42.11 41.65 41.51 41.14 40.28 39.55 39.27 38.85 38.87 39.02 38.59 40.40 45.11 43.40 41.18 37.81 35.83 36.82 37.91 35.47 37.16 38.37 37.86 36.99 38.95 39.54 38.55 40.16
40.39 40.90 41.22 41.86 42.07 41.96 42.10 41.70 42.11 41.80 41.38 40.78 40.92 41.21 41.33 41.42 40.92 40.13 39.17 38.15 37.64 37.60 37.28 37.17 37.23 37.25 40.25 44.19 43.35 41.33 37.92 38.81 38.22 37.40 36.33 36.03 35.69 36.23 36.85 34.23 32.68 32.63 35.19
40.26 40.34 41.09 41.30 41.28 41.66 41.24 41.01 40.50 40.45 40.64 40.09 39.94 40.35 40.43 39.21 38.89 38.13 37.20 36.70 36.74 35.88 35.54 35.90 35.63 35.43 36.00 42.99 42.55 38.79 34.34 33.67 33.43 34.62 34.75 35.24 35.14 39.05 39.94 33.42 31.10 30.95 31.97
39.96 40.43 40.45 40.59 40.48 39.78 40.61 40.65 39.72 39.83 39.53 39.72 40.06 40.07 39.62 38.96 38.01 37.22 36.12 35.38 35.72 35.75 36.01 34.83 34.03 38.51 34.22 40.23 42.14 40.47 34.50 31.68 32.33 34.16 34.73 38.71 37.09 39.68 40.57 34.07 31.34 29.84 30.75
39.99 39.84 39.64 38.89 39.06 39.70 40.31 39.50 38.92 39.09 40.08 40.46 39.89 39.25 39.04 38.76 38.28 36.91 36.25 36.07 35.65 35.45 34.77 35.35 36.13 37.33 34.65 34.97 41.14 42.17 35.77 35.43 34.38 33.71 33.60 34.19 38.74 39.96 40.61 38.11 31.51 30.77 30.82
39.53 39.79 38.56 37.98 38.61 39.98 40.11 38.92 37.91 38.93 39.56 39.73 39.15 38.38 37.82 38.72 37.74 36.27 34.92 35.25 35.35 34.80 36.24 37.20 36.44 36.96 33.90 38.70 40.11 41.46 42.59 39.73 34.79 33.66 33.90 34.09 37.28 38.36 39.60 38.27 37.17 36.07 34.23
38.69 38.89 37.92 37.48 37.19 38.12 39.44 38.99 37.87 38.76 38.60 38.23 37.51 37.13 36.71 36.79 36.43 35.64 34.62 34.59 34.60 34.02 33.09 34.70 35.00 34.76 33.61 34.42 39.72 41.08 41.88 42.14 38.23 35.14 35.39 37.13 37.31 37.74 37.91 38.11 35.71 34.96 29.09
39.20 39.07 38.56 37.74 36.92 37.40 37.89 37.53 37.57 37.72 37.77 37.04 36.64 36.64 36.29 35.88 35.75 36.63 36.10 35.06 34.20 34.03 33.72 33.67 32.87 34.18 34.81 35.38 35.62 34.85 36.13 40.16 39.66 39.14 36.16 35.73 36.08 36.58 35.15 33.52 31.32 28.46 27.41
37.73 37.79 37.89 37.51 36.87 37.14 37.62 37.91 38.23 38.45 37.08 36.58 36.09 36.06 36.53 37.54 36.51 36.90 36.82 36.06 37.21 37.89 36.23 34.01 33.33 33.02 33.25 32.43 35.64 34.79 32.83 34.46 36.17 35.34 31.42 30.80 31.01 31.20 30.85 28.89 27.33 26.17 26.28
39.37 38.37 37.46 35.33 34.84 34.61 34.75 35.59 36.90 37.23 36.51 36.45 36.82 37.13 37.02 36.80 36.93 37.18 37.31 40.42 40.54 40.82 40.95 40.24 37.04 34.96 37.70 38.87 39.74 39.85 39.87 39.76 40.15 34.95 30.45 30.13 30.05 29.59 29.49 28.40 26.95 25.29 26.60

GFSMW_sfc_wetblb_117.txt.gz
Wetbulb
49.07 50.70 52.40 54.63 55.46 59.01 56.47 65.12 66.61 66.70 65.49 64.81 63.80 63.65 62.41 63.27 63.88 64.33 64.34 64.69 64.70 64.03 63.58 62.89 62.73 62.81 62.02 61.79 61.98 61.44 60.92 60.53 60.70 60.41 61.05 61.20 61.62 61.04 60.78 60.22 60.47 60.96 62.19
47.81 49.95 51.93 53.16 54.60 57.90 60.31 64.65 66.19 66.03 65.33 65.15 64.80 65.17 64.24 64.32 64.04 64.87 64.20 64.48 64.51 64.01 63.37 62.57 61.99 62.07 61.44 60.57 61.09 61.51 60.73 60.93 60.45 60.45 59.55 58.83 59.61 59.17 60.16 60.16 59.11 59.73 61.11
47.16 49.41 50.82 52.05 52.83 59.59 61.90 63.70 64.94 65.74 66.00 65.82 65.53 65.44 64.71 63.53 62.96 63.51 64.38 64.68 64.65 64.24 63.98 63.44 62.50 61.68 61.79 60.46 60.58 61.66 61.72 61.40 60.62 60.96 60.95 56.65 54.94 57.05 59.71 59.37 59.38 58.75 59.42
49.12 49.84 50.26 50.68 52.68 60.59 61.30 62.35 62.53 63.87 66.24 65.92 64.85 63.73 62.94 61.89 63.60 63.27 64.26 64.93 65.43 64.81 64.79 64.32 63.96 63.21 63.16 63.20 63.14 62.74 62.14 61.88 60.66 59.43 59.70 59.58 58.86 57.79 56.57 58.11 57.63 58.08 57.42
49.58 49.33 50.21 51.22 56.32 61.80 61.98 61.11 61.67 63.91 64.98 65.79 65.07 64.00 63.36 63.68 64.92 63.59 63.02 63.65 64.36 64.74 64.50 63.86 63.84 63.27 63.49 63.73 63.49 62.30 61.49 61.92 61.43 60.74 60.22 60.14 59.83 59.62 56.80 56.92 55.70 57.14 54.42
48.70 49.88 50.93 51.49 58.80 61.27 62.65 62.35 60.58 60.59 62.94 62.33 63.47 62.95 60.27 62.55 62.50 62.99 62.45 62.78 63.44 63.73 63.75 63.21 62.92 62.76 63.19 63.05 62.15 62.75 62.64 61.96 61.73 61.85 61.28 59.91 58.05 57.44 56.77 55.20 55.71 55.81 55.72
48.89 49.19 49.07 53.91 57.45 57.93 59.27 58.27 58.48 60.00 62.41 62.77 61.47 60.08 59.06 59.45 61.38 62.67 62.60 62.31 62.23 62.26 62.76 63.37 63.48 63.05 63.30 62.86 62.15 62.02 62.11 62.47 62.78 62.00 61.48 60.88 60.12 59.96 57.48 56.61 55.44 55.17 55.60
48.63 49.91 48.99 53.73 57.03 57.20 57.65 57.46 57.81 59.31 61.28 61.04 60.64 59.85 60.17 59.88 60.36 61.72 61.91 61.73 61.84 62.33 63.01 63.03 63.26 63.13 63.19 63.45 63.27 62.90 62.55 61.66 60.54 59.77 59.77 59.55 59.33 59.58 58.76 57.10 55.75 53.20 53.73
48.98 49.40 48.68 52.77 57.29 58.05 58.10 57.60 57.63 58.15 59.29 60.53 60.77 60.49 60.56 60.44 61.33 61.29 61.58 61.95 62.35 61.89 63.02 63.65 63.22 63.50 63.12 62.85 62.23 61.09 61.46 61.26 60.70 60.52 60.54 60.22 60.36 58.94 59.61 59.85 57.87 56.00 52.24
48.49 48.21 49.77 52.81 56.67 58.06 59.47 59.79 59.18 58.55 59.54 60.16 60.77 61.09 61.06 61.74 61.30 61.89 60.73 59.76 60.63 61.23 61.80 62.06 62.12 60.80 60.60 60.70 60.62 60.12 59.88 59.71 59.86 59.56 59.02 57.88 55.68 55.45 55.65 55.20 55.91 56.35 55.57
46.07 47.84 49.18 53.86 55.96 57.31 58.35 58.56 58.82 58.63 58.92 59.15 58.76 58.56 58.79 59.15 59.56 60.03 59.36 59.03 59.11 60.03 59.79 60.01 60.11 59.65 59.29 59.42 59.07 58.54 58.72 57.81 56.81 55.62 54.55 52.62 53.02 52.79 52.83 52.91 52.87 53.11 53.51
43.79 47.94 49.11 52.36 54.56 55.03 55.30 55.88 56.17 56.45 57.06 57.29 57.27 56.74 57.03 57.25 57.11 56.54 56.69 56.98 56.71 56.99 57.34 57.63 57.87 58.03 58.16 58.70 58.60 55.62 55.56 55.08 53.00 51.00 50.24 48.98 49.68 49.81 49.95 50.24 49.94 50.97 52.55
42.78 46.72 48.30 50.24 52.54 53.41 53.57 53.80 54.55 55.00 55.22 55.38 55.27 55.31 55.28 55.52 55.18 54.63 54.93 55.33 54.49 54.64 55.77 56.42 56.04 54.84 54.13 54.36 54.73 54.06 51.69 50.43 49.38 48.18 48.57 47.66 47.68 47.34 47.81 48.09 47.66 47.98 48.90
42.42 44.02 45.76 47.24 49.20 50.47 50.74 52.17 53.17 53.98 53.81 53.67 53.72 53.33 53.56 53.74 53.07 52.50 52.36 52.58 52.70 51.86 51.58 51.29 50.79 50.69 50.37 49.80 49.21 48.30 47.89 47.10 46.54 46.23 45.88 45.48 45.34 45.27 45.76 46.25 46.48 47.21 47.32
42.53 42.61 43.93 45.38 46.60 47.20 48.13 48.82 50.31 52.00 52.50 51.64 51.51 50.25 50.88 50.80 49.65 48.97 48.90 48.66 49.22 48.55 47.79 46.72 46.13 46.19 46.69 45.93 46.24 45.79 45.52 44.99 44.03 43.30 43.00 43.27 43.46 44.11 45.46 45.44 45.34 44.36 43.69
41.82 42.90 43.39 44.93 44.88 45.50 46.36 46.62 47.82 48.71 50.45 50.22 48.85 47.94 47.83 47.50 46.90 46.41 45.58 46.21 45.46 45.48 45.07 44.22 44.10 44.46 44.82 45.30 44.95 43.57 42.77 42.21 41.99 41.37 40.72 41.71 41.64 42.50 44.38 43.49 43.27 43.42 43.32
41.21 41.79 42.47 43.25 44.24 44.81 45.23 44.92 45.09 46.09 46.43 45.93 45.35 45.42 45.48 45.07 44.80 44.58 44.13 43.62 43.66 43.62 42.88 42.83 43.38 43.85 44.18 44.14 43.74 42.73 40.35 37.54 38.57 40.63 39.97 40.58 40.34 40.23 40.36 40.32 39.45 39.42 40.36
40.82 41.40 42.35 42.85 43.03 43.47 43.45 43.80 44.11 43.90 43.76 43.75 43.73 43.84 43.82 43.34 43.32 42.71 42.39 41.68 41.97 41.96 41.65 41.28 41.48 42.61 43.82 44.31 42.87 41.59 41.13 40.94 40.85 40.56 40.24 40.32 39.89 39.89 39.57 38.49 37.69 36.81 37.64
40.80 41.10 41.82 42.28 42.36 42.52 42.82 42.78 42.56 42.53 42.51 42.21 42.49 42.65 42.61 41.75 41.60 41.18 40.85 40.35 40.38 39.81 39.48 39.62 39.67 41.11 42.85 43.85 42.83 40.04 38.75 37.82 38.00 38.33 38.78 39.22 39.35 39.89 40.82 37.86 36.43 35.74 36.06
40.62 40.90 41.22 41.31 41.47 41.27 42.45 42.14 41.53 41.94 41.72 41.62 41.77 41.88 41.78 41.20 40.68 40.10 39.26 38.95 39.56 38.76 38.78 37.72 38.38 39.39 39.63 43.19 42.92 40.57 37.88 37.35 37.27 37.41 37.85 38.71 39.58 39.83 41.17 38.18 35.63 34.18 33.88
40.48 40.50 40.27 39.77 40.13 41.09 41.93 40.93 41.00 41.18 41.84 41.99 41.50 40.98 40.91 40.60 40.28 39.49 39.20 38.96 38.72 38.43 38.12 38.04 38.76 39.36 38.27 39.00 42.68 42.53 39.03 38.09 37.11 36.88 36.79 36.67 38.82 40.24 40.81 40.47 34.92 34.09 33.40
39.66 40.07 39.16 38.67 39.32 40.70 41.29 40.21 39.68 40.28 41.18 41.20 40.64 40.43 40.38 40.34 39.36 39.30 38.39 38.42 38.23 37.91 37.87 38.84 38.54 38.96 38.63 39.17 40.61 42.34 41.62 40.31 37.50 36.69 36.66 37.03 38.07 38.68 39.56 40.23 38.11 37.65 35.25
38.94 39.14 38.49 38.33 38.24 39.04 39.96 39.76 38.82 40.27 39.99 39.87 39.44 39.25 39.01 39.15 38.82 38.70 37.98 37.64 37.81 37.82 37.63 37.11 37.06 37.54 36.87 37.67 40.70 41.66 42.46 42.89 39.29 38.07 37.43 37.54 37.83 38.33 38.85 40.05 38.81 36.33 33.67
39.76 39.69 38.95 37.91 37.39 37.90 38.05 38.12 38.51 39.05 39.25 38.55 38.21 38.11 38.21 38.20 38.16 38.39 38.13 38.09 37.32 37.14 36.38 35.34 35.87 36.68 36.59 37.04 38.03 38.65 39.76 41.54 41.52 40.85 38.82 38.04 37.21 37.35 36.36 36.44 34.01 31.92 31.92
38.74 38.14 37.73 37.90 37.27 37.70 37.97 38.07 38.37 39.00 38.21 37.99 37.91 38.17 38.40 38.71 37.91 38.15 38.26 37.97 38.52 38.66 37.44 37.22 36.92 35.96 35.77 36.36 37.96 37.18 35.80 36.79 37.40 37.56 33.82 32.55 32.26 32.64 33.11 32.50 31.12 30.58 30.53
39.59 38.89 38.27 37.36 36.58 36.22 35.76 36.22 37.27 38.26 37.91 37.83 38.02 38.23 38.18 38.05 37.88 37.69 38.21 40.80 40.84 41.23 41.13 40.12 38.40 36.42 38.47 39.14 39.82 39.94 40.04 40.02 39.88 36.09 32.81 32.72 32.08 31.69 31.55 30.97 30.63 29.75 30.45